<?xml version='1.0' encoding='UTF-8'?><gpx version="1.1" creator="JPX - https://github.com/jenetics/jpx" xmlns="http://www.topografix.com/GPX/1/1"><trk><trkseg><trkpt lat="42.997627487819955" lon="11.154571444678888"><ele>244.0</ele><time>2026-04-03T14:05:02Z</time></trkpt><trkpt lat="42.99764768679533" lon="11.154401313908181"><ele>243.99999999999997</ele><time>2026-04-03T14:05:04Z</time></trkpt><trkpt lat="42.99763887399842" lon="11.154313083954591"><ele>243.99999999999997</ele><time>2026-04-03T14:05:05Z</time></trkpt><trkpt lat="42.99761951964591" lon="11.15413725818004"><ele>244.0</ele><time>2026-04-03T14:05:07Z</time></trkpt><trkpt lat="42.997610533454534" lon="11.154022549207069"><ele>244.0</ele><time>2026-04-03T14:05:08Z</time></trkpt><trkpt lat="42.99759869806575" lon="11.153905319406793"><ele>243.79999999999998</ele><time>2026-04-03T14:05:09Z</time></trkpt><trkpt lat="42.99758996408967" lon="11.15379351153956"><ele>243.59999999999997</ele><time>2026-04-03T14:05:10Z</time></trkpt><trkpt lat="42.997580553424356" lon="11.153673927401801"><ele>243.4</ele><time>2026-04-03T14:05:11Z</time></trkpt><trkpt lat="42.9975686653452" lon="11.1535395536895"><ele>243.2</ele><time>2026-04-03T14:05:12Z</time></trkpt><trkpt lat="42.997557099943236" lon="11.153394590867846"><ele>243.0</ele><time>2026-04-03T14:05:13Z</time></trkpt><trkpt lat="42.997543562006044" lon="11.15324336029216"><ele>242.2</ele><time>2026-04-03T14:05:14Z</time></trkpt><trkpt lat="42.997521286768254" lon="11.153107296279302"><ele>241.4</ele><time>2026-04-03T14:05:15Z</time></trkpt><trkpt lat="42.99749402477384" lon="11.152965648282082"><ele>240.59999999999997</ele><time>2026-04-03T14:05:16Z</time></trkpt><trkpt lat="42.99746187311366" lon="11.152821574124218"><ele>239.79999999999998</ele><time>2026-04-03T14:05:17Z</time></trkpt><trkpt lat="42.99742476255316" lon="11.152671444846735"><ele>239.0</ele><time>2026-04-03T14:05:18Z</time></trkpt><trkpt lat="42.99738352932708" lon="11.152521087939277"><ele>240.25</ele><time>2026-04-03T14:05:19Z</time></trkpt><trkpt lat="42.997337645320556" lon="11.152365152880549"><ele>241.5</ele><time>2026-04-03T14:05:20Z</time></trkpt><trkpt lat="42.99728641945476" lon="11.152217168767583"><ele>242.75</ele><time>2026-04-03T14:05:21Z</time></trkpt><trkpt lat="42.99722873502734" lon="11.15206499517288"><ele>244.0</ele><time>2026-04-03T14:05:22Z</time></trkpt><trkpt lat="42.997174149116866" lon="11.151914110626274"><ele>244.0</ele><time>2026-04-03T14:05:23Z</time></trkpt><trkpt lat="42.99711951392811" lon="11.15175343698462"><ele>244.0</ele><time>2026-04-03T14:05:24Z</time></trkpt><trkpt lat="42.9970629194237" lon="11.151595663637913"><ele>244.0</ele><time>2026-04-03T14:05:25Z</time></trkpt><trkpt lat="42.997002309995075" lon="11.15143404660299"><ele>244.0</ele><time>2026-04-03T14:05:26Z</time></trkpt><trkpt lat="42.996945726237996" lon="11.151270520901514"><ele>242.0</ele><time>2026-04-03T14:05:27Z</time></trkpt><trkpt lat="42.99689757626443" lon="11.15109853193814"><ele>240.0</ele><time>2026-04-03T14:05:28Z</time></trkpt><trkpt lat="42.99685950095036" lon="11.150921735221383"><ele>238.0</ele><time>2026-04-03T14:05:29Z</time></trkpt><trkpt lat="42.99683406232218" lon="11.150744286483501"><ele>236.0</ele><time>2026-04-03T14:05:30Z</time></trkpt><trkpt lat="42.99681613237531" lon="11.15057110456977"><ele>234.75</ele><time>2026-04-03T14:05:31Z</time></trkpt><trkpt lat="42.99680720591808" lon="11.15038912253205"><ele>233.5</ele><time>2026-04-03T14:05:32Z</time></trkpt><trkpt lat="42.99680608606203" lon="11.15020681280898"><ele>232.25</ele><time>2026-04-03T14:05:33Z</time></trkpt><trkpt lat="42.99680230779419" lon="11.15001560116927"><ele>231.0</ele><time>2026-04-03T14:05:34Z</time></trkpt><trkpt lat="42.996799120880944" lon="11.149838480193088"><ele>231.0</ele><time>2026-04-03T14:05:35Z</time></trkpt><trkpt lat="42.99679860798084" lon="11.149655727042123"><ele>231.0</ele><time>2026-04-03T14:05:36Z</time></trkpt><trkpt lat="42.99679568224944" lon="11.149475117761899"><ele>231.0</ele><time>2026-04-03T14:05:37Z</time></trkpt><trkpt lat="42.99679303497824" lon="11.149295708698064"><ele>231.0</ele><time>2026-04-03T14:05:38Z</time></trkpt><trkpt lat="42.99679313545247" lon="11.149115135142686"><ele>231.0</ele><time>2026-04-03T14:05:39Z</time></trkpt><trkpt lat="42.99679278859402" lon="11.148935172687741"><ele>231.0</ele><time>2026-04-03T14:05:40Z</time></trkpt><trkpt lat="42.9967873010301" lon="11.148749465254875"><ele>231.0</ele><time>2026-04-03T14:05:41Z</time></trkpt><trkpt lat="42.99678049062255" lon="11.148565774590354"><ele>231.0</ele><time>2026-04-03T14:05:42Z</time></trkpt><trkpt lat="42.99676376552795" lon="11.148383488102203"><ele>231.5</ele><time>2026-04-03T14:05:43Z</time></trkpt><trkpt lat="42.99673049872858" lon="11.148204481471625"><ele>232.0</ele><time>2026-04-03T14:05:44Z</time></trkpt><trkpt lat="42.996681711810425" lon="11.148030055247926"><ele>232.5</ele><time>2026-04-03T14:05:45Z</time></trkpt><trkpt lat="42.99661452911898" lon="11.147861405264965"><ele>233.0</ele><time>2026-04-03T14:05:46Z</time></trkpt><trkpt lat="42.99653309176202" lon="11.147707436494878"><ele>233.0</ele><time>2026-04-03T14:05:47Z</time></trkpt><trkpt lat="42.99643201022089" lon="11.147571360304342"><ele>233.0</ele><time>2026-04-03T14:05:48Z</time></trkpt><trkpt lat="42.996326144311716" lon="11.147447498564226"><ele>233.0</ele><time>2026-04-03T14:05:49Z</time></trkpt><trkpt lat="42.996216044397706" lon="11.14734176761086"><ele>233.0</ele><time>2026-04-03T14:05:50Z</time></trkpt><trkpt lat="42.99608108844995" lon="11.147248267674673"><ele>232.75</ele><time>2026-04-03T14:05:51Z</time></trkpt><trkpt lat="42.995947791599285" lon="11.147178918488805"><ele>232.5</ele><time>2026-04-03T14:05:52Z</time></trkpt><trkpt lat="42.99581082541611" lon="11.14713352964422"><ele>232.25</ele><time>2026-04-03T14:05:53Z</time></trkpt><trkpt lat="42.9956667288029" lon="11.147089819415227"><ele>232.0</ele><time>2026-04-03T14:05:54Z</time></trkpt><trkpt lat="42.995526706713086" lon="11.1470431757154"><ele>231.0</ele><time>2026-04-03T14:05:55Z</time></trkpt><trkpt lat="42.99538604790781" lon="11.1469954095883"><ele>230.0</ele><time>2026-04-03T14:05:56Z</time></trkpt><trkpt lat="42.99524628677122" lon="11.146953394139953"><ele>229.0</ele><time>2026-04-03T14:05:57Z</time></trkpt><trkpt lat="42.995107852465644" lon="11.146927370190793"><ele>228.0</ele><time>2026-04-03T14:05:58Z</time></trkpt><trkpt lat="42.9949738882299" lon="11.1469166512501"><ele>227.5</ele><time>2026-04-03T14:05:59Z</time></trkpt><trkpt lat="42.994848740072634" lon="11.146911536395105"><ele>227.0</ele><time>2026-04-03T14:05:59.999Z</time></trkpt><trkpt lat="42.994728527235246" lon="11.14690665460542"><ele>226.5</ele><time>2026-04-03T14:06:00.999Z</time></trkpt><trkpt lat="42.99461254039976" lon="11.146903773824087"><ele>226.0</ele><time>2026-04-03T14:06:01.999Z</time></trkpt><trkpt lat="42.99449855718155" lon="11.146910816113099"><ele>226.0</ele><time>2026-04-03T14:06:02.999Z</time></trkpt><trkpt lat="42.994375651273366" lon="11.146916756300534"><ele>226.0</ele><time>2026-04-03T14:06:03.999Z</time></trkpt><trkpt lat="42.99425739588955" lon="11.1469184932046"><ele>226.0</ele><time>2026-04-03T14:06:04.999Z</time></trkpt><trkpt lat="42.99413638921464" lon="11.146923268233675"><ele>226.0</ele><time>2026-04-03T14:06:05.999Z</time></trkpt><trkpt lat="42.994007697664784" lon="11.146922527279951"><ele>225.5</ele><time>2026-04-03T14:06:06.999Z</time></trkpt><trkpt lat="42.993886770091024" lon="11.14692006600763"><ele>225.0</ele><time>2026-04-03T14:06:08Z</time></trkpt><trkpt lat="42.99375373171586" lon="11.14691168555244"><ele>224.5</ele><time>2026-04-03T14:06:09Z</time></trkpt><trkpt lat="42.9936249229147" lon="11.146889822829703"><ele>224.0</ele><time>2026-04-03T14:06:10Z</time></trkpt><trkpt lat="42.99349725862218" lon="11.14686055200351"><ele>224.0</ele><time>2026-04-03T14:06:11Z</time></trkpt><trkpt lat="42.99337334943049" lon="11.146813283984216"><ele>224.0</ele><time>2026-04-03T14:06:12Z</time></trkpt><trkpt lat="42.993249082370994" lon="11.146740471927105"><ele>224.0</ele><time>2026-04-03T14:06:13Z</time></trkpt><trkpt lat="42.9931306898115" lon="11.146658749997197"><ele>224.0</ele><time>2026-04-03T14:06:14Z</time></trkpt><trkpt lat="42.993021766191724" lon="11.146574367062938"><ele>221.0</ele><time>2026-04-03T14:06:15Z</time></trkpt><trkpt lat="42.992918839520534" lon="11.14648227939389"><ele>218.0</ele><time>2026-04-03T14:06:16Z</time></trkpt><trkpt lat="42.99282083063074" lon="11.14637445443957"><ele>215.0</ele><time>2026-04-03T14:06:17Z</time></trkpt><trkpt lat="42.99272940358244" lon="11.146252172980992"><ele>212.0</ele><time>2026-04-03T14:06:18Z</time></trkpt><trkpt lat="42.99264558367656" lon="11.146129503549027"><ele>212.0</ele><time>2026-04-03T14:06:19Z</time></trkpt><trkpt lat="42.99255680285436" lon="11.145993640773256"><ele>212.0</ele><time>2026-04-03T14:06:20Z</time></trkpt><trkpt lat="42.99246823219702" lon="11.145860824065432"><ele>212.0</ele><time>2026-04-03T14:06:21Z</time></trkpt><trkpt lat="42.99237540348742" lon="11.145728551343995"><ele>212.0</ele><time>2026-04-03T14:06:22Z</time></trkpt><trkpt lat="42.992281836136485" lon="11.145596692446285"><ele>210.75</ele><time>2026-04-03T14:06:23Z</time></trkpt><trkpt lat="42.9921888199196" lon="11.145461725375789"><ele>209.5</ele><time>2026-04-03T14:06:24Z</time></trkpt><trkpt lat="42.992100397060696" lon="11.145327273226338"><ele>208.25</ele><time>2026-04-03T14:06:25Z</time></trkpt><trkpt lat="42.992009381339095" lon="11.145189650666593"><ele>207.0</ele><time>2026-04-03T14:06:26Z</time></trkpt><trkpt lat="42.99191898078045" lon="11.145055235030695"><ele>207.0</ele><time>2026-04-03T14:06:27Z</time></trkpt><trkpt lat="42.99182611412521" lon="11.144919103954246"><ele>207.0</ele><time>2026-04-03T14:06:28Z</time></trkpt><trkpt lat="42.99173608051587" lon="11.144786343801174"><ele>207.0</ele><time>2026-04-03T14:06:29Z</time></trkpt><trkpt lat="42.991642582986884" lon="11.144651243857101"><ele>207.0</ele><time>2026-04-03T14:06:30Z</time></trkpt><trkpt lat="42.99155105753688" lon="11.14452193230015"><ele>207.5</ele><time>2026-04-03T14:06:31Z</time></trkpt><trkpt lat="42.991462029644325" lon="11.144393818086614"><ele>208.0</ele><time>2026-04-03T14:06:32Z</time></trkpt><trkpt lat="42.99137356393181" lon="11.144264510716313"><ele>208.5</ele><time>2026-04-03T14:06:33Z</time></trkpt><trkpt lat="42.99128344105724" lon="11.144129183481883"><ele>209.0</ele><time>2026-04-03T14:06:34Z</time></trkpt><trkpt lat="42.99119802527565" lon="11.144003716975146"><ele>207.0</ele><time>2026-04-03T14:06:35Z</time></trkpt><trkpt lat="42.99111109050838" lon="11.14387673752138"><ele>205.0</ele><time>2026-04-03T14:06:36Z</time></trkpt><trkpt lat="42.99102527443053" lon="11.14374970691689"><ele>203.0</ele><time>2026-04-03T14:06:37Z</time></trkpt><trkpt lat="42.990942402235724" lon="11.143627149070394"><ele>201.0</ele><time>2026-04-03T14:06:38Z</time></trkpt><trkpt lat="42.99085799843844" lon="11.143500640444977"><ele>202.0</ele><time>2026-04-03T14:06:39Z</time></trkpt><trkpt lat="42.990777901751684" lon="11.143382690276297"><ele>203.0</ele><time>2026-04-03T14:06:40Z</time></trkpt><trkpt lat="42.9906942928211" lon="11.143262927777135"><ele>204.0</ele><time>2026-04-03T14:06:41Z</time></trkpt><trkpt lat="42.99061485015383" lon="11.14314687524509"><ele>205.0</ele><time>2026-04-03T14:06:42Z</time></trkpt><trkpt lat="42.99054404066683" lon="11.143042997542787"><ele>205.0</ele><time>2026-04-03T14:06:43Z</time></trkpt><trkpt lat="42.990468767314994" lon="11.142933507003406"><ele>205.0</ele><time>2026-04-03T14:06:44Z</time></trkpt><trkpt lat="42.99039552159413" lon="11.14282288993769"><ele>205.0</ele><time>2026-04-03T14:06:45Z</time></trkpt><trkpt lat="42.99032099083622" lon="11.142712033964871"><ele>205.0</ele><time>2026-04-03T14:06:46Z</time></trkpt><trkpt lat="42.99024554668351" lon="11.142601422311005"><ele>205.0</ele><time>2026-04-03T14:06:47Z</time></trkpt><trkpt lat="42.990168397038566" lon="11.142488974016858"><ele>205.25</ele><time>2026-04-03T14:06:48Z</time></trkpt><trkpt lat="42.99009445525082" lon="11.142376970537596"><ele>205.5</ele><time>2026-04-03T14:06:49Z</time></trkpt><trkpt lat="42.99001817026929" lon="11.14226098727713"><ele>205.75</ele><time>2026-04-03T14:06:50Z</time></trkpt><trkpt lat="42.98994226426154" lon="11.142146681435587"><ele>206.0</ele><time>2026-04-03T14:06:51Z</time></trkpt><trkpt lat="42.989866869734016" lon="11.142029847128972"><ele>207.25</ele><time>2026-04-03T14:06:52Z</time></trkpt><trkpt lat="42.989793841404655" lon="11.141909458366191"><ele>208.5</ele><time>2026-04-03T14:06:53Z</time></trkpt><trkpt lat="42.98971913392758" lon="11.141784866328994"><ele>209.75</ele><time>2026-04-03T14:06:54Z</time></trkpt><trkpt lat="42.98964690829386" lon="11.141666425778066"><ele>211.0</ele><time>2026-04-03T14:06:55Z</time></trkpt><trkpt lat="42.989574827347944" lon="11.14155446561399"><ele>210.49999999999997</ele><time>2026-04-03T14:06:56Z</time></trkpt><trkpt lat="42.989510330004116" lon="11.141458380862309"><ele>210.0</ele><time>2026-04-03T14:06:57Z</time></trkpt><trkpt lat="42.98945452372546" lon="11.141367081557588"><ele>209.5</ele><time>2026-04-03T14:06:58Z</time></trkpt><trkpt lat="42.98940517024468" lon="11.141279576156837"><ele>209.0</ele><time>2026-04-03T14:06:59Z</time></trkpt><trkpt lat="42.98935917398978" lon="11.141195492274884"><ele>208.49999999999997</ele><time>2026-04-03T14:07:00Z</time></trkpt><trkpt lat="42.989290631090334" lon="11.141084561177502"><ele>208.0</ele><time>2026-04-03T14:07:02Z</time></trkpt><trkpt lat="42.989159965982445" lon="11.141119950595606"><ele>208.33333333333331</ele><time>2026-04-03T14:07:06Z</time></trkpt><trkpt lat="42.9890842059929" lon="11.141230546417743"><ele>208.66666666666666</ele><time>2026-04-03T14:07:08Z</time></trkpt><trkpt lat="42.98900546664098" lon="11.14135288254875"><ele>209.0</ele><time>2026-04-03T14:07:10Z</time></trkpt><trkpt lat="42.98895988168049" lon="11.141420014738385"><ele>209.33333333333331</ele><time>2026-04-03T14:07:11Z</time></trkpt><trkpt lat="42.98890955758895" lon="11.141492672308825"><ele>209.66666666666666</ele><time>2026-04-03T14:07:12Z</time></trkpt><trkpt lat="42.98885678597735" lon="11.141563869160642"><ele>210.0</ele><time>2026-04-03T14:07:13Z</time></trkpt><trkpt lat="42.98880199085977" lon="11.14163488573816"><ele>210.0</ele><time>2026-04-03T14:07:14Z</time></trkpt><trkpt lat="42.98875215383796" lon="11.141698016289594"><ele>210.0</ele><time>2026-04-03T14:07:15Z</time></trkpt><trkpt lat="42.98870241642278" lon="11.141761020729664"><ele>210.0</ele><time>2026-04-03T14:07:16Z</time></trkpt><trkpt lat="42.9886455160208" lon="11.141833098895763"><ele>210.0</ele><time>2026-04-03T14:07:17Z</time></trkpt><trkpt lat="42.9885882009775" lon="11.14190570232404"><ele>210.0</ele><time>2026-04-03T14:07:18Z</time></trkpt><trkpt lat="42.988526057391745" lon="11.141975894763597"><ele>210.0</ele><time>2026-04-03T14:07:19Z</time></trkpt><trkpt lat="42.98846120698931" lon="11.142044100389557"><ele>210.0</ele><time>2026-04-03T14:07:20Z</time></trkpt><trkpt lat="42.98839660215355" lon="11.142109037906266"><ele>210.0</ele><time>2026-04-03T14:07:21Z</time></trkpt><trkpt lat="42.98832432231116" lon="11.142171208310888"><ele>210.0</ele><time>2026-04-03T14:07:22Z</time></trkpt><trkpt lat="42.98825694669563" lon="11.1422187160973"><ele>210.0</ele><time>2026-04-03T14:07:23Z</time></trkpt><trkpt lat="42.988181560960484" lon="11.14226961475283"><ele>210.0</ele><time>2026-04-03T14:07:24Z</time></trkpt><trkpt lat="42.98811585306338" lon="11.14230585043949"><ele>210.0</ele><time>2026-04-03T14:07:25Z</time></trkpt><trkpt lat="42.98804392826999" lon="11.142336176039697"><ele>208.66666666666666</ele><time>2026-04-03T14:07:26Z</time></trkpt><trkpt lat="42.98797132084958" lon="11.142358221483498"><ele>207.33333333333331</ele><time>2026-04-03T14:07:27Z</time></trkpt><trkpt lat="42.98790638896046" lon="11.142356616782498"><ele>206.0</ele><time>2026-04-03T14:07:28Z</time></trkpt><trkpt lat="42.98783034182347" lon="11.14234461819295"><ele>204.66666666666666</ele><time>2026-04-03T14:07:29Z</time></trkpt><trkpt lat="42.987744477523364" lon="11.142319393281317"><ele>203.33333333333331</ele><time>2026-04-03T14:07:30Z</time></trkpt><trkpt lat="42.987676186392534" lon="11.142296038112345"><ele>202.0</ele><time>2026-04-03T14:07:31Z</time></trkpt><trkpt lat="42.987590120528665" lon="11.142265300282446"><ele>201.8</ele><time>2026-04-03T14:07:32Z</time></trkpt><trkpt lat="42.98750477870518" lon="11.14223265419308"><ele>201.6</ele><time>2026-04-03T14:07:33Z</time></trkpt><trkpt lat="42.987426884018824" lon="11.142197364612494"><ele>201.4</ele><time>2026-04-03T14:07:34Z</time></trkpt><trkpt lat="42.98733485766503" lon="11.142154868767419"><ele>201.20000000000002</ele><time>2026-04-03T14:07:35Z</time></trkpt><trkpt lat="42.98723239877004" lon="11.142109599176367"><ele>201.0</ele><time>2026-04-03T14:07:36Z</time></trkpt><trkpt lat="42.987142891813015" lon="11.142072924552838"><ele>201.0</ele><time>2026-04-03T14:07:37Z</time></trkpt><trkpt lat="42.98707807772857" lon="11.14204658670508"><ele>201.0</ele><time>2026-04-03T14:07:38Z</time></trkpt><trkpt lat="42.98699779588645" lon="11.142014139708724"><ele>201.0</ele><time>2026-04-03T14:07:39Z</time></trkpt><trkpt lat="42.986908403981346" lon="11.141983112451818"><ele>201.0</ele><time>2026-04-03T14:07:40Z</time></trkpt><trkpt lat="42.98682964303912" lon="11.141961876722444"><ele>201.0</ele><time>2026-04-03T14:07:41Z</time></trkpt><trkpt lat="42.9867491882856" lon="11.141953123480086"><ele>201.0</ele><time>2026-04-03T14:07:42Z</time></trkpt><trkpt lat="42.98667693824843" lon="11.141952916744863"><ele>200.5</ele><time>2026-04-03T14:07:43Z</time></trkpt><trkpt lat="42.986598787954506" lon="11.141975762243991"><ele>200.0</ele><time>2026-04-03T14:07:44Z</time></trkpt><trkpt lat="42.98651295567155" lon="11.142038856552329"><ele>199.5</ele><time>2026-04-03T14:07:45Z</time></trkpt><trkpt lat="42.98644832755226" lon="11.142108935688308"><ele>199.0</ele><time>2026-04-03T14:07:46Z</time></trkpt><trkpt lat="42.98638700276068" lon="11.14218329630596"><ele>198.5</ele><time>2026-04-03T14:07:47Z</time></trkpt><trkpt lat="42.986320870771124" lon="11.142261570327117"><ele>198.0</ele><time>2026-04-03T14:07:48Z</time></trkpt><trkpt lat="42.98624856372933" lon="11.142346258656916"><ele>198.16666666666666</ele><time>2026-04-03T14:07:49Z</time></trkpt><trkpt lat="42.986179911473045" lon="11.142428170785026"><ele>198.33333333333331</ele><time>2026-04-03T14:07:50Z</time></trkpt><trkpt lat="42.986128009794975" lon="11.142497947223454"><ele>198.5</ele><time>2026-04-03T14:07:51Z</time></trkpt><trkpt lat="42.986075958117496" lon="11.142581657565682"><ele>198.66666666666666</ele><time>2026-04-03T14:07:52Z</time></trkpt><trkpt lat="42.986032384335665" lon="11.142684081484028"><ele>198.83333333333331</ele><time>2026-04-03T14:07:53Z</time></trkpt><trkpt lat="42.98600617422556" lon="11.1428076330345"><ele>199.0</ele><time>2026-04-03T14:07:54Z</time></trkpt><trkpt lat="42.986004080194164" lon="11.142924095376832"><ele>198.99999999999997</ele><time>2026-04-03T14:07:55Z</time></trkpt><trkpt lat="42.98595562254572" lon="11.143021409093796"><ele>199.0</ele><time>2026-04-03T14:07:56Z</time></trkpt><trkpt lat="42.98592007897721" lon="11.143115098119269"><ele>199.0</ele><time>2026-04-03T14:07:57Z</time></trkpt><trkpt lat="42.985880780027365" lon="11.143207907725342"><ele>199.0</ele><time>2026-04-03T14:07:58Z</time></trkpt><trkpt lat="42.98583252829867" lon="11.143300454890602"><ele>198.99999999999997</ele><time>2026-04-03T14:07:59Z</time></trkpt><trkpt lat="42.9857847998608" lon="11.14340989813121"><ele>199.0</ele><time>2026-04-03T14:08:00Z</time></trkpt><trkpt lat="42.985712103609266" lon="11.143476623331626"><ele>197.49999999999997</ele><time>2026-04-03T14:08:01Z</time></trkpt><trkpt lat="42.98564835027898" lon="11.143556949273899"><ele>196.0</ele><time>2026-04-03T14:08:02Z</time></trkpt><trkpt lat="42.98558407879844" lon="11.143638618546625"><ele>194.5</ele><time>2026-04-03T14:08:03Z</time></trkpt><trkpt lat="42.98552424886071" lon="11.14372169587471"><ele>193.0</ele><time>2026-04-03T14:08:04Z</time></trkpt><trkpt lat="42.9854569115501" lon="11.14381519751196"><ele>191.5</ele><time>2026-04-03T14:08:05Z</time></trkpt><trkpt lat="42.98539391018669" lon="11.143902678537337"><ele>190.0</ele><time>2026-04-03T14:08:06Z</time></trkpt><trkpt lat="42.985334681703314" lon="11.14400694281139"><ele>190.4</ele><time>2026-04-03T14:08:07Z</time></trkpt><trkpt lat="42.98525357279274" lon="11.144075694694203"><ele>190.8</ele><time>2026-04-03T14:08:08Z</time></trkpt><trkpt lat="42.985180549455485" lon="11.144151458769084"><ele>191.2</ele><time>2026-04-03T14:08:09Z</time></trkpt><trkpt lat="42.98509915367755" lon="11.144229323612569"><ele>191.6</ele><time>2026-04-03T14:08:10Z</time></trkpt><trkpt lat="42.98502542149612" lon="11.144319640210174"><ele>192.0</ele><time>2026-04-03T14:08:11Z</time></trkpt><trkpt lat="42.984938101022045" lon="11.144387455921654"><ele>189.39999999999998</ele><time>2026-04-03T14:08:12Z</time></trkpt><trkpt lat="42.98485261209818" lon="11.144437778444978"><ele>186.79999999999998</ele><time>2026-04-03T14:08:13Z</time></trkpt><trkpt lat="42.98476998124137" lon="11.144498073938284"><ele>184.2</ele><time>2026-04-03T14:08:14Z</time></trkpt><trkpt lat="42.98468812351444" lon="11.144550594870145"><ele>181.6</ele><time>2026-04-03T14:08:15Z</time></trkpt><trkpt lat="42.984597660856174" lon="11.144604268165416"><ele>179.0</ele><time>2026-04-03T14:08:16Z</time></trkpt><trkpt lat="42.984504479430456" lon="11.1446566413042"><ele>179.0</ele><time>2026-04-03T14:08:17Z</time></trkpt><trkpt lat="42.98441078090749" lon="11.144705962932967"><ele>179.0</ele><time>2026-04-03T14:08:18Z</time></trkpt><trkpt lat="42.984317501365105" lon="11.144755026174984"><ele>179.0</ele><time>2026-04-03T14:08:19Z</time></trkpt><trkpt lat="42.98422741817713" lon="11.144802408222064"><ele>179.0</ele><time>2026-04-03T14:08:20Z</time></trkpt><trkpt lat="42.984135945784764" lon="11.1448480114038"><ele>179.0</ele><time>2026-04-03T14:08:21Z</time></trkpt><trkpt lat="42.98403442632305" lon="11.144895187845444"><ele>178.83333333333331</ele><time>2026-04-03T14:08:22Z</time></trkpt><trkpt lat="42.98394236066899" lon="11.144934808284956"><ele>178.66666666666666</ele><time>2026-04-03T14:08:23Z</time></trkpt><trkpt lat="42.98385540944306" lon="11.144972227278277"><ele>178.5</ele><time>2026-04-03T14:08:24Z</time></trkpt><trkpt lat="42.983781874873536" lon="11.144995615695185"><ele>178.33333333333334</ele><time>2026-04-03T14:08:25Z</time></trkpt><trkpt lat="42.98369384231718" lon="11.14500278515463"><ele>178.16666666666669</ele><time>2026-04-03T14:08:26Z</time></trkpt><trkpt lat="42.98360156636308" lon="11.14497538077264"><ele>178.0</ele><time>2026-04-03T14:08:27Z</time></trkpt><trkpt lat="42.9835201891698" lon="11.144927212537288"><ele>177.2</ele><time>2026-04-03T14:08:28Z</time></trkpt><trkpt lat="42.98343374384227" lon="11.144864686678511"><ele>176.4</ele><time>2026-04-03T14:08:29Z</time></trkpt><trkpt lat="42.983371470738454" lon="11.144791357221791"><ele>175.6</ele><time>2026-04-03T14:08:30Z</time></trkpt><trkpt lat="42.98330306348509" lon="11.144701310032262"><ele>174.79999999999998</ele><time>2026-04-03T14:08:31Z</time></trkpt><trkpt lat="42.98324647659317" lon="11.144603964196426"><ele>174.0</ele><time>2026-04-03T14:08:32Z</time></trkpt><trkpt lat="42.983195286753315" lon="11.144500296161466"><ele>174.0</ele><time>2026-04-03T14:08:33Z</time></trkpt><trkpt lat="42.98316283414181" lon="11.144384062356258"><ele>174.0</ele><time>2026-04-03T14:08:34Z</time></trkpt><trkpt lat="42.983127181623125" lon="11.144241998534271"><ele>174.0</ele><time>2026-04-03T14:08:35Z</time></trkpt><trkpt lat="42.98311324347292" lon="11.144105021405263"><ele>174.0</ele><time>2026-04-03T14:08:36Z</time></trkpt><trkpt lat="42.98305335648762" lon="11.143990415709741"><ele>174.0</ele><time>2026-04-03T14:08:37Z</time></trkpt><trkpt lat="42.98301170644097" lon="11.143887262805944"><ele>172.66666666666666</ele><time>2026-04-03T14:08:38Z</time></trkpt><trkpt lat="42.98296856766276" lon="11.143811431071896"><ele>171.33333333333334</ele><time>2026-04-03T14:08:39Z</time></trkpt><trkpt lat="42.98291945780502" lon="11.143705057953348"><ele>170.0</ele><time>2026-04-03T14:08:41Z</time></trkpt><trkpt lat="42.982849458114785" lon="11.143649229632686"><ele>168.66666666666669</ele><time>2026-04-03T14:08:59Z</time></trkpt><trkpt lat="42.98274698803652" lon="11.143570945610085"><ele>167.33333333333334</ele><time>2026-04-03T14:09:01Z</time></trkpt><trkpt lat="42.9826826884884" lon="11.143546024043435"><ele>166.0</ele><time>2026-04-03T14:09:02Z</time></trkpt><trkpt lat="42.98261049300928" lon="11.143527176003488"><ele>166.0</ele><time>2026-04-03T14:09:03Z</time></trkpt><trkpt lat="42.982532515119956" lon="11.143499127780458"><ele>166.0</ele><time>2026-04-03T14:09:04Z</time></trkpt><trkpt lat="42.982459821362276" lon="11.143465374504707"><ele>166.0</ele><time>2026-04-03T14:09:05Z</time></trkpt><trkpt lat="42.98237844931312" lon="11.143432956697213"><ele>166.0</ele><time>2026-04-03T14:09:06Z</time></trkpt><trkpt lat="42.98228950539685" lon="11.143397681938476"><ele>166.0</ele><time>2026-04-03T14:09:07Z</time></trkpt><trkpt lat="42.98221639710257" lon="11.143366209712418"><ele>166.0</ele><time>2026-04-03T14:09:08Z</time></trkpt><trkpt lat="42.98214279746589" lon="11.14333468643425"><ele>166.0</ele><time>2026-04-03T14:09:09Z</time></trkpt><trkpt lat="42.98202804832863" lon="11.143229087894248"><ele>166.0</ele><time>2026-04-03T14:09:11Z</time></trkpt><trkpt lat="42.9819518654111" lon="11.14320585821175"><ele>166.0</ele><time>2026-04-03T14:09:12Z</time></trkpt><trkpt lat="42.98188447652323" lon="11.1431594236807"><ele>166.0</ele><time>2026-04-03T14:09:13Z</time></trkpt><trkpt lat="42.981814269332496" lon="11.143125465934615"><ele>166.0</ele><time>2026-04-03T14:09:14Z</time></trkpt><trkpt lat="42.981735817870124" lon="11.143094828682859"><ele>166.0</ele><time>2026-04-03T14:09:15Z</time></trkpt><trkpt lat="42.981649771140084" lon="11.143042037270321"><ele>166.0</ele><time>2026-04-03T14:09:16Z</time></trkpt><trkpt lat="42.981574682421694" lon="11.143017474284227"><ele>166.0</ele><time>2026-04-03T14:09:17Z</time></trkpt><trkpt lat="42.9814982808884" lon="11.142994601618481"><ele>166.0</ele><time>2026-04-03T14:09:18Z</time></trkpt><trkpt lat="42.981411772614294" lon="11.142972851669834"><ele>166.0</ele><time>2026-04-03T14:09:19Z</time></trkpt><trkpt lat="42.981324085082925" lon="11.142976447347534"><ele>166.0</ele><time>2026-04-03T14:09:20Z</time></trkpt><trkpt lat="42.98123156617693" lon="11.142955030357632"><ele>166.0</ele><time>2026-04-03T14:09:21Z</time></trkpt><trkpt lat="42.98114427699305" lon="11.14294870364025"><ele>166.0</ele><time>2026-04-03T14:09:22Z</time></trkpt><trkpt lat="42.98106086784422" lon="11.142941114159884"><ele>166.0</ele><time>2026-04-03T14:09:23Z</time></trkpt><trkpt lat="42.980972672583" lon="11.142942484687872"><ele>166.0</ele><time>2026-04-03T14:09:24Z</time></trkpt><trkpt lat="42.98089093512206" lon="11.142955613793388"><ele>166.0</ele><time>2026-04-03T14:09:25Z</time></trkpt><trkpt lat="42.98079568401748" lon="11.142971938709016"><ele>166.0</ele><time>2026-04-03T14:09:26Z</time></trkpt><trkpt lat="42.98070597887886" lon="11.142986498407646"><ele>166.0</ele><time>2026-04-03T14:09:27Z</time></trkpt><trkpt lat="42.980614738596984" lon="11.143003661070273"><ele>165.16666666666669</ele><time>2026-04-03T14:09:28Z</time></trkpt><trkpt lat="42.98051433487893" lon="11.142997278910455"><ele>164.33333333333334</ele><time>2026-04-03T14:09:29Z</time></trkpt><trkpt lat="42.980428942770494" lon="11.143004769478898"><ele>163.5</ele><time>2026-04-03T14:09:30Z</time></trkpt><trkpt lat="42.98035658411293" lon="11.143006101853013"><ele>162.66666666666666</ele><time>2026-04-03T14:09:31Z</time></trkpt><trkpt lat="42.98029017619258" lon="11.143028705461763"><ele>161.83333333333331</ele><time>2026-04-03T14:09:32Z</time></trkpt><trkpt lat="42.98021005852957" lon="11.143007791427477"><ele>161.0</ele><time>2026-04-03T14:09:33Z</time></trkpt><trkpt lat="42.980123230150355" lon="11.14297561329816"><ele>161.0</ele><time>2026-04-03T14:09:34Z</time></trkpt><trkpt lat="42.98003361866006" lon="11.142934668516647"><ele>161.0</ele><time>2026-04-03T14:09:35Z</time></trkpt><trkpt lat="42.9799382636315" lon="11.14289282698412"><ele>161.0</ele><time>2026-04-03T14:09:36Z</time></trkpt><trkpt lat="42.9798433414069" lon="11.142861468577744"><ele>161.0</ele><time>2026-04-03T14:09:37Z</time></trkpt><trkpt lat="42.979741300802175" lon="11.142822075123915"><ele>161.0</ele><time>2026-04-03T14:09:38Z</time></trkpt><trkpt lat="42.97963185770397" lon="11.14277777239442"><ele>159.5</ele><time>2026-04-03T14:09:39Z</time></trkpt><trkpt lat="42.97951942422641" lon="11.142746838813064"><ele>158.0</ele><time>2026-04-03T14:09:40Z</time></trkpt><trkpt lat="42.97940913317375" lon="11.142705235506039"><ele>156.5</ele><time>2026-04-03T14:09:41Z</time></trkpt><trkpt lat="42.9792964341814" lon="11.14266526756161"><ele>155.0</ele><time>2026-04-03T14:09:42Z</time></trkpt><trkpt lat="42.97917797328825" lon="11.142613054080908"><ele>153.25</ele><time>2026-04-03T14:09:43Z</time></trkpt><trkpt lat="42.97905707544398" lon="11.14259308068307"><ele>151.5</ele><time>2026-04-03T14:09:44Z</time></trkpt><trkpt lat="42.97893342937336" lon="11.142548727535793"><ele>149.75</ele><time>2026-04-03T14:09:45Z</time></trkpt><trkpt lat="42.9788199376395" lon="11.142485732443063"><ele>148.0</ele><time>2026-04-03T14:09:46Z</time></trkpt><trkpt lat="42.97870066537688" lon="11.142443423353688"><ele>148.0</ele><time>2026-04-03T14:09:47Z</time></trkpt><trkpt lat="42.978583187833" lon="11.142401666499248"><ele>148.0</ele><time>2026-04-03T14:09:48Z</time></trkpt><trkpt lat="42.978466439595714" lon="11.142360034293032"><ele>148.0</ele><time>2026-04-03T14:09:49Z</time></trkpt><trkpt lat="42.97835049492222" lon="11.142318688751011"><ele>148.0</ele><time>2026-04-03T14:09:50Z</time></trkpt><trkpt lat="42.97821832112172" lon="11.142271555663953"><ele>146.25</ele><time>2026-04-03T14:09:51Z</time></trkpt><trkpt lat="42.97807941189803" lon="11.14221937682028"><ele>144.5</ele><time>2026-04-03T14:09:52Z</time></trkpt><trkpt lat="42.97799015200009" lon="11.142185507716482"><ele>142.75</ele><time>2026-04-03T14:09:53Z</time></trkpt><trkpt lat="42.97788708895385" lon="11.14214487474298"><ele>141.0</ele><time>2026-04-03T14:09:54Z</time></trkpt><trkpt lat="42.97777539854057" lon="11.142100840458973"><ele>141.0</ele><time>2026-04-03T14:09:55Z</time></trkpt><trkpt lat="42.977661790892014" lon="11.142055804282537"><ele>141.0</ele><time>2026-04-03T14:09:56Z</time></trkpt><trkpt lat="42.977540506840064" lon="11.142006989504342"><ele>141.0</ele><time>2026-04-03T14:09:57Z</time></trkpt><trkpt lat="42.977433521246645" lon="11.141962248970373"><ele>141.0</ele><time>2026-04-03T14:09:58Z</time></trkpt><trkpt lat="42.97733889314595" lon="11.141921994952627"><ele>140.2</ele><time>2026-04-03T14:09:59Z</time></trkpt><trkpt lat="42.977253854953936" lon="11.141886107817704"><ele>139.39999999999998</ele><time>2026-04-03T14:10:00Z</time></trkpt><trkpt lat="42.97715811479323" lon="11.14184904335304"><ele>138.6</ele><time>2026-04-03T14:10:01Z</time></trkpt><trkpt lat="42.97705889637406" lon="11.141833795367399"><ele>137.79999999999998</ele><time>2026-04-03T14:10:02Z</time></trkpt><trkpt lat="42.97696998562703" lon="11.141797609198536"><ele>137.0</ele><time>2026-04-03T14:10:03Z</time></trkpt><trkpt lat="42.9768889998204" lon="11.14177319346505"><ele>137.0</ele><time>2026-04-03T14:10:04Z</time></trkpt><trkpt lat="42.97680529921562" lon="11.141775022366433"><ele>137.0</ele><time>2026-04-03T14:10:05Z</time></trkpt><trkpt lat="42.97671613399666" lon="11.141812274376944"><ele>137.0</ele><time>2026-04-03T14:10:06Z</time></trkpt><trkpt lat="42.9766278615344" lon="11.14187424854652"><ele>137.0</ele><time>2026-04-03T14:10:07Z</time></trkpt><trkpt lat="42.97654033713063" lon="11.141953351394381"><ele>137.0</ele><time>2026-04-03T14:10:08Z</time></trkpt><trkpt lat="42.976452420923586" lon="11.142050067568045"><ele>136.25</ele><time>2026-04-03T14:10:09Z</time></trkpt><trkpt lat="42.97636641949663" lon="11.142144381654807"><ele>135.5</ele><time>2026-04-03T14:10:10Z</time></trkpt><trkpt lat="42.97628184332307" lon="11.142243738861929"><ele>134.75</ele><time>2026-04-03T14:10:11Z</time></trkpt><trkpt lat="42.976194803501166" lon="11.142349112187755"><ele>134.0</ele><time>2026-04-03T14:10:12Z</time></trkpt><trkpt lat="42.97610888807134" lon="11.14245240619199"><ele>134.0</ele><time>2026-04-03T14:10:13Z</time></trkpt><trkpt lat="42.976034293325014" lon="11.142539317140395"><ele>134.0</ele><time>2026-04-03T14:10:14Z</time></trkpt><trkpt lat="42.975969393182616" lon="11.142620805533722"><ele>134.0</ele><time>2026-04-03T14:10:15Z</time></trkpt><trkpt lat="42.9759112479527" lon="11.142683890810336"><ele>134.0</ele><time>2026-04-03T14:10:16Z</time></trkpt><trkpt lat="42.97584278652105" lon="11.142762606177048"><ele>134.0</ele><time>2026-04-03T14:10:17Z</time></trkpt><trkpt lat="42.97573641165948" lon="11.14284353827991"><ele>132.0</ele><time>2026-04-03T14:10:18Z</time></trkpt><trkpt lat="42.97567312868567" lon="11.142864765375299"><ele>130.0</ele><time>2026-04-03T14:10:19Z</time></trkpt><trkpt lat="42.97557949915074" lon="11.142888062299502"><ele>128.0</ele><time>2026-04-03T14:10:20Z</time></trkpt><trkpt lat="42.97546064257737" lon="11.142919172396358"><ele>126.0</ele><time>2026-04-03T14:10:21Z</time></trkpt><trkpt lat="42.97535408863276" lon="11.142955776073943"><ele>124.0</ele><time>2026-04-03T14:10:22Z</time></trkpt><trkpt lat="42.97524295135903" lon="11.142993960678412"><ele>124.00000000000001</ele><time>2026-04-03T14:10:23Z</time></trkpt><trkpt lat="42.97514438791126" lon="11.14302782522582"><ele>124.0</ele><time>2026-04-03T14:10:24Z</time></trkpt><trkpt lat="42.97506510663826" lon="11.143054192543941"><ele>124.0</ele><time>2026-04-03T14:10:25Z</time></trkpt><trkpt lat="42.974969646056586" lon="11.143085095687614"><ele>124.0</ele><time>2026-04-03T14:10:26Z</time></trkpt><trkpt lat="42.97489073704641" lon="11.1431084049097"><ele>124.00000000000001</ele><time>2026-04-03T14:10:27Z</time></trkpt><trkpt lat="42.97481874682826" lon="11.14312661579232"><ele>124.0</ele><time>2026-04-03T14:10:28Z</time></trkpt><trkpt lat="42.974743932993704" lon="11.14314265996353"><ele>122.25</ele><time>2026-04-03T14:10:29Z</time></trkpt><trkpt lat="42.97463240239008" lon="11.143168028110352"><ele>120.5</ele><time>2026-04-03T14:10:31Z</time></trkpt><trkpt lat="42.9745180454534" lon="11.143205369868925"><ele>118.75</ele><time>2026-04-03T14:10:33Z</time></trkpt><trkpt lat="42.97440468415873" lon="11.143252899872024"><ele>117.0</ele><time>2026-04-03T14:10:35Z</time></trkpt><trkpt lat="42.9742900762742" lon="11.143329296025522"><ele>116.8</ele><time>2026-04-03T14:10:37Z</time></trkpt><trkpt lat="42.974235681033306" lon="11.143378152330758"><ele>116.6</ele><time>2026-04-03T14:10:38.001Z</time></trkpt><trkpt lat="42.974140596727786" lon="11.14347639873373"><ele>116.39999999999999</ele><time>2026-04-03T14:10:40.001Z</time></trkpt><trkpt lat="42.97404445458009" lon="11.143562328954957"><ele>116.19999999999999</ele><time>2026-04-03T14:10:42.001Z</time></trkpt><trkpt lat="42.9739364659501" lon="11.143607915942683"><ele>116.0</ele><time>2026-04-03T14:10:44.001Z</time></trkpt><trkpt lat="42.973823273670185" lon="11.14357989604409"><ele>113.99999999999999</ele><time>2026-04-03T14:10:46.001Z</time></trkpt><trkpt lat="42.97375326274591" lon="11.143558314669654"><ele>112.0</ele><time>2026-04-03T14:10:47.001Z</time></trkpt><trkpt lat="42.97366410899652" lon="11.143542449668718"><ele>110.0</ele><time>2026-04-03T14:10:48.001Z</time></trkpt><trkpt lat="42.97358506512963" lon="11.14350548476133"><ele>108.0</ele><time>2026-04-03T14:10:49.001Z</time></trkpt><trkpt lat="42.973503404708616" lon="11.143469180374492"><ele>105.99999999999999</ele><time>2026-04-03T14:10:50.001Z</time></trkpt><trkpt lat="42.973423788261364" lon="11.143413239281905"><ele>104.0</ele><time>2026-04-03T14:10:51.001Z</time></trkpt><trkpt lat="42.97334300262516" lon="11.143375374075516"><ele>102.2</ele><time>2026-04-03T14:10:52.001Z</time></trkpt><trkpt lat="42.97325725919355" lon="11.143336029969191"><ele>100.4</ele><time>2026-04-03T14:10:53.001Z</time></trkpt><trkpt lat="42.97317228767733" lon="11.143299645864314"><ele>98.6</ele><time>2026-04-03T14:10:54.001Z</time></trkpt><trkpt lat="42.973079984785976" lon="11.143261293401782"><ele>96.8</ele><time>2026-04-03T14:10:55.001Z</time></trkpt><trkpt lat="42.972992126578724" lon="11.143224882638814"><ele>95.0</ele><time>2026-04-03T14:10:56.001Z</time></trkpt><trkpt lat="42.97290947003659" lon="11.143188621999885"><ele>94.83333333333334</ele><time>2026-04-03T14:10:57.001Z</time></trkpt><trkpt lat="42.97284973906994" lon="11.143157863334679"><ele>94.66666666666667</ele><time>2026-04-03T14:10:58.001Z</time></trkpt><trkpt lat="42.97273982003178" lon="11.143096933591579"><ele>94.5</ele><time>2026-04-03T14:11:00.001Z</time></trkpt><trkpt lat="42.97274179591948" lon="11.142956976211446"><ele>94.33333333333333</ele><time>2026-04-03T14:11:02.001Z</time></trkpt><trkpt lat="42.972730721071386" lon="11.14284462113158"><ele>94.16666666666666</ele><time>2026-04-03T14:11:03.001Z</time></trkpt><trkpt lat="42.97271705246149" lon="11.14273637621547"><ele>94.0</ele><time>2026-04-03T14:11:04.001Z</time></trkpt><trkpt lat="42.972704070349295" lon="11.142647848734645"><ele>94.0</ele><time>2026-04-03T14:11:05.001Z</time></trkpt><trkpt lat="42.97267456832353" lon="11.142552510356266"><ele>94.0</ele><time>2026-04-03T14:11:06.001Z</time></trkpt><trkpt lat="42.97265704718826" lon="11.142430921894176"><ele>94.0</ele><time>2026-04-03T14:11:07.001Z</time></trkpt><trkpt lat="42.972652225144365" lon="11.142340169254446"><ele>94.0</ele><time>2026-04-03T14:11:08.001Z</time></trkpt><trkpt lat="42.97263829250975" lon="11.142248225993491"><ele>94.0</ele><time>2026-04-03T14:11:09.001Z</time></trkpt><trkpt lat="42.97263755188021" lon="11.142079270650704"><ele>94.0</ele><time>2026-04-03T14:11:11.001Z</time></trkpt><trkpt lat="42.97261279967065" lon="11.14199420468434"><ele>94.0</ele><time>2026-04-03T14:11:12.001Z</time></trkpt><trkpt lat="42.97260091762229" lon="11.141888364462883"><ele>94.0</ele><time>2026-04-03T14:11:13.001Z</time></trkpt><trkpt lat="42.97258966676253" lon="11.14179807206213"><ele>94.0</ele><time>2026-04-03T14:11:14.001Z</time></trkpt><trkpt lat="42.972596871187505" lon="11.141711902682802"><ele>94.0</ele><time>2026-04-03T14:11:15.001Z</time></trkpt><trkpt lat="42.9725661207072" lon="11.141569357280346"><ele>94.0</ele><time>2026-04-03T14:11:17.001Z</time></trkpt><trkpt lat="42.97255370175133" lon="11.141454189834638"><ele>94.0</ele><time>2026-04-03T14:11:19.001Z</time></trkpt><trkpt lat="42.9725424300846" lon="11.141329902008883"><ele>94.16666666666666</ele><time>2026-04-03T14:11:21.001Z</time></trkpt><trkpt lat="42.97252449275515" lon="11.141176447868407"><ele>94.33333333333333</ele><time>2026-04-03T14:11:23.001Z</time></trkpt><trkpt lat="42.97250359690302" lon="11.14101262900927"><ele>94.5</ele><time>2026-04-03T14:11:25.001Z</time></trkpt><trkpt lat="42.97249595708321" lon="11.140919613651155"><ele>94.66666666666667</ele><time>2026-04-03T14:11:26.001Z</time></trkpt><trkpt lat="42.97248347023841" lon="11.140828640311362"><ele>94.83333333333334</ele><time>2026-04-03T14:11:27.001Z</time></trkpt><trkpt lat="42.97246984537514" lon="11.140728013393549"><ele>95.0</ele><time>2026-04-03T14:11:28.001Z</time></trkpt><trkpt lat="42.972461464953085" lon="11.140629930288867"><ele>93.83333333333334</ele><time>2026-04-03T14:11:29.001Z</time></trkpt><trkpt lat="42.97244877941311" lon="11.140524252014442"><ele>92.66666666666667</ele><time>2026-04-03T14:11:30.001Z</time></trkpt><trkpt lat="42.97243303467992" lon="11.14040924089348"><ele>91.5</ele><time>2026-04-03T14:11:31.001Z</time></trkpt><trkpt lat="42.9724216090838" lon="11.140301629596504"><ele>90.33333333333333</ele><time>2026-04-03T14:11:32.001Z</time></trkpt><trkpt lat="42.9724241751821" lon="11.14019586297012"><ele>89.16666666666666</ele><time>2026-04-03T14:11:33.001Z</time></trkpt><trkpt lat="42.97239659621515" lon="11.140095219549249"><ele>88.0</ele><time>2026-04-03T14:11:34.001Z</time></trkpt><trkpt lat="42.972383018045925" lon="11.139974332911953"><ele>87.83333333333333</ele><time>2026-04-03T14:11:35.001Z</time></trkpt><trkpt lat="42.97237044592806" lon="11.139859910863898"><ele>87.66666666666666</ele><time>2026-04-03T14:11:36.001Z</time></trkpt><trkpt lat="42.97235839428204" lon="11.13974237492992"><ele>87.5</ele><time>2026-04-03T14:11:37.001Z</time></trkpt><trkpt lat="42.97234383879744" lon="11.139629074081334"><ele>87.33333333333333</ele><time>2026-04-03T14:11:38.001Z</time></trkpt><trkpt lat="42.972326265145774" lon="11.13951287239197"><ele>87.16666666666667</ele><time>2026-04-03T14:11:39.001Z</time></trkpt><trkpt lat="42.97231614804162" lon="11.139390011422321"><ele>87.0</ele><time>2026-04-03T14:11:40.001Z</time></trkpt><trkpt lat="42.97230925020943" lon="11.139278819040126"><ele>87.0</ele><time>2026-04-03T14:11:41.001Z</time></trkpt><trkpt lat="42.9722935745554" lon="11.139150751151098"><ele>87.0</ele><time>2026-04-03T14:11:42.001Z</time></trkpt><trkpt lat="42.97227668232055" lon="11.139024511525914"><ele>87.0</ele><time>2026-04-03T14:11:43.001Z</time></trkpt><trkpt lat="42.972264082891165" lon="11.138903676451617"><ele>87.0</ele><time>2026-04-03T14:11:44.001Z</time></trkpt><trkpt lat="42.97225096025197" lon="11.138769826759997"><ele>87.0</ele><time>2026-04-03T14:11:45.001Z</time></trkpt><trkpt lat="42.97224152687432" lon="11.138636697307948"><ele>86.39999999999999</ele><time>2026-04-03T14:11:46.001Z</time></trkpt><trkpt lat="42.972227231291484" lon="11.13850564986043"><ele>85.8</ele><time>2026-04-03T14:11:47.001Z</time></trkpt><trkpt lat="42.97221013624159" lon="11.138384910945437"><ele>85.2</ele><time>2026-04-03T14:11:48.001Z</time></trkpt><trkpt lat="42.97219339835901" lon="11.138263542811131"><ele>84.6</ele><time>2026-04-03T14:11:49.001Z</time></trkpt><trkpt lat="42.97217668651651" lon="11.138123018506466"><ele>84.0</ele><time>2026-04-03T14:11:50.001Z</time></trkpt><trkpt lat="42.97216368113668" lon="11.137999132797171"><ele>83.83333333333333</ele><time>2026-04-03T14:11:51.001Z</time></trkpt><trkpt lat="42.97214690822887" lon="11.137877835679184"><ele>83.66666666666667</ele><time>2026-04-03T14:11:52.001Z</time></trkpt><trkpt lat="42.97212912331652" lon="11.137761022359554"><ele>83.5</ele><time>2026-04-03T14:11:53.001Z</time></trkpt><trkpt lat="42.972114208844054" lon="11.13766514806407"><ele>83.33333333333334</ele><time>2026-04-03T14:11:54.001Z</time></trkpt><trkpt lat="42.97210231275759" lon="11.137573210181595"><ele>83.16666666666667</ele><time>2026-04-03T14:11:55.001Z</time></trkpt><trkpt lat="42.97209530384427" lon="11.137461138965438"><ele>83.0</ele><time>2026-04-03T14:11:56.001Z</time></trkpt><trkpt lat="42.97208377788131" lon="11.137339445765479"><ele>82.66666666666667</ele><time>2026-04-03T14:11:57.001Z</time></trkpt><trkpt lat="42.97206685816644" lon="11.137230268181579"><ele>82.33333333333334</ele><time>2026-04-03T14:11:58.001Z</time></trkpt><trkpt lat="42.972074874563134" lon="11.137136523274119"><ele>82.0</ele><time>2026-04-03T14:11:59.001Z</time></trkpt><trkpt lat="42.9720681968108" lon="11.136981843051158"><ele>81.66666666666667</ele><time>2026-04-03T14:12:01.001Z</time></trkpt><trkpt lat="42.97206881869928" lon="11.136884325292458"><ele>81.33333333333333</ele><time>2026-04-03T14:12:03.001Z</time></trkpt><trkpt lat="42.97205996786081" lon="11.136787081207936"><ele>81.0</ele><time>2026-04-03T14:14:41Z</time></trkpt><trkpt lat="42.97210002671428" lon="11.1366594519785"><ele>80.83333333333333</ele><time>2026-04-03T14:14:43Z</time></trkpt><trkpt lat="42.97213519345725" lon="11.136490407637577"><ele>80.66666666666667</ele><time>2026-04-03T14:14:45Z</time></trkpt><trkpt lat="42.972159076544685" lon="11.136407357361612"><ele>80.5</ele><time>2026-04-03T14:14:46Z</time></trkpt><trkpt lat="42.972201324214446" lon="11.136321720761945"><ele>80.33333333333334</ele><time>2026-04-03T14:14:47Z</time></trkpt><trkpt lat="42.97223415131759" lon="11.1362221350222"><ele>80.16666666666667</ele><time>2026-04-03T14:14:48Z</time></trkpt><trkpt lat="42.97226983479874" lon="11.136111977541786"><ele>80.0</ele><time>2026-04-03T14:14:49Z</time></trkpt><trkpt lat="42.9723040140002" lon="11.136002404978967"><ele>80.0</ele><time>2026-04-03T14:14:50Z</time></trkpt><trkpt lat="42.97233620447411" lon="11.135890130560274"><ele>80.0</ele><time>2026-04-03T14:14:51Z</time></trkpt><trkpt lat="42.97236891166755" lon="11.135775099626182"><ele>80.0</ele><time>2026-04-03T14:14:52Z</time></trkpt><trkpt lat="42.97240272396395" lon="11.135655156798174"><ele>80.0</ele><time>2026-04-03T14:14:53Z</time></trkpt><trkpt lat="42.97243957845777" lon="11.135522671191497"><ele>80.0</ele><time>2026-04-03T14:14:54Z</time></trkpt><trkpt lat="42.972478594086695" lon="11.135382416801715"><ele>80.2</ele><time>2026-04-03T14:14:55Z</time></trkpt><trkpt lat="42.97251684677843" lon="11.135244924946388"><ele>80.4</ele><time>2026-04-03T14:14:56Z</time></trkpt><trkpt lat="42.97253857880743" lon="11.135107454034959"><ele>80.6</ele><time>2026-04-03T14:14:57Z</time></trkpt><trkpt lat="42.97258564440789" lon="11.134966235767582"><ele>80.8</ele><time>2026-04-03T14:14:58Z</time></trkpt><trkpt lat="42.97262514527141" lon="11.13481727522035"><ele>81.0</ele><time>2026-04-03T14:14:59Z</time></trkpt><trkpt lat="42.97267182918615" lon="11.134663960359974"><ele>81.25</ele><time>2026-04-03T14:15:00Z</time></trkpt><trkpt lat="42.97271584317614" lon="11.134502680723433"><ele>81.5</ele><time>2026-04-03T14:15:01Z</time></trkpt><trkpt lat="42.972766451122304" lon="11.134340535403222"><ele>81.75</ele><time>2026-04-03T14:15:02Z</time></trkpt><trkpt lat="42.97280527247934" lon="11.134191719056851"><ele>82.0</ele><time>2026-04-03T14:15:03Z</time></trkpt><trkpt lat="42.972847777939684" lon="11.134046730514159"><ele>82.16666666666666</ele><time>2026-04-03T14:15:04Z</time></trkpt><trkpt lat="42.972887978447424" lon="11.133913119733904"><ele>82.33333333333333</ele><time>2026-04-03T14:15:05Z</time></trkpt><trkpt lat="42.97291864230288" lon="11.133798429647488"><ele>82.5</ele><time>2026-04-03T14:15:06Z</time></trkpt><trkpt lat="42.972952386423515" lon="11.133700546557074"><ele>82.66666666666667</ele><time>2026-04-03T14:15:07Z</time></trkpt><trkpt lat="42.97297309767163" lon="11.133601211206447"><ele>82.83333333333334</ele><time>2026-04-03T14:15:08Z</time></trkpt><trkpt lat="42.97301090217189" lon="11.133513664865994"><ele>83.0</ele><time>2026-04-03T14:15:09Z</time></trkpt><trkpt lat="42.97307598010332" lon="11.133396843696342"><ele>83.0</ele><time>2026-04-03T14:15:11Z</time></trkpt><trkpt lat="42.973201140087276" lon="11.133356211981129"><ele>83.0</ele><time>2026-04-03T14:15:13Z</time></trkpt><trkpt lat="42.973261392340525" lon="11.133329085352846"><ele>83.0</ele><time>2026-04-03T14:15:14Z</time></trkpt><trkpt lat="42.97331804266398" lon="11.133193294232575"><ele>83.0</ele><time>2026-04-03T14:15:16Z</time></trkpt><trkpt lat="42.97333563328359" lon="11.133100792758643"><ele>83.0</ele><time>2026-04-03T14:15:17Z</time></trkpt><trkpt lat="42.97335228510883" lon="11.133012079426168"><ele>83.0</ele><time>2026-04-03T14:15:18Z</time></trkpt><trkpt lat="42.97336442548836" lon="11.132919465428465"><ele>83.5</ele><time>2026-04-03T14:15:19Z</time></trkpt><trkpt lat="42.97337862176031" lon="11.132820836889918"><ele>84.0</ele><time>2026-04-03T14:15:20Z</time></trkpt><trkpt lat="42.973394707366474" lon="11.132720767100574"><ele>84.5</ele><time>2026-04-03T14:15:21Z</time></trkpt><trkpt lat="42.97341508752695" lon="11.132610929030008"><ele>85.0</ele><time>2026-04-03T14:15:22Z</time></trkpt><trkpt lat="42.97343913559578" lon="11.132483720495609"><ele>85.5</ele><time>2026-04-03T14:15:23Z</time></trkpt><trkpt lat="42.9734590898426" lon="11.132367048341758"><ele>86.0</ele><time>2026-04-03T14:15:24Z</time></trkpt><trkpt lat="42.97348082149378" lon="11.132246745737868"><ele>86.4</ele><time>2026-04-03T14:15:25Z</time></trkpt><trkpt lat="42.97350072456012" lon="11.13212615004084"><ele>86.8</ele><time>2026-04-03T14:15:26Z</time></trkpt><trkpt lat="42.97352440853231" lon="11.132006003240285"><ele>87.2</ele><time>2026-04-03T14:15:27Z</time></trkpt><trkpt lat="42.973547375295276" lon="11.131872158558565"><ele>87.60000000000001</ele><time>2026-04-03T14:15:28.001Z</time></trkpt><trkpt lat="42.97356886239092" lon="11.131734090857552"><ele>88.0</ele><time>2026-04-03T14:15:29.001Z</time></trkpt><trkpt lat="42.97359536011387" lon="11.131600072508556"><ele>88.2</ele><time>2026-04-03T14:15:30.001Z</time></trkpt><trkpt lat="42.97362023271074" lon="11.131460945151684"><ele>88.4</ele><time>2026-04-03T14:15:31.001Z</time></trkpt><trkpt lat="42.973649713575114" lon="11.131304499962264"><ele>88.60000000000001</ele><time>2026-04-03T14:15:32.001Z</time></trkpt><trkpt lat="42.97367276736152" lon="11.131151069807803"><ele>88.80000000000001</ele><time>2026-04-03T14:15:33.001Z</time></trkpt><trkpt lat="42.97369465477021" lon="11.131008169509233"><ele>89.0</ele><time>2026-04-03T14:15:34.001Z</time></trkpt><trkpt lat="42.97372184881267" lon="11.13085170757525"><ele>88.75</ele><time>2026-04-03T14:15:35.001Z</time></trkpt><trkpt lat="42.97374992796124" lon="11.130705494978253"><ele>88.5</ele><time>2026-04-03T14:15:36.001Z</time></trkpt><trkpt lat="42.97377749178278" lon="11.130553703395853"><ele>88.25</ele><time>2026-04-03T14:15:37.001Z</time></trkpt><trkpt lat="42.97380717374876" lon="11.13039849042865"><ele>88.0</ele><time>2026-04-03T14:15:38.001Z</time></trkpt><trkpt lat="42.97384514129679" lon="11.130238812057152"><ele>88.0</ele><time>2026-04-03T14:15:39.001Z</time></trkpt><trkpt lat="42.973870585328704" lon="11.130087232529647"><ele>88.0</ele><time>2026-04-03T14:15:40.001Z</time></trkpt><trkpt lat="42.97389983157836" lon="11.129929862115784"><ele>88.0</ele><time>2026-04-03T14:15:41.001Z</time></trkpt><trkpt lat="42.973937565325954" lon="11.129779581829855"><ele>88.0</ele><time>2026-04-03T14:15:42.001Z</time></trkpt><trkpt lat="42.97396999448844" lon="11.12962441073872"><ele>87.75</ele><time>2026-04-03T14:15:43.001Z</time></trkpt><trkpt lat="42.97400541960202" lon="11.129464549535875"><ele>87.5</ele><time>2026-04-03T14:15:44.001Z</time></trkpt><trkpt lat="42.97404742953672" lon="11.129319601698612"><ele>87.25</ele><time>2026-04-03T14:15:45.001Z</time></trkpt><trkpt lat="42.974085805399504" lon="11.129168939084495"><ele>87.0</ele><time>2026-04-03T14:15:46.001Z</time></trkpt><trkpt lat="42.974123209397334" lon="11.129023342682414"><ele>87.0</ele><time>2026-04-03T14:15:47.001Z</time></trkpt><trkpt lat="42.97416318342849" lon="11.128895447000476"><ele>87.0</ele><time>2026-04-03T14:15:48.001Z</time></trkpt><trkpt lat="42.97421035940667" lon="11.128753437983836"><ele>87.0</ele><time>2026-04-03T14:15:49.001Z</time></trkpt><trkpt lat="42.974246279232005" lon="11.128618248032502"><ele>87.0</ele><time>2026-04-03T14:15:50.001Z</time></trkpt><trkpt lat="42.97428844850629" lon="11.128489235209146"><ele>87.0</ele><time>2026-04-03T14:15:51.001Z</time></trkpt><trkpt lat="42.97433343724897" lon="11.128359992069347"><ele>87.6</ele><time>2026-04-03T14:15:52.001Z</time></trkpt><trkpt lat="42.974372326561486" lon="11.128231051884502"><ele>88.19999999999999</ele><time>2026-04-03T14:15:53.001Z</time></trkpt><trkpt lat="42.974421023046744" lon="11.128096880276274"><ele>88.8</ele><time>2026-04-03T14:15:54.001Z</time></trkpt><trkpt lat="42.974475391836265" lon="11.127964308736718"><ele>89.4</ele><time>2026-04-03T14:15:55.001Z</time></trkpt><trkpt lat="42.97452217065625" lon="11.12783348034653"><ele>90.0</ele><time>2026-04-03T14:15:56.001Z</time></trkpt><trkpt lat="42.974579593407114" lon="11.127707250816101"><ele>90.2</ele><time>2026-04-03T14:15:57Z</time></trkpt><trkpt lat="42.97462966548372" lon="11.127566005206038"><ele>90.4</ele><time>2026-04-03T14:15:58Z</time></trkpt><trkpt lat="42.97468204195683" lon="11.127439346232464"><ele>90.6</ele><time>2026-04-03T14:15:59Z</time></trkpt><trkpt lat="42.9747347498563" lon="11.127299386743967"><ele>90.8</ele><time>2026-04-03T14:16:00Z</time></trkpt><trkpt lat="42.97477976328368" lon="11.127167244612698"><ele>91.0</ele><time>2026-04-03T14:16:01Z</time></trkpt><trkpt lat="42.97484857120706" lon="11.127034746671692"><ele>91.0</ele><time>2026-04-03T14:16:02Z</time></trkpt><trkpt lat="42.97488878411258" lon="11.126893230552184"><ele>91.0</ele><time>2026-04-03T14:16:03Z</time></trkpt><trkpt lat="42.9749490184196" lon="11.126752913484529"><ele>91.0</ele><time>2026-04-03T14:16:04Z</time></trkpt><trkpt lat="42.975012353203496" lon="11.126616542329899"><ele>91.0</ele><time>2026-04-03T14:16:05Z</time></trkpt><trkpt lat="42.975057795198715" lon="11.126464632610405"><ele>91.5</ele><time>2026-04-03T14:16:06Z</time></trkpt><trkpt lat="42.97511709939691" lon="11.126320094032208"><ele>92.0</ele><time>2026-04-03T14:16:07Z</time></trkpt><trkpt lat="42.97518005269263" lon="11.126170494902668"><ele>92.5</ele><time>2026-04-03T14:16:08Z</time></trkpt><trkpt lat="42.975236802354885" lon="11.126002554381616"><ele>93.0</ele><time>2026-04-03T14:16:09Z</time></trkpt><trkpt lat="42.975293828803174" lon="11.12584082435374"><ele>93.0</ele><time>2026-04-03T14:16:10Z</time></trkpt><trkpt lat="42.97535540100438" lon="11.125695339108155"><ele>93.0</ele><time>2026-04-03T14:16:11Z</time></trkpt><trkpt lat="42.97541149725954" lon="11.125558071408525"><ele>93.0</ele><time>2026-04-03T14:16:12Z</time></trkpt><trkpt lat="42.97546400266293" lon="11.12541945607715"><ele>93.0</ele><time>2026-04-03T14:16:13Z</time></trkpt><trkpt lat="42.97551810187544" lon="11.125290395613076"><ele>93.0</ele><time>2026-04-03T14:16:14Z</time></trkpt><trkpt lat="42.97557205168954" lon="11.12516023989079"><ele>93.0</ele><time>2026-04-03T14:16:15Z</time></trkpt><trkpt lat="42.97561786864232" lon="11.12501562709715"><ele>93.0</ele><time>2026-04-03T14:16:16Z</time></trkpt><trkpt lat="42.97566919018902" lon="11.124881796707104"><ele>93.0</ele><time>2026-04-03T14:16:17Z</time></trkpt><trkpt lat="42.97572769390753" lon="11.124745108148149"><ele>93.2</ele><time>2026-04-03T14:16:18Z</time></trkpt><trkpt lat="42.97576893221244" lon="11.124606947061023"><ele>93.4</ele><time>2026-04-03T14:16:19Z</time></trkpt><trkpt lat="42.9758229983008" lon="11.124468129976323"><ele>93.60000000000001</ele><time>2026-04-03T14:16:20Z</time></trkpt><trkpt lat="42.97587139532218" lon="11.124333807679402"><ele>93.80000000000001</ele><time>2026-04-03T14:16:21Z</time></trkpt><trkpt lat="42.975930244915794" lon="11.124210110339435"><ele>94.0</ele><time>2026-04-03T14:16:22Z</time></trkpt><trkpt lat="42.97598002320574" lon="11.124081826402925"><ele>94.4</ele><time>2026-04-03T14:16:23Z</time></trkpt><trkpt lat="42.97602987842602" lon="11.12394799266193"><ele>94.80000000000001</ele><time>2026-04-03T14:16:24Z</time></trkpt><trkpt lat="42.976086878813156" lon="11.123821070805134"><ele>95.19999999999999</ele><time>2026-04-03T14:16:25Z</time></trkpt><trkpt lat="42.976132087028375" lon="11.123704392866015"><ele>95.6</ele><time>2026-04-03T14:16:26Z</time></trkpt><trkpt lat="42.97618005699771" lon="11.123570344453496"><ele>96.0</ele><time>2026-04-03T14:16:27Z</time></trkpt><trkpt lat="42.976227407879755" lon="11.1234422796708"><ele>96.0</ele><time>2026-04-03T14:16:28Z</time></trkpt><trkpt lat="42.976287011352625" lon="11.123303723417907"><ele>96.0</ele><time>2026-04-03T14:16:29Z</time></trkpt><trkpt lat="42.976326652156025" lon="11.123175349447132"><ele>96.0</ele><time>2026-04-03T14:16:30Z</time></trkpt><trkpt lat="42.97638059067185" lon="11.123049783915675"><ele>96.0</ele><time>2026-04-03T14:16:31Z</time></trkpt><trkpt lat="42.97642684090433" lon="11.122915653668084"><ele>96.0</ele><time>2026-04-03T14:16:32Z</time></trkpt><trkpt lat="42.976480569645936" lon="11.122774921805298"><ele>96.0</ele><time>2026-04-03T14:16:33Z</time></trkpt><trkpt lat="42.97652898322278" lon="11.12264893094258"><ele>96.0</ele><time>2026-04-03T14:16:34Z</time></trkpt><trkpt lat="42.97656917964809" lon="11.122549636956167"><ele>96.0</ele><time>2026-04-03T14:16:35Z</time></trkpt><trkpt lat="42.9766015127815" lon="11.12245865143641"><ele>96.0</ele><time>2026-04-03T14:16:36Z</time></trkpt><trkpt lat="42.976666594742866" lon="11.1222992042669"><ele>96.0</ele><time>2026-04-03T14:16:38Z</time></trkpt><trkpt lat="42.9767209335461" lon="11.122166887741365"><ele>96.0</ele><time>2026-04-03T14:16:40Z</time></trkpt><trkpt lat="42.976769132751386" lon="11.122080819921214"><ele>96.0</ele><time>2026-04-03T14:16:42Z</time></trkpt><trkpt lat="42.976737005811096" lon="11.121987086999676"><ele>96.0</ele><time>2026-04-03T14:16:45Z</time></trkpt><trkpt lat="42.976640166252274" lon="11.121917193839474"><ele>96.0</ele><time>2026-04-03T14:16:48Z</time></trkpt><trkpt lat="42.976525279131955" lon="11.121869567437118"><ele>96.0</ele><time>2026-04-03T14:16:50Z</time></trkpt><trkpt lat="42.97646070563141" lon="11.12184279852598"><ele>96.0</ele><time>2026-04-03T14:16:51Z</time></trkpt><trkpt lat="42.97639940777938" lon="11.121817387487864"><ele>96.0</ele><time>2026-04-03T14:16:52Z</time></trkpt><trkpt lat="42.9763311886652" lon="11.121788908697491"><ele>96.0</ele><time>2026-04-03T14:16:53Z</time></trkpt><trkpt lat="42.9762599258406" lon="11.121758305901484"><ele>96.0</ele><time>2026-04-03T14:16:54Z</time></trkpt><trkpt lat="42.976190260373" lon="11.121728389059127"><ele>96.0</ele><time>2026-04-03T14:16:55Z</time></trkpt><trkpt lat="42.97611280392801" lon="11.121695126481676"><ele>96.0</ele><time>2026-04-03T14:16:56Z</time></trkpt><trkpt lat="42.976021036904484" lon="11.121655718552073"><ele>96.0</ele><time>2026-04-03T14:16:57Z</time></trkpt><trkpt lat="42.97592856163181" lon="11.121616006280473"><ele>96.0</ele><time>2026-04-03T14:16:58Z</time></trkpt><trkpt lat="42.975837313154415" lon="11.121576820920541"><ele>96.0</ele><time>2026-04-03T14:16:59Z</time></trkpt><trkpt lat="42.97574542488411" lon="11.121537360812436"><ele>96.0</ele><time>2026-04-03T14:17:00Z</time></trkpt><trkpt lat="42.9756433748412" lon="11.121493536917008"><ele>96.0</ele><time>2026-04-03T14:17:01Z</time></trkpt><trkpt lat="42.975545747227706" lon="11.121451612102184"><ele>95.4</ele><time>2026-04-03T14:17:02Z</time></trkpt><trkpt lat="42.97544479103574" lon="11.121408257921273"><ele>94.8</ele><time>2026-04-03T14:17:03Z</time></trkpt><trkpt lat="42.97533936639295" lon="11.121362501424644"><ele>94.2</ele><time>2026-04-03T14:17:04Z</time></trkpt><trkpt lat="42.97522995681244" lon="11.121314382052569"><ele>93.60000000000001</ele><time>2026-04-03T14:17:05Z</time></trkpt><trkpt lat="42.97512198163973" lon="11.121266893606244"><ele>93.0</ele><time>2026-04-03T14:17:06Z</time></trkpt><trkpt lat="42.97501404302208" lon="11.121219835858042"><ele>92.25</ele><time>2026-04-03T14:17:07Z</time></trkpt><trkpt lat="42.974904043446614" lon="11.121172713090447"><ele>91.5</ele><time>2026-04-03T14:17:08Z</time></trkpt><trkpt lat="42.97479596659748" lon="11.121126414010918"><ele>90.75</ele><time>2026-04-03T14:17:09Z</time></trkpt><trkpt lat="42.97468581611497" lon="11.121079226612903"><ele>90.0</ele><time>2026-04-03T14:17:10Z</time></trkpt><trkpt lat="42.97457627060429" lon="11.121032298361788"><ele>90.0</ele><time>2026-04-03T14:17:11Z</time></trkpt><trkpt lat="42.97446565638374" lon="11.12098491230087"><ele>90.0</ele><time>2026-04-03T14:17:12Z</time></trkpt><trkpt lat="42.97435425191567" lon="11.120937187701463"><ele>90.0</ele><time>2026-04-03T14:17:13Z</time></trkpt><trkpt lat="42.97424024539179" lon="11.12088834841703"><ele>90.0</ele><time>2026-04-03T14:17:14Z</time></trkpt><trkpt lat="42.974124106282204" lon="11.120838595543407"><ele>89.5</ele><time>2026-04-03T14:17:15Z</time></trkpt><trkpt lat="42.97401429345447" lon="11.120791552732786"><ele>89.0</ele><time>2026-04-03T14:17:16Z</time></trkpt><trkpt lat="42.973899683471195" lon="11.120742454935256"><ele>88.5</ele><time>2026-04-03T14:17:17Z</time></trkpt><trkpt lat="42.97378375992151" lon="11.120692794432644"><ele>88.0</ele><time>2026-04-03T14:17:18Z</time></trkpt><trkpt lat="42.973668298650566" lon="11.120643331922096"><ele>88.0</ele><time>2026-04-03T14:17:19Z</time></trkpt><trkpt lat="42.97355865861236" lon="11.12059636317629"><ele>88.0</ele><time>2026-04-03T14:17:20Z</time></trkpt><trkpt lat="42.97345071312354" lon="11.120550305546013"><ele>88.0</ele><time>2026-04-03T14:17:21Z</time></trkpt><trkpt lat="42.97334758517499" lon="11.120507013001552"><ele>88.0</ele><time>2026-04-03T14:17:22Z</time></trkpt><trkpt lat="42.97323773752085" lon="11.120460899690562"><ele>88.0</ele><time>2026-04-03T14:17:23Z</time></trkpt><trkpt lat="42.9731364055918" lon="11.120418361115929"><ele>88.0</ele><time>2026-04-03T14:17:24Z</time></trkpt><trkpt lat="42.973036511868344" lon="11.120376426340563"><ele>88.0</ele><time>2026-04-03T14:17:25Z</time></trkpt><trkpt lat="42.972933883715605" lon="11.120333076688102"><ele>88.0</ele><time>2026-04-03T14:17:26Z</time></trkpt><trkpt lat="42.97284293497261" lon="11.12029388853518"><ele>88.0</ele><time>2026-04-03T14:17:27Z</time></trkpt><trkpt lat="42.97274213021026" lon="11.120250453618976"><ele>88.0</ele><time>2026-04-03T14:17:28Z</time></trkpt><trkpt lat="42.97264805573201" lon="11.120209918707582"><ele>88.0</ele><time>2026-04-03T14:17:29Z</time></trkpt><trkpt lat="42.97255703640813" lon="11.120170700065584"><ele>88.0</ele><time>2026-04-03T14:17:30Z</time></trkpt><trkpt lat="42.97245999628987" lon="11.120129299845054"><ele>88.0</ele><time>2026-04-03T14:17:31Z</time></trkpt><trkpt lat="42.97237257694651" lon="11.12009240681717"><ele>88.0</ele><time>2026-04-03T14:17:32Z</time></trkpt><trkpt lat="42.9722817939989" lon="11.120051226779989"><ele>87.80000000000001</ele><time>2026-04-03T14:17:33Z</time></trkpt><trkpt lat="42.97219037617124" lon="11.120008191633216"><ele>87.6</ele><time>2026-04-03T14:17:34.001Z</time></trkpt><trkpt lat="42.97210276506545" lon="11.119963422650288"><ele>87.4</ele><time>2026-04-03T14:17:35.001Z</time></trkpt><trkpt lat="42.97201403797412" lon="11.11991542919944"><ele>87.19999999999999</ele><time>2026-04-03T14:17:36.001Z</time></trkpt><trkpt lat="42.971917375326996" lon="11.119861441667123"><ele>87.0</ele><time>2026-04-03T14:17:37.001Z</time></trkpt><trkpt lat="42.97182663931306" lon="11.119806578641189"><ele>87.0</ele><time>2026-04-03T14:17:38.001Z</time></trkpt><trkpt lat="42.971726915282865" lon="11.119746281028133"><ele>87.0</ele><time>2026-04-03T14:17:39.001Z</time></trkpt><trkpt lat="42.971633129083884" lon="11.119689573640983"><ele>87.0</ele><time>2026-04-03T14:17:40.001Z</time></trkpt><trkpt lat="42.97153758292121" lon="11.11963226252482"><ele>87.0</ele><time>2026-04-03T14:17:41.001Z</time></trkpt><trkpt lat="42.97144032001273" lon="11.119575427056981"><ele>87.0</ele><time>2026-04-03T14:17:42.001Z</time></trkpt><trkpt lat="42.971340354760606" lon="11.119517012583215"><ele>86.8</ele><time>2026-04-03T14:17:43.001Z</time></trkpt><trkpt lat="42.97124288975038" lon="11.119460058950875"><ele>86.6</ele><time>2026-04-03T14:17:44.001Z</time></trkpt><trkpt lat="42.97114049791154" lon="11.119400226461462"><ele>86.39999999999999</ele><time>2026-04-03T14:17:45.001Z</time></trkpt><trkpt lat="42.97103805640392" lon="11.119340364901193"><ele>86.19999999999999</ele><time>2026-04-03T14:17:46.001Z</time></trkpt><trkpt lat="42.97093754743307" lon="11.119279509325729"><ele>86.0</ele><time>2026-04-03T14:17:47.001Z</time></trkpt><trkpt lat="42.97083223386387" lon="11.119215206674745"><ele>86.0</ele><time>2026-04-03T14:17:48.001Z</time></trkpt><trkpt lat="42.97072684673336" lon="11.119151623777686"><ele>86.0</ele><time>2026-04-03T14:17:49.001Z</time></trkpt><trkpt lat="42.97062581673321" lon="11.11909120025792"><ele>86.0</ele><time>2026-04-03T14:17:50.001Z</time></trkpt><trkpt lat="42.97052157963933" lon="11.119030446863936"><ele>86.0</ele><time>2026-04-03T14:17:51.001Z</time></trkpt><trkpt lat="42.97041711661343" lon="11.118970377723311"><ele>85.5</ele><time>2026-04-03T14:17:52.001Z</time></trkpt><trkpt lat="42.970316395178266" lon="11.11891219474761"><ele>85.0</ele><time>2026-04-03T14:17:53.001Z</time></trkpt><trkpt lat="42.97021275279214" lon="11.118849260087675"><ele>84.5</ele><time>2026-04-03T14:17:54.001Z</time></trkpt><trkpt lat="42.97010687368366" lon="11.118785568394383"><ele>84.0</ele><time>2026-04-03T14:17:55.001Z</time></trkpt><trkpt lat="42.97000029504445" lon="11.118722410793852"><ele>83.25</ele><time>2026-04-03T14:17:56.001Z</time></trkpt><trkpt lat="42.96989750144866" lon="11.118661495962378"><ele>82.5</ele><time>2026-04-03T14:17:57.001Z</time></trkpt><trkpt lat="42.969791447173996" lon="11.118598648994833"><ele>81.75</ele><time>2026-04-03T14:17:58.001Z</time></trkpt><trkpt lat="42.969686489025946" lon="11.11853645164088"><ele>81.0</ele><time>2026-04-03T14:17:59.001Z</time></trkpt><trkpt lat="42.969579004565894" lon="11.118473142540203"><ele>81.0</ele><time>2026-04-03T14:18:00.001Z</time></trkpt><trkpt lat="42.96947456836958" lon="11.118412342540587"><ele>81.0</ele><time>2026-04-03T14:18:01.001Z</time></trkpt><trkpt lat="42.96936795027322" lon="11.118350272242845"><ele>81.0</ele><time>2026-04-03T14:18:02.001Z</time></trkpt><trkpt lat="42.96926169495579" lon="11.11828841323721"><ele>81.0</ele><time>2026-04-03T14:18:03.001Z</time></trkpt><trkpt lat="42.96915424196654" lon="11.118225856899256"><ele>80.75</ele><time>2026-04-03T14:18:04.001Z</time></trkpt><trkpt lat="42.969046214626154" lon="11.118162966275898"><ele>80.5</ele><time>2026-04-03T14:18:05.001Z</time></trkpt><trkpt lat="42.96893939083514" lon="11.118100814750381"><ele>80.25</ele><time>2026-04-03T14:18:06.001Z</time></trkpt><trkpt lat="42.9688306804698" lon="11.118037583775823"><ele>80.0</ele><time>2026-04-03T14:18:07.001Z</time></trkpt><trkpt lat="42.968716850248384" lon="11.11797137488219"><ele>80.0</ele><time>2026-04-03T14:18:08Z</time></trkpt><trkpt lat="42.96860892142504" lon="11.11790859842632"><ele>80.0</ele><time>2026-04-03T14:18:09Z</time></trkpt><trkpt lat="42.968497453500405" lon="11.117842100588328"><ele>80.0</ele><time>2026-04-03T14:18:10Z</time></trkpt><trkpt lat="42.96838404237006" lon="11.117773024037092"><ele>80.0</ele><time>2026-04-03T14:18:11Z</time></trkpt><trkpt lat="42.96827355042523" lon="11.117707209797892"><ele>79.5</ele><time>2026-04-03T14:18:12Z</time></trkpt><trkpt lat="42.96816534521069" lon="11.117642848535604"><ele>79.0</ele><time>2026-04-03T14:18:13Z</time></trkpt><trkpt lat="42.96806189281093" lon="11.117581314278167"><ele>78.5</ele><time>2026-04-03T14:18:14Z</time></trkpt><trkpt lat="42.96795429837762" lon="11.117517316402656"><ele>78.0</ele><time>2026-04-03T14:18:15Z</time></trkpt><trkpt lat="42.96784930837265" lon="11.117454867610572"><ele>78.0</ele><time>2026-04-03T14:18:16Z</time></trkpt><trkpt lat="42.96774443252138" lon="11.117392486689461"><ele>78.0</ele><time>2026-04-03T14:18:17Z</time></trkpt><trkpt lat="42.96763826387604" lon="11.117328692976049"><ele>78.0</ele><time>2026-04-03T14:18:18Z</time></trkpt><trkpt lat="42.967535363766714" lon="11.117265016390613"><ele>78.0</ele><time>2026-04-03T14:18:19Z</time></trkpt><trkpt lat="42.967433994686054" lon="11.11720228725247"><ele>77.75</ele><time>2026-04-03T14:18:20Z</time></trkpt><trkpt lat="42.96733026760436" lon="11.117138126025605"><ele>77.5</ele><time>2026-04-03T14:18:21Z</time></trkpt><trkpt lat="42.96722665115313" lon="11.11707906778111"><ele>77.25</ele><time>2026-04-03T14:18:22Z</time></trkpt><trkpt lat="42.96712236502309" lon="11.117017761326235"><ele>77.0</ele><time>2026-04-03T14:18:23Z</time></trkpt><trkpt lat="42.96701952798436" lon="11.11695599543859"><ele>77.0</ele><time>2026-04-03T14:18:24Z</time></trkpt><trkpt lat="42.96691515020317" lon="11.116894926232787"><ele>77.0</ele><time>2026-04-03T14:18:25Z</time></trkpt><trkpt lat="42.96680894081495" lon="11.116833476630694"><ele>77.0</ele><time>2026-04-03T14:18:26Z</time></trkpt><trkpt lat="42.96670043814083" lon="11.11677070013898"><ele>77.0</ele><time>2026-04-03T14:18:27Z</time></trkpt><trkpt lat="42.96659686830503" lon="11.116710777760705"><ele>77.0</ele><time>2026-04-03T14:18:28Z</time></trkpt><trkpt lat="42.966486783925205" lon="11.116647086075368"><ele>77.0</ele><time>2026-04-03T14:18:29Z</time></trkpt><trkpt lat="42.9663782027079" lon="11.11658426412213"><ele>77.0</ele><time>2026-04-03T14:18:30Z</time></trkpt><trkpt lat="42.966270153704656" lon="11.116521750153582"><ele>77.0</ele><time>2026-04-03T14:18:31Z</time></trkpt><trkpt lat="42.96615516104891" lon="11.116479610014224"><ele>76.75</ele><time>2026-04-03T14:18:32Z</time></trkpt><trkpt lat="42.966053532263956" lon="11.116396419345433"><ele>76.5</ele><time>2026-04-03T14:18:33Z</time></trkpt><trkpt lat="42.9659451082815" lon="11.116333687090295"><ele>76.25</ele><time>2026-04-03T14:18:34Z</time></trkpt><trkpt lat="42.96583455684247" lon="11.116266099921454"><ele>76.0</ele><time>2026-04-03T14:18:35Z</time></trkpt><trkpt lat="42.96572747924769" lon="11.116201525278422"><ele>75.75</ele><time>2026-04-03T14:18:36Z</time></trkpt><trkpt lat="42.9656167683673" lon="11.116135330456856"><ele>75.5</ele><time>2026-04-03T14:18:37Z</time></trkpt><trkpt lat="42.96550460930517" lon="11.11606866863111"><ele>75.25</ele><time>2026-04-03T14:18:38Z</time></trkpt><trkpt lat="42.96538983912055" lon="11.116000453206405"><ele>75.0</ele><time>2026-04-03T14:18:39Z</time></trkpt><trkpt lat="42.96527682999054" lon="11.115933284470273"><ele>75.0</ele><time>2026-04-03T14:18:40Z</time></trkpt><trkpt lat="42.96516300811408" lon="11.115865632680205"><ele>75.0</ele><time>2026-04-03T14:18:41Z</time></trkpt><trkpt lat="42.96504788517628" lon="11.115797207593028"><ele>75.0</ele><time>2026-04-03T14:18:42Z</time></trkpt><trkpt lat="42.964931359372294" lon="11.115728089171789"><ele>75.0</ele><time>2026-04-03T14:18:43Z</time></trkpt><trkpt lat="42.96481364720543" lon="11.11565896167124"><ele>75.0</ele><time>2026-04-03T14:18:44Z</time></trkpt><trkpt lat="42.96469324292257" lon="11.115588253213414"><ele>75.0</ele><time>2026-04-03T14:18:45Z</time></trkpt><trkpt lat="42.96457214772036" lon="11.115517138988556"><ele>75.0</ele><time>2026-04-03T14:18:46Z</time></trkpt><trkpt lat="42.96445447343431" lon="11.1154485363677"><ele>75.0</ele><time>2026-04-03T14:18:47Z</time></trkpt><trkpt lat="42.96433010361531" lon="11.11537764104847"><ele>75.0</ele><time>2026-04-03T14:18:48Z</time></trkpt><trkpt lat="42.964213447799345" lon="11.115308712889355"><ele>75.0</ele><time>2026-04-03T14:18:49Z</time></trkpt><trkpt lat="42.96408981452816" lon="11.115235662057422"><ele>75.0</ele><time>2026-04-03T14:18:50Z</time></trkpt><trkpt lat="42.96396691466025" lon="11.115163044523353"><ele>75.0</ele><time>2026-04-03T14:18:51Z</time></trkpt><trkpt lat="42.96384320489317" lon="11.115091820586718"><ele>75.0</ele><time>2026-04-03T14:18:52Z</time></trkpt><trkpt lat="42.96371914855229" lon="11.115020677374925"><ele>75.0</ele><time>2026-04-03T14:18:53Z</time></trkpt><trkpt lat="42.963601100526866" lon="11.114952979742316"><ele>75.0</ele><time>2026-04-03T14:18:54Z</time></trkpt><trkpt lat="42.96347590684188" lon="11.114879857443212"><ele>75.0</ele><time>2026-04-03T14:18:55Z</time></trkpt><trkpt lat="42.96335648966019" lon="11.114807620362543"><ele>74.5</ele><time>2026-04-03T14:18:56Z</time></trkpt><trkpt lat="42.963240154030416" lon="11.114738191955825"><ele>74.0</ele><time>2026-04-03T14:18:57Z</time></trkpt><trkpt lat="42.96312199760237" lon="11.114670480799555"><ele>73.5</ele><time>2026-04-03T14:18:58Z</time></trkpt><trkpt lat="42.96301206897464" lon="11.11460759167367"><ele>73.0</ele><time>2026-04-03T14:18:59Z</time></trkpt><trkpt lat="42.96289605964422" lon="11.114538284631157"><ele>73.0</ele><time>2026-04-03T14:19:00Z</time></trkpt><trkpt lat="42.962790462761276" lon="11.114476141974157"><ele>73.0</ele><time>2026-04-03T14:19:01Z</time></trkpt><trkpt lat="42.96268083316512" lon="11.11441153697749"><ele>73.0</ele><time>2026-04-03T14:19:02Z</time></trkpt><trkpt lat="42.96257074521045" lon="11.114346274305273"><ele>73.0</ele><time>2026-04-03T14:19:03Z</time></trkpt><trkpt lat="42.96246339614054" lon="11.11428110941248"><ele>72.8</ele><time>2026-04-03T14:19:04Z</time></trkpt><trkpt lat="42.9623623015361" lon="11.114219741194253"><ele>72.6</ele><time>2026-04-03T14:19:05Z</time></trkpt><trkpt lat="42.96226602925617" lon="11.114161300285721"><ele>72.4</ele><time>2026-04-03T14:19:06Z</time></trkpt><trkpt lat="42.96217509639686" lon="11.114106198475188"><ele>72.2</ele><time>2026-04-03T14:19:07Z</time></trkpt><trkpt lat="42.96208764207037" lon="11.114053878099144"><ele>72.0</ele><time>2026-04-03T14:19:08Z</time></trkpt><trkpt lat="42.962014610522154" lon="11.114010186281256"><ele>71.8</ele><time>2026-04-03T14:19:09Z</time></trkpt><trkpt lat="42.96194874140221" lon="11.11397077944192"><ele>71.6</ele><time>2026-04-03T14:19:10Z</time></trkpt><trkpt lat="42.96185881231635" lon="11.113915936854584"><ele>71.39999999999999</ele><time>2026-04-03T14:19:12Z</time></trkpt><trkpt lat="42.961802012825956" lon="11.113842932836775"><ele>71.2</ele><time>2026-04-03T14:19:16Z</time></trkpt><trkpt lat="42.96183162361614" lon="11.113662572163786"><ele>71.0</ele><time>2026-04-03T14:19:18Z</time></trkpt><trkpt lat="42.96183344356712" lon="11.113491697454899"><ele>71.0</ele><time>2026-04-03T14:19:20Z</time></trkpt><trkpt lat="42.96183212656622" lon="11.113330211947968"><ele>71.0</ele><time>2026-04-03T14:19:22Z</time></trkpt><trkpt lat="42.96183417210633" lon="11.11323279082388"><ele>71.0</ele><time>2026-04-03T14:19:23Z</time></trkpt><trkpt lat="42.96183650690589" lon="11.113123481613739"><ele>71.0</ele><time>2026-04-03T14:19:24Z</time></trkpt><trkpt lat="42.96184070340387" lon="11.113005343784117"><ele>71.0</ele><time>2026-04-03T14:19:25Z</time></trkpt><trkpt lat="42.961842043268305" lon="11.112887367427298"><ele>71.0</ele><time>2026-04-03T14:19:26Z</time></trkpt><trkpt lat="42.96184195316595" lon="11.112771911347208"><ele>71.0</ele><time>2026-04-03T14:19:27Z</time></trkpt><trkpt lat="42.96184304923265" lon="11.112644839785284"><ele>71.0</ele><time>2026-04-03T14:19:28Z</time></trkpt><trkpt lat="42.96184417246564" lon="11.112507733267039"><ele>71.0</ele><time>2026-04-03T14:19:29Z</time></trkpt><trkpt lat="42.96184642128082" lon="11.112365459274923"><ele>71.0</ele><time>2026-04-03T14:19:30Z</time></trkpt><trkpt lat="42.96184762089219" lon="11.112220021126909"><ele>71.0</ele><time>2026-04-03T14:19:31Z</time></trkpt><trkpt lat="42.96185348243784" lon="11.11207977308649"><ele>71.0</ele><time>2026-04-03T14:19:32Z</time></trkpt><trkpt lat="42.9618571957625" lon="11.111932485206898"><ele>71.0</ele><time>2026-04-03T14:19:33Z</time></trkpt><trkpt lat="42.96186069340052" lon="11.111781894489111"><ele>71.0</ele><time>2026-04-03T14:19:34Z</time></trkpt><trkpt lat="42.961862414735165" lon="11.111635987713564"><ele>71.0</ele><time>2026-04-03T14:19:35Z</time></trkpt><trkpt lat="42.96186299576705" lon="11.111488718344484"><ele>71.0</ele><time>2026-04-03T14:19:36Z</time></trkpt><trkpt lat="42.96186396601372" lon="11.111330741757294"><ele>71.0</ele><time>2026-04-03T14:19:37Z</time></trkpt><trkpt lat="42.96186672169806" lon="11.11117208592191"><ele>71.0</ele><time>2026-04-03T14:19:38Z</time></trkpt><trkpt lat="42.961868673288606" lon="11.111013574794278"><ele>71.0</ele><time>2026-04-03T14:19:39Z</time></trkpt><trkpt lat="42.96187237892805" lon="11.110853900108607"><ele>71.0</ele><time>2026-04-03T14:19:40.001Z</time></trkpt><trkpt lat="42.96187461573683" lon="11.110693940393219"><ele>70.6</ele><time>2026-04-03T14:19:41.001Z</time></trkpt><trkpt lat="42.96187525022866" lon="11.110532250697956"><ele>70.19999999999999</ele><time>2026-04-03T14:19:42.001Z</time></trkpt><trkpt lat="42.96188027299737" lon="11.110384535486777"><ele>69.80000000000001</ele><time>2026-04-03T14:19:43.001Z</time></trkpt><trkpt lat="42.96188330167624" lon="11.11024161017023"><ele>69.4</ele><time>2026-04-03T14:19:44.001Z</time></trkpt><trkpt lat="42.96188691724912" lon="11.110095378007243"><ele>69.0</ele><time>2026-04-03T14:19:45.001Z</time></trkpt><trkpt lat="42.961889497504046" lon="11.109964535863915"><ele>68.83333333333333</ele><time>2026-04-03T14:19:46.001Z</time></trkpt><trkpt lat="42.96189168444085" lon="11.109830603794377"><ele>68.66666666666667</ele><time>2026-04-03T14:19:47.001Z</time></trkpt><trkpt lat="42.96189722698431" lon="11.109711890249436"><ele>68.5</ele><time>2026-04-03T14:19:48.001Z</time></trkpt><trkpt lat="42.96189981575368" lon="11.109602720872722"><ele>68.33333333333334</ele><time>2026-04-03T14:19:49.001Z</time></trkpt><trkpt lat="42.96190629799007" lon="11.109501196102118"><ele>68.16666666666667</ele><time>2026-04-03T14:19:50.001Z</time></trkpt><trkpt lat="42.96191671249255" lon="11.109410060419144"><ele>68.0</ele><time>2026-04-03T14:19:51.001Z</time></trkpt><trkpt lat="42.961938952324374" lon="11.109320495313689"><ele>67.99999999999999</ele><time>2026-04-03T14:19:52.001Z</time></trkpt><trkpt lat="42.9619705078387" lon="11.109242742275164"><ele>68.0</ele><time>2026-04-03T14:19:53.001Z</time></trkpt><trkpt lat="42.962008276197416" lon="11.109164770907183"><ele>68.0</ele><time>2026-04-03T14:19:54.001Z</time></trkpt><trkpt lat="42.962042930720415" lon="11.109087745587658"><ele>68.0</ele><time>2026-04-03T14:19:55.001Z</time></trkpt><trkpt lat="42.962083703056415" lon="11.108985510557382"><ele>68.0</ele><time>2026-04-03T14:19:57.001Z</time></trkpt><trkpt lat="42.96204160475308" lon="11.108883787599593"><ele>67.99999999999999</ele><time>2026-04-03T14:19:59.001Z</time></trkpt><trkpt lat="42.961976345388855" lon="11.108835548612237"><ele>68.0</ele><time>2026-04-03T14:20:00.001Z</time></trkpt><trkpt lat="42.961898124974695" lon="11.10873489158948"><ele>69.2</ele><time>2026-04-03T14:20:02.001Z</time></trkpt><trkpt lat="42.96188554804262" lon="11.108591564905712"><ele>70.4</ele><time>2026-04-03T14:20:04.001Z</time></trkpt><trkpt lat="42.96191979757558" lon="11.10851604403161"><ele>71.60000000000001</ele><time>2026-04-03T14:20:05.001Z</time></trkpt><trkpt lat="42.96191311874895" lon="11.108387582485745"><ele>72.8</ele><time>2026-04-03T14:20:07.001Z</time></trkpt><trkpt lat="42.9619284948399" lon="11.108286745456892"><ele>74.0</ele><time>2026-04-03T14:20:26.001Z</time></trkpt><trkpt lat="42.961886856768444" lon="11.108132358021322"><ele>74.33333333333334</ele><time>2026-04-03T14:20:28Z</time></trkpt><trkpt lat="42.96184905191757" lon="11.108055535985145"><ele>74.66666666666667</ele><time>2026-04-03T14:20:30Z</time></trkpt><trkpt lat="42.96180177200434" lon="11.107976511422057"><ele>75.0</ele><time>2026-04-03T14:20:32Z</time></trkpt><trkpt lat="42.96174975624009" lon="11.107892291571119"><ele>75.33333333333333</ele><time>2026-04-03T14:20:34Z</time></trkpt><trkpt lat="42.961687440606525" lon="11.107807693784286"><ele>75.66666666666666</ele><time>2026-04-03T14:20:37Z</time></trkpt><trkpt lat="42.961623414998265" lon="11.107718624705836"><ele>76.0</ele><time>2026-04-03T14:20:39Z</time></trkpt><trkpt lat="42.961569314645395" lon="11.107622407823564"><ele>76.0</ele><time>2026-04-03T14:20:41Z</time></trkpt><trkpt lat="42.96153518600005" lon="11.107548596617432"><ele>76.0</ele><time>2026-04-03T14:20:42Z</time></trkpt><trkpt lat="42.961483422996075" lon="11.107405036805059"><ele>76.0</ele><time>2026-04-03T14:20:44Z</time></trkpt><trkpt lat="42.96143294059705" lon="11.107249793822882"><ele>76.0</ele><time>2026-04-03T14:20:46Z</time></trkpt><trkpt lat="42.9614025741131" lon="11.107170876622787"><ele>76.0</ele><time>2026-04-03T14:20:46.999Z</time></trkpt><trkpt lat="42.96137258237158" lon="11.107095097182537"><ele>76.0</ele><time>2026-04-03T14:20:47.999Z</time></trkpt><trkpt lat="42.96132235382804" lon="11.10696837277406"><ele>75.66666666666666</ele><time>2026-04-03T14:20:49.999Z</time></trkpt><trkpt lat="42.96127586644669" lon="11.106826493055772"><ele>75.33333333333333</ele><time>2026-04-03T14:20:51.999Z</time></trkpt><trkpt lat="42.96125757533602" lon="11.106742381494891"><ele>75.0</ele><time>2026-04-03T14:20:52.999Z</time></trkpt><trkpt lat="42.96124672285846" lon="11.106651589830264"><ele>74.66666666666667</ele><time>2026-04-03T14:20:53.999Z</time></trkpt><trkpt lat="42.961237986995165" lon="11.106554501635339"><ele>74.33333333333334</ele><time>2026-04-03T14:20:54.999Z</time></trkpt><trkpt lat="42.96121903540762" lon="11.106459950939572"><ele>74.0</ele><time>2026-04-03T14:20:55.999Z</time></trkpt><trkpt lat="42.96121669572037" lon="11.106358327893796"><ele>73.83333333333334</ele><time>2026-04-03T14:20:56.999Z</time></trkpt><trkpt lat="42.96121677682635" lon="11.106259680278798"><ele>73.66666666666667</ele><time>2026-04-03T14:20:57.999Z</time></trkpt><trkpt lat="42.96120223891924" lon="11.10615714988221"><ele>73.5</ele><time>2026-04-03T14:20:58.999Z</time></trkpt><trkpt lat="42.96118147675118" lon="11.106059658534853"><ele>73.33333333333333</ele><time>2026-04-03T14:20:59.999Z</time></trkpt><trkpt lat="42.96114683005319" lon="11.105948117490364"><ele>73.16666666666666</ele><time>2026-04-03T14:21:01.999Z</time></trkpt><trkpt lat="42.96106946597535" lon="11.105830351385924"><ele>73.0</ele><time>2026-04-03T14:21:03.999Z</time></trkpt><trkpt lat="42.960980715838986" lon="11.105714671690867"><ele>73.0</ele><time>2026-04-03T14:21:05.999Z</time></trkpt><trkpt lat="42.96094794162665" lon="11.10563904330163"><ele>73.0</ele><time>2026-04-03T14:21:06.999Z</time></trkpt><trkpt lat="42.9609066419936" lon="11.105572431010438"><ele>73.0</ele><time>2026-04-03T14:21:07.999Z</time></trkpt><trkpt lat="42.96082226665264" lon="11.105440969100863"><ele>73.0</ele><time>2026-04-03T14:21:09.999Z</time></trkpt><trkpt lat="42.96077762597028" lon="11.10537174992162"><ele>73.0</ele><time>2026-04-03T14:21:10.999Z</time></trkpt><trkpt lat="42.96072831013249" lon="11.105297640477811"><ele>73.0</ele><time>2026-04-03T14:21:11.999Z</time></trkpt><trkpt lat="42.96067324325474" lon="11.105227681225854"><ele>73.0</ele><time>2026-04-03T14:21:12.999Z</time></trkpt><trkpt lat="42.960617786602796" lon="11.105167586241054"><ele>73.0</ele><time>2026-04-03T14:21:13.999Z</time></trkpt><trkpt lat="42.96055718672883" lon="11.105114217770037"><ele>73.0</ele><time>2026-04-03T14:21:14.999Z</time></trkpt><trkpt lat="42.96049036948041" lon="11.10506333995091"><ele>73.0</ele><time>2026-04-03T14:21:15.999Z</time></trkpt><trkpt lat="42.96041820391953" lon="11.105018919319377"><ele>73.0</ele><time>2026-04-03T14:21:16.999Z</time></trkpt><trkpt lat="42.96034701340744" lon="11.104989308333453"><ele>73.0</ele><time>2026-04-03T14:21:17.999Z</time></trkpt><trkpt lat="42.960273116424545" lon="11.104935561605702"><ele>73.33333333333333</ele><time>2026-04-03T14:21:18.999Z</time></trkpt><trkpt lat="42.9602025608873" lon="11.104889167596921"><ele>73.66666666666666</ele><time>2026-04-03T14:21:19.999Z</time></trkpt><trkpt lat="42.96013614082599" lon="11.104846177340443"><ele>74.0</ele><time>2026-04-03T14:21:20.999Z</time></trkpt><trkpt lat="42.960062064459315" lon="11.104798231554192"><ele>74.33333333333333</ele><time>2026-04-03T14:21:21.999Z</time></trkpt><trkpt lat="42.959993599110305" lon="11.10475401241522"><ele>74.66666666666667</ele><time>2026-04-03T14:21:22.999Z</time></trkpt><trkpt lat="42.95991719033419" lon="11.104705281710256"><ele>75.0</ele><time>2026-04-03T14:21:23.999Z</time></trkpt><trkpt lat="42.959840331254426" lon="11.104656263818944"><ele>74.33333333333333</ele><time>2026-04-03T14:21:24.999Z</time></trkpt><trkpt lat="42.95976700308624" lon="11.104609497815403"><ele>73.66666666666667</ele><time>2026-04-03T14:21:25.999Z</time></trkpt><trkpt lat="42.95967951127529" lon="11.104577486126239"><ele>73.0</ele><time>2026-04-03T14:21:26.999Z</time></trkpt><trkpt lat="42.95960044488698" lon="11.104522799307542"><ele>72.33333333333334</ele><time>2026-04-03T14:21:27.999Z</time></trkpt><trkpt lat="42.95952339826202" lon="11.10447421975674"><ele>71.66666666666667</ele><time>2026-04-03T14:21:28.999Z</time></trkpt><trkpt lat="42.959451740666665" lon="11.10440659178917"><ele>71.0</ele><time>2026-04-03T14:21:29.999Z</time></trkpt><trkpt lat="42.95937466739075" lon="11.104353078218347"><ele>71.0</ele><time>2026-04-03T14:21:30.999Z</time></trkpt><trkpt lat="42.95929701780203" lon="11.104299164502063"><ele>71.0</ele><time>2026-04-03T14:21:31.999Z</time></trkpt><trkpt lat="42.95921590050398" lon="11.104244697645672"><ele>71.0</ele><time>2026-04-03T14:21:32.999Z</time></trkpt><trkpt lat="42.95912671065564" lon="11.104209666124646"><ele>71.0</ele><time>2026-04-03T14:21:33.999Z</time></trkpt><trkpt lat="42.959053834390055" lon="11.104139503184937"><ele>71.0</ele><time>2026-04-03T14:21:34.999Z</time></trkpt><trkpt lat="42.95897160685606" lon="11.104087146159145"><ele>70.6</ele><time>2026-04-03T14:21:35.999Z</time></trkpt><trkpt lat="42.95889094102271" lon="11.104035783521244"><ele>70.19999999999999</ele><time>2026-04-03T14:21:36.999Z</time></trkpt><trkpt lat="42.958810723544744" lon="11.103984706343445"><ele>69.80000000000001</ele><time>2026-04-03T14:21:37.999Z</time></trkpt><trkpt lat="42.95872716105281" lon="11.103931499305391"><ele>69.4</ele><time>2026-04-03T14:21:38.999Z</time></trkpt><trkpt lat="42.95864131960382" lon="11.103876841173053"><ele>69.0</ele><time>2026-04-03T14:21:39.999Z</time></trkpt><trkpt lat="42.958553407961816" lon="11.10383716257722"><ele>69.0</ele><time>2026-04-03T14:21:40.999Z</time></trkpt><trkpt lat="42.9584659530909" lon="11.10378819141639"><ele>69.0</ele><time>2026-04-03T14:21:41.999Z</time></trkpt><trkpt lat="42.95838782620793" lon="11.103716166887121"><ele>69.0</ele><time>2026-04-03T14:21:42.999Z</time></trkpt><trkpt lat="42.95830805743172" lon="11.103667510331825"><ele>69.0</ele><time>2026-04-03T14:21:43.999Z</time></trkpt><trkpt lat="42.95821855433292" lon="11.103628279966875"><ele>69.0</ele><time>2026-04-03T14:21:44.999Z</time></trkpt><trkpt lat="42.95813619908014" lon="11.103580783448988"><ele>69.0</ele><time>2026-04-03T14:21:46Z</time></trkpt><trkpt lat="42.95804636762896" lon="11.10353169574042"><ele>69.0</ele><time>2026-04-03T14:21:47Z</time></trkpt><trkpt lat="42.95796006915255" lon="11.10345681158539"><ele>69.0</ele><time>2026-04-03T14:21:48Z</time></trkpt><trkpt lat="42.95785526989767" lon="11.10341665252917"><ele>69.0</ele><time>2026-04-03T14:21:49Z</time></trkpt><trkpt lat="42.957769386124674" lon="11.103348519430748"><ele>69.0</ele><time>2026-04-03T14:21:50Z</time></trkpt><trkpt lat="42.95769096985459" lon="11.10332712627633"><ele>69.0</ele><time>2026-04-03T14:21:51Z</time></trkpt><trkpt lat="42.957622586553164" lon="11.103271962610812"><ele>69.0</ele><time>2026-04-03T14:21:52Z</time></trkpt><trkpt lat="42.95753693479751" lon="11.10322867858096"><ele>69.0</ele><time>2026-04-03T14:21:53Z</time></trkpt><trkpt lat="42.95745696122113" lon="11.103184185146652"><ele>69.0</ele><time>2026-04-03T14:21:54Z</time></trkpt><trkpt lat="42.95737395237747" lon="11.103132031001396"><ele>69.0</ele><time>2026-04-03T14:21:55Z</time></trkpt><trkpt lat="42.95728850259984" lon="11.103072431681044"><ele>69.0</ele><time>2026-04-03T14:21:56Z</time></trkpt><trkpt lat="42.957205489885816" lon="11.103012502287502"><ele>68.2</ele><time>2026-04-03T14:21:57Z</time></trkpt><trkpt lat="42.95711535249711" lon="11.102945913741987"><ele>67.4</ele><time>2026-04-03T14:21:58Z</time></trkpt><trkpt lat="42.957026538316114" lon="11.102880034508217"><ele>66.6</ele><time>2026-04-03T14:21:59Z</time></trkpt><trkpt lat="42.95693712402472" lon="11.102813710131077"><ele>65.8</ele><time>2026-04-03T14:22:00Z</time></trkpt><trkpt lat="42.95683902581858" lon="11.10274094433857"><ele>65.0</ele><time>2026-04-03T14:22:01Z</time></trkpt><trkpt lat="42.95673062168434" lon="11.102660534083164"><ele>64.75</ele><time>2026-04-03T14:22:02Z</time></trkpt><trkpt lat="42.95662557472042" lon="11.10258261388819"><ele>64.5</ele><time>2026-04-03T14:22:03Z</time></trkpt><trkpt lat="42.956517597710864" lon="11.10250252182935"><ele>64.25</ele><time>2026-04-03T14:22:04Z</time></trkpt><trkpt lat="42.95641145205671" lon="11.102423551432587"><ele>64.0</ele><time>2026-04-03T14:22:05Z</time></trkpt><trkpt lat="42.95629962564571" lon="11.10233922255374"><ele>64.0</ele><time>2026-04-03T14:22:06Z</time></trkpt><trkpt lat="42.95618802152631" lon="11.102255061306943"><ele>64.0</ele><time>2026-04-03T14:22:07Z</time></trkpt><trkpt lat="42.95607230206266" lon="11.102167796655003"><ele>64.0</ele><time>2026-04-03T14:22:08Z</time></trkpt><trkpt lat="42.95595632760321" lon="11.102080339712131"><ele>64.0</ele><time>2026-04-03T14:22:09Z</time></trkpt><trkpt lat="42.95583924900721" lon="11.10199205013442"><ele>64.0</ele><time>2026-04-03T14:22:10Z</time></trkpt><trkpt lat="42.95572402542281" lon="11.10190515942786"><ele>64.0</ele><time>2026-04-03T14:22:11Z</time></trkpt><trkpt lat="42.95559900809057" lon="11.101828700918666"><ele>64.0</ele><time>2026-04-03T14:22:12Z</time></trkpt><trkpt lat="42.9554912020413" lon="11.101758422312068"><ele>64.0</ele><time>2026-04-03T14:22:13Z</time></trkpt><trkpt lat="42.95537964757601" lon="11.101674745318414"><ele>64.0</ele><time>2026-04-03T14:22:14Z</time></trkpt><trkpt lat="42.95526205192342" lon="11.101592877268777"><ele>64.0</ele><time>2026-04-03T14:22:15Z</time></trkpt><trkpt lat="42.955161342746244" lon="11.10149277403373"><ele>64.0</ele><time>2026-04-03T14:22:16Z</time></trkpt><trkpt lat="42.9550558549568" lon="11.101436237881817"><ele>64.0</ele><time>2026-04-03T14:22:17Z</time></trkpt><trkpt lat="42.9549610892301" lon="11.101342678542748"><ele>63.75</ele><time>2026-04-03T14:22:18Z</time></trkpt><trkpt lat="42.954842327287" lon="11.101280061923097"><ele>63.5</ele><time>2026-04-03T14:22:19Z</time></trkpt><trkpt lat="42.95473836098434" lon="11.10119573550745"><ele>63.25</ele><time>2026-04-03T14:22:20Z</time></trkpt><trkpt lat="42.95463751643468" lon="11.101101753118316"><ele>63.0</ele><time>2026-04-03T14:22:21Z</time></trkpt><trkpt lat="42.95452641228933" lon="11.101018057933679"><ele>63.0</ele><time>2026-04-03T14:22:22Z</time></trkpt><trkpt lat="42.95441650959515" lon="11.100935267788664"><ele>63.0</ele><time>2026-04-03T14:22:23Z</time></trkpt><trkpt lat="42.954298206430245" lon="11.10087021453693"><ele>63.0</ele><time>2026-04-03T14:22:24Z</time></trkpt><trkpt lat="42.954192547544885" lon="11.100767630328814"><ele>63.0</ele><time>2026-04-03T14:22:25Z</time></trkpt><trkpt lat="42.95407661825175" lon="11.100698475684577"><ele>62.5</ele><time>2026-04-03T14:22:26Z</time></trkpt><trkpt lat="42.95396435427923" lon="11.100617167832372"><ele>62.0</ele><time>2026-04-03T14:22:27Z</time></trkpt><trkpt lat="42.95385082942644" lon="11.100536344571985"><ele>61.5</ele><time>2026-04-03T14:22:28Z</time></trkpt><trkpt lat="42.95373973594587" lon="11.100455091122152"><ele>61.0</ele><time>2026-04-03T14:22:29Z</time></trkpt><trkpt lat="42.95363457668501" lon="11.10035232031387"><ele>61.0</ele><time>2026-04-03T14:22:30Z</time></trkpt><trkpt lat="42.95351877261001" lon="11.10026497563192"><ele>61.0</ele><time>2026-04-03T14:22:31Z</time></trkpt><trkpt lat="42.953407373595375" lon="11.100179855421786"><ele>61.0</ele><time>2026-04-03T14:22:32Z</time></trkpt><trkpt lat="42.9532919690544" lon="11.100091674577246"><ele>61.0</ele><time>2026-04-03T14:22:33Z</time></trkpt><trkpt lat="42.953173784305044" lon="11.10000136937657"><ele>60.5</ele><time>2026-04-03T14:22:34Z</time></trkpt><trkpt lat="42.95305790640321" lon="11.0999128268431"><ele>60.0</ele><time>2026-04-03T14:22:35Z</time></trkpt><trkpt lat="42.9529408355788" lon="11.099823372793875"><ele>59.5</ele><time>2026-04-03T14:22:36Z</time></trkpt><trkpt lat="42.95282408635103" lon="11.099734164476748"><ele>59.0</ele><time>2026-04-03T14:22:37Z</time></trkpt><trkpt lat="42.95269834380672" lon="11.099638084342978"><ele>59.0</ele><time>2026-04-03T14:22:38Z</time></trkpt><trkpt lat="42.952570433380124" lon="11.099538825429155"><ele>59.0</ele><time>2026-04-03T14:22:39Z</time></trkpt><trkpt lat="42.952428111408445" lon="11.099428273962737"><ele>59.0</ele><time>2026-04-03T14:22:40Z</time></trkpt><trkpt lat="42.95228314916923" lon="11.09931917186738"><ele>59.0</ele><time>2026-04-03T14:22:41Z</time></trkpt><trkpt lat="42.95212757321618" lon="11.099202837250733"><ele>59.0</ele><time>2026-04-03T14:22:42Z</time></trkpt><trkpt lat="42.95200189162705" lon="11.099108856664383"><ele>59.0</ele><time>2026-04-03T14:22:43Z</time></trkpt><trkpt lat="42.951881776145754" lon="11.099017732145668"><ele>59.0</ele><time>2026-04-03T14:22:44Z</time></trkpt><trkpt lat="42.95176596040063" lon="11.098929725625243"><ele>59.0</ele><time>2026-04-03T14:22:45Z</time></trkpt><trkpt lat="42.951647398728035" lon="11.098839631454887"><ele>59.0</ele><time>2026-04-03T14:22:46Z</time></trkpt><trkpt lat="42.9515152046396" lon="11.098739177531732"><ele>59.0</ele><time>2026-04-03T14:22:47Z</time></trkpt><trkpt lat="42.95137635668978" lon="11.098631963501457"><ele>58.0</ele><time>2026-04-03T14:22:48Z</time></trkpt><trkpt lat="42.95123981922389" lon="11.098525632954484"><ele>57.0</ele><time>2026-04-03T14:22:49Z</time></trkpt><trkpt lat="42.95110350993186" lon="11.09844249150812"><ele>56.0</ele><time>2026-04-03T14:22:50Z</time></trkpt><trkpt lat="42.95097039318946" lon="11.098337641210511"><ele>56.0</ele><time>2026-04-03T14:22:51Z</time></trkpt><trkpt lat="42.95083575584595" lon="11.098231105497971"><ele>56.0</ele><time>2026-04-03T14:22:52Z</time></trkpt><trkpt lat="42.95069503206398" lon="11.098120645627363"><ele>56.0</ele><time>2026-04-03T14:22:53Z</time></trkpt><trkpt lat="42.95052414599318" lon="11.097992255559472"><ele>56.0</ele><time>2026-04-03T14:22:54Z</time></trkpt><trkpt lat="42.950363877621" lon="11.09786544601588"><ele>56.0</ele><time>2026-04-03T14:22:55Z</time></trkpt><trkpt lat="42.95021020888292" lon="11.097744783613296"><ele>56.0</ele><time>2026-04-03T14:22:56Z</time></trkpt><trkpt lat="42.95007243664754" lon="11.097644852916405"><ele>55.333333333333336</ele><time>2026-04-03T14:22:57Z</time></trkpt><trkpt lat="42.94993274014156" lon="11.09751336892959"><ele>54.66666666666667</ele><time>2026-04-03T14:22:58Z</time></trkpt><trkpt lat="42.949765785227044" lon="11.09738674972236"><ele>54.0</ele><time>2026-04-03T14:22:59Z</time></trkpt><trkpt lat="42.94959089107677" lon="11.097276989886243"><ele>54.0</ele><time>2026-04-03T14:23:00Z</time></trkpt><trkpt lat="42.94941640224312" lon="11.097140268947301"><ele>54.0</ele><time>2026-04-03T14:23:01Z</time></trkpt><trkpt lat="42.94924283984687" lon="11.097013787314665"><ele>54.0</ele><time>2026-04-03T14:23:02Z</time></trkpt><trkpt lat="42.94910916021592" lon="11.096884609534206"><ele>54.0</ele><time>2026-04-03T14:23:03Z</time></trkpt><trkpt lat="42.948991183623924" lon="11.09679260247903"><ele>54.0</ele><time>2026-04-03T14:23:04Z</time></trkpt><trkpt lat="42.94888055156639" lon="11.096706011909358"><ele>54.0</ele><time>2026-04-03T14:23:05Z</time></trkpt><trkpt lat="42.948776561688696" lon="11.096648421636827"><ele>54.0</ele><time>2026-04-03T14:23:06Z</time></trkpt><trkpt lat="42.94870102054145" lon="11.096582614181983"><ele>53.666666666666664</ele><time>2026-04-03T14:23:07Z</time></trkpt><trkpt lat="42.94863329398588" lon="11.09654006580167"><ele>53.33333333333333</ele><time>2026-04-03T14:23:08Z</time></trkpt><trkpt lat="42.948576744330126" lon="11.09650205631479"><ele>53.0</ele><time>2026-04-03T14:23:09Z</time></trkpt><trkpt lat="42.94850355512421" lon="11.096445217358733"><ele>52.666666666666664</ele><time>2026-04-03T14:23:11Z</time></trkpt><trkpt lat="42.94843422184027" lon="11.096376651756957"><ele>52.33333333333333</ele><time>2026-04-03T14:23:38Z</time></trkpt><trkpt lat="42.94839224604817" lon="11.096225878091538"><ele>52.0</ele><time>2026-04-03T14:23:40Z</time></trkpt><trkpt lat="42.948351915791456" lon="11.09606454834255"><ele>52.0</ele><time>2026-04-03T14:23:42Z</time></trkpt><trkpt lat="42.94832524241667" lon="11.09596448884538"><ele>52.0</ele><time>2026-04-03T14:23:43Z</time></trkpt><trkpt lat="42.94829729299101" lon="11.095845805956472"><ele>52.0</ele><time>2026-04-03T14:23:44Z</time></trkpt><trkpt lat="42.94826923609603" lon="11.09572049777968"><ele>52.0</ele><time>2026-04-03T14:23:45Z</time></trkpt><trkpt lat="42.948242718057266" lon="11.095591856473701"><ele>52.0</ele><time>2026-04-03T14:23:46Z</time></trkpt><trkpt lat="42.94821772110199" lon="11.095448815849036"><ele>51.75</ele><time>2026-04-03T14:23:47Z</time></trkpt><trkpt lat="42.94819533477025" lon="11.095297540538393"><ele>51.5</ele><time>2026-04-03T14:23:48Z</time></trkpt><trkpt lat="42.94817922845841" lon="11.095152178326881"><ele>51.25</ele><time>2026-04-03T14:23:49Z</time></trkpt><trkpt lat="42.948161580548785" lon="11.09498544132622"><ele>51.0</ele><time>2026-04-03T14:23:50Z</time></trkpt><trkpt lat="42.94814036202999" lon="11.0948208318387"><ele>50.75</ele><time>2026-04-03T14:23:51Z</time></trkpt><trkpt lat="42.948104651170105" lon="11.094668322252458"><ele>50.5</ele><time>2026-04-03T14:23:52Z</time></trkpt><trkpt lat="42.9480526838546" lon="11.094514151779554"><ele>50.25</ele><time>2026-04-03T14:23:53Z</time></trkpt><trkpt lat="42.94798545915154" lon="11.094357772327195"><ele>50.0</ele><time>2026-04-03T14:23:54Z</time></trkpt><trkpt lat="42.94792371368353" lon="11.094184090705147"><ele>50.25</ele><time>2026-04-03T14:23:55Z</time></trkpt><trkpt lat="42.94784709819048" lon="11.094022844887217"><ele>50.5</ele><time>2026-04-03T14:23:56Z</time></trkpt><trkpt lat="42.94776635797492" lon="11.093854272849155"><ele>50.75</ele><time>2026-04-03T14:23:57Z</time></trkpt><trkpt lat="42.947681041709025" lon="11.093713081186642"><ele>51.0</ele><time>2026-04-03T14:23:58Z</time></trkpt><trkpt lat="42.947597897219175" lon="11.093533570990253"><ele>51.25</ele><time>2026-04-03T14:23:59Z</time></trkpt><trkpt lat="42.947514085397124" lon="11.093348368022829"><ele>51.5</ele><time>2026-04-03T14:24:00Z</time></trkpt><trkpt lat="42.94746352133629" lon="11.093221752614303"><ele>51.75</ele><time>2026-04-03T14:24:01Z</time></trkpt><trkpt lat="42.94738854149327" lon="11.093063309106078"><ele>52.0</ele><time>2026-04-03T14:24:02Z</time></trkpt><trkpt lat="42.94731061137953" lon="11.092898631247948"><ele>52.0</ele><time>2026-04-03T14:24:03Z</time></trkpt><trkpt lat="42.94722922108218" lon="11.092726641557647"><ele>52.0</ele><time>2026-04-03T14:24:04Z</time></trkpt><trkpt lat="42.947147701623784" lon="11.092554968529303"><ele>52.0</ele><time>2026-04-03T14:24:05Z</time></trkpt><trkpt lat="42.947064030795694" lon="11.09237888963856"><ele>51.666666666666664</ele><time>2026-04-03T14:24:06Z</time></trkpt><trkpt lat="42.94696469941164" lon="11.092213159187105"><ele>51.33333333333333</ele><time>2026-04-03T14:24:07Z</time></trkpt><trkpt lat="42.94688217192314" lon="11.092044312063232"><ele>51.0</ele><time>2026-04-03T14:24:08Z</time></trkpt><trkpt lat="42.94679993124172" lon="11.091875065787226"><ele>51.0</ele><time>2026-04-03T14:24:09Z</time></trkpt><trkpt lat="42.94672036139446" lon="11.091705699734042"><ele>51.0</ele><time>2026-04-03T14:24:10Z</time></trkpt><trkpt lat="42.94664186090345" lon="11.091538386507322"><ele>51.0</ele><time>2026-04-03T14:24:11Z</time></trkpt><trkpt lat="42.94656371891832" lon="11.091374935814324"><ele>51.0</ele><time>2026-04-03T14:24:12Z</time></trkpt><trkpt lat="42.94648600668748" lon="11.091213059173159"><ele>51.25</ele><time>2026-04-03T14:24:13Z</time></trkpt><trkpt lat="42.946405245724485" lon="11.09106245436823"><ele>51.5</ele><time>2026-04-03T14:24:14Z</time></trkpt><trkpt lat="42.94631498680472" lon="11.090949740669007"><ele>51.75</ele><time>2026-04-03T14:24:15Z</time></trkpt><trkpt lat="42.94620384558607" lon="11.090893495213198"><ele>52.0</ele><time>2026-04-03T14:24:16Z</time></trkpt><trkpt lat="42.946083990509784" lon="11.0908644504487"><ele>52.0</ele><time>2026-04-03T14:24:17Z</time></trkpt><trkpt lat="42.945975413946954" lon="11.090811589257024"><ele>52.0</ele><time>2026-04-03T14:24:18Z</time></trkpt><trkpt lat="42.945865378667214" lon="11.090787135414866"><ele>52.0</ele><time>2026-04-03T14:24:19Z</time></trkpt><trkpt lat="42.945767188120485" lon="11.090739814283017"><ele>52.0</ele><time>2026-04-03T14:24:20Z</time></trkpt><trkpt lat="42.945694454973065" lon="11.090639263536696"><ele>52.0</ele><time>2026-04-03T14:24:21Z</time></trkpt><trkpt lat="42.94562207902038" lon="11.090529317753566"><ele>51.75</ele><time>2026-04-03T14:24:22Z</time></trkpt><trkpt lat="42.94556985558656" lon="11.090387337950698"><ele>51.5</ele><time>2026-04-03T14:24:23Z</time></trkpt><trkpt lat="42.94549331331065" lon="11.090268025247795"><ele>51.25</ele><time>2026-04-03T14:24:24Z</time></trkpt><trkpt lat="42.9454212420708" lon="11.090140961198005"><ele>51.0</ele><time>2026-04-03T14:24:25Z</time></trkpt><trkpt lat="42.94534077052608" lon="11.09002627603097"><ele>50.599999999999994</ele><time>2026-04-03T14:24:26Z</time></trkpt><trkpt lat="42.94527088799001" lon="11.089898392056346"><ele>50.2</ele><time>2026-04-03T14:24:27Z</time></trkpt><trkpt lat="42.94519316601825" lon="11.089800917097635"><ele>49.8</ele><time>2026-04-03T14:24:28Z</time></trkpt><trkpt lat="42.94512469246151" lon="11.089721078910134"><ele>49.400000000000006</ele><time>2026-04-03T14:24:29Z</time></trkpt><trkpt lat="42.945040695373244" lon="11.089662635135781"><ele>49.0</ele><time>2026-04-03T14:24:30Z</time></trkpt><trkpt lat="42.94495407987337" lon="11.089606898417072"><ele>49.0</ele><time>2026-04-03T14:24:31Z</time></trkpt><trkpt lat="42.94486470822551" lon="11.08954503120249"><ele>49.0</ele><time>2026-04-03T14:24:32Z</time></trkpt><trkpt lat="42.94476015762835" lon="11.089510585851032"><ele>49.0</ele><time>2026-04-03T14:24:33Z</time></trkpt><trkpt lat="42.94464387619839" lon="11.089485015710263"><ele>49.0</ele><time>2026-04-03T14:24:34Z</time></trkpt><trkpt lat="42.94453785384494" lon="11.089454309686976"><ele>49.0</ele><time>2026-04-03T14:24:35Z</time></trkpt><trkpt lat="42.94443433858187" lon="11.08942048003372"><ele>49.0</ele><time>2026-04-03T14:24:36Z</time></trkpt><trkpt lat="42.944325636597874" lon="11.089377318609086"><ele>49.0</ele><time>2026-04-03T14:24:37Z</time></trkpt><trkpt lat="42.944215349995126" lon="11.089347970738377"><ele>49.0</ele><time>2026-04-03T14:24:38Z</time></trkpt><trkpt lat="42.94411204466231" lon="11.089305058667923"><ele>49.0</ele><time>2026-04-03T14:24:39Z</time></trkpt><trkpt lat="42.94400072674821" lon="11.0892570189688"><ele>49.0</ele><time>2026-04-03T14:24:40Z</time></trkpt><trkpt lat="42.94390011611115" lon="11.089190765063842"><ele>49.0</ele><time>2026-04-03T14:24:41Z</time></trkpt><trkpt lat="42.943793247926955" lon="11.089145096127483"><ele>49.0</ele><time>2026-04-03T14:24:42Z</time></trkpt><trkpt lat="42.94369384700095" lon="11.08912569263645"><ele>49.0</ele><time>2026-04-03T14:24:43Z</time></trkpt><trkpt lat="42.94361754939016" lon="11.089070013247442"><ele>49.0</ele><time>2026-04-03T14:24:44Z</time></trkpt><trkpt lat="42.94354203646434" lon="11.089053691658972"><ele>48.666666666666664</ele><time>2026-04-03T14:24:45Z</time></trkpt><trkpt lat="42.943482786714554" lon="11.089013865164171"><ele>48.33333333333333</ele><time>2026-04-03T14:24:46Z</time></trkpt><trkpt lat="42.943443001604756" lon="11.088935473352796"><ele>48.0</ele><time>2026-04-03T14:24:47Z</time></trkpt><trkpt lat="42.94343902235422" lon="11.08882356688051"><ele>47.666666666666664</ele><time>2026-04-03T14:24:48Z</time></trkpt><trkpt lat="42.94346228417447" lon="11.088712890525638"><ele>47.33333333333333</ele><time>2026-04-03T14:24:49Z</time></trkpt><trkpt lat="42.943482012982464" lon="11.088599664543585"><ele>47.0</ele><time>2026-04-03T14:24:50Z</time></trkpt><trkpt lat="42.94348932215084" lon="11.088462113606443"><ele>47.0</ele><time>2026-04-03T14:24:51Z</time></trkpt><trkpt lat="42.94349535755782" lon="11.088328982161475"><ele>47.0</ele><time>2026-04-03T14:24:52Z</time></trkpt><trkpt lat="42.94350838623267" lon="11.088187409321058"><ele>47.0</ele><time>2026-04-03T14:24:53Z</time></trkpt><trkpt lat="42.94352115607049" lon="11.088049021615161"><ele>47.0</ele><time>2026-04-03T14:24:54Z</time></trkpt><trkpt lat="42.94353249160303" lon="11.087901702026182"><ele>47.0</ele><time>2026-04-03T14:24:55Z</time></trkpt><trkpt lat="42.943542680679066" lon="11.087746210469813"><ele>47.0</ele><time>2026-04-03T14:24:56Z</time></trkpt><trkpt lat="42.943557668886015" lon="11.087582258821465"><ele>47.0</ele><time>2026-04-03T14:24:57Z</time></trkpt><trkpt lat="42.94357181736389" lon="11.087418633914082"><ele>47.0</ele><time>2026-04-03T14:24:58Z</time></trkpt><trkpt lat="42.94358317103703" lon="11.087251271600037"><ele>47.0</ele><time>2026-04-03T14:24:59Z</time></trkpt><trkpt lat="42.943589210587554" lon="11.087086933515643"><ele>46.75</ele><time>2026-04-03T14:25:00Z</time></trkpt><trkpt lat="42.94359870135163" lon="11.08692258242462"><ele>46.5</ele><time>2026-04-03T14:25:01Z</time></trkpt><trkpt lat="42.94361000421707" lon="11.08676359025473"><ele>46.25</ele><time>2026-04-03T14:25:02Z</time></trkpt><trkpt lat="42.94362174399305" lon="11.086601912948025"><ele>46.0</ele><time>2026-04-03T14:25:03Z</time></trkpt><trkpt lat="42.943633530693084" lon="11.0864562472164"><ele>46.4</ele><time>2026-04-03T14:25:04Z</time></trkpt><trkpt lat="42.9436465292233" lon="11.08630944186951"><ele>46.8</ele><time>2026-04-03T14:25:05Z</time></trkpt><trkpt lat="42.94365390788429" lon="11.086186851682767"><ele>47.199999999999996</ele><time>2026-04-03T14:25:06Z</time></trkpt><trkpt lat="42.94366190169484" lon="11.08607433037278"><ele>47.599999999999994</ele><time>2026-04-03T14:25:07Z</time></trkpt><trkpt lat="42.94366661200051" lon="11.085954400266536"><ele>48.0</ele><time>2026-04-03T14:25:08Z</time></trkpt><trkpt lat="42.94367549005441" lon="11.085839372144374"><ele>47.833333333333336</ele><time>2026-04-03T14:25:09Z</time></trkpt><trkpt lat="42.943684537271075" lon="11.08574223800658"><ele>47.666666666666664</ele><time>2026-04-03T14:25:10Z</time></trkpt><trkpt lat="42.94369071964472" lon="11.085641191471982"><ele>47.5</ele><time>2026-04-03T14:25:11Z</time></trkpt><trkpt lat="42.94369895537463" lon="11.085488187799957"><ele>47.33333333333333</ele><time>2026-04-03T14:25:13Z</time></trkpt><trkpt lat="42.94370877231589" lon="11.08536110663154"><ele>47.166666666666664</ele><time>2026-04-03T14:25:15Z</time></trkpt><trkpt lat="42.943708929485766" lon="11.085234136131742"><ele>47.0</ele><time>2026-04-03T14:25:23Z</time></trkpt><trkpt lat="42.94371722234054" lon="11.085090139864654"><ele>47.0</ele><time>2026-04-03T14:25:25Z</time></trkpt><trkpt lat="42.943738137648744" lon="11.084924415863048"><ele>47.0</ele><time>2026-04-03T14:25:27Z</time></trkpt><trkpt lat="42.9437442695533" lon="11.0848381218343"><ele>47.0</ele><time>2026-04-03T14:25:28Z</time></trkpt><trkpt lat="42.94374720747222" lon="11.084750319340957"><ele>47.0</ele><time>2026-04-03T14:25:29Z</time></trkpt><trkpt lat="42.94375427698114" lon="11.084661726173282"><ele>47.0</ele><time>2026-04-03T14:25:30Z</time></trkpt><trkpt lat="42.94376065216571" lon="11.084564627235725"><ele>47.0</ele><time>2026-04-03T14:25:31Z</time></trkpt><trkpt lat="42.943770845369016" lon="11.084460785995251"><ele>47.0</ele><time>2026-04-03T14:25:32Z</time></trkpt><trkpt lat="42.9437790362347" lon="11.084358712713273"><ele>47.0</ele><time>2026-04-03T14:25:33Z</time></trkpt><trkpt lat="42.94378296263183" lon="11.084255693836166"><ele>47.0</ele><time>2026-04-03T14:25:34Z</time></trkpt><trkpt lat="42.94378785114272" lon="11.084144580316881"><ele>47.0</ele><time>2026-04-03T14:25:35Z</time></trkpt><trkpt lat="42.943799094186375" lon="11.084047218701903"><ele>47.0</ele><time>2026-04-03T14:25:36Z</time></trkpt><trkpt lat="42.94380377223764" lon="11.083935450897263"><ele>47.0</ele><time>2026-04-03T14:25:37Z</time></trkpt><trkpt lat="42.9438137379097" lon="11.08381427954119"><ele>47.0</ele><time>2026-04-03T14:25:38Z</time></trkpt><trkpt lat="42.94382197503365" lon="11.083682487444358"><ele>47.0</ele><time>2026-04-03T14:25:39Z</time></trkpt><trkpt lat="42.94382973560554" lon="11.083558194465368"><ele>47.0</ele><time>2026-04-03T14:25:40Z</time></trkpt><trkpt lat="42.94383959912979" lon="11.08342132763823"><ele>47.0</ele><time>2026-04-03T14:25:41Z</time></trkpt><trkpt lat="42.94385022118347" lon="11.083280931747998"><ele>47.0</ele><time>2026-04-03T14:25:42Z</time></trkpt><trkpt lat="42.94385923869584" lon="11.083145900734468"><ele>47.0</ele><time>2026-04-03T14:25:43Z</time></trkpt><trkpt lat="42.94386537682235" lon="11.08300568889089"><ele>47.0</ele><time>2026-04-03T14:25:44Z</time></trkpt><trkpt lat="42.9438754338954" lon="11.082873841092944"><ele>47.0</ele><time>2026-04-03T14:25:45Z</time></trkpt><trkpt lat="42.94388254688685" lon="11.082744676628483"><ele>47.0</ele><time>2026-04-03T14:25:46Z</time></trkpt><trkpt lat="42.94389314559099" lon="11.082609139924388"><ele>47.0</ele><time>2026-04-03T14:25:47Z</time></trkpt><trkpt lat="42.94390398642583" lon="11.082472364649682"><ele>47.0</ele><time>2026-04-03T14:25:48Z</time></trkpt><trkpt lat="42.943914472400806" lon="11.082341484293327"><ele>47.0</ele><time>2026-04-03T14:25:49Z</time></trkpt><trkpt lat="42.94392483826623" lon="11.082199251851783"><ele>47.0</ele><time>2026-04-03T14:25:50Z</time></trkpt><trkpt lat="42.94393320640925" lon="11.082053966330188"><ele>47.0</ele><time>2026-04-03T14:25:51Z</time></trkpt><trkpt lat="42.94394203973147" lon="11.081904688943624"><ele>47.0</ele><time>2026-04-03T14:25:52Z</time></trkpt><trkpt lat="42.94394959151564" lon="11.08175975712799"><ele>47.0</ele><time>2026-04-03T14:25:53Z</time></trkpt><trkpt lat="42.943959783149964" lon="11.081613282408105"><ele>47.0</ele><time>2026-04-03T14:25:54Z</time></trkpt><trkpt lat="42.94396965392538" lon="11.081461725538967"><ele>47.0</ele><time>2026-04-03T14:25:55Z</time></trkpt><trkpt lat="42.94397964720906" lon="11.081308405819877"><ele>47.0</ele><time>2026-04-03T14:25:56Z</time></trkpt><trkpt lat="42.943989204914814" lon="11.081154010474599"><ele>47.0</ele><time>2026-04-03T14:25:57Z</time></trkpt><trkpt lat="42.94400064588072" lon="11.080998037723164"><ele>47.0</ele><time>2026-04-03T14:25:58Z</time></trkpt><trkpt lat="42.944014950752575" lon="11.080836521064207"><ele>47.0</ele><time>2026-04-03T14:25:59Z</time></trkpt><trkpt lat="42.94402794310138" lon="11.08068277887299"><ele>47.0</ele><time>2026-04-03T14:26:00Z</time></trkpt><trkpt lat="42.94403794403696" lon="11.080522618270802"><ele>47.0</ele><time>2026-04-03T14:26:01Z</time></trkpt><trkpt lat="42.94404787311045" lon="11.080362539598681"><ele>47.0</ele><time>2026-04-03T14:26:02Z</time></trkpt><trkpt lat="42.94405842276825" lon="11.08019930699331"><ele>47.0</ele><time>2026-04-03T14:26:03Z</time></trkpt><trkpt lat="42.94406947371893" lon="11.080041782865655"><ele>47.0</ele><time>2026-04-03T14:26:04Z</time></trkpt><trkpt lat="42.944080936423575" lon="11.079877560315014"><ele>47.0</ele><time>2026-04-03T14:26:05Z</time></trkpt><trkpt lat="42.94409554585809" lon="11.079712532888921"><ele>47.25</ele><time>2026-04-03T14:26:06Z</time></trkpt><trkpt lat="42.94410318034124" lon="11.079557543695312"><ele>47.5</ele><time>2026-04-03T14:26:07Z</time></trkpt><trkpt lat="42.94411667597599" lon="11.079400729155445"><ele>47.75</ele><time>2026-04-03T14:26:08Z</time></trkpt><trkpt lat="42.94412481692917" lon="11.079237930583934"><ele>48.0</ele><time>2026-04-03T14:26:09Z</time></trkpt><trkpt lat="42.944138852902" lon="11.079084163780433"><ele>48.0</ele><time>2026-04-03T14:26:10Z</time></trkpt><trkpt lat="42.9441479252726" lon="11.078923787472046"><ele>48.0</ele><time>2026-04-03T14:26:11Z</time></trkpt><trkpt lat="42.94415479250687" lon="11.078770162336145"><ele>48.0</ele><time>2026-04-03T14:26:12Z</time></trkpt><trkpt lat="42.944173090662815" lon="11.078612388933529"><ele>48.0</ele><time>2026-04-03T14:26:13Z</time></trkpt><trkpt lat="42.94419528128413" lon="11.078456279098466"><ele>48.0</ele><time>2026-04-03T14:26:14Z</time></trkpt><trkpt lat="42.94419830569223" lon="11.07828854670287"><ele>48.0</ele><time>2026-04-03T14:26:15Z</time></trkpt><trkpt lat="42.94420623360358" lon="11.078127935490096"><ele>48.0</ele><time>2026-04-03T14:26:16Z</time></trkpt><trkpt lat="42.944218680635274" lon="11.077962472778266"><ele>48.0</ele><time>2026-04-03T14:26:17Z</time></trkpt><trkpt lat="42.94423081812277" lon="11.077796211870911"><ele>48.25</ele><time>2026-04-03T14:26:18Z</time></trkpt><trkpt lat="42.94424341035066" lon="11.077628231800636"><ele>48.5</ele><time>2026-04-03T14:26:19Z</time></trkpt><trkpt lat="42.94425776551204" lon="11.07746195823414"><ele>48.75</ele><time>2026-04-03T14:26:20Z</time></trkpt><trkpt lat="42.94427014301762" lon="11.077291155474294"><ele>49.0</ele><time>2026-04-03T14:26:21Z</time></trkpt><trkpt lat="42.94427898115383" lon="11.077122080041992"><ele>49.0</ele><time>2026-04-03T14:26:22Z</time></trkpt><trkpt lat="42.9442897774008" lon="11.076949877612037"><ele>49.0</ele><time>2026-04-03T14:26:23Z</time></trkpt><trkpt lat="42.94429998611095" lon="11.07677676787952"><ele>49.0</ele><time>2026-04-03T14:26:24Z</time></trkpt><trkpt lat="42.9443122849289" lon="11.076604878258575"><ele>49.0</ele><time>2026-04-03T14:26:25Z</time></trkpt><trkpt lat="42.944325465972256" lon="11.076438671962494"><ele>49.0</ele><time>2026-04-03T14:26:26Z</time></trkpt><trkpt lat="42.94433647346422" lon="11.076273381384306"><ele>49.0</ele><time>2026-04-03T14:26:27Z</time></trkpt><trkpt lat="42.944346221012815" lon="11.076105930423763"><ele>49.0</ele><time>2026-04-03T14:26:28Z</time></trkpt><trkpt lat="42.94435701732913" lon="11.075941042900851"><ele>49.0</ele><time>2026-04-03T14:26:29Z</time></trkpt><trkpt lat="42.94436789165455" lon="11.07577792539979"><ele>49.0</ele><time>2026-04-03T14:26:30Z</time></trkpt><trkpt lat="42.94438134651771" lon="11.075612737191692"><ele>49.0</ele><time>2026-04-03T14:26:31Z</time></trkpt><trkpt lat="42.94439356402617" lon="11.07544927821504"><ele>49.0</ele><time>2026-04-03T14:26:32Z</time></trkpt><trkpt lat="42.94440318052768" lon="11.075283991253247"><ele>49.0</ele><time>2026-04-03T14:26:33Z</time></trkpt><trkpt lat="42.944411770354776" lon="11.075123303509256"><ele>49.0</ele><time>2026-04-03T14:26:34Z</time></trkpt><trkpt lat="42.944423608987975" lon="11.074958450299048"><ele>49.0</ele><time>2026-04-03T14:26:35Z</time></trkpt><trkpt lat="42.94443698809593" lon="11.074795885313234"><ele>49.0</ele><time>2026-04-03T14:26:36Z</time></trkpt><trkpt lat="42.94444596767918" lon="11.074628531968203"><ele>49.0</ele><time>2026-04-03T14:26:37Z</time></trkpt><trkpt lat="42.944462128211896" lon="11.074457260563374"><ele>49.0</ele><time>2026-04-03T14:26:38Z</time></trkpt><trkpt lat="42.94447418059564" lon="11.07428395998219"><ele>49.0</ele><time>2026-04-03T14:26:39Z</time></trkpt><trkpt lat="42.94448468486129" lon="11.074116080504396"><ele>49.0</ele><time>2026-04-03T14:26:40Z</time></trkpt><trkpt lat="42.94449780742481" lon="11.073947073240026"><ele>49.0</ele><time>2026-04-03T14:26:41Z</time></trkpt><trkpt lat="42.94451437969272" lon="11.073782419030398"><ele>49.0</ele><time>2026-04-03T14:26:42Z</time></trkpt><trkpt lat="42.94452818404319" lon="11.073622636243929"><ele>49.0</ele><time>2026-04-03T14:26:43Z</time></trkpt><trkpt lat="42.944543243243785" lon="11.073466328441912"><ele>49.0</ele><time>2026-04-03T14:26:44Z</time></trkpt><trkpt lat="42.94451972478182" lon="11.07330639971859"><ele>49.0</ele><time>2026-04-03T14:26:45Z</time></trkpt><trkpt lat="42.94446498998784" lon="11.073163905555296"><ele>49.0</ele><time>2026-04-03T14:26:46Z</time></trkpt><trkpt lat="42.94439363209718" lon="11.0730294967741"><ele>49.0</ele><time>2026-04-03T14:26:47Z</time></trkpt><trkpt lat="42.94431505259856" lon="11.072899595299925"><ele>49.0</ele><time>2026-04-03T14:26:48Z</time></trkpt><trkpt lat="42.944253189216745" lon="11.072759505408664"><ele>49.0</ele><time>2026-04-03T14:26:49Z</time></trkpt><trkpt lat="42.94417559973656" lon="11.072628936824707"><ele>49.0</ele><time>2026-04-03T14:26:50Z</time></trkpt><trkpt lat="42.94409801979762" lon="11.072498384062248"><ele>49.0</ele><time>2026-04-03T14:26:51Z</time></trkpt><trkpt lat="42.94402252365914" lon="11.072371338057755"><ele>49.0</ele><time>2026-04-03T14:26:52Z</time></trkpt><trkpt lat="42.9439331048611" lon="11.072256611927093"><ele>49.0</ele><time>2026-04-03T14:26:53Z</time></trkpt><trkpt lat="42.94386814889691" lon="11.072111554076967"><ele>48.75</ele><time>2026-04-03T14:26:54Z</time></trkpt><trkpt lat="42.9437895211767" lon="11.071979238120688"><ele>48.5</ele><time>2026-04-03T14:26:55Z</time></trkpt><trkpt lat="42.94371177515608" lon="11.071848406009616"><ele>48.25</ele><time>2026-04-03T14:26:56Z</time></trkpt><trkpt lat="42.943619249823506" lon="11.071728165585052"><ele>48.0</ele><time>2026-04-03T14:26:57Z</time></trkpt><trkpt lat="42.943545105515916" lon="11.071593518567038"><ele>47.75</ele><time>2026-04-03T14:26:58Z</time></trkpt><trkpt lat="42.94346546827518" lon="11.071463332464381"><ele>47.5</ele><time>2026-04-03T14:26:59Z</time></trkpt><trkpt lat="42.94339943423273" lon="11.071315889506442"><ele>47.25</ele><time>2026-04-03T14:27:00Z</time></trkpt><trkpt lat="42.94332373707418" lon="11.07118516948066"><ele>47.0</ele><time>2026-04-03T14:27:01Z</time></trkpt><trkpt lat="42.94324449699012" lon="11.0710519139794"><ele>47.0</ele><time>2026-04-03T14:27:02Z</time></trkpt><trkpt lat="42.943164559314305" lon="11.070919051228103"><ele>47.0</ele><time>2026-04-03T14:27:03Z</time></trkpt><trkpt lat="42.94308585704581" lon="11.070786371090518"><ele>47.0</ele><time>2026-04-03T14:27:04Z</time></trkpt><trkpt lat="42.94300960171299" lon="11.070657548180666"><ele>47.0</ele><time>2026-04-03T14:27:05Z</time></trkpt><trkpt lat="42.9429346123631" lon="11.07053086404885"><ele>47.0</ele><time>2026-04-03T14:27:06Z</time></trkpt><trkpt lat="42.94285647675768" lon="11.070398864760044"><ele>47.0</ele><time>2026-04-03T14:27:07Z</time></trkpt><trkpt lat="42.942781057201046" lon="11.070270842749574"><ele>47.0</ele><time>2026-04-03T14:27:08Z</time></trkpt><trkpt lat="42.942705862803855" lon="11.070141619196978"><ele>47.0</ele><time>2026-04-03T14:27:09Z</time></trkpt><trkpt lat="42.94263189574193" lon="11.070014504780337"><ele>47.0</ele><time>2026-04-03T14:27:10Z</time></trkpt><trkpt lat="42.9425592480948" lon="11.069889657835123"><ele>47.0</ele><time>2026-04-03T14:27:11Z</time></trkpt><trkpt lat="42.942485053031156" lon="11.069763809563838"><ele>47.0</ele><time>2026-04-03T14:27:12Z</time></trkpt><trkpt lat="42.94239998455233" lon="11.0696530028576"><ele>47.0</ele><time>2026-04-03T14:27:13Z</time></trkpt><trkpt lat="42.94233776236028" lon="11.069515488311522"><ele>47.0</ele><time>2026-04-03T14:27:14Z</time></trkpt><trkpt lat="42.94226457575189" lon="11.069392101202496"><ele>47.0</ele><time>2026-04-03T14:27:15Z</time></trkpt><trkpt lat="42.942190371448156" lon="11.069266998309168"><ele>47.0</ele><time>2026-04-03T14:27:16Z</time></trkpt><trkpt lat="42.942115335025214" lon="11.069141203785536"><ele>47.0</ele><time>2026-04-03T14:27:17Z</time></trkpt><trkpt lat="42.942041555914976" lon="11.069017766753221"><ele>46.75</ele><time>2026-04-03T14:27:18Z</time></trkpt><trkpt lat="42.941964657583895" lon="11.068886663268414"><ele>46.5</ele><time>2026-04-03T14:27:19Z</time></trkpt><trkpt lat="42.94188102454968" lon="11.068776024229633"><ele>46.25</ele><time>2026-04-03T14:27:20Z</time></trkpt><trkpt lat="42.94180908368054" lon="11.068651846036966"><ele>46.0</ele><time>2026-04-03T14:27:21Z</time></trkpt><trkpt lat="42.9417435020165" lon="11.06851737457823"><ele>45.75</ele><time>2026-04-03T14:27:22Z</time></trkpt><trkpt lat="42.94165623417859" lon="11.068401671859222"><ele>45.5</ele><time>2026-04-03T14:27:23Z</time></trkpt><trkpt lat="42.94158268171238" lon="11.068278099596245"><ele>45.25</ele><time>2026-04-03T14:27:24Z</time></trkpt><trkpt lat="42.94152237246091" lon="11.068138766327033"><ele>45.0</ele><time>2026-04-03T14:27:25Z</time></trkpt><trkpt lat="42.941447047762004" lon="11.068010983766344"><ele>45.0</ele><time>2026-04-03T14:27:26Z</time></trkpt><trkpt lat="42.94135928441951" lon="11.067899374687304"><ele>45.0</ele><time>2026-04-03T14:27:27Z</time></trkpt><trkpt lat="42.941288713572796" lon="11.067774176981594"><ele>45.0</ele><time>2026-04-03T14:27:28Z</time></trkpt><trkpt lat="42.94122347961487" lon="11.06763672190348"><ele>45.0</ele><time>2026-04-03T14:27:29Z</time></trkpt><trkpt lat="42.941147293215586" lon="11.06750853574195"><ele>44.75</ele><time>2026-04-03T14:27:30Z</time></trkpt><trkpt lat="42.9410728272353" lon="11.067383244276858"><ele>44.5</ele><time>2026-04-03T14:27:31Z</time></trkpt><trkpt lat="42.940984990227676" lon="11.06726893508488"><ele>44.25</ele><time>2026-04-03T14:27:32Z</time></trkpt><trkpt lat="42.94092210208683" lon="11.067129644230432"><ele>44.0</ele><time>2026-04-03T14:27:33Z</time></trkpt><trkpt lat="42.9408452331511" lon="11.067000309795175"><ele>44.0</ele><time>2026-04-03T14:27:34Z</time></trkpt><trkpt lat="42.94076928664555" lon="11.066872527165314"><ele>44.0</ele><time>2026-04-03T14:27:35Z</time></trkpt><trkpt lat="42.94069329025801" lon="11.066744660710079"><ele>44.0</ele><time>2026-04-03T14:27:36Z</time></trkpt><trkpt lat="42.94061791563588" lon="11.066617840391455"><ele>44.0</ele><time>2026-04-03T14:27:37Z</time></trkpt><trkpt lat="42.94055170579379" lon="11.066507011950202"><ele>44.0</ele><time>2026-04-03T14:27:38Z</time></trkpt><trkpt lat="42.94048854997688" lon="11.06640417149668"><ele>44.0</ele><time>2026-04-03T14:27:39Z</time></trkpt><trkpt lat="42.940433490544216" lon="11.066314514462963"><ele>44.0</ele><time>2026-04-03T14:27:40Z</time></trkpt><trkpt lat="42.94037447779702" lon="11.066244879380099"><ele>44.0</ele><time>2026-04-03T14:27:41Z</time></trkpt><trkpt lat="42.940323310401844" lon="11.066160354278509"><ele>44.0</ele><time>2026-04-03T14:27:41.999Z</time></trkpt><trkpt lat="42.94029767852602" lon="11.066067081632838"><ele>44.0</ele><time>2026-04-03T14:27:42.999Z</time></trkpt><trkpt lat="42.940359572674275" lon="11.065867531785026"><ele>43.800000000000004</ele><time>2026-04-03T14:27:44.999Z</time></trkpt><trkpt lat="42.94040757192399" lon="11.065759865667086"><ele>43.6</ele><time>2026-04-03T14:27:45.999Z</time></trkpt><trkpt lat="42.9404727011146" lon="11.065665816234079"><ele>43.4</ele><time>2026-04-03T14:27:46.999Z</time></trkpt><trkpt lat="42.940536641082105" lon="11.065563269857913"><ele>43.2</ele><time>2026-04-03T14:27:47.999Z</time></trkpt><trkpt lat="42.94060565780624" lon="11.065448872081209"><ele>43.0</ele><time>2026-04-03T14:27:48.999Z</time></trkpt><trkpt lat="42.940670349338106" lon="11.065328522037314"><ele>43.0</ele><time>2026-04-03T14:27:49.999Z</time></trkpt><trkpt lat="42.94073597858459" lon="11.065208373145214"><ele>43.0</ele><time>2026-04-03T14:27:50.999Z</time></trkpt><trkpt lat="42.940810004695685" lon="11.065084613186762"><ele>43.0</ele><time>2026-04-03T14:27:51.999Z</time></trkpt><trkpt lat="42.940882544822884" lon="11.064964916140063"><ele>43.0</ele><time>2026-04-03T14:27:52.999Z</time></trkpt><trkpt lat="42.940952962040086" lon="11.06485040652391"><ele>42.4</ele><time>2026-04-03T14:27:53.999Z</time></trkpt><trkpt lat="42.94102421860371" lon="11.064726664363098"><ele>41.8</ele><time>2026-04-03T14:27:54.999Z</time></trkpt><trkpt lat="42.9410949361948" lon="11.064604374679934"><ele>41.2</ele><time>2026-04-03T14:27:55.999Z</time></trkpt><trkpt lat="42.94116652772479" lon="11.064481215808065"><ele>40.6</ele><time>2026-04-03T14:27:56.999Z</time></trkpt><trkpt lat="42.941232035313874" lon="11.064374656236527"><ele>40.0</ele><time>2026-04-03T14:27:57.999Z</time></trkpt><trkpt lat="42.94129312412248" lon="11.064268730462862"><ele>40.0</ele><time>2026-04-03T14:27:58.999Z</time></trkpt><trkpt lat="42.94134854428926" lon="11.06418172413894"><ele>40.0</ele><time>2026-04-03T14:27:59.999Z</time></trkpt><trkpt lat="42.94139669936078" lon="11.064094432422062"><ele>40.0</ele><time>2026-04-03T14:28:00.999Z</time></trkpt><trkpt lat="42.94144009142242" lon="11.06398764293569"><ele>40.0</ele><time>2026-04-03T14:28:01.999Z</time></trkpt><trkpt lat="42.9414598977407" lon="11.063873701452527"><ele>40.0</ele><time>2026-04-03T14:28:02.999Z</time></trkpt><trkpt lat="42.941447827997834" lon="11.063743663500228"><ele>40.0</ele><time>2026-04-03T14:28:03.999Z</time></trkpt><trkpt lat="42.941413687685184" lon="11.063617092065858"><ele>40.0</ele><time>2026-04-03T14:28:04.999Z</time></trkpt><trkpt lat="42.94137594409609" lon="11.063492698922916"><ele>40.0</ele><time>2026-04-03T14:28:05.999Z</time></trkpt><trkpt lat="42.94134381721642" lon="11.063376011388353"><ele>40.0</ele><time>2026-04-03T14:28:06.999Z</time></trkpt><trkpt lat="42.94132231982915" lon="11.063251994315022"><ele>40.0</ele><time>2026-04-03T14:28:07.999Z</time></trkpt><trkpt lat="42.94131714481814" lon="11.063122125951784"><ele>40.0</ele><time>2026-04-03T14:28:08.999Z</time></trkpt><trkpt lat="42.94133514859021" lon="11.062987274752727"><ele>40.0</ele><time>2026-04-03T14:28:09.999Z</time></trkpt><trkpt lat="42.941375377901366" lon="11.062862620602244"><ele>40.0</ele><time>2026-04-03T14:28:11Z</time></trkpt><trkpt lat="42.941425582940276" lon="11.062747188419488"><ele>40.0</ele><time>2026-04-03T14:28:12Z</time></trkpt><trkpt lat="42.94148363650289" lon="11.062647606751163"><ele>40.0</ele><time>2026-04-03T14:28:13Z</time></trkpt><trkpt lat="42.941537485501" lon="11.06256520402761"><ele>40.0</ele><time>2026-04-03T14:28:14Z</time></trkpt><trkpt lat="42.94159264178475" lon="11.062484594291389"><ele>39.833333333333336</ele><time>2026-04-03T14:28:15Z</time></trkpt><trkpt lat="42.94163973921154" lon="11.062422553482813"><ele>39.66666666666667</ele><time>2026-04-03T14:28:16Z</time></trkpt><trkpt lat="42.941690688006545" lon="11.062348395161077"><ele>39.5</ele><time>2026-04-03T14:28:17Z</time></trkpt><trkpt lat="42.94175209107483" lon="11.062271875291565"><ele>39.333333333333336</ele><time>2026-04-03T14:28:18Z</time></trkpt><trkpt lat="42.94182711565093" lon="11.062204604602702"><ele>39.166666666666664</ele><time>2026-04-03T14:28:19Z</time></trkpt><trkpt lat="42.94191579282659" lon="11.062145011246521"><ele>39.0</ele><time>2026-04-03T14:28:20Z</time></trkpt><trkpt lat="42.94201449488329" lon="11.062111368153978"><ele>39.0</ele><time>2026-04-03T14:28:21Z</time></trkpt><trkpt lat="42.942116848135704" lon="11.062092478912312"><ele>39.0</ele><time>2026-04-03T14:28:22Z</time></trkpt><trkpt lat="42.942224438376776" lon="11.06207834463075"><ele>39.0</ele><time>2026-04-03T14:28:23Z</time></trkpt><trkpt lat="42.942327787284114" lon="11.062058566753413"><ele>39.0</ele><time>2026-04-03T14:28:24Z</time></trkpt><trkpt lat="42.94243439719517" lon="11.062033935505369"><ele>39.0</ele><time>2026-04-03T14:28:25Z</time></trkpt><trkpt lat="42.942539477661235" lon="11.062015837576082"><ele>39.4</ele><time>2026-04-03T14:28:26Z</time></trkpt><trkpt lat="42.942644238882735" lon="11.061999412572538"><ele>39.8</ele><time>2026-04-03T14:28:27Z</time></trkpt><trkpt lat="42.9427488249684" lon="11.061979924764872"><ele>40.199999999999996</ele><time>2026-04-03T14:28:28Z</time></trkpt><trkpt lat="42.94284928386691" lon="11.061958834246461"><ele>40.599999999999994</ele><time>2026-04-03T14:28:29Z</time></trkpt><trkpt lat="42.94295098640112" lon="11.061939676108524"><ele>41.0</ele><time>2026-04-03T14:28:30Z</time></trkpt><trkpt lat="42.943052490145575" lon="11.061922713240254"><ele>41.0</ele><time>2026-04-03T14:28:31Z</time></trkpt><trkpt lat="42.943159646057175" lon="11.061900284263006"><ele>41.0</ele><time>2026-04-03T14:28:32Z</time></trkpt><trkpt lat="42.943261699497256" lon="11.061869164370048"><ele>41.0</ele><time>2026-04-03T14:28:33Z</time></trkpt><trkpt lat="42.94335663413995" lon="11.061835984273579"><ele>41.0</ele><time>2026-04-03T14:28:34Z</time></trkpt><trkpt lat="42.94344183438082" lon="11.061765539959628"><ele>41.0</ele><time>2026-04-03T14:28:35Z</time></trkpt><trkpt lat="42.943519774710474" lon="11.061657555282531"><ele>40.599999999999994</ele><time>2026-04-03T14:28:36Z</time></trkpt><trkpt lat="42.94359768431008" lon="11.06154770695066"><ele>40.199999999999996</ele><time>2026-04-03T14:28:37Z</time></trkpt><trkpt lat="42.94367454772148" lon="11.061439644166777"><ele>39.8</ele><time>2026-04-03T14:28:38Z</time></trkpt><trkpt lat="42.94375344678793" lon="11.06133269446892"><ele>39.4</ele><time>2026-04-03T14:28:39Z</time></trkpt><trkpt lat="42.943837393314894" lon="11.061227161940497"><ele>39.0</ele><time>2026-04-03T14:28:40Z</time></trkpt><trkpt lat="42.943919852358704" lon="11.061123397418784"><ele>39.0</ele><time>2026-04-03T14:28:41Z</time></trkpt><trkpt lat="42.944000338722944" lon="11.061027970031791"><ele>39.0</ele><time>2026-04-03T14:28:42Z</time></trkpt><trkpt lat="42.944091671855176" lon="11.06095608758535"><ele>39.0</ele><time>2026-04-03T14:28:43Z</time></trkpt><trkpt lat="42.94418810627862" lon="11.060891907193454"><ele>39.0</ele><time>2026-04-03T14:28:44Z</time></trkpt><trkpt lat="42.94428596920104" lon="11.060830692287032"><ele>39.0</ele><time>2026-04-03T14:28:45Z</time></trkpt><trkpt lat="42.94438233087406" lon="11.06077107847242"><ele>39.6</ele><time>2026-04-03T14:28:46Z</time></trkpt><trkpt lat="42.94447480617386" lon="11.060713546261548"><ele>40.2</ele><time>2026-04-03T14:28:47Z</time></trkpt><trkpt lat="42.944571393485894" lon="11.06065447937715"><ele>40.800000000000004</ele><time>2026-04-03T14:28:48Z</time></trkpt><trkpt lat="42.94467198583547" lon="11.060596098003407"><ele>41.4</ele><time>2026-04-03T14:28:49Z</time></trkpt><trkpt lat="42.94477191729239" lon="11.060537569977981"><ele>42.0</ele><time>2026-04-03T14:28:50Z</time></trkpt><trkpt lat="42.944873905241934" lon="11.060468668057165"><ele>42.0</ele><time>2026-04-03T14:28:51Z</time></trkpt><trkpt lat="42.94497317902574" lon="11.060407470220552"><ele>42.0</ele><time>2026-04-03T14:28:52Z</time></trkpt><trkpt lat="42.9450721789599" lon="11.06034962560354"><ele>42.0</ele><time>2026-04-03T14:28:53Z</time></trkpt><trkpt lat="42.94517371798154" lon="11.060293005522299"><ele>42.0</ele><time>2026-04-03T14:28:54Z</time></trkpt><trkpt lat="42.945274993921124" lon="11.06023338873479"><ele>42.0</ele><time>2026-04-03T14:28:55Z</time></trkpt><trkpt lat="42.94537896748087" lon="11.060174768937676"><ele>42.0</ele><time>2026-04-03T14:28:56Z</time></trkpt><trkpt lat="42.94548330389412" lon="11.060107285929723"><ele>42.0</ele><time>2026-04-03T14:28:57Z</time></trkpt><trkpt lat="42.94558697253916" lon="11.060038738293688"><ele>42.0</ele><time>2026-04-03T14:28:58Z</time></trkpt><trkpt lat="42.94569101115433" lon="11.059971269091415"><ele>42.0</ele><time>2026-04-03T14:28:59Z</time></trkpt><trkpt lat="42.94580091383233" lon="11.059912448342173"><ele>41.25</ele><time>2026-04-03T14:29:00Z</time></trkpt><trkpt lat="42.94591234779058" lon="11.059848026778756"><ele>40.5</ele><time>2026-04-03T14:29:01Z</time></trkpt><trkpt lat="42.946021688169026" lon="11.059775395838365"><ele>39.75</ele><time>2026-04-03T14:29:02Z</time></trkpt><trkpt lat="42.94613159143239" lon="11.059705078437112"><ele>39.0</ele><time>2026-04-03T14:29:03Z</time></trkpt><trkpt lat="42.94624317238506" lon="11.05963535456185"><ele>39.0</ele><time>2026-04-03T14:29:04Z</time></trkpt><trkpt lat="42.94635313120289" lon="11.059568977569537"><ele>39.0</ele><time>2026-04-03T14:29:05Z</time></trkpt><trkpt lat="42.94646549117955" lon="11.059505258196559"><ele>39.0</ele><time>2026-04-03T14:29:06Z</time></trkpt><trkpt lat="42.94657547588469" lon="11.059446032246978"><ele>39.0</ele><time>2026-04-03T14:29:07Z</time></trkpt><trkpt lat="42.94668591394316" lon="11.059382389238223"><ele>39.0</ele><time>2026-04-03T14:29:08Z</time></trkpt><trkpt lat="42.946793182256286" lon="11.05931719381956"><ele>39.0</ele><time>2026-04-03T14:29:09Z</time></trkpt><trkpt lat="42.9468991098694" lon="11.059245931907405"><ele>39.0</ele><time>2026-04-03T14:29:09.999Z</time></trkpt><trkpt lat="42.94701016655941" lon="11.059174341922104"><ele>39.0</ele><time>2026-04-03T14:29:10.999Z</time></trkpt><trkpt lat="42.947125873900035" lon="11.059104895731283"><ele>39.25</ele><time>2026-04-03T14:29:11.999Z</time></trkpt><trkpt lat="42.94723870306816" lon="11.059038305835802"><ele>39.5</ele><time>2026-04-03T14:29:12.999Z</time></trkpt><trkpt lat="42.94734617701638" lon="11.058975342096558"><ele>39.75</ele><time>2026-04-03T14:29:13.999Z</time></trkpt><trkpt lat="42.94745862984165" lon="11.058906604724097"><ele>40.0</ele><time>2026-04-03T14:29:14.999Z</time></trkpt><trkpt lat="42.94756454636481" lon="11.05884215502864"><ele>40.5</ele><time>2026-04-03T14:29:15.999Z</time></trkpt><trkpt lat="42.9476682704924" lon="11.058777221847338"><ele>41.0</ele><time>2026-04-03T14:29:16.999Z</time></trkpt><trkpt lat="42.947770513069926" lon="11.058713485865828"><ele>41.5</ele><time>2026-04-03T14:29:17.999Z</time></trkpt><trkpt lat="42.947881147444484" lon="11.058646066902439"><ele>42.0</ele><time>2026-04-03T14:29:18.999Z</time></trkpt><trkpt lat="42.94798173006326" lon="11.0585839796892"><ele>42.0</ele><time>2026-04-03T14:29:19.999Z</time></trkpt><trkpt lat="42.948082313112614" lon="11.058519236713249"><ele>42.0</ele><time>2026-04-03T14:29:20.999Z</time></trkpt><trkpt lat="42.94818900655664" lon="11.058458609318668"><ele>42.0</ele><time>2026-04-03T14:29:21.999Z</time></trkpt><trkpt lat="42.94829665416849" lon="11.058389944680625"><ele>42.0</ele><time>2026-04-03T14:29:22.999Z</time></trkpt><trkpt lat="42.94840760760867" lon="11.058320955435324"><ele>42.75</ele><time>2026-04-03T14:29:23.999Z</time></trkpt><trkpt lat="42.948519122781036" lon="11.058254463713276"><ele>43.5</ele><time>2026-04-03T14:29:24.999Z</time></trkpt><trkpt lat="42.94862988476962" lon="11.05818506625953"><ele>44.25</ele><time>2026-04-03T14:29:25.999Z</time></trkpt><trkpt lat="42.948743003850545" lon="11.05811711803475"><ele>45.0</ele><time>2026-04-03T14:29:26.999Z</time></trkpt><trkpt lat="42.948857740719085" lon="11.058046810051819"><ele>45.0</ele><time>2026-04-03T14:29:27.999Z</time></trkpt><trkpt lat="42.948960769186186" lon="11.05798709409153"><ele>45.0</ele><time>2026-04-03T14:29:28.999Z</time></trkpt><trkpt lat="42.94906370354154" lon="11.05792405406046"><ele>45.0</ele><time>2026-04-03T14:29:29.999Z</time></trkpt><trkpt lat="42.94916420354635" lon="11.05786009965249"><ele>45.0</ele><time>2026-04-03T14:29:30.999Z</time></trkpt><trkpt lat="42.949259286489564" lon="11.057801496490951"><ele>45.0</ele><time>2026-04-03T14:29:31.999Z</time></trkpt><trkpt lat="42.949352831721065" lon="11.057745777046742"><ele>45.833333333333336</ele><time>2026-04-03T14:29:32.999Z</time></trkpt><trkpt lat="42.94944382761584" lon="11.057698074100664"><ele>46.66666666666667</ele><time>2026-04-03T14:29:33.999Z</time></trkpt><trkpt lat="42.94952731732098" lon="11.057652417831578"><ele>47.5</ele><time>2026-04-03T14:29:34.999Z</time></trkpt><trkpt lat="42.949599500073454" lon="11.057599675347205"><ele>48.333333333333336</ele><time>2026-04-03T14:29:35.999Z</time></trkpt><trkpt lat="42.949650029230185" lon="11.057538105817606"><ele>49.16666666666667</ele><time>2026-04-03T14:29:36.999Z</time></trkpt><trkpt lat="42.949662023404784" lon="11.05744047450591"><ele>50.0</ele><time>2026-04-03T14:29:37.999Z</time></trkpt><trkpt lat="42.9496321003104" lon="11.057331491543268"><ele>50.2</ele><time>2026-04-03T14:29:38.999Z</time></trkpt><trkpt lat="42.949599556610984" lon="11.057211244449194"><ele>50.4</ele><time>2026-04-03T14:29:39.999Z</time></trkpt><trkpt lat="42.94955343068642" lon="11.057092983624653"><ele>50.599999999999994</ele><time>2026-04-03T14:29:40.999Z</time></trkpt><trkpt lat="42.949509409543715" lon="11.05697837996817"><ele>50.8</ele><time>2026-04-03T14:29:41.999Z</time></trkpt><trkpt lat="42.94946220620845" lon="11.05685549195703"><ele>51.0</ele><time>2026-04-03T14:29:42.999Z</time></trkpt><trkpt lat="42.949416332257" lon="11.056736064980349"><ele>50.8</ele><time>2026-04-03T14:29:43.999Z</time></trkpt><trkpt lat="42.94936818592948" lon="11.056613652259308"><ele>50.599999999999994</ele><time>2026-04-03T14:29:44.999Z</time></trkpt><trkpt lat="42.94932031629427" lon="11.056492708847875"><ele>50.4</ele><time>2026-04-03T14:29:45.999Z</time></trkpt><trkpt lat="42.949269964654604" lon="11.056365494622556"><ele>50.2</ele><time>2026-04-03T14:29:46.999Z</time></trkpt><trkpt lat="42.94922182257046" lon="11.056243863466019"><ele>50.0</ele><time>2026-04-03T14:29:47.999Z</time></trkpt><trkpt lat="42.94915872831586" lon="11.05613416750249"><ele>49.0</ele><time>2026-04-03T14:29:48.999Z</time></trkpt><trkpt lat="42.94911629730649" lon="11.056012532516936"><ele>48.0</ele><time>2026-04-03T14:29:49.999Z</time></trkpt><trkpt lat="42.94908169264703" lon="11.055902629730236"><ele>47.0</ele><time>2026-04-03T14:29:50.999Z</time></trkpt><trkpt lat="42.949046076275266" lon="11.05580372846293"><ele>46.0</ele><time>2026-04-03T14:29:51.999Z</time></trkpt><trkpt lat="42.94900926500686" lon="11.055629083134825"><ele>45.0</ele><time>2026-04-03T14:29:53.999Z</time></trkpt><trkpt lat="42.949150905226276" lon="11.055498748780366"><ele>45.0</ele><time>2026-04-03T14:29:55.999Z</time></trkpt><trkpt lat="42.9492363929535" lon="11.055457901585921"><ele>45.0</ele><time>2026-04-03T14:29:56.999Z</time></trkpt><trkpt lat="42.949321021919495" lon="11.055416601356962"><ele>45.0</ele><time>2026-04-03T14:29:57.999Z</time></trkpt><trkpt lat="42.94939963755367" lon="11.05537410420376"><ele>45.0</ele><time>2026-04-03T14:29:58.999Z</time></trkpt><trkpt lat="42.949476848440334" lon="11.05532702199708"><ele>45.0</ele><time>2026-04-03T14:29:59.999Z</time></trkpt><trkpt lat="42.94955417086546" lon="11.055278318836907"><ele>45.0</ele><time>2026-04-03T14:30:00.999Z</time></trkpt><trkpt lat="42.949635048874455" lon="11.055228174992921"><ele>45.0</ele><time>2026-04-03T14:30:01.999Z</time></trkpt><trkpt lat="42.949741931707166" lon="11.055169845096659"><ele>45.0</ele><time>2026-04-03T14:30:03.999Z</time></trkpt><trkpt lat="42.94981770893196" lon="11.055111372147346"><ele>45.0</ele><time>2026-04-03T14:30:05.999Z</time></trkpt><trkpt lat="42.94986472844154" lon="11.055053853698988"><ele>45.0</ele><time>2026-04-03T14:30:08.999Z</time></trkpt><trkpt lat="42.94990428363193" lon="11.054957737075327"><ele>45.0</ele><time>2026-04-03T14:30:18Z</time></trkpt><trkpt lat="42.94983743547952" lon="11.054805639539433"><ele>44.333333333333336</ele><time>2026-04-03T14:30:20Z</time></trkpt><trkpt lat="42.949759119436706" lon="11.05467808533204"><ele>43.666666666666664</ele><time>2026-04-03T14:30:22Z</time></trkpt><trkpt lat="42.94972483445184" lon="11.05459632638937"><ele>43.0</ele><time>2026-04-03T14:30:23Z</time></trkpt><trkpt lat="42.949687471279695" lon="11.05451380895325"><ele>42.33333333333333</ele><time>2026-04-03T14:30:24Z</time></trkpt><trkpt lat="42.94964688881992" lon="11.05443581608707"><ele>41.666666666666664</ele><time>2026-04-03T14:30:25Z</time></trkpt><trkpt lat="42.949603268491146" lon="11.054356861473732"><ele>41.0</ele><time>2026-04-03T14:30:26Z</time></trkpt><trkpt lat="42.94955916557441" lon="11.054271247352538"><ele>41.0</ele><time>2026-04-03T14:30:27Z</time></trkpt><trkpt lat="42.94951851327871" lon="11.054173594291562"><ele>41.0</ele><time>2026-04-03T14:30:28Z</time></trkpt><trkpt lat="42.949487824534884" lon="11.054074307236341"><ele>41.0</ele><time>2026-04-03T14:30:29Z</time></trkpt><trkpt lat="42.94946415345421" lon="11.053956483861224"><ele>41.0</ele><time>2026-04-03T14:30:30Z</time></trkpt><trkpt lat="42.949458817697575" lon="11.053832959458445"><ele>41.0</ele><time>2026-04-03T14:30:31Z</time></trkpt><trkpt lat="42.94946891638592" lon="11.053705082630929"><ele>41.0</ele><time>2026-04-03T14:30:32Z</time></trkpt><trkpt lat="42.94949176514498" lon="11.053574748746144"><ele>40.5</ele><time>2026-04-03T14:30:33Z</time></trkpt><trkpt lat="42.949531040884516" lon="11.053428480265854"><ele>40.0</ele><time>2026-04-03T14:30:34Z</time></trkpt><trkpt lat="42.94957540888321" lon="11.053270369958698"><ele>39.5</ele><time>2026-04-03T14:30:35Z</time></trkpt><trkpt lat="42.94964603094284" lon="11.053075681101474"><ele>39.0</ele><time>2026-04-03T14:30:37Z</time></trkpt><trkpt lat="42.94968784286364" lon="11.052937435522479"><ele>38.0</ele><time>2026-04-03T14:30:38Z</time></trkpt><trkpt lat="42.94972703594568" lon="11.052792661254863"><ele>37.0</ele><time>2026-04-03T14:30:39Z</time></trkpt><trkpt lat="42.94976769567836" lon="11.052650892752311"><ele>36.0</ele><time>2026-04-03T14:30:40Z</time></trkpt><trkpt lat="42.949808786976064" lon="11.052509019056734"><ele>35.0</ele><time>2026-04-03T14:30:41Z</time></trkpt><trkpt lat="42.949854339128294" lon="11.052365122027778"><ele>35.0</ele><time>2026-04-03T14:30:42Z</time></trkpt><trkpt lat="42.94989510807543" lon="11.052227676405833"><ele>35.0</ele><time>2026-04-03T14:30:43Z</time></trkpt><trkpt lat="42.949929089500316" lon="11.0520882420219"><ele>35.0</ele><time>2026-04-03T14:30:44Z</time></trkpt><trkpt lat="42.94994213782013" lon="11.051941701095942"><ele>35.0</ele><time>2026-04-03T14:30:45Z</time></trkpt><trkpt lat="42.949934393855266" lon="11.051790138375635"><ele>35.0</ele><time>2026-04-03T14:30:46Z</time></trkpt><trkpt lat="42.94990888334383" lon="11.051643347366923"><ele>36.0</ele><time>2026-04-03T14:30:47Z</time></trkpt><trkpt lat="42.9498746834881" lon="11.051497834080928"><ele>37.0</ele><time>2026-04-03T14:30:48Z</time></trkpt><trkpt lat="42.949831325139705" lon="11.051357164569113"><ele>38.0</ele><time>2026-04-03T14:30:49Z</time></trkpt><trkpt lat="42.949789505456934" lon="11.051214039370402"><ele>39.0</ele><time>2026-04-03T14:30:50Z</time></trkpt><trkpt lat="42.94975187646176" lon="11.051064818664335"><ele>39.0</ele><time>2026-04-03T14:30:51Z</time></trkpt><trkpt lat="42.94971405035961" lon="11.050913898684556"><ele>39.0</ele><time>2026-04-03T14:30:52Z</time></trkpt><trkpt lat="42.94967429480886" lon="11.050761563228697"><ele>39.0</ele><time>2026-04-03T14:30:53Z</time></trkpt><trkpt lat="42.94963654672519" lon="11.050606841928973"><ele>39.0</ele><time>2026-04-03T14:30:54Z</time></trkpt><trkpt lat="42.94959931345874" lon="11.050452369536243"><ele>39.0</ele><time>2026-04-03T14:30:55Z</time></trkpt><trkpt lat="42.94956121940488" lon="11.050295920825699"><ele>39.0</ele><time>2026-04-03T14:30:56Z</time></trkpt><trkpt lat="42.94952117467042" lon="11.050139337594207"><ele>39.0</ele><time>2026-04-03T14:30:57Z</time></trkpt><trkpt lat="42.9494808486546" lon="11.049979371688105"><ele>39.0</ele><time>2026-04-03T14:30:58Z</time></trkpt><trkpt lat="42.9494416836261" lon="11.049818501461521"><ele>39.0</ele><time>2026-04-03T14:30:59Z</time></trkpt><trkpt lat="42.94939987519021" lon="11.04965210563627"><ele>39.0</ele><time>2026-04-03T14:31:00Z</time></trkpt><trkpt lat="42.94935687227368" lon="11.049485863422612"><ele>39.0</ele><time>2026-04-03T14:31:01Z</time></trkpt><trkpt lat="42.94931258236012" lon="11.049316325339337"><ele>39.0</ele><time>2026-04-03T14:31:02Z</time></trkpt><trkpt lat="42.94927060449768" lon="11.049148312353289"><ele>39.25</ele><time>2026-04-03T14:31:03Z</time></trkpt><trkpt lat="42.949226790903815" lon="11.048974580372592"><ele>39.5</ele><time>2026-04-03T14:31:04Z</time></trkpt><trkpt lat="42.94918339516151" lon="11.048801522616262"><ele>39.75</ele><time>2026-04-03T14:31:05Z</time></trkpt><trkpt lat="42.94913812342066" lon="11.048623634537206"><ele>40.0</ele><time>2026-04-03T14:31:06Z</time></trkpt><trkpt lat="42.94909151628664" lon="11.048440961289627"><ele>38.25</ele><time>2026-04-03T14:31:07Z</time></trkpt><trkpt lat="42.949047530793365" lon="11.048260758047828"><ele>36.5</ele><time>2026-04-03T14:31:08Z</time></trkpt><trkpt lat="42.94900400291561" lon="11.048079782578382"><ele>34.75</ele><time>2026-04-03T14:31:09Z</time></trkpt><trkpt lat="42.948957151801125" lon="11.047894214460884"><ele>33.0</ele><time>2026-04-03T14:31:10Z</time></trkpt><trkpt lat="42.948913474816706" lon="11.047725896367956"><ele>33.0</ele><time>2026-04-03T14:31:11Z</time></trkpt><trkpt lat="42.948869162863566" lon="11.047554657205422"><ele>33.0</ele><time>2026-04-03T14:31:12Z</time></trkpt><trkpt lat="42.94882435873223" lon="11.047373931939518"><ele>33.0</ele><time>2026-04-03T14:31:13Z</time></trkpt><trkpt lat="42.94878270391652" lon="11.047193162907384"><ele>33.0</ele><time>2026-04-03T14:31:14Z</time></trkpt><trkpt lat="42.94873787727168" lon="11.04701601951625"><ele>33.25</ele><time>2026-04-03T14:31:15Z</time></trkpt><trkpt lat="42.94868933925133" lon="11.0468380393264"><ele>33.5</ele><time>2026-04-03T14:31:16Z</time></trkpt><trkpt lat="42.9486438037689" lon="11.046661319601059"><ele>33.75</ele><time>2026-04-03T14:31:17Z</time></trkpt><trkpt lat="42.94860402413479" lon="11.046489574762598"><ele>34.0</ele><time>2026-04-03T14:31:18Z</time></trkpt><trkpt lat="42.94856726151031" lon="11.04630624044869"><ele>34.0</ele><time>2026-04-03T14:31:19Z</time></trkpt><trkpt lat="42.94853984850141" lon="11.046125358948583"><ele>34.0</ele><time>2026-04-03T14:31:20Z</time></trkpt><trkpt lat="42.9485246962036" lon="11.045942722563439"><ele>34.0</ele><time>2026-04-03T14:31:21Z</time></trkpt><trkpt lat="42.94852866785253" lon="11.045754020633815"><ele>34.0</ele><time>2026-04-03T14:31:22Z</time></trkpt><trkpt lat="42.948535025419666" lon="11.045560500895489"><ele>34.25</ele><time>2026-04-03T14:31:23Z</time></trkpt><trkpt lat="42.948539151211975" lon="11.045371247049049"><ele>34.5</ele><time>2026-04-03T14:31:24Z</time></trkpt><trkpt lat="42.94854110651984" lon="11.04517957528379"><ele>34.75</ele><time>2026-04-03T14:31:25Z</time></trkpt><trkpt lat="42.948541356018325" lon="11.044990861999427"><ele>35.0</ele><time>2026-04-03T14:31:26Z</time></trkpt><trkpt lat="42.94854263117896" lon="11.044801181359217"><ele>35.0</ele><time>2026-04-03T14:31:27Z</time></trkpt><trkpt lat="42.94854389037878" lon="11.044612663383418"><ele>35.0</ele><time>2026-04-03T14:31:28Z</time></trkpt><trkpt lat="42.94854449883654" lon="11.044424389950919"><ele>35.0</ele><time>2026-04-03T14:31:29Z</time></trkpt><trkpt lat="42.948542703761255" lon="11.044228755857942"><ele>35.0</ele><time>2026-04-03T14:31:30Z</time></trkpt><trkpt lat="42.948544223565094" lon="11.04403179405361"><ele>35.0</ele><time>2026-04-03T14:31:31Z</time></trkpt><trkpt lat="42.948554062910176" lon="11.04383125277399"><ele>35.0</ele><time>2026-04-03T14:31:32Z</time></trkpt><trkpt lat="42.94856880998392" lon="11.04363423489426"><ele>35.0</ele><time>2026-04-03T14:31:33Z</time></trkpt><trkpt lat="42.9485823751661" lon="11.043439559662398"><ele>35.0</ele><time>2026-04-03T14:31:34Z</time></trkpt><trkpt lat="42.94859200670291" lon="11.043234551681792"><ele>34.5</ele><time>2026-04-03T14:31:35Z</time></trkpt><trkpt lat="42.948600302519374" lon="11.043031558954132"><ele>34.0</ele><time>2026-04-03T14:31:36Z</time></trkpt><trkpt lat="42.9486058805519" lon="11.042833287101855"><ele>33.5</ele><time>2026-04-03T14:31:37Z</time></trkpt><trkpt lat="42.94861521304259" lon="11.042634491914022"><ele>33.0</ele><time>2026-04-03T14:31:38Z</time></trkpt><trkpt lat="42.94862523079177" lon="11.042430787983259"><ele>32.5</ele><time>2026-04-03T14:31:39Z</time></trkpt><trkpt lat="42.94863633864945" lon="11.042230366841348"><ele>32.0</ele><time>2026-04-03T14:31:40Z</time></trkpt><trkpt lat="42.94864755726754" lon="11.04202514593226"><ele>31.5</ele><time>2026-04-03T14:31:41Z</time></trkpt><trkpt lat="42.9486587855646" lon="11.041827157693263"><ele>31.0</ele><time>2026-04-03T14:31:42Z</time></trkpt><trkpt lat="42.948667414893265" lon="11.041629023981347"><ele>31.0</ele><time>2026-04-03T14:31:43Z</time></trkpt><trkpt lat="42.94867607346601" lon="11.04142964032972"><ele>31.0</ele><time>2026-04-03T14:31:44Z</time></trkpt><trkpt lat="42.94868493220028" lon="11.041235060429715"><ele>31.0</ele><time>2026-04-03T14:31:45Z</time></trkpt><trkpt lat="42.94869414922582" lon="11.041036360242472"><ele>31.0</ele><time>2026-04-03T14:31:46Z</time></trkpt><trkpt lat="42.94870785290682" lon="11.040832763708384"><ele>31.25</ele><time>2026-04-03T14:31:47Z</time></trkpt><trkpt lat="42.94871779553066" lon="11.0406347312393"><ele>31.5</ele><time>2026-04-03T14:31:48Z</time></trkpt><trkpt lat="42.94872662104194" lon="11.040429816704007"><ele>31.75</ele><time>2026-04-03T14:31:49Z</time></trkpt><trkpt lat="42.94873431717938" lon="11.040228118426205"><ele>32.0</ele><time>2026-04-03T14:31:50Z</time></trkpt><trkpt lat="42.94874783756076" lon="11.040010984225379"><ele>32.0</ele><time>2026-04-03T14:31:51Z</time></trkpt><trkpt lat="42.94875910978739" lon="11.039801758566238"><ele>32.0</ele><time>2026-04-03T14:31:52Z</time></trkpt><trkpt lat="42.94877205210659" lon="11.039588309936057"><ele>32.0</ele><time>2026-04-03T14:31:53Z</time></trkpt><trkpt lat="42.948780850177805" lon="11.039380777265515"><ele>32.0</ele><time>2026-04-03T14:31:54Z</time></trkpt><trkpt lat="42.94879055134777" lon="11.03917387173294"><ele>32.0</ele><time>2026-04-03T14:31:55Z</time></trkpt><trkpt lat="42.94880333510517" lon="11.038967778433609"><ele>32.0</ele><time>2026-04-03T14:31:56Z</time></trkpt><trkpt lat="42.94881616266113" lon="11.038759456873958"><ele>32.0</ele><time>2026-04-03T14:31:57Z</time></trkpt><trkpt lat="42.948825687213336" lon="11.038559612981816"><ele>32.0</ele><time>2026-04-03T14:31:58Z</time></trkpt><trkpt lat="42.94883329600299" lon="11.038354720208904"><ele>32.0</ele><time>2026-04-03T14:31:59Z</time></trkpt><trkpt lat="42.948838205649544" lon="11.038152232321133"><ele>32.0</ele><time>2026-04-03T14:32:00Z</time></trkpt><trkpt lat="42.948848438140864" lon="11.037940948060333"><ele>32.0</ele><time>2026-04-03T14:32:01Z</time></trkpt><trkpt lat="42.94886435628659" lon="11.037729182848931"><ele>32.0</ele><time>2026-04-03T14:32:02Z</time></trkpt><trkpt lat="42.948873336376245" lon="11.037520858932876"><ele>32.0</ele><time>2026-04-03T14:32:03Z</time></trkpt><trkpt lat="42.94889095004233" lon="11.037305882827535"><ele>31.333333333333332</ele><time>2026-04-03T14:32:04Z</time></trkpt><trkpt lat="42.94890745967042" lon="11.037100207812074"><ele>30.666666666666664</ele><time>2026-04-03T14:32:05Z</time></trkpt><trkpt lat="42.94892647347595" lon="11.036885225283187"><ele>30.0</ele><time>2026-04-03T14:32:06Z</time></trkpt><trkpt lat="42.948944067288345" lon="11.0366736048704"><ele>31.0</ele><time>2026-04-03T14:32:07Z</time></trkpt><trkpt lat="42.94895997488988" lon="11.036464697546565"><ele>32.0</ele><time>2026-04-03T14:32:08Z</time></trkpt><trkpt lat="42.9489760691648" lon="11.036256025160569"><ele>33.0</ele><time>2026-04-03T14:32:09Z</time></trkpt><trkpt lat="42.94899261561672" lon="11.03604946580074"><ele>33.0</ele><time>2026-04-03T14:32:10Z</time></trkpt><trkpt lat="42.94900825696595" lon="11.035841827259494"><ele>33.0</ele><time>2026-04-03T14:32:11Z</time></trkpt><trkpt lat="42.94902477427481" lon="11.03563727397879"><ele>33.0</ele><time>2026-04-03T14:32:12Z</time></trkpt><trkpt lat="42.949044750043065" lon="11.035437072910126"><ele>33.5</ele><time>2026-04-03T14:32:13Z</time></trkpt><trkpt lat="42.949060809857905" lon="11.035233547391908"><ele>34.0</ele><time>2026-04-03T14:32:14Z</time></trkpt><trkpt lat="42.94907383527085" lon="11.03503227510428"><ele>34.5</ele><time>2026-04-03T14:32:15Z</time></trkpt><trkpt lat="42.949090224634794" lon="11.034833182969388"><ele>35.0</ele><time>2026-04-03T14:32:16Z</time></trkpt><trkpt lat="42.949107295213906" lon="11.03463911020937"><ele>35.0</ele><time>2026-04-03T14:32:17Z</time></trkpt><trkpt lat="42.94911892072954" lon="11.034438605240144"><ele>35.0</ele><time>2026-04-03T14:32:18Z</time></trkpt><trkpt lat="42.94912441118893" lon="11.0342355669015"><ele>35.0</ele><time>2026-04-03T14:32:19Z</time></trkpt><trkpt lat="42.94911696775171" lon="11.034041503809362"><ele>35.0</ele><time>2026-04-03T14:32:20Z</time></trkpt><trkpt lat="42.94910386726985" lon="11.033834452124683"><ele>34.0</ele><time>2026-04-03T14:32:21Z</time></trkpt><trkpt lat="42.94908890094476" lon="11.033625857727333"><ele>33.0</ele><time>2026-04-03T14:32:22Z</time></trkpt><trkpt lat="42.94907675455143" lon="11.033418471228657"><ele>32.0</ele><time>2026-04-03T14:32:23Z</time></trkpt><trkpt lat="42.949065334349115" lon="11.033206540900172"><ele>31.666666666666664</ele><time>2026-04-03T14:32:24Z</time></trkpt><trkpt lat="42.94905334837607" lon="11.032998912873062"><ele>31.333333333333336</ele><time>2026-04-03T14:32:25Z</time></trkpt><trkpt lat="42.94904138504482" lon="11.032789981865546"><ele>31.0</ele><time>2026-04-03T14:32:26Z</time></trkpt><trkpt lat="42.94902939931556" lon="11.032577591723973"><ele>31.333333333333336</ele><time>2026-04-03T14:32:27Z</time></trkpt><trkpt lat="42.949021392689815" lon="11.032372454431219"><ele>31.666666666666664</ele><time>2026-04-03T14:32:28Z</time></trkpt><trkpt lat="42.949008458874104" lon="11.032155460878661"><ele>32.0</ele><time>2026-04-03T14:32:29Z</time></trkpt><trkpt lat="42.94899344251116" lon="11.03193588333386"><ele>32.0</ele><time>2026-04-03T14:32:30Z</time></trkpt><trkpt lat="42.948981073775975" lon="11.031731491127495"><ele>32.0</ele><time>2026-04-03T14:32:31Z</time></trkpt><trkpt lat="42.94896659524562" lon="11.031518248216223"><ele>32.0</ele><time>2026-04-03T14:32:32Z</time></trkpt><trkpt lat="42.94895354125327" lon="11.031304011884654"><ele>31.666666666666664</ele><time>2026-04-03T14:32:33Z</time></trkpt><trkpt lat="42.94894156662183" lon="11.031095990901305"><ele>31.333333333333336</ele><time>2026-04-03T14:32:34Z</time></trkpt><trkpt lat="42.94893062149515" lon="11.030882529003891"><ele>31.0</ele><time>2026-04-03T14:32:35Z</time></trkpt><trkpt lat="42.94892064711173" lon="11.030674709141827"><ele>30.666666666666668</ele><time>2026-04-03T14:32:36Z</time></trkpt><trkpt lat="42.94891023828183" lon="11.030466929748522"><ele>30.333333333333336</ele><time>2026-04-03T14:32:37Z</time></trkpt><trkpt lat="42.9488994095552" lon="11.030261301245789"><ele>30.0</ele><time>2026-04-03T14:32:38Z</time></trkpt><trkpt lat="42.94888927925956" lon="11.030059771201257"><ele>30.5</ele><time>2026-04-03T14:32:39Z</time></trkpt><trkpt lat="42.94887730908255" lon="11.029858659910309"><ele>31.0</ele><time>2026-04-03T14:32:40Z</time></trkpt><trkpt lat="42.94886545622729" lon="11.02965802404749"><ele>31.5</ele><time>2026-04-03T14:32:41Z</time></trkpt><trkpt lat="42.948855313183486" lon="11.029460190881819"><ele>32.0</ele><time>2026-04-03T14:32:42Z</time></trkpt><trkpt lat="42.94884656672441" lon="11.029269125829618"><ele>32.5</ele><time>2026-04-03T14:32:43Z</time></trkpt><trkpt lat="42.948835670750405" lon="11.02907985252587"><ele>33.0</ele><time>2026-04-03T14:32:44Z</time></trkpt><trkpt lat="42.948822791444954" lon="11.02889029536002"><ele>33.5</ele><time>2026-04-03T14:32:45Z</time></trkpt><trkpt lat="42.94881192664586" lon="11.028711709596225"><ele>34.0</ele><time>2026-04-03T14:32:46Z</time></trkpt><trkpt lat="42.94880214080647" lon="11.028561349025141"><ele>34.0</ele><time>2026-04-03T14:32:47Z</time></trkpt><trkpt lat="42.94879364677397" lon="11.028418487796142"><ele>34.0</ele><time>2026-04-03T14:32:48Z</time></trkpt><trkpt lat="42.948785720109626" lon="11.028293247272263"><ele>34.0</ele><time>2026-04-03T14:32:49Z</time></trkpt><trkpt lat="42.94877944098158" lon="11.028176043119915"><ele>34.0</ele><time>2026-04-03T14:32:50Z</time></trkpt><trkpt lat="42.9487724081507" lon="11.028071778593219"><ele>34.0</ele><time>2026-04-03T14:32:51Z</time></trkpt><trkpt lat="42.94876648121418" lon="11.02798107044917"><ele>34.0</ele><time>2026-04-03T14:32:52Z</time></trkpt><trkpt lat="42.94876656549657" lon="11.0278627492923"><ele>33.6</ele><time>2026-04-03T14:32:55Z</time></trkpt><trkpt lat="42.94876323649759" lon="11.027748191527387"><ele>33.2</ele><time>2026-04-03T14:33:15Z</time></trkpt><trkpt lat="42.94867683172485" lon="11.027724165364207"><ele>32.800000000000004</ele><time>2026-04-03T14:33:16Z</time></trkpt><trkpt lat="42.948555848519334" lon="11.02768824807308"><ele>32.4</ele><time>2026-04-03T14:33:18Z</time></trkpt><trkpt lat="42.94844510173559" lon="11.02759380796706"><ele>32.0</ele><time>2026-04-03T14:33:20Z</time></trkpt><trkpt lat="42.948375357385295" lon="11.027518416877163"><ele>32.2</ele><time>2026-04-03T14:33:21Z</time></trkpt><trkpt lat="42.94829922380855" lon="11.027425507194835"><ele>32.400000000000006</ele><time>2026-04-03T14:33:22Z</time></trkpt><trkpt lat="42.94822929706334" lon="11.027322914088991"><ele>32.599999999999994</ele><time>2026-04-03T14:33:23Z</time></trkpt><trkpt lat="42.948126765357664" lon="11.027197625958637"><ele>32.8</ele><time>2026-04-03T14:33:25Z</time></trkpt><trkpt lat="42.94806223953262" lon="11.0271104793955"><ele>33.0</ele><time>2026-04-03T14:33:26Z</time></trkpt><trkpt lat="42.947999068240726" lon="11.02702226838585"><ele>33.0</ele><time>2026-04-03T14:33:27Z</time></trkpt><trkpt lat="42.947934947431314" lon="11.026930973684559"><ele>33.0</ele><time>2026-04-03T14:33:28Z</time></trkpt><trkpt lat="42.94787298807193" lon="11.026842892840213"><ele>33.0</ele><time>2026-04-03T14:33:29Z</time></trkpt><trkpt lat="42.94781304072484" lon="11.026760117826846"><ele>33.0</ele><time>2026-04-03T14:33:30Z</time></trkpt><trkpt lat="42.94769317313222" lon="11.02662187250133"><ele>33.0</ele><time>2026-04-03T14:33:31Z</time></trkpt><trkpt lat="42.94761247951345" lon="11.026518490840724"><ele>33.25</ele><time>2026-04-03T14:33:32Z</time></trkpt><trkpt lat="42.94752876159396" lon="11.02641291966668"><ele>33.5</ele><time>2026-04-03T14:33:33Z</time></trkpt><trkpt lat="42.9474448776983" lon="11.026304993938911"><ele>33.75</ele><time>2026-04-03T14:33:34Z</time></trkpt><trkpt lat="42.94736352685523" lon="11.026196864969622"><ele>34.0</ele><time>2026-04-03T14:33:35Z</time></trkpt><trkpt lat="42.94728096227726" lon="11.0260865678375"><ele>34.0</ele><time>2026-04-03T14:33:36Z</time></trkpt><trkpt lat="42.94719946799139" lon="11.025978077900685"><ele>34.0</ele><time>2026-04-03T14:33:37Z</time></trkpt><trkpt lat="42.947116547332584" lon="11.025866824654226"><ele>34.0</ele><time>2026-04-03T14:33:38Z</time></trkpt><trkpt lat="42.947029794187785" lon="11.025753229564732"><ele>34.0</ele><time>2026-04-03T14:33:39Z</time></trkpt><trkpt lat="42.946941907137074" lon="11.025630716991044"><ele>34.25</ele><time>2026-04-03T14:33:40Z</time></trkpt><trkpt lat="42.94685243824277" lon="11.02550523960711"><ele>34.5</ele><time>2026-04-03T14:33:41Z</time></trkpt><trkpt lat="42.946760691578895" lon="11.025378196649973"><ele>34.75</ele><time>2026-04-03T14:33:42Z</time></trkpt><trkpt lat="42.94667144169796" lon="11.025246034375293"><ele>35.0</ele><time>2026-04-03T14:33:43Z</time></trkpt><trkpt lat="42.94658700732132" lon="11.025118523886784"><ele>35.5</ele><time>2026-04-03T14:33:44Z</time></trkpt><trkpt lat="42.946504841592144" lon="11.02499631150536"><ele>36.0</ele><time>2026-04-03T14:33:45Z</time></trkpt><trkpt lat="42.94641968191828" lon="11.02486825107249"><ele>36.5</ele><time>2026-04-03T14:33:46Z</time></trkpt><trkpt lat="42.9463309827508" lon="11.024735180547234"><ele>37.0</ele><time>2026-04-03T14:33:47Z</time></trkpt><trkpt lat="42.946240527215146" lon="11.024598652333298"><ele>37.25</ele><time>2026-04-03T14:33:48Z</time></trkpt><trkpt lat="42.94614634356023" lon="11.02446574579896"><ele>37.5</ele><time>2026-04-03T14:33:49Z</time></trkpt><trkpt lat="42.94604723614979" lon="11.024328342379825"><ele>37.75</ele><time>2026-04-03T14:33:50Z</time></trkpt><trkpt lat="42.94594931757652" lon="11.024185861144629"><ele>38.0</ele><time>2026-04-03T14:33:51Z</time></trkpt><trkpt lat="42.94584675838907" lon="11.024043069156164"><ele>38.0</ele><time>2026-04-03T14:33:52Z</time></trkpt><trkpt lat="42.945744931098076" lon="11.023901397965549"><ele>38.0</ele><time>2026-04-03T14:33:53Z</time></trkpt><trkpt lat="42.94564399970931" lon="11.023756869827164"><ele>38.0</ele><time>2026-04-03T14:33:54Z</time></trkpt><trkpt lat="42.94554199988119" lon="11.023611335620723"><ele>38.0</ele><time>2026-04-03T14:33:55Z</time></trkpt><trkpt lat="42.9454406440536" lon="11.023473427014487"><ele>38.0</ele><time>2026-04-03T14:33:56Z</time></trkpt><trkpt lat="42.94533425434293" lon="11.023337407363849"><ele>38.0</ele><time>2026-04-03T14:33:57Z</time></trkpt><trkpt lat="42.945215347586306" lon="11.02321112665112"><ele>38.0</ele><time>2026-04-03T14:33:58Z</time></trkpt><trkpt lat="42.945092875017316" lon="11.023099716383323"><ele>38.0</ele><time>2026-04-03T14:33:59Z</time></trkpt><trkpt lat="42.944960594488954" lon="11.022990444942328"><ele>38.666666666666664</ele><time>2026-04-03T14:34:00Z</time></trkpt><trkpt lat="42.94482491259993" lon="11.022890034489667"><ele>39.333333333333336</ele><time>2026-04-03T14:34:01Z</time></trkpt><trkpt lat="42.94468532651036" lon="11.022805092224228"><ele>40.0</ele><time>2026-04-03T14:34:02Z</time></trkpt><trkpt lat="42.9445417759639" lon="11.022743585040178"><ele>40.0</ele><time>2026-04-03T14:34:03Z</time></trkpt><trkpt lat="42.9444012383134" lon="11.022664547908475"><ele>40.0</ele><time>2026-04-03T14:34:04Z</time></trkpt><trkpt lat="42.94425267306732" lon="11.022620372737908"><ele>40.0</ele><time>2026-04-03T14:34:05Z</time></trkpt><trkpt lat="42.944096820849424" lon="11.022588766282931"><ele>40.66666666666667</ele><time>2026-04-03T14:34:06Z</time></trkpt><trkpt lat="42.94394820716237" lon="11.02257372223487"><ele>41.333333333333336</ele><time>2026-04-03T14:34:07Z</time></trkpt><trkpt lat="42.943790443937736" lon="11.022588444606344"><ele>42.0</ele><time>2026-04-03T14:34:08Z</time></trkpt><trkpt lat="42.94364042792371" lon="11.022591102599858"><ele>42.0</ele><time>2026-04-03T14:34:09Z</time></trkpt><trkpt lat="42.94348950013085" lon="11.022596629363123"><ele>42.0</ele><time>2026-04-03T14:34:10Z</time></trkpt><trkpt lat="42.9433392533983" lon="11.022604786732808"><ele>42.0</ele><time>2026-04-03T14:34:11Z</time></trkpt><trkpt lat="42.94318873497066" lon="11.022587104542957"><ele>42.0</ele><time>2026-04-03T14:34:12Z</time></trkpt><trkpt lat="42.9430397290967" lon="11.022592362963664"><ele>42.0</ele><time>2026-04-03T14:34:13Z</time></trkpt><trkpt lat="42.942882963094846" lon="11.022615335626767"><ele>42.0</ele><time>2026-04-03T14:34:14Z</time></trkpt><trkpt lat="42.94273366596839" lon="11.022620965345538"><ele>42.0</ele><time>2026-04-03T14:34:15Z</time></trkpt><trkpt lat="42.94258744659708" lon="11.022627021629013"><ele>42.0</ele><time>2026-04-03T14:34:16Z</time></trkpt><trkpt lat="42.94243475066622" lon="11.02263294338199"><ele>42.0</ele><time>2026-04-03T14:34:17Z</time></trkpt><trkpt lat="42.9422852174885" lon="11.022636393251984"><ele>42.0</ele><time>2026-04-03T14:34:18Z</time></trkpt><trkpt lat="42.94213336588934" lon="11.022639690260899"><ele>41.0</ele><time>2026-04-03T14:34:19Z</time></trkpt><trkpt lat="42.94198083437323" lon="11.022644413694632"><ele>40.0</ele><time>2026-04-03T14:34:20Z</time></trkpt><trkpt lat="42.94182450494628" lon="11.022647802546526"><ele>39.0</ele><time>2026-04-03T14:34:21Z</time></trkpt><trkpt lat="42.94166574721805" lon="11.022649937707861"><ele>39.0</ele><time>2026-04-03T14:34:22.001Z</time></trkpt><trkpt lat="42.94150886143104" lon="11.022651525616533"><ele>39.0</ele><time>2026-04-03T14:34:23.001Z</time></trkpt><trkpt lat="42.9413549310292" lon="11.02265957637573"><ele>39.0</ele><time>2026-04-03T14:34:24.001Z</time></trkpt><trkpt lat="42.94119798053608" lon="11.022663251346042"><ele>39.0</ele><time>2026-04-03T14:34:25.001Z</time></trkpt><trkpt lat="42.941050084563564" lon="11.022666368772128"><ele>39.0</ele><time>2026-04-03T14:34:26.001Z</time></trkpt><trkpt lat="42.940901259482274" lon="11.022672420742547"><ele>39.0</ele><time>2026-04-03T14:34:27.001Z</time></trkpt><trkpt lat="42.94075177548972" lon="11.022676892054607"><ele>39.0</ele><time>2026-04-03T14:34:28.001Z</time></trkpt><trkpt lat="42.94060422655638" lon="11.0226834112742"><ele>38.0</ele><time>2026-04-03T14:34:29.001Z</time></trkpt><trkpt lat="42.9404527266599" lon="11.022696217521968"><ele>37.0</ele><time>2026-04-03T14:34:30.001Z</time></trkpt><trkpt lat="42.940314780900636" lon="11.022725534749533"><ele>36.0</ele><time>2026-04-03T14:34:31.001Z</time></trkpt><trkpt lat="42.94017379562108" lon="11.022758060990018"><ele>35.0</ele><time>2026-04-03T14:34:32.001Z</time></trkpt><trkpt lat="42.94002913940426" lon="11.022798531379488"><ele>34.75</ele><time>2026-04-03T14:34:33.001Z</time></trkpt><trkpt lat="42.93988878310223" lon="11.022854263596102"><ele>34.5</ele><time>2026-04-03T14:34:34.001Z</time></trkpt><trkpt lat="42.93975664165619" lon="11.02292624851738"><ele>34.25</ele><time>2026-04-03T14:34:35.001Z</time></trkpt><trkpt lat="42.93962386619497" lon="11.023012088079698"><ele>34.0</ele><time>2026-04-03T14:34:36.001Z</time></trkpt><trkpt lat="42.939502491830176" lon="11.023102620254614"><ele>34.0</ele><time>2026-04-03T14:34:37.001Z</time></trkpt><trkpt lat="42.93938917887676" lon="11.02320463816485"><ele>34.0</ele><time>2026-04-03T14:34:38.001Z</time></trkpt><trkpt lat="42.93927454128434" lon="11.023319031804041"><ele>34.0</ele><time>2026-04-03T14:34:39.001Z</time></trkpt><trkpt lat="42.93916979228363" lon="11.023433589665814"><ele>34.0</ele><time>2026-04-03T14:34:40.001Z</time></trkpt><trkpt lat="42.93907041328043" lon="11.023556454138843"><ele>33.5</ele><time>2026-04-03T14:34:41.001Z</time></trkpt><trkpt lat="42.93897472364634" lon="11.02368984590849"><ele>33.0</ele><time>2026-04-03T14:34:42.001Z</time></trkpt><trkpt lat="42.938885111671794" lon="11.02383101334627"><ele>32.5</ele><time>2026-04-03T14:34:43.001Z</time></trkpt><trkpt lat="42.938802769707216" lon="11.023976183926635"><ele>32.0</ele><time>2026-04-03T14:34:44Z</time></trkpt><trkpt lat="42.93872302549878" lon="11.02413299526171"><ele>34.75</ele><time>2026-04-03T14:34:45Z</time></trkpt><trkpt lat="42.93864309774868" lon="11.024290468111118"><ele>37.5</ele><time>2026-04-03T14:34:46Z</time></trkpt><trkpt lat="42.9385615181641" lon="11.024441338172773"><ele>40.25</ele><time>2026-04-03T14:34:47Z</time></trkpt><trkpt lat="42.93848063882541" lon="11.024586862257381"><ele>43.0</ele><time>2026-04-03T14:34:48Z</time></trkpt><trkpt lat="42.93839963209625" lon="11.024739711986498"><ele>43.25</ele><time>2026-04-03T14:34:49Z</time></trkpt><trkpt lat="42.93831945623689" lon="11.024891356650276"><ele>43.5</ele><time>2026-04-03T14:34:50Z</time></trkpt><trkpt lat="42.938237136143485" lon="11.025046494368075"><ele>43.75</ele><time>2026-04-03T14:34:51Z</time></trkpt><trkpt lat="42.93815578299478" lon="11.025198190524423"><ele>44.0</ele><time>2026-04-03T14:34:52Z</time></trkpt><trkpt lat="42.93807329039826" lon="11.02535232823348"><ele>44.0</ele><time>2026-04-03T14:34:53Z</time></trkpt><trkpt lat="42.93799179057561" lon="11.025502762566976"><ele>44.0</ele><time>2026-04-03T14:34:54Z</time></trkpt><trkpt lat="42.9379109184144" lon="11.02566346565157"><ele>44.0</ele><time>2026-04-03T14:34:55Z</time></trkpt><trkpt lat="42.93783319795438" lon="11.025816681092898"><ele>44.0</ele><time>2026-04-03T14:34:55.999Z</time></trkpt><trkpt lat="42.937750564047974" lon="11.025967557493463"><ele>42.0</ele><time>2026-04-03T14:34:56.999Z</time></trkpt><trkpt lat="42.93766449492075" lon="11.02611685131063"><ele>40.0</ele><time>2026-04-03T14:34:57.999Z</time></trkpt><trkpt lat="42.93757937014542" lon="11.02626751886409"><ele>38.0</ele><time>2026-04-03T14:34:58.999Z</time></trkpt><trkpt lat="42.937494045372055" lon="11.026415413858007"><ele>36.0</ele><time>2026-04-03T14:34:59.999Z</time></trkpt><trkpt lat="42.937398090623454" lon="11.0265585911996"><ele>35.75</ele><time>2026-04-03T14:35:00.999Z</time></trkpt><trkpt lat="42.937297071337646" lon="11.02668757993528"><ele>35.5</ele><time>2026-04-03T14:35:01.999Z</time></trkpt><trkpt lat="42.93718772972326" lon="11.026801081848598"><ele>35.25</ele><time>2026-04-03T14:35:02.999Z</time></trkpt><trkpt lat="42.93706380890145" lon="11.026889643016816"><ele>35.0</ele><time>2026-04-03T14:35:03.999Z</time></trkpt><trkpt lat="42.93694427365847" lon="11.026980981558845"><ele>35.0</ele><time>2026-04-03T14:35:04.999Z</time></trkpt><trkpt lat="42.93682063663336" lon="11.027063044866448"><ele>35.0</ele><time>2026-04-03T14:35:05.999Z</time></trkpt><trkpt lat="42.93669469457071" lon="11.02713077190391"><ele>35.0</ele><time>2026-04-03T14:35:06.999Z</time></trkpt><trkpt lat="42.93656949896427" lon="11.027188992028274"><ele>35.0</ele><time>2026-04-03T14:35:07.999Z</time></trkpt><trkpt lat="42.93645588973958" lon="11.027225439838604"><ele>35.0</ele><time>2026-04-03T14:35:08.999Z</time></trkpt><trkpt lat="42.93634739547258" lon="11.02727414287461"><ele>35.0</ele><time>2026-04-03T14:35:09.999Z</time></trkpt><trkpt lat="42.93623529863176" lon="11.027266383453346"><ele>35.0</ele><time>2026-04-03T14:35:10.999Z</time></trkpt><trkpt lat="42.93612674360538" lon="11.027294241218492"><ele>35.0</ele><time>2026-04-03T14:35:11.999Z</time></trkpt><trkpt lat="42.93601891357502" lon="11.027289984893148"><ele>35.0</ele><time>2026-04-03T14:35:12.999Z</time></trkpt><trkpt lat="42.93592408723644" lon="11.027249394963984"><ele>34.166666666666664</ele><time>2026-04-03T14:35:13.999Z</time></trkpt><trkpt lat="42.93583617268564" lon="11.027254459553795"><ele>33.33333333333333</ele><time>2026-04-03T14:35:14.999Z</time></trkpt><trkpt lat="42.93577225979893" lon="11.027238515115327"><ele>32.5</ele><time>2026-04-03T14:35:15.999Z</time></trkpt><trkpt lat="42.93571966608412" lon="11.027185410829041"><ele>31.666666666666664</ele><time>2026-04-03T14:35:17.999Z</time></trkpt><trkpt lat="42.93572918351389" lon="11.02708621066415"><ele>30.833333333333332</ele><time>2026-04-03T14:35:19.999Z</time></trkpt><trkpt lat="42.935762386158" lon="11.02692727274819"><ele>30.0</ele><time>2026-04-03T14:35:21.999Z</time></trkpt><trkpt lat="42.93579046590929" lon="11.02676506559474"><ele>30.333333333333332</ele><time>2026-04-03T14:35:23.999Z</time></trkpt><trkpt lat="42.93582280095218" lon="11.026600370306241"><ele>30.666666666666664</ele><time>2026-04-03T14:35:25.999Z</time></trkpt><trkpt lat="42.93583711429828" lon="11.026433928538626"><ele>31.0</ele><time>2026-04-03T14:35:27.999Z</time></trkpt><trkpt lat="42.93585306688638" lon="11.026349046847601"><ele>31.333333333333332</ele><time>2026-04-03T14:35:28.999Z</time></trkpt><trkpt lat="42.93586660805171" lon="11.02625930343654"><ele>31.666666666666664</ele><time>2026-04-03T14:35:29.999Z</time></trkpt><trkpt lat="42.93588133992989" lon="11.026168218735831"><ele>32.0</ele><time>2026-04-03T14:35:30.999Z</time></trkpt><trkpt lat="42.93590543446626" lon="11.025988671739034"><ele>32.4</ele><time>2026-04-03T14:35:32.999Z</time></trkpt><trkpt lat="42.93591028352381" lon="11.02588771575021"><ele>32.800000000000004</ele><time>2026-04-03T14:35:33.999Z</time></trkpt><trkpt lat="42.93593391492406" lon="11.02579963651971"><ele>33.2</ele><time>2026-04-03T14:35:34.999Z</time></trkpt><trkpt lat="42.93594230197641" lon="11.025711734949976"><ele>33.6</ele><time>2026-04-03T14:35:35.999Z</time></trkpt><trkpt lat="42.935839996985464" lon="11.025497737331827"><ele>34.0</ele><time>2026-04-03T14:35:37.999Z</time></trkpt><trkpt lat="42.93580200830702" lon="11.025419508351092"><ele>33.333333333333336</ele><time>2026-04-03T14:35:38.999Z</time></trkpt><trkpt lat="42.9357650142258" lon="11.0253397316981"><ele>32.66666666666667</ele><time>2026-04-03T14:35:39.999Z</time></trkpt><trkpt lat="42.93573228942756" lon="11.025265569468004"><ele>32.0</ele><time>2026-04-03T14:35:40.999Z</time></trkpt><trkpt lat="42.93567279068553" lon="11.025107965138506"><ele>31.333333333333336</ele><time>2026-04-03T14:35:42.999Z</time></trkpt><trkpt lat="42.93564005092753" lon="11.025016468424493"><ele>30.666666666666668</ele><time>2026-04-03T14:35:43.999Z</time></trkpt><trkpt lat="42.93560666918641" lon="11.024920765651178"><ele>30.0</ele><time>2026-04-03T14:35:44.999Z</time></trkpt><trkpt lat="42.93557388239453" lon="11.024824395203892"><ele>29.5</ele><time>2026-04-03T14:35:45.999Z</time></trkpt><trkpt lat="42.935544899854285" lon="11.02473920716187"><ele>29.0</ele><time>2026-04-03T14:35:46.999Z</time></trkpt><trkpt lat="42.93551088008383" lon="11.02464184826553"><ele>28.5</ele><time>2026-04-03T14:35:47.999Z</time></trkpt><trkpt lat="42.93547197182881" lon="11.024534210194114"><ele>28.0</ele><time>2026-04-03T14:35:48.999Z</time></trkpt><trkpt lat="42.935426307586106" lon="11.024428168865619"><ele>27.5</ele><time>2026-04-03T14:35:49.999Z</time></trkpt><trkpt lat="42.93538964172068" lon="11.024306446545474"><ele>27.0</ele><time>2026-04-03T14:35:50.999Z</time></trkpt><trkpt lat="42.935348595877365" lon="11.024192894788861"><ele>26.6</ele><time>2026-04-03T14:35:51.999Z</time></trkpt><trkpt lat="42.93530735916631" lon="11.024078814671656"><ele>26.200000000000003</ele><time>2026-04-03T14:35:52.999Z</time></trkpt><trkpt lat="42.935268439039184" lon="11.023968754497957"><ele>25.8</ele><time>2026-04-03T14:35:53.999Z</time></trkpt><trkpt lat="42.9352233615711" lon="11.02384003738962"><ele>25.4</ele><time>2026-04-03T14:35:54.999Z</time></trkpt><trkpt lat="42.93517954594796" lon="11.023714924238364"><ele>25.0</ele><time>2026-04-03T14:35:55.999Z</time></trkpt><trkpt lat="42.93513623989634" lon="11.023591134568031"><ele>25.0</ele><time>2026-04-03T14:35:56.999Z</time></trkpt><trkpt lat="42.93509296315625" lon="11.023466736008249"><ele>25.0</ele><time>2026-04-03T14:35:57.999Z</time></trkpt><trkpt lat="42.935050004703136" lon="11.023343252515694"><ele>25.0</ele><time>2026-04-03T14:35:58.999Z</time></trkpt><trkpt lat="42.93499241198154" lon="11.0232277674615"><ele>25.0</ele><time>2026-04-03T14:35:59.999Z</time></trkpt><trkpt lat="42.93494563385017" lon="11.023094650981232"><ele>25.0</ele><time>2026-04-03T14:36:00.999Z</time></trkpt><trkpt lat="42.93490169997489" lon="11.022959527030295"><ele>25.2</ele><time>2026-04-03T14:36:01.999Z</time></trkpt><trkpt lat="42.93485199694646" lon="11.022822969227342"><ele>25.4</ele><time>2026-04-03T14:36:02.999Z</time></trkpt><trkpt lat="42.93480536717784" lon="11.022693131035224"><ele>25.6</ele><time>2026-04-03T14:36:03.999Z</time></trkpt><trkpt lat="42.93475529627901" lon="11.022558919274994"><ele>25.8</ele><time>2026-04-03T14:36:04.999Z</time></trkpt><trkpt lat="42.934705320265664" lon="11.02242087804594"><ele>26.0</ele><time>2026-04-03T14:36:05.999Z</time></trkpt><trkpt lat="42.93465682719638" lon="11.022288318737807"><ele>26.0</ele><time>2026-04-03T14:36:06.999Z</time></trkpt><trkpt lat="42.93461045521421" lon="11.022165646859676"><ele>26.0</ele><time>2026-04-03T14:36:07.999Z</time></trkpt><trkpt lat="42.93457807079703" lon="11.02202109713505"><ele>26.0</ele><time>2026-04-03T14:36:08.999Z</time></trkpt><trkpt lat="42.93453539398937" lon="11.021897237479129"><ele>26.0</ele><time>2026-04-03T14:36:09.999Z</time></trkpt><trkpt lat="42.93449248650086" lon="11.021772708397172"><ele>26.0</ele><time>2026-04-03T14:36:10.999Z</time></trkpt><trkpt lat="42.93444609725834" lon="11.021638074385182"><ele>26.200000000000003</ele><time>2026-04-03T14:36:11.999Z</time></trkpt><trkpt lat="42.93438573969358" lon="11.021500603718803"><ele>26.400000000000002</ele><time>2026-04-03T14:36:12.999Z</time></trkpt><trkpt lat="42.9343506422886" lon="11.021371143908356"><ele>26.6</ele><time>2026-04-03T14:36:13.999Z</time></trkpt><trkpt lat="42.93428935157594" lon="11.021252280013691"><ele>26.8</ele><time>2026-04-03T14:36:14.999Z</time></trkpt><trkpt lat="42.93424283812729" lon="11.021122557637621"><ele>27.0</ele><time>2026-04-03T14:36:15.999Z</time></trkpt><trkpt lat="42.934211801205095" lon="11.020990926959476"><ele>26.200000000000003</ele><time>2026-04-03T14:36:16.999Z</time></trkpt><trkpt lat="42.9341614472957" lon="11.020853143331948"><ele>25.400000000000002</ele><time>2026-04-03T14:36:17.999Z</time></trkpt><trkpt lat="42.934115080393" lon="11.020726269420324"><ele>24.6</ele><time>2026-04-03T14:36:18.999Z</time></trkpt><trkpt lat="42.934054672686614" lon="11.02060058575308"><ele>23.799999999999997</ele><time>2026-04-03T14:36:19.999Z</time></trkpt><trkpt lat="42.93402449397852" lon="11.020470877126446"><ele>23.0</ele><time>2026-04-03T14:36:20.999Z</time></trkpt><trkpt lat="42.93397911408836" lon="11.020342193882398"><ele>23.0</ele><time>2026-04-03T14:36:21.999Z</time></trkpt><trkpt lat="42.93393328693152" lon="11.020212242328862"><ele>23.0</ele><time>2026-04-03T14:36:22.999Z</time></trkpt><trkpt lat="42.933888548328355" lon="11.020087523119253"><ele>23.0</ele><time>2026-04-03T14:36:23.999Z</time></trkpt><trkpt lat="42.93384042593833" lon="11.01995353084152"><ele>23.0</ele><time>2026-04-03T14:36:24.999Z</time></trkpt><trkpt lat="42.93378068523528" lon="11.019837356199597"><ele>23.0</ele><time>2026-04-03T14:36:25.999Z</time></trkpt><trkpt lat="42.93373302124647" lon="11.019708418040485"><ele>23.2</ele><time>2026-04-03T14:36:26.999Z</time></trkpt><trkpt lat="42.93368991827829" lon="11.019584994666461"><ele>23.4</ele><time>2026-04-03T14:36:28Z</time></trkpt><trkpt lat="42.93365705451634" lon="11.01945074900527"><ele>23.599999999999998</ele><time>2026-04-03T14:36:29Z</time></trkpt><trkpt lat="42.93360814422808" lon="11.019317228819212"><ele>23.799999999999997</ele><time>2026-04-03T14:36:30Z</time></trkpt><trkpt lat="42.933546707584185" lon="11.019200417831007"><ele>24.0</ele><time>2026-04-03T14:36:31Z</time></trkpt><trkpt lat="42.9335019755896" lon="11.019063905680277"><ele>24.0</ele><time>2026-04-03T14:36:32Z</time></trkpt><trkpt lat="42.93345301563379" lon="11.018937599187659"><ele>24.0</ele><time>2026-04-03T14:36:33Z</time></trkpt><trkpt lat="42.93340800314154" lon="11.018815471918401"><ele>24.0</ele><time>2026-04-03T14:36:34Z</time></trkpt><trkpt lat="42.93336485709982" lon="11.018697462838547"><ele>24.0</ele><time>2026-04-03T14:36:35Z</time></trkpt><trkpt lat="42.933319485224175" lon="11.018580199132924"><ele>24.0</ele><time>2026-04-03T14:36:36Z</time></trkpt><trkpt lat="42.9332882451686" lon="11.01844685128868"><ele>24.0</ele><time>2026-04-03T14:36:37Z</time></trkpt><trkpt lat="42.933231029106274" lon="11.018339150908242"><ele>24.0</ele><time>2026-04-03T14:36:38Z</time></trkpt><trkpt lat="42.933191095046624" lon="11.018213478581744"><ele>24.0</ele><time>2026-04-03T14:36:39Z</time></trkpt><trkpt lat="42.93314496396957" lon="11.01808933254231"><ele>24.0</ele><time>2026-04-03T14:36:40Z</time></trkpt><trkpt lat="42.933103770171314" lon="11.017969026080737"><ele>24.0</ele><time>2026-04-03T14:36:41Z</time></trkpt><trkpt lat="42.93307698387099" lon="11.017848789879398"><ele>24.333333333333332</ele><time>2026-04-03T14:36:42Z</time></trkpt><trkpt lat="42.93302818827404" lon="11.01775931738738"><ele>24.666666666666664</ele><time>2026-04-03T14:36:43Z</time></trkpt><trkpt lat="42.93301433255476" lon="11.017667862084112"><ele>25.0</ele><time>2026-04-03T14:36:44Z</time></trkpt><trkpt lat="42.932987587482096" lon="11.01758943758501"><ele>25.333333333333332</ele><time>2026-04-03T14:36:45Z</time></trkpt><trkpt lat="42.93293703646829" lon="11.017441206929153"><ele>25.666666666666664</ele><time>2026-04-03T14:36:47Z</time></trkpt><trkpt lat="42.93289017882984" lon="11.017303806344794"><ele>26.0</ele><time>2026-04-03T14:36:49Z</time></trkpt><trkpt lat="42.93284450961614" lon="11.017172714163465"><ele>26.499999999999996</ele><time>2026-04-03T14:36:51Z</time></trkpt><trkpt lat="42.932784101925556" lon="11.017077170677704"><ele>27.0</ele><time>2026-04-03T14:36:54Z</time></trkpt><trkpt lat="42.93276656259127" lon="11.016984484832632"><ele>27.5</ele><time>2026-04-03T14:36:56Z</time></trkpt><trkpt lat="42.932733144151925" lon="11.016837977560112"><ele>28.0</ele><time>2026-04-03T14:36:58Z</time></trkpt><trkpt lat="42.93271765671199" lon="11.01673903987897"><ele>28.499999999999996</ele><time>2026-04-03T14:36:59Z</time></trkpt><trkpt lat="42.93269868925605" lon="11.016635570659398"><ele>29.0</ele><time>2026-04-03T14:37:00Z</time></trkpt><trkpt lat="42.93267385243872" lon="11.016530239002096"><ele>29.333333333333332</ele><time>2026-04-03T14:37:01Z</time></trkpt><trkpt lat="42.932645334675996" lon="11.01642021507724"><ele>29.666666666666664</ele><time>2026-04-03T14:37:02Z</time></trkpt><trkpt lat="42.93261895009486" lon="11.016316297445739"><ele>30.0</ele><time>2026-04-03T14:37:03Z</time></trkpt><trkpt lat="42.93259150300597" lon="11.016201545781868"><ele>30.333333333333336</ele><time>2026-04-03T14:37:04Z</time></trkpt><trkpt lat="42.93256512775692" lon="11.016089366081394"><ele>30.666666666666668</ele><time>2026-04-03T14:37:05Z</time></trkpt><trkpt lat="42.932539435465124" lon="11.015979561860094"><ele>31.0</ele><time>2026-04-03T14:37:06Z</time></trkpt><trkpt lat="42.93251731453063" lon="11.015872628277243"><ele>31.166666666666668</ele><time>2026-04-03T14:37:07Z</time></trkpt><trkpt lat="42.93249646501201" lon="11.015763603315948"><ele>31.333333333333336</ele><time>2026-04-03T14:37:08Z</time></trkpt><trkpt lat="42.93247895407166" lon="11.015663617183012"><ele>31.5</ele><time>2026-04-03T14:37:09Z</time></trkpt><trkpt lat="42.9324579876222" lon="11.015556876560199"><ele>31.666666666666664</ele><time>2026-04-03T14:37:10Z</time></trkpt><trkpt lat="42.93243356155094" lon="11.015455235534507"><ele>31.833333333333332</ele><time>2026-04-03T14:37:11Z</time></trkpt><trkpt lat="42.932406160552965" lon="11.015350203742337"><ele>32.0</ele><time>2026-04-03T14:37:12Z</time></trkpt><trkpt lat="42.93238317363768" lon="11.015233310663492"><ele>32.0</ele><time>2026-04-03T14:37:13Z</time></trkpt><trkpt lat="42.932357788551236" lon="11.015102651581463"><ele>32.0</ele><time>2026-04-03T14:37:14Z</time></trkpt><trkpt lat="42.93233039162845" lon="11.014976242064195"><ele>32.0</ele><time>2026-04-03T14:37:15Z</time></trkpt><trkpt lat="42.9323050147374" lon="11.014842823067246"><ele>32.0</ele><time>2026-04-03T14:37:16Z</time></trkpt><trkpt lat="42.93227823875467" lon="11.014713198172752"><ele>32.0</ele><time>2026-04-03T14:37:17Z</time></trkpt><trkpt lat="42.93224666196983" lon="11.014568379956673"><ele>31.5</ele><time>2026-04-03T14:37:18Z</time></trkpt><trkpt lat="42.932214606578" lon="11.014423465547983"><ele>31.0</ele><time>2026-04-03T14:37:19Z</time></trkpt><trkpt lat="42.93218307029324" lon="11.01427502714312"><ele>30.5</ele><time>2026-04-03T14:37:20Z</time></trkpt><trkpt lat="42.93215120619823" lon="11.014127250401415"><ele>30.0</ele><time>2026-04-03T14:37:21Z</time></trkpt><trkpt lat="42.93211363397985" lon="11.013975280283764"><ele>29.5</ele><time>2026-04-03T14:37:22Z</time></trkpt><trkpt lat="42.93208005449858" lon="11.013827305983353"><ele>29.0</ele><time>2026-04-03T14:37:23Z</time></trkpt><trkpt lat="42.93204679431699" lon="11.013675078022231"><ele>28.5</ele><time>2026-04-03T14:37:24Z</time></trkpt><trkpt lat="42.93201457538345" lon="11.013521339260773"><ele>28.0</ele><time>2026-04-03T14:37:25Z</time></trkpt><trkpt lat="42.93198792816428" lon="11.01337488042602"><ele>27.75</ele><time>2026-04-03T14:37:26Z</time></trkpt><trkpt lat="42.93195374017353" lon="11.01322288892585"><ele>27.5</ele><time>2026-04-03T14:37:27Z</time></trkpt><trkpt lat="42.931921844595415" lon="11.013076153047491"><ele>27.25</ele><time>2026-04-03T14:37:28Z</time></trkpt><trkpt lat="42.931893632502124" lon="11.012927437408798"><ele>27.0</ele><time>2026-04-03T14:37:29Z</time></trkpt><trkpt lat="42.93186397169824" lon="11.012772825845563"><ele>27.0</ele><time>2026-04-03T14:37:30Z</time></trkpt><trkpt lat="42.93183336505678" lon="11.012629997507608"><ele>27.000000000000004</ele><time>2026-04-03T14:37:31Z</time></trkpt><trkpt lat="42.931800237637994" lon="11.012482895351411"><ele>27.000000000000004</ele><time>2026-04-03T14:37:32Z</time></trkpt><trkpt lat="42.931769265219266" lon="11.012340539505491"><ele>27.0</ele><time>2026-04-03T14:37:33Z</time></trkpt><trkpt lat="42.93174369940366" lon="11.012190078867771"><ele>27.0</ele><time>2026-04-03T14:37:34Z</time></trkpt><trkpt lat="42.931708752390286" lon="11.012044944277969"><ele>26.833333333333332</ele><time>2026-04-03T14:37:35Z</time></trkpt><trkpt lat="42.93167811812681" lon="11.011908835331681"><ele>26.666666666666664</ele><time>2026-04-03T14:37:36Z</time></trkpt><trkpt lat="42.93165259456373" lon="11.01179304045311"><ele>26.5</ele><time>2026-04-03T14:37:37Z</time></trkpt><trkpt lat="42.93162761117008" lon="11.01168040504353"><ele>26.333333333333332</ele><time>2026-04-03T14:37:38Z</time></trkpt><trkpt lat="42.9316027480351" lon="11.011566714455034"><ele>26.166666666666664</ele><time>2026-04-03T14:37:39Z</time></trkpt><trkpt lat="42.931582472807555" lon="11.011471638994431"><ele>26.0</ele><time>2026-04-03T14:37:40Z</time></trkpt><trkpt lat="42.931559250342865" lon="11.011374983501382"><ele>25.999999999999996</ele><time>2026-04-03T14:37:41Z</time></trkpt><trkpt lat="42.931541092379724" lon="11.01129232148064"><ele>26.0</ele><time>2026-04-03T14:37:42Z</time></trkpt><trkpt lat="42.93153597615232" lon="11.011142269608984"><ele>26.0</ele><time>2026-04-03T14:37:44Z</time></trkpt><trkpt lat="42.93158573540241" lon="11.011081069939408"><ele>26.0</ele><time>2026-04-03T14:37:45Z</time></trkpt><trkpt lat="42.931661261502754" lon="11.011049252750103"><ele>25.999999999999996</ele><time>2026-04-03T14:37:46Z</time></trkpt><trkpt lat="42.93175342727078" lon="11.01101588133844"><ele>26.0</ele><time>2026-04-03T14:37:47Z</time></trkpt><trkpt lat="42.93185677053229" lon="11.010970477272268"><ele>26.0</ele><time>2026-04-03T14:37:48Z</time></trkpt><trkpt lat="42.931967496918794" lon="11.010915804280815"><ele>26.0</ele><time>2026-04-03T14:37:49Z</time></trkpt><trkpt lat="42.932072885612456" lon="11.010862415403318"><ele>26.0</ele><time>2026-04-03T14:37:50Z</time></trkpt><trkpt lat="42.93217609113447" lon="11.010808052869818"><ele>26.0</ele><time>2026-04-03T14:37:51Z</time></trkpt><trkpt lat="42.932271884655094" lon="11.010747435415947"><ele>26.0</ele><time>2026-04-03T14:37:52Z</time></trkpt><trkpt lat="42.9323595927515" lon="11.010670362439189"><ele>26.4</ele><time>2026-04-03T14:37:53Z</time></trkpt><trkpt lat="42.93243645127623" lon="11.01057235657773"><ele>26.8</ele><time>2026-04-03T14:37:54Z</time></trkpt><trkpt lat="42.93250192007397" lon="11.010462405003933"><ele>27.199999999999996</ele><time>2026-04-03T14:37:55Z</time></trkpt><trkpt lat="42.93256567055569" lon="11.010344815323208"><ele>27.599999999999998</ele><time>2026-04-03T14:37:56Z</time></trkpt><trkpt lat="42.93262695422211" lon="11.010230060676639"><ele>28.0</ele><time>2026-04-03T14:37:57Z</time></trkpt><trkpt lat="42.9326906328265" lon="11.0101144061254"><ele>28.2</ele><time>2026-04-03T14:37:58Z</time></trkpt><trkpt lat="42.9327516495226" lon="11.00999500217657"><ele>28.4</ele><time>2026-04-03T14:37:59Z</time></trkpt><trkpt lat="42.93281315295818" lon="11.009871800286634"><ele>28.599999999999998</ele><time>2026-04-03T14:38:00Z</time></trkpt><trkpt lat="42.932875832588365" lon="11.009754201435678"><ele>28.799999999999997</ele><time>2026-04-03T14:38:01Z</time></trkpt><trkpt lat="42.932937913835175" lon="11.009632473098744"><ele>29.0</ele><time>2026-04-03T14:38:02Z</time></trkpt><trkpt lat="42.93300014842767" lon="11.009508601349603"><ele>29.0</ele><time>2026-04-03T14:38:03Z</time></trkpt><trkpt lat="42.933061901551426" lon="11.009384964395094"><ele>29.0</ele><time>2026-04-03T14:38:04Z</time></trkpt><trkpt lat="42.93312227906096" lon="11.009263538043692"><ele>29.0</ele><time>2026-04-03T14:38:05Z</time></trkpt><trkpt lat="42.933183261049614" lon="11.009142276699329"><ele>29.0</ele><time>2026-04-03T14:38:06Z</time></trkpt><trkpt lat="42.933249730959474" lon="11.009020646385329"><ele>29.0</ele><time>2026-04-03T14:38:07Z</time></trkpt><trkpt lat="42.93331541376919" lon="11.008898533972445"><ele>29.0</ele><time>2026-04-03T14:38:08Z</time></trkpt><trkpt lat="42.933375091151035" lon="11.008779384629635"><ele>29.0</ele><time>2026-04-03T14:38:09Z</time></trkpt><trkpt lat="42.933438504125824" lon="11.008655326033818"><ele>29.0</ele><time>2026-04-03T14:38:10Z</time></trkpt><trkpt lat="42.93349947184905" lon="11.008531396073593"><ele>29.0</ele><time>2026-04-03T14:38:11Z</time></trkpt><trkpt lat="42.93356241797457" lon="11.008405679213501"><ele>29.0</ele><time>2026-04-03T14:38:12Z</time></trkpt><trkpt lat="42.93362702447474" lon="11.008278490305218"><ele>29.0</ele><time>2026-04-03T14:38:13Z</time></trkpt><trkpt lat="42.933692942968776" lon="11.008156688314045"><ele>29.0</ele><time>2026-04-03T14:38:14Z</time></trkpt><trkpt lat="42.933756773362724" lon="11.008032456742923"><ele>29.0</ele><time>2026-04-03T14:38:15Z</time></trkpt><trkpt lat="42.93382006640638" lon="11.007907558026588"><ele>29.0</ele><time>2026-04-03T14:38:16Z</time></trkpt><trkpt lat="42.93388229283952" lon="11.007780296728631"><ele>29.0</ele><time>2026-04-03T14:38:17Z</time></trkpt><trkpt lat="42.93394570826039" lon="11.007653898041971"><ele>29.0</ele><time>2026-04-03T14:38:18Z</time></trkpt><trkpt lat="42.93401335624815" lon="11.007530673141016"><ele>29.0</ele><time>2026-04-03T14:38:19Z</time></trkpt><trkpt lat="42.93408106639781" lon="11.00740309333823"><ele>29.0</ele><time>2026-04-03T14:38:20Z</time></trkpt><trkpt lat="42.934147179550024" lon="11.007275941895047"><ele>29.0</ele><time>2026-04-03T14:38:21Z</time></trkpt><trkpt lat="42.9342110101526" lon="11.00714763766026"><ele>29.4</ele><time>2026-04-03T14:38:22Z</time></trkpt><trkpt lat="42.934272004070316" lon="11.007022794969647"><ele>29.799999999999997</ele><time>2026-04-03T14:38:23Z</time></trkpt><trkpt lat="42.93433946942316" lon="11.006900553292443"><ele>30.200000000000003</ele><time>2026-04-03T14:38:24Z</time></trkpt><trkpt lat="42.934401354912495" lon="11.006777224040698"><ele>30.6</ele><time>2026-04-03T14:38:25Z</time></trkpt><trkpt lat="42.934451827313666" lon="11.006644524908298"><ele>31.0</ele><time>2026-04-03T14:38:26Z</time></trkpt><trkpt lat="42.934482636648" lon="11.006500886856422"><ele>31.0</ele><time>2026-04-03T14:38:27Z</time></trkpt><trkpt lat="42.93448379620963" lon="11.00635229138765"><ele>31.0</ele><time>2026-04-03T14:38:28Z</time></trkpt><trkpt lat="42.93447933024338" lon="11.006195353595936"><ele>31.0</ele><time>2026-04-03T14:38:29Z</time></trkpt><trkpt lat="42.93447877208022" lon="11.006034334477906"><ele>31.0</ele><time>2026-04-03T14:38:29.999Z</time></trkpt><trkpt lat="42.934482708358885" lon="11.005874800385044"><ele>31.25</ele><time>2026-04-03T14:38:30.999Z</time></trkpt><trkpt lat="42.93448063839603" lon="11.005716976731994"><ele>31.5</ele><time>2026-04-03T14:38:31.999Z</time></trkpt><trkpt lat="42.93449763386493" lon="11.005563673239092"><ele>31.75</ele><time>2026-04-03T14:38:32.999Z</time></trkpt><trkpt lat="42.93448696599736" lon="11.005401494510162"><ele>32.0</ele><time>2026-04-03T14:38:34Z</time></trkpt><trkpt lat="42.9344918669134" lon="11.005241867910515"><ele>32.0</ele><time>2026-04-03T14:38:35Z</time></trkpt><trkpt lat="42.93449728995661" lon="11.005089887569348"><ele>32.0</ele><time>2026-04-03T14:38:36Z</time></trkpt><trkpt lat="42.934499698378715" lon="11.004936622539308"><ele>32.0</ele><time>2026-04-03T14:38:37Z</time></trkpt><trkpt lat="42.934503379585344" lon="11.004779530606658"><ele>32.0</ele><time>2026-04-03T14:38:38Z</time></trkpt><trkpt lat="42.934505982416354" lon="11.004625289755547"><ele>32.75</ele><time>2026-04-03T14:38:39Z</time></trkpt><trkpt lat="42.93450813048171" lon="11.004468688082063"><ele>33.5</ele><time>2026-04-03T14:38:40Z</time></trkpt><trkpt lat="42.93451182143096" lon="11.004313949956204"><ele>34.25</ele><time>2026-04-03T14:38:41Z</time></trkpt><trkpt lat="42.934514424801954" lon="11.004161618133839"><ele>35.0</ele><time>2026-04-03T14:38:42Z</time></trkpt><trkpt lat="42.93451778287094" lon="11.004009869651586"><ele>35.2</ele><time>2026-04-03T14:38:43Z</time></trkpt><trkpt lat="42.934518938743444" lon="11.003859704695042"><ele>35.4</ele><time>2026-04-03T14:38:44Z</time></trkpt><trkpt lat="42.93452377516991" lon="11.003717100219438"><ele>35.6</ele><time>2026-04-03T14:38:45Z</time></trkpt><trkpt lat="42.93453762857493" lon="11.003566121411627"><ele>35.8</ele><time>2026-04-03T14:38:46Z</time></trkpt><trkpt lat="42.934561126669905" lon="11.003412938093192"><ele>36.0</ele><time>2026-04-03T14:38:47Z</time></trkpt><trkpt lat="42.93458884470565" lon="11.00326139501802"><ele>36.0</ele><time>2026-04-03T14:38:48Z</time></trkpt><trkpt lat="42.934620458420824" lon="11.003115051784501"><ele>36.0</ele><time>2026-04-03T14:38:49Z</time></trkpt><trkpt lat="42.9346576752773" lon="11.002966040337597"><ele>36.0</ele><time>2026-04-03T14:38:50Z</time></trkpt><trkpt lat="42.93469254486527" lon="11.002820161628645"><ele>36.0</ele><time>2026-04-03T14:38:51Z</time></trkpt><trkpt lat="42.93472352721508" lon="11.002673199538547"><ele>36.0</ele><time>2026-04-03T14:38:52Z</time></trkpt><trkpt lat="42.93475405446327" lon="11.002533023697943"><ele>36.0</ele><time>2026-04-03T14:38:53Z</time></trkpt><trkpt lat="42.93478664657868" lon="11.002388670019755"><ele>36.0</ele><time>2026-04-03T14:38:54Z</time></trkpt><trkpt lat="42.93481912583986" lon="11.002243806108517"><ele>36.0</ele><time>2026-04-03T14:38:55Z</time></trkpt><trkpt lat="42.93485064117937" lon="11.00209625046137"><ele>36.0</ele><time>2026-04-03T14:38:56Z</time></trkpt><trkpt lat="42.9348845416783" lon="11.001945236711618"><ele>36.0</ele><time>2026-04-03T14:38:57Z</time></trkpt><trkpt lat="42.93491951215755" lon="11.001796448113575"><ele>36.0</ele><time>2026-04-03T14:38:58Z</time></trkpt><trkpt lat="42.934952816383955" lon="11.001648332079702"><ele>36.0</ele><time>2026-04-03T14:38:59Z</time></trkpt><trkpt lat="42.93498356939722" lon="11.001499972705775"><ele>36.0</ele><time>2026-04-03T14:39:00Z</time></trkpt><trkpt lat="42.93501669143481" lon="11.001352688998912"><ele>36.0</ele><time>2026-04-03T14:39:01Z</time></trkpt><trkpt lat="42.93504922249552" lon="11.001209933538119"><ele>36.0</ele><time>2026-04-03T14:39:02Z</time></trkpt><trkpt lat="42.93508602177955" lon="11.001068307325617"><ele>36.0</ele><time>2026-04-03T14:39:03Z</time></trkpt><trkpt lat="42.93511890666877" lon="11.000924722150042"><ele>36.0</ele><time>2026-04-03T14:39:04Z</time></trkpt><trkpt lat="42.93514941893134" lon="11.000780451507673"><ele>36.0</ele><time>2026-04-03T14:39:05Z</time></trkpt><trkpt lat="42.93518258224221" lon="11.00062952433958"><ele>36.25</ele><time>2026-04-03T14:39:06Z</time></trkpt><trkpt lat="42.93522061593854" lon="11.000480024269729"><ele>36.5</ele><time>2026-04-03T14:39:07Z</time></trkpt><trkpt lat="42.93525835757467" lon="11.000335504102823"><ele>36.75</ele><time>2026-04-03T14:39:08Z</time></trkpt><trkpt lat="42.9352943832149" lon="11.000188472113992"><ele>37.0</ele><time>2026-04-03T14:39:09Z</time></trkpt><trkpt lat="42.93532860683472" lon="11.000043151738225"><ele>37.0</ele><time>2026-04-03T14:39:10Z</time></trkpt><trkpt lat="42.93536097289571" lon="10.999897353201703"><ele>37.0</ele><time>2026-04-03T14:39:11Z</time></trkpt><trkpt lat="42.9353954415758" lon="10.999750115467812"><ele>37.0</ele><time>2026-04-03T14:39:12Z</time></trkpt><trkpt lat="42.935430912571626" lon="10.999603794769945"><ele>37.0</ele><time>2026-04-03T14:39:13Z</time></trkpt><trkpt lat="42.93546595731222" lon="10.999458032350445"><ele>37.0</ele><time>2026-04-03T14:39:14Z</time></trkpt><trkpt lat="42.93549742642793" lon="10.999315957303487"><ele>37.0</ele><time>2026-04-03T14:39:15Z</time></trkpt><trkpt lat="42.93553142566245" lon="10.999170067770379"><ele>37.0</ele><time>2026-04-03T14:39:16Z</time></trkpt><trkpt lat="42.93556677724051" lon="10.999023629680853"><ele>37.0</ele><time>2026-04-03T14:39:17Z</time></trkpt><trkpt lat="42.93559813466275" lon="10.998888113500232"><ele>37.0</ele><time>2026-04-03T14:39:18Z</time></trkpt><trkpt lat="42.935626961524655" lon="10.998754950950207"><ele>37.333333333333336</ele><time>2026-04-03T14:39:19Z</time></trkpt><trkpt lat="42.93565652543388" lon="10.998626265547728"><ele>37.66666666666667</ele><time>2026-04-03T14:39:20Z</time></trkpt><trkpt lat="42.935684235428994" lon="10.998512522582017"><ele>38.0</ele><time>2026-04-03T14:39:21Z</time></trkpt><trkpt lat="42.935710835409495" lon="10.998402366884985"><ele>38.333333333333336</ele><time>2026-04-03T14:39:22Z</time></trkpt><trkpt lat="42.93573350967394" lon="10.998292627589217"><ele>38.666666666666664</ele><time>2026-04-03T14:39:23Z</time></trkpt><trkpt lat="42.935757133187394" lon="10.998190351593674"><ele>39.0</ele><time>2026-04-03T14:39:24Z</time></trkpt><trkpt lat="42.93577993749373" lon="10.998098234440764"><ele>39.5</ele><time>2026-04-03T14:39:25Z</time></trkpt><trkpt lat="42.93580009174" lon="10.99801468071429"><ele>40.0</ele><time>2026-04-03T14:39:26Z</time></trkpt><trkpt lat="42.93582351511483" lon="10.997888058476203"><ele>40.5</ele><time>2026-04-03T14:39:28Z</time></trkpt><trkpt lat="42.935825648072544" lon="10.997794355458865"><ele>41.0</ele><time>2026-04-03T14:39:37Z</time></trkpt><trkpt lat="42.93560433863798" lon="10.997798985532237"><ele>41.0</ele><time>2026-04-03T14:39:43Z</time></trkpt><trkpt lat="42.935537353027996" lon="10.997816587704563"><ele>41.0</ele><time>2026-04-03T14:39:44Z</time></trkpt><trkpt lat="42.935434199396695" lon="10.9978436938936"><ele>41.0</ele><time>2026-04-03T14:39:46Z</time></trkpt><trkpt lat="42.93536874510808" lon="10.99786089366127"><ele>41.0</ele><time>2026-04-03T14:39:47Z</time></trkpt><trkpt lat="42.93530231930785" lon="10.997878348705374"><ele>41.0</ele><time>2026-04-03T14:39:48Z</time></trkpt><trkpt lat="42.93522394072275" lon="10.99789894464173"><ele>41.0</ele><time>2026-04-03T14:39:49Z</time></trkpt><trkpt lat="42.935147675048725" lon="10.99791898535973"><ele>41.0</ele><time>2026-04-03T14:39:50Z</time></trkpt><trkpt lat="42.935070468190034" lon="10.997938391021718"><ele>41.0</ele><time>2026-04-03T14:39:51Z</time></trkpt><trkpt lat="42.93499100325573" lon="10.997957422818134"><ele>41.0</ele><time>2026-04-03T14:39:52Z</time></trkpt><trkpt lat="42.934916558795756" lon="10.997967295099071"><ele>41.0</ele><time>2026-04-03T14:39:53Z</time></trkpt><trkpt lat="42.934831157769224" lon="10.997970436126145"><ele>41.0</ele><time>2026-04-03T14:39:54Z</time></trkpt><trkpt lat="42.93474787052546" lon="10.997955710208148"><ele>41.0</ele><time>2026-04-03T14:39:55Z</time></trkpt><trkpt lat="42.93467554350934" lon="10.99791669595818"><ele>40.666666666666664</ele><time>2026-04-03T14:39:56Z</time></trkpt><trkpt lat="42.934606086862736" lon="10.99786071397156"><ele>40.33333333333333</ele><time>2026-04-03T14:39:57Z</time></trkpt><trkpt lat="42.93453829994821" lon="10.99779628068589"><ele>40.0</ele><time>2026-04-03T14:39:58Z</time></trkpt><trkpt lat="42.934467252086606" lon="10.997732007135227"><ele>39.666666666666664</ele><time>2026-04-03T14:39:59Z</time></trkpt><trkpt lat="42.93439200785623" lon="10.997669588998663"><ele>39.333333333333336</ele><time>2026-04-03T14:40:00Z</time></trkpt><trkpt lat="42.934325156840316" lon="10.997614928224936"><ele>39.0</ele><time>2026-04-03T14:40:01Z</time></trkpt><trkpt lat="42.93423951783233" lon="10.997574619713953"><ele>40.0</ele><time>2026-04-03T14:40:02Z</time></trkpt><trkpt lat="42.93413389565019" lon="10.997496645369056"><ele>41.0</ele><time>2026-04-03T14:40:04Z</time></trkpt><trkpt lat="42.934036189225075" lon="10.997447378373854"><ele>42.0</ele><time>2026-04-03T14:40:06Z</time></trkpt><trkpt lat="42.933937772141704" lon="10.99739565128462"><ele>43.0</ele><time>2026-04-03T14:40:08Z</time></trkpt><trkpt lat="42.93384494119173" lon="10.997331433866133"><ele>44.0</ele><time>2026-04-03T14:40:10Z</time></trkpt><trkpt lat="42.93375007141461" lon="10.997305018804706"><ele>44.0</ele><time>2026-04-03T14:40:12Z</time></trkpt><trkpt lat="42.933644523295065" lon="10.99729983612931"><ele>44.0</ele><time>2026-04-03T14:40:14Z</time></trkpt><trkpt lat="42.933532305929965" lon="10.997304943189103"><ele>44.0</ele><time>2026-04-03T14:40:16Z</time></trkpt><trkpt lat="42.93340545215195" lon="10.997310742345277"><ele>44.0</ele><time>2026-04-03T14:40:18Z</time></trkpt><trkpt lat="42.9333368077452" lon="10.997313880448106"><ele>44.0</ele><time>2026-04-03T14:40:19Z</time></trkpt><trkpt lat="42.93327233128473" lon="10.997316828009644"><ele>43.714285714285715</ele><time>2026-04-03T14:40:20Z</time></trkpt><trkpt lat="42.93320391394224" lon="10.997319955729266"><ele>43.42857142857143</ele><time>2026-04-03T14:40:21Z</time></trkpt><trkpt lat="42.93313059160614" lon="10.997323307681198"><ele>43.14285714285714</ele><time>2026-04-03T14:40:22Z</time></trkpt><trkpt lat="42.933061117734134" lon="10.997326483684605"><ele>42.85714285714286</ele><time>2026-04-03T14:40:23Z</time></trkpt><trkpt lat="42.93298287768746" lon="10.99732827594822"><ele>42.57142857142857</ele><time>2026-04-03T14:40:24Z</time></trkpt><trkpt lat="42.932908105847716" lon="10.99733040083328"><ele>42.285714285714285</ele><time>2026-04-03T14:40:25Z</time></trkpt><trkpt lat="42.932835668379475" lon="10.997330961111697"><ele>42.0</ele><time>2026-04-03T14:40:26Z</time></trkpt><trkpt lat="42.93275835620809" lon="10.99733135185912"><ele>42.0</ele><time>2026-04-03T14:40:27Z</time></trkpt><trkpt lat="42.93268361447673" lon="10.997331729615857"><ele>42.0</ele><time>2026-04-03T14:40:28Z</time></trkpt><trkpt lat="42.93260132518095" lon="10.99733282978434"><ele>42.0</ele><time>2026-04-03T14:40:29Z</time></trkpt><trkpt lat="42.932524768222876" lon="10.997335662626748"><ele>42.0</ele><time>2026-04-03T14:40:30Z</time></trkpt><trkpt lat="42.93243534374965" lon="10.997338971603696"><ele>42.0</ele><time>2026-04-03T14:40:31Z</time></trkpt><trkpt lat="42.93235427940596" lon="10.997341971234192"><ele>42.0</ele><time>2026-04-03T14:40:32Z</time></trkpt><trkpt lat="42.93226711345865" lon="10.997344923105612"><ele>41.666666666666664</ele><time>2026-04-03T14:40:33Z</time></trkpt><trkpt lat="42.932178020034215" lon="10.997347364520452"><ele>41.333333333333336</ele><time>2026-04-03T14:40:34Z</time></trkpt><trkpt lat="42.93209053283262" lon="10.997349761920802"><ele>41.0</ele><time>2026-04-03T14:40:35Z</time></trkpt><trkpt lat="42.932003534424624" lon="10.997350836126419"><ele>40.66666666666667</ele><time>2026-04-03T14:40:36Z</time></trkpt><trkpt lat="42.931912237253634" lon="10.997350836125888"><ele>40.333333333333336</ele><time>2026-04-03T14:40:37Z</time></trkpt><trkpt lat="42.9318232729961" lon="10.997350836126069"><ele>40.0</ele><time>2026-04-03T14:40:38Z</time></trkpt><trkpt lat="42.93172443138906" lon="10.997356146436553"><ele>40.4</ele><time>2026-04-03T14:40:39Z</time></trkpt><trkpt lat="42.93162878313093" lon="10.997368099368355"><ele>40.8</ele><time>2026-04-03T14:40:40Z</time></trkpt><trkpt lat="42.93153932448487" lon="10.997384725821473"><ele>41.2</ele><time>2026-04-03T14:40:41Z</time></trkpt><trkpt lat="42.931455142643664" lon="10.997404350236822"><ele>41.6</ele><time>2026-04-03T14:40:42Z</time></trkpt><trkpt lat="42.93136986507641" lon="10.997460342436625"><ele>42.0</ele><time>2026-04-03T14:40:43Z</time></trkpt><trkpt lat="42.931283434656585" lon="10.99747220293241"><ele>42.5</ele><time>2026-04-03T14:40:44Z</time></trkpt><trkpt lat="42.931196480029286" lon="10.997505797564665"><ele>43.0</ele><time>2026-04-03T14:40:45Z</time></trkpt><trkpt lat="42.931116282118836" lon="10.997536304838444"><ele>43.5</ele><time>2026-04-03T14:40:46Z</time></trkpt><trkpt lat="42.93103681741502" lon="10.997560676294324"><ele>44.0</ele><time>2026-04-03T14:40:47Z</time></trkpt><trkpt lat="42.93094947759009" lon="10.997582773356852"><ele>44.5</ele><time>2026-04-03T14:40:48Z</time></trkpt><trkpt lat="42.93086332679197" lon="10.997607299002384"><ele>45.0</ele><time>2026-04-03T14:40:49Z</time></trkpt><trkpt lat="42.93077493928049" lon="10.997635767587504"><ele>45.0</ele><time>2026-04-03T14:40:50Z</time></trkpt><trkpt lat="42.93068811812218" lon="10.997669073588806"><ele>45.0</ele><time>2026-04-03T14:40:51Z</time></trkpt><trkpt lat="42.930594499179215" lon="10.99770673810825"><ele>45.0</ele><time>2026-04-03T14:40:52Z</time></trkpt><trkpt lat="42.93050912428546" lon="10.997737608286066"><ele>45.0</ele><time>2026-04-03T14:40:53Z</time></trkpt><trkpt lat="42.930420316126536" lon="10.997767933033629"><ele>45.0</ele><time>2026-04-03T14:40:54Z</time></trkpt><trkpt lat="42.93033500787966" lon="10.99779769645982"><ele>45.0</ele><time>2026-04-03T14:40:55Z</time></trkpt><trkpt lat="42.93024679768719" lon="10.9978305894872"><ele>45.0</ele><time>2026-04-03T14:40:56Z</time></trkpt><trkpt lat="42.930160448267166" lon="10.997867061694114"><ele>45.0</ele><time>2026-04-03T14:40:57Z</time></trkpt><trkpt lat="42.93007948249261" lon="10.997914876510295"><ele>45.0</ele><time>2026-04-03T14:40:58Z</time></trkpt><trkpt lat="42.92999375334006" lon="10.997974518119763"><ele>45.0</ele><time>2026-04-03T14:40:59Z</time></trkpt><trkpt lat="42.92992771592944" lon="10.998074559830004"><ele>45.0</ele><time>2026-04-03T14:41:00Z</time></trkpt><trkpt lat="42.929845469841" lon="10.998137861656724"><ele>45.0</ele><time>2026-04-03T14:41:01Z</time></trkpt><trkpt lat="42.92977817385806" lon="10.998213942379985"><ele>45.0</ele><time>2026-04-03T14:41:02Z</time></trkpt><trkpt lat="42.9297088701899" lon="10.9982973392668"><ele>45.0</ele><time>2026-04-03T14:41:03Z</time></trkpt><trkpt lat="42.92964334088314" lon="10.998380191586971"><ele>45.0</ele><time>2026-04-03T14:41:04Z</time></trkpt><trkpt lat="42.929579615132354" lon="10.998468911724215"><ele>45.0</ele><time>2026-04-03T14:41:05Z</time></trkpt><trkpt lat="42.929518509090094" lon="10.998560715277792"><ele>45.0</ele><time>2026-04-03T14:41:06Z</time></trkpt><trkpt lat="42.92945952271688" lon="10.9986527490567"><ele>45.0</ele><time>2026-04-03T14:41:07Z</time></trkpt><trkpt lat="42.929400896336176" lon="10.998747148241637"><ele>45.0</ele><time>2026-04-03T14:41:08Z</time></trkpt><trkpt lat="42.92934079814471" lon="10.99884391720556"><ele>45.0</ele><time>2026-04-03T14:41:09Z</time></trkpt><trkpt lat="42.929274913094545" lon="10.998940856312847"><ele>43.6</ele><time>2026-04-03T14:41:10Z</time></trkpt><trkpt lat="42.9292031400691" lon="10.99902385324039"><ele>42.2</ele><time>2026-04-03T14:41:11Z</time></trkpt><trkpt lat="42.92913149436853" lon="10.999106188020923"><ele>40.8</ele><time>2026-04-03T14:41:12Z</time></trkpt><trkpt lat="42.92906000001314" lon="10.99918212444667"><ele>39.4</ele><time>2026-04-03T14:41:13Z</time></trkpt><trkpt lat="42.92898782937591" lon="10.999254420200572"><ele>38.0</ele><time>2026-04-03T14:41:14Z</time></trkpt><trkpt lat="42.928911681435956" lon="10.999325634891221"><ele>38.0</ele><time>2026-04-03T14:41:15Z</time></trkpt><trkpt lat="42.92883827577903" lon="10.999391302937413"><ele>38.0</ele><time>2026-04-03T14:41:16Z</time></trkpt><trkpt lat="42.92875353591382" lon="10.999465159930828"><ele>38.0</ele><time>2026-04-03T14:41:17Z</time></trkpt><trkpt lat="42.92867269820058" lon="10.999554295794276"><ele>38.0</ele><time>2026-04-03T14:41:18Z</time></trkpt><trkpt lat="42.92859485704062" lon="10.999584486333054"><ele>38.0</ele><time>2026-04-03T14:41:19Z</time></trkpt><trkpt lat="42.92851759688031" lon="10.999609665215987"><ele>38.0</ele><time>2026-04-03T14:41:20Z</time></trkpt><trkpt lat="42.928443076236334" lon="10.999629583110842"><ele>38.0</ele><time>2026-04-03T14:41:21Z</time></trkpt><trkpt lat="42.92836361317466" lon="10.99963388739152"><ele>38.0</ele><time>2026-04-03T14:41:22Z</time></trkpt><trkpt lat="42.92828039230382" lon="10.999631546481373"><ele>38.0</ele><time>2026-04-03T14:41:23Z</time></trkpt><trkpt lat="42.92819136945942" lon="10.999627738416573"><ele>38.0</ele><time>2026-04-03T14:41:24Z</time></trkpt><trkpt lat="42.928108252934" lon="10.999620703127656"><ele>38.0</ele><time>2026-04-03T14:41:25Z</time></trkpt><trkpt lat="42.92800988505414" lon="10.999605781307416"><ele>37.0</ele><time>2026-04-03T14:41:26Z</time></trkpt><trkpt lat="42.927918568943376" lon="10.999587301144825"><ele>36.0</ele><time>2026-04-03T14:41:27Z</time></trkpt><trkpt lat="42.92782124315696" lon="10.999565431588483"><ele>35.0</ele><time>2026-04-03T14:41:28Z</time></trkpt><trkpt lat="42.92772941950882" lon="10.999544798394664"><ele>34.0</ele><time>2026-04-03T14:41:29Z</time></trkpt><trkpt lat="42.927633821612815" lon="10.999523317104027"><ele>33.0</ele><time>2026-04-03T14:41:30Z</time></trkpt><trkpt lat="42.92754061741034" lon="10.999502373687065"><ele>32.6</ele><time>2026-04-03T14:41:31Z</time></trkpt><trkpt lat="42.927452146782045" lon="10.999481381487241"><ele>32.199999999999996</ele><time>2026-04-03T14:41:32Z</time></trkpt><trkpt lat="42.92735259023245" lon="10.999456932361156"><ele>31.8</ele><time>2026-04-03T14:41:33Z</time></trkpt><trkpt lat="42.927258732967935" lon="10.999433882847502"><ele>31.4</ele><time>2026-04-03T14:41:34Z</time></trkpt><trkpt lat="42.92716980339272" lon="10.999412043507157"><ele>31.0</ele><time>2026-04-03T14:41:35Z</time></trkpt><trkpt lat="42.92707684889917" lon="10.999389215686083"><ele>31.000000000000004</ele><time>2026-04-03T14:41:36Z</time></trkpt><trkpt lat="42.926991965118546" lon="10.99936970865142"><ele>31.0</ele><time>2026-04-03T14:41:37Z</time></trkpt><trkpt lat="42.926907368296774" lon="10.999352132454455"><ele>31.0</ele><time>2026-04-03T14:41:38Z</time></trkpt><trkpt lat="42.92683262397316" lon="10.999338146356365"><ele>31.0</ele><time>2026-04-03T14:41:39Z</time></trkpt><trkpt lat="42.92674917138122" lon="10.9993232347591"><ele>31.000000000000004</ele><time>2026-04-03T14:41:40Z</time></trkpt><trkpt lat="42.92667568648477" lon="10.999310277357186"><ele>31.0</ele><time>2026-04-03T14:41:41Z</time></trkpt><trkpt lat="42.92659054877668" lon="10.999295578831047"><ele>31.000000000000004</ele><time>2026-04-03T14:41:42Z</time></trkpt><trkpt lat="42.92650736644209" lon="10.999282329912779"><ele>31.0</ele><time>2026-04-03T14:41:43Z</time></trkpt><trkpt lat="42.92642898571175" lon="10.999268548533808"><ele>31.0</ele><time>2026-04-03T14:41:44Z</time></trkpt><trkpt lat="42.92635424854457" lon="10.999249264522076"><ele>31.0</ele><time>2026-04-03T14:41:45Z</time></trkpt><trkpt lat="42.92627647092916" lon="10.999214885719125"><ele>31.000000000000004</ele><time>2026-04-03T14:41:46Z</time></trkpt><trkpt lat="42.92619689190083" lon="10.999160278232416"><ele>31.0</ele><time>2026-04-03T14:41:47Z</time></trkpt><trkpt lat="42.9261294787692" lon="10.999101238771047"><ele>31.166666666666668</ele><time>2026-04-03T14:41:48Z</time></trkpt><trkpt lat="42.92605350609864" lon="10.999038412981541"><ele>31.333333333333336</ele><time>2026-04-03T14:41:49Z</time></trkpt><trkpt lat="42.925987722071085" lon="10.998984012720323"><ele>31.5</ele><time>2026-04-03T14:41:50Z</time></trkpt><trkpt lat="42.9259002297647" lon="10.99891706423235"><ele>31.666666666666664</ele><time>2026-04-03T14:41:51Z</time></trkpt><trkpt lat="42.925826300299434" lon="10.99886375377422"><ele>31.833333333333332</ele><time>2026-04-03T14:41:52Z</time></trkpt><trkpt lat="42.92574352308072" lon="10.998807209093362"><ele>32.0</ele><time>2026-04-03T14:41:53Z</time></trkpt><trkpt lat="42.9256730435556" lon="10.998760982652435"><ele>31.499999999999996</ele><time>2026-04-03T14:41:54Z</time></trkpt><trkpt lat="42.92559679399207" lon="10.998710036122722"><ele>31.0</ele><time>2026-04-03T14:41:55Z</time></trkpt><trkpt lat="42.92552400473853" lon="10.998658847201803"><ele>30.5</ele><time>2026-04-03T14:41:56Z</time></trkpt><trkpt lat="42.925450819537076" lon="10.99860737828124"><ele>30.0</ele><time>2026-04-03T14:41:57Z</time></trkpt><trkpt lat="42.92537484952114" lon="10.998557455009161"><ele>29.499999999999996</ele><time>2026-04-03T14:41:58Z</time></trkpt><trkpt lat="42.925303229527344" lon="10.998510239548093"><ele>29.0</ele><time>2026-04-03T14:41:59Z</time></trkpt><trkpt lat="42.9252270941206" lon="10.998439734311292"><ele>29.0</ele><time>2026-04-03T14:42:00Z</time></trkpt><trkpt lat="42.92515316810706" lon="10.998371679682426"><ele>29.0</ele><time>2026-04-03T14:42:01Z</time></trkpt><trkpt lat="42.9250763299421" lon="10.998298790650425"><ele>29.0</ele><time>2026-04-03T14:42:02Z</time></trkpt><trkpt lat="42.92500969998893" lon="10.998232742639667"><ele>29.0</ele><time>2026-04-03T14:42:03Z</time></trkpt><trkpt lat="42.924931297189154" lon="10.998151978810137"><ele>29.0</ele><time>2026-04-03T14:42:04Z</time></trkpt><trkpt lat="42.92485993416889" lon="10.998077000127259"><ele>28.833333333333332</ele><time>2026-04-03T14:42:05Z</time></trkpt><trkpt lat="42.92478928849369" lon="10.997999455081516"><ele>28.666666666666664</ele><time>2026-04-03T14:42:06Z</time></trkpt><trkpt lat="42.92471787498003" lon="10.997921067208694"><ele>28.5</ele><time>2026-04-03T14:42:07Z</time></trkpt><trkpt lat="42.92465808993385" lon="10.997846840018052"><ele>28.333333333333336</ele><time>2026-04-03T14:42:08Z</time></trkpt><trkpt lat="42.92460083608361" lon="10.99774997440356"><ele>28.166666666666668</ele><time>2026-04-03T14:42:09Z</time></trkpt><trkpt lat="42.9245609475229" lon="10.997654062706204"><ele>28.0</ele><time>2026-04-03T14:42:09.999Z</time></trkpt><trkpt lat="42.924526407681775" lon="10.997547407391655"><ele>27.666666666666668</ele><time>2026-04-03T14:42:10.999Z</time></trkpt><trkpt lat="42.924489788590336" lon="10.99744073281486"><ele>27.333333333333336</ele><time>2026-04-03T14:42:11.999Z</time></trkpt><trkpt lat="42.92444575881948" lon="10.997350428618935"><ele>27.0</ele><time>2026-04-03T14:42:12.999Z</time></trkpt><trkpt lat="42.92441365397268" lon="10.99725023796311"><ele>26.666666666666664</ele><time>2026-04-03T14:42:13.999Z</time></trkpt><trkpt lat="42.92438345902628" lon="10.997139894351822"><ele>26.333333333333332</ele><time>2026-04-03T14:42:14.999Z</time></trkpt><trkpt lat="42.92434102560934" lon="10.997048857882074"><ele>26.0</ele><time>2026-04-03T14:42:15.999Z</time></trkpt><trkpt lat="42.924296428307336" lon="10.996884158300425"><ele>25.999999999999996</ele><time>2026-04-03T14:42:17.999Z</time></trkpt><trkpt lat="42.9243298817621" lon="10.996777865301523"><ele>26.0</ele><time>2026-04-03T14:42:18.999Z</time></trkpt><trkpt lat="42.924347156846096" lon="10.996664717195411"><ele>26.0</ele><time>2026-04-03T14:42:19.999Z</time></trkpt><trkpt lat="42.92436741167174" lon="10.996539667502327"><ele>26.0</ele><time>2026-04-03T14:42:20.999Z</time></trkpt><trkpt lat="42.92437179137709" lon="10.996432713690115"><ele>25.999999999999996</ele><time>2026-04-03T14:42:21.999Z</time></trkpt><trkpt lat="42.92441201509478" lon="10.996318674111976"><ele>26.0</ele><time>2026-04-03T14:42:22.999Z</time></trkpt><trkpt lat="42.92443666741712" lon="10.996208092344535"><ele>25.999999999999996</ele><time>2026-04-03T14:42:23.999Z</time></trkpt><trkpt lat="42.92446705980563" lon="10.996095100300552"><ele>26.0</ele><time>2026-04-03T14:42:24.999Z</time></trkpt><trkpt lat="42.92449712647425" lon="10.995987219966876"><ele>26.0</ele><time>2026-04-03T14:42:25.999Z</time></trkpt><trkpt lat="42.924548439325335" lon="10.995878440092628"><ele>26.0</ele><time>2026-04-03T14:42:26.999Z</time></trkpt><trkpt lat="42.92459573294894" lon="10.99576889056358"><ele>25.999999999999996</ele><time>2026-04-03T14:42:27.999Z</time></trkpt><trkpt lat="42.92462971284976" lon="10.995661931281171"><ele>26.0</ele><time>2026-04-03T14:42:28.999Z</time></trkpt><trkpt lat="42.924654309298816" lon="10.995540985506366"><ele>26.0</ele><time>2026-04-03T14:42:29.999Z</time></trkpt><trkpt lat="42.92468284293201" lon="10.995415322415132"><ele>26.0</ele><time>2026-04-03T14:42:30.999Z</time></trkpt><trkpt lat="42.9246829910712" lon="10.995281773120823"><ele>26.0</ele><time>2026-04-03T14:42:31.999Z</time></trkpt><trkpt lat="42.924674191784604" lon="10.995154745636722"><ele>26.0</ele><time>2026-04-03T14:42:32.999Z</time></trkpt><trkpt lat="42.924665105307554" lon="10.995027534962341"><ele>26.0</ele><time>2026-04-03T14:42:33.999Z</time></trkpt><trkpt lat="42.92465594300025" lon="10.994899262872417"><ele>26.0</ele><time>2026-04-03T14:42:34.999Z</time></trkpt><trkpt lat="42.92464387651792" lon="10.99478076919967"><ele>26.0</ele><time>2026-04-03T14:42:35.999Z</time></trkpt><trkpt lat="42.924615025191585" lon="10.994648906992415"><ele>26.0</ele><time>2026-04-03T14:42:36.999Z</time></trkpt><trkpt lat="42.92459714711935" lon="10.99452281106498"><ele>26.0</ele><time>2026-04-03T14:42:37.999Z</time></trkpt><trkpt lat="42.924575103263365" lon="10.994394369121208"><ele>26.0</ele><time>2026-04-03T14:42:38.999Z</time></trkpt><trkpt lat="42.924568122069665" lon="10.994257437324604"><ele>26.4</ele><time>2026-04-03T14:42:39.999Z</time></trkpt><trkpt lat="42.92454472996905" lon="10.994124273137318"><ele>26.8</ele><time>2026-04-03T14:42:40.999Z</time></trkpt><trkpt lat="42.924506985595514" lon="10.994007984493281"><ele>27.199999999999996</ele><time>2026-04-03T14:42:41.999Z</time></trkpt><trkpt lat="42.92448633475505" lon="10.993879902783968"><ele>27.599999999999998</ele><time>2026-04-03T14:42:42.999Z</time></trkpt><trkpt lat="42.92447686458319" lon="10.993750436402614"><ele>28.0</ele><time>2026-04-03T14:42:43.999Z</time></trkpt><trkpt lat="42.924452612680405" lon="10.99361795927751"><ele>28.0</ele><time>2026-04-03T14:42:44.999Z</time></trkpt><trkpt lat="42.924428656522544" lon="10.993487097673746"><ele>27.999999999999996</ele><time>2026-04-03T14:42:46Z</time></trkpt><trkpt lat="42.92440584327261" lon="10.99336247925112"><ele>27.999999999999996</ele><time>2026-04-03T14:42:47Z</time></trkpt><trkpt lat="42.92438361856148" lon="10.993235385905507"><ele>28.0</ele><time>2026-04-03T14:42:48Z</time></trkpt><trkpt lat="42.92436582478499" lon="10.993113059890044"><ele>28.0</ele><time>2026-04-03T14:42:49Z</time></trkpt><trkpt lat="42.92435403979723" lon="10.992996859173068"><ele>28.000000000000004</ele><time>2026-04-03T14:42:50Z</time></trkpt><trkpt lat="42.92434550885255" lon="10.992905230511944"><ele>28.0</ele><time>2026-04-03T14:42:51Z</time></trkpt><trkpt lat="42.92433185028162" lon="10.992792744110945"><ele>28.0</ele><time>2026-04-03T14:42:52Z</time></trkpt><trkpt lat="42.92431559842118" lon="10.99269398502725"><ele>28.0</ele><time>2026-04-03T14:42:53Z</time></trkpt><trkpt lat="42.92429368446647" lon="10.992580122203957"><ele>28.000000000000004</ele><time>2026-04-03T14:42:54Z</time></trkpt><trkpt lat="42.92426637973922" lon="10.99246297640912"><ele>28.0</ele><time>2026-04-03T14:42:55Z</time></trkpt><trkpt lat="42.92423362684217" lon="10.99233270214645"><ele>27.2</ele><time>2026-04-03T14:42:56Z</time></trkpt><trkpt lat="42.92418928305165" lon="10.992206619045657"><ele>26.4</ele><time>2026-04-03T14:42:57Z</time></trkpt><trkpt lat="42.924137919730626" lon="10.992093519384419"><ele>25.599999999999998</ele><time>2026-04-03T14:42:58Z</time></trkpt><trkpt lat="42.924077292277" lon="10.991980306261317"><ele>24.799999999999997</ele><time>2026-04-03T14:42:59Z</time></trkpt><trkpt lat="42.92401811910122" lon="10.991861652208035"><ele>24.0</ele><time>2026-04-03T14:43:00Z</time></trkpt><trkpt lat="42.923968879450776" lon="10.991744508367916"><ele>24.25</ele><time>2026-04-03T14:43:01Z</time></trkpt><trkpt lat="42.92393093912827" lon="10.991611890493711"><ele>24.5</ele><time>2026-04-03T14:43:02Z</time></trkpt><trkpt lat="42.92389632968545" lon="10.991463757050804"><ele>24.75</ele><time>2026-04-03T14:43:03Z</time></trkpt><trkpt lat="42.9238614256552" lon="10.991318263759085"><ele>25.0</ele><time>2026-04-03T14:43:04Z</time></trkpt><trkpt lat="42.92382311097717" lon="10.991162408653565"><ele>25.0</ele><time>2026-04-03T14:43:05Z</time></trkpt><trkpt lat="42.92377383671025" lon="10.991026867098626"><ele>25.0</ele><time>2026-04-03T14:43:06Z</time></trkpt><trkpt lat="42.92371556531225" lon="10.990896819161602"><ele>25.0</ele><time>2026-04-03T14:43:07Z</time></trkpt><trkpt lat="42.92366086375984" lon="10.990783506174326"><ele>25.0</ele><time>2026-04-03T14:43:08Z</time></trkpt><trkpt lat="42.923612333478864" lon="10.99068297683221"><ele>25.0</ele><time>2026-04-03T14:43:09Z</time></trkpt><trkpt lat="42.92356162901459" lon="10.99057646321448"><ele>25.166666666666668</ele><time>2026-04-03T14:43:10Z</time></trkpt><trkpt lat="42.92351606247516" lon="10.990478943842533"><ele>25.333333333333336</ele><time>2026-04-03T14:43:11Z</time></trkpt><trkpt lat="42.92346705173161" lon="10.990374053316131"><ele>25.5</ele><time>2026-04-03T14:43:12Z</time></trkpt><trkpt lat="42.923425371896634" lon="10.990284852075607"><ele>25.666666666666664</ele><time>2026-04-03T14:43:13Z</time></trkpt><trkpt lat="42.923364460464775" lon="10.990191742844775"><ele>25.833333333333332</ele><time>2026-04-03T14:43:14Z</time></trkpt><trkpt lat="42.92331956455329" lon="10.990084607936387"><ele>26.0</ele><time>2026-04-03T14:43:15Z</time></trkpt><trkpt lat="42.92326722266997" lon="10.98995905579212"><ele>26.6</ele><time>2026-04-03T14:43:16Z</time></trkpt><trkpt lat="42.923199809090676" lon="10.98986049472338"><ele>27.200000000000003</ele><time>2026-04-03T14:43:17Z</time></trkpt><trkpt lat="42.923139866045844" lon="10.989758412081063"><ele>27.799999999999997</ele><time>2026-04-03T14:43:18Z</time></trkpt><trkpt lat="42.9230883963332" lon="10.989660241257447"><ele>28.4</ele><time>2026-04-03T14:43:19Z</time></trkpt><trkpt lat="42.92303473728208" lon="10.989555527435968"><ele>29.0</ele><time>2026-04-03T14:43:20Z</time></trkpt><trkpt lat="42.92297887953168" lon="10.989448017345357"><ele>28.999999999999996</ele><time>2026-04-03T14:43:21Z</time></trkpt><trkpt lat="42.92293104329162" lon="10.989352091880203"><ele>29.0</ele><time>2026-04-03T14:43:22Z</time></trkpt><trkpt lat="42.92287785621463" lon="10.98923095800252"><ele>29.0</ele><time>2026-04-03T14:43:23Z</time></trkpt><trkpt lat="42.922844535325034" lon="10.989131664446464"><ele>29.0</ele><time>2026-04-03T14:43:24Z</time></trkpt><trkpt lat="42.9228222247638" lon="10.989039122215795"><ele>28.999999999999996</ele><time>2026-04-03T14:43:25Z</time></trkpt><trkpt lat="42.92279653554392" lon="10.988915462711262"><ele>29.0</ele><time>2026-04-03T14:43:26Z</time></trkpt><trkpt lat="42.92277351305178" lon="10.988802135338622"><ele>29.4</ele><time>2026-04-03T14:43:27Z</time></trkpt><trkpt lat="42.92275071371476" lon="10.988680730097162"><ele>29.799999999999997</ele><time>2026-04-03T14:43:28Z</time></trkpt><trkpt lat="42.92272814738139" lon="10.988544130636717"><ele>30.200000000000003</ele><time>2026-04-03T14:43:29Z</time></trkpt><trkpt lat="42.92270673487049" lon="10.988417615009116"><ele>30.6</ele><time>2026-04-03T14:43:30Z</time></trkpt><trkpt lat="42.922679269299046" lon="10.988287719023033"><ele>31.0</ele><time>2026-04-03T14:43:31Z</time></trkpt><trkpt lat="42.92264265192907" lon="10.988157359711693"><ele>31.0</ele><time>2026-04-03T14:43:32Z</time></trkpt><trkpt lat="42.92260414752078" lon="10.988034863493224"><ele>31.0</ele><time>2026-04-03T14:43:33Z</time></trkpt><trkpt lat="42.92256835709113" lon="10.987909300355215"><ele>31.0</ele><time>2026-04-03T14:43:34Z</time></trkpt><trkpt lat="42.92254085323475" lon="10.987788516083349"><ele>31.0</ele><time>2026-04-03T14:43:35Z</time></trkpt><trkpt lat="42.922517665397216" lon="10.987669454872762"><ele>31.0</ele><time>2026-04-03T14:43:36Z</time></trkpt><trkpt lat="42.92249753927684" lon="10.987546781451394"><ele>30.200000000000003</ele><time>2026-04-03T14:43:37Z</time></trkpt><trkpt lat="42.922465101522256" lon="10.987409393474422"><ele>29.400000000000002</ele><time>2026-04-03T14:43:38Z</time></trkpt><trkpt lat="42.92244974599542" lon="10.987275787110969"><ele>28.6</ele><time>2026-04-03T14:43:39Z</time></trkpt><trkpt lat="42.92244236606794" lon="10.987141820450118"><ele>27.8</ele><time>2026-04-03T14:43:40Z</time></trkpt><trkpt lat="42.92242090619792" lon="10.987008578747643"><ele>27.0</ele><time>2026-04-03T14:43:41Z</time></trkpt><trkpt lat="42.92240585586423" lon="10.98687382219827"><ele>27.0</ele><time>2026-04-03T14:43:42Z</time></trkpt><trkpt lat="42.92239852229568" lon="10.986747412224334"><ele>27.000000000000004</ele><time>2026-04-03T14:43:43Z</time></trkpt><trkpt lat="42.92238218811699" lon="10.98662265689765"><ele>27.000000000000004</ele><time>2026-04-03T14:43:44Z</time></trkpt><trkpt lat="42.9223608009762" lon="10.986496028871056"><ele>27.0</ele><time>2026-04-03T14:43:45Z</time></trkpt><trkpt lat="42.922317564314824" lon="10.986371277497083"><ele>27.0</ele><time>2026-04-03T14:43:46Z</time></trkpt><trkpt lat="42.92229521692677" lon="10.986250778461551"><ele>27.200000000000003</ele><time>2026-04-03T14:43:47Z</time></trkpt><trkpt lat="42.92226201530014" lon="10.98609925017819"><ele>27.400000000000002</ele><time>2026-04-03T14:43:48Z</time></trkpt><trkpt lat="42.92224350725211" lon="10.985964732386469"><ele>27.599999999999998</ele><time>2026-04-03T14:43:49Z</time></trkpt><trkpt lat="42.92224539341775" lon="10.985832027278406"><ele>27.799999999999997</ele><time>2026-04-03T14:43:50Z</time></trkpt><trkpt lat="42.92223651286254" lon="10.985697074256352"><ele>28.0</ele><time>2026-04-03T14:43:51Z</time></trkpt><trkpt lat="42.92222611753814" lon="10.985544861763413"><ele>28.0</ele><time>2026-04-03T14:43:52Z</time></trkpt><trkpt lat="42.922214178405255" lon="10.985381797522912"><ele>28.0</ele><time>2026-04-03T14:43:53Z</time></trkpt><trkpt lat="42.92220200135349" lon="10.985215483813997"><ele>28.0</ele><time>2026-04-03T14:43:54Z</time></trkpt><trkpt lat="42.92218863071207" lon="10.985039913506851"><ele>28.0</ele><time>2026-04-03T14:43:55Z</time></trkpt><trkpt lat="42.92217276409335" lon="10.984866780229611"><ele>28.5</ele><time>2026-04-03T14:43:56Z</time></trkpt><trkpt lat="42.92215161972352" lon="10.984686295709547"><ele>29.0</ele><time>2026-04-03T14:43:56.999Z</time></trkpt><trkpt lat="42.92212736453834" lon="10.984502100874185"><ele>29.5</ele><time>2026-04-03T14:43:57.999Z</time></trkpt><trkpt lat="42.92210134315637" lon="10.984316276897731"><ele>30.0</ele><time>2026-04-03T14:43:58.999Z</time></trkpt><trkpt lat="42.922076487036925" lon="10.984130457656828"><ele>30.25</ele><time>2026-04-03T14:43:59.999Z</time></trkpt><trkpt lat="42.92205341452791" lon="10.983953840634417"><ele>30.5</ele><time>2026-04-03T14:44:00.999Z</time></trkpt><trkpt lat="42.92202823632843" lon="10.983775004166262"><ele>30.75</ele><time>2026-04-03T14:44:01.999Z</time></trkpt><trkpt lat="42.921998910626485" lon="10.983594224896754"><ele>31.0</ele><time>2026-04-03T14:44:02.999Z</time></trkpt><trkpt lat="42.92196892603018" lon="10.983421304687726"><ele>30.75</ele><time>2026-04-03T14:44:03.999Z</time></trkpt><trkpt lat="42.921936399743" lon="10.983241159066857"><ele>30.5</ele><time>2026-04-03T14:44:04.999Z</time></trkpt><trkpt lat="42.92189987861218" lon="10.983056656149245"><ele>30.25</ele><time>2026-04-03T14:44:05.999Z</time></trkpt><trkpt lat="42.921866307983215" lon="10.982908306721734"><ele>30.0</ele><time>2026-04-03T14:44:06.999Z</time></trkpt><trkpt lat="42.92183014813268" lon="10.982759894978427"><ele>30.0</ele><time>2026-04-03T14:44:07.999Z</time></trkpt><trkpt lat="42.92178086407321" lon="10.982592256033154"><ele>30.0</ele><time>2026-04-03T14:44:08.999Z</time></trkpt><trkpt lat="42.92173384249597" lon="10.982439385345906"><ele>30.0</ele><time>2026-04-03T14:44:09.999Z</time></trkpt><trkpt lat="42.92167804861111" lon="10.982260890231888"><ele>30.0</ele><time>2026-04-03T14:44:10.999Z</time></trkpt><trkpt lat="42.921628730485125" lon="10.982091289706583"><ele>30.0</ele><time>2026-04-03T14:44:11.999Z</time></trkpt><trkpt lat="42.921588834505826" lon="10.981943884752617"><ele>30.0</ele><time>2026-04-03T14:44:12.999Z</time></trkpt><trkpt lat="42.92155332971443" lon="10.98180948931036"><ele>30.0</ele><time>2026-04-03T14:44:13.999Z</time></trkpt><trkpt lat="42.92152432650153" lon="10.981699704202633"><ele>30.0</ele><time>2026-04-03T14:44:14.999Z</time></trkpt><trkpt lat="42.92149417473368" lon="10.9815801885679"><ele>30.0</ele><time>2026-04-03T14:44:15.999Z</time></trkpt><trkpt lat="42.921463618879045" lon="10.981458045059167"><ele>30.0</ele><time>2026-04-03T14:44:16.999Z</time></trkpt><trkpt lat="42.9214342467491" lon="10.981326990606755"><ele>30.0</ele><time>2026-04-03T14:44:17.999Z</time></trkpt><trkpt lat="42.9214076302225" lon="10.98120048547224"><ele>30.0</ele><time>2026-04-03T14:44:18.999Z</time></trkpt><trkpt lat="42.92138013554777" lon="10.981061144099845"><ele>30.0</ele><time>2026-04-03T14:44:19.999Z</time></trkpt><trkpt lat="42.92135443957685" lon="10.98092256052505"><ele>30.0</ele><time>2026-04-03T14:44:20.999Z</time></trkpt><trkpt lat="42.92132735113168" lon="10.980757971735148"><ele>30.25</ele><time>2026-04-03T14:44:21.999Z</time></trkpt><trkpt lat="42.921302304058834" lon="10.980598514030712"><ele>30.5</ele><time>2026-04-03T14:44:22.999Z</time></trkpt><trkpt lat="42.92127742494882" lon="10.98042736035144"><ele>30.75</ele><time>2026-04-03T14:44:23.999Z</time></trkpt><trkpt lat="42.92125416630158" lon="10.98026230605279"><ele>31.0</ele><time>2026-04-03T14:44:24.999Z</time></trkpt><trkpt lat="42.92123074734104" lon="10.980090772697814"><ele>31.5</ele><time>2026-04-03T14:44:25.999Z</time></trkpt><trkpt lat="42.92120648015225" lon="10.979913026435948"><ele>32.0</ele><time>2026-04-03T14:44:26.999Z</time></trkpt><trkpt lat="42.92118260646683" lon="10.979738162422082"><ele>32.5</ele><time>2026-04-03T14:44:27.999Z</time></trkpt><trkpt lat="42.921159467625856" lon="10.979569815060245"><ele>33.0</ele><time>2026-04-03T14:44:28.999Z</time></trkpt><trkpt lat="42.92113685662931" lon="10.979405381354653"><ele>33.0</ele><time>2026-04-03T14:44:29.999Z</time></trkpt><trkpt lat="42.9211148802136" lon="10.979245562512016"><ele>33.0</ele><time>2026-04-03T14:44:30.999Z</time></trkpt><trkpt lat="42.92109379941394" lon="10.97909225683146"><ele>33.0</ele><time>2026-04-03T14:44:31.999Z</time></trkpt><trkpt lat="42.92107278067795" lon="10.97893940249171"><ele>33.0</ele><time>2026-04-03T14:44:32.999Z</time></trkpt><trkpt lat="42.92105067625238" lon="10.978778652740976"><ele>33.5</ele><time>2026-04-03T14:44:33.999Z</time></trkpt><trkpt lat="42.921026754002206" lon="10.978604683213124"><ele>34.0</ele><time>2026-04-03T14:44:34.999Z</time></trkpt><trkpt lat="42.921005859643024" lon="10.978449282626732"><ele>34.5</ele><time>2026-04-03T14:44:35.999Z</time></trkpt><trkpt lat="42.92098225773953" lon="10.978268906423445"><ele>35.0</ele><time>2026-04-03T14:44:36.999Z</time></trkpt><trkpt lat="42.92096006455916" lon="10.978099296331541"><ele>35.0</ele><time>2026-04-03T14:44:37.999Z</time></trkpt><trkpt lat="42.92093518572393" lon="10.977903216528105"><ele>35.0</ele><time>2026-04-03T14:44:38.999Z</time></trkpt><trkpt lat="42.92091161260208" lon="10.977710187773324"><ele>35.0</ele><time>2026-04-03T14:44:39.999Z</time></trkpt><trkpt lat="42.920891707761776" lon="10.977532981846782"><ele>35.0</ele><time>2026-04-03T14:44:40.999Z</time></trkpt><trkpt lat="42.92087281047427" lon="10.977357873213192"><ele>35.0</ele><time>2026-04-03T14:44:41.999Z</time></trkpt><trkpt lat="42.920854443988596" lon="10.977180376538856"><ele>35.0</ele><time>2026-04-03T14:44:42.999Z</time></trkpt><trkpt lat="42.920836947435376" lon="10.97700267004204"><ele>35.0</ele><time>2026-04-03T14:44:43.999Z</time></trkpt><trkpt lat="42.920820310371575" lon="10.97683369308798"><ele>35.0</ele><time>2026-04-03T14:44:44.999Z</time></trkpt><trkpt lat="42.9208041485598" lon="10.976669543090432"><ele>35.25</ele><time>2026-04-03T14:44:45.999Z</time></trkpt><trkpt lat="42.92078735710956" lon="10.976498998067948"><ele>35.5</ele><time>2026-04-03T14:44:46.999Z</time></trkpt><trkpt lat="42.920769263398526" lon="10.97632959341976"><ele>35.75</ele><time>2026-04-03T14:44:47.999Z</time></trkpt><trkpt lat="42.92075028774238" lon="10.976153663507542"><ele>36.0</ele><time>2026-04-03T14:44:48.999Z</time></trkpt><trkpt lat="42.92073171263709" lon="10.975981447048463"><ele>36.25</ele><time>2026-04-03T14:44:49.999Z</time></trkpt><trkpt lat="42.92071246874757" lon="10.97580303050579"><ele>36.5</ele><time>2026-04-03T14:44:50.999Z</time></trkpt><trkpt lat="42.920695191327496" lon="10.975636386869184"><ele>36.75</ele><time>2026-04-03T14:44:52Z</time></trkpt><trkpt lat="42.92067850908731" lon="10.975453011159372"><ele>37.0</ele><time>2026-04-03T14:44:53Z</time></trkpt><trkpt lat="42.92066637362696" lon="10.975285352241647"><ele>37.0</ele><time>2026-04-03T14:44:54Z</time></trkpt><trkpt lat="42.920657450435264" lon="10.975107061724616"><ele>37.0</ele><time>2026-04-03T14:44:55Z</time></trkpt><trkpt lat="42.9206510963545" lon="10.974942829976934"><ele>37.0</ele><time>2026-04-03T14:44:56Z</time></trkpt><trkpt lat="42.92064359551693" lon="10.974776730985242"><ele>37.0</ele><time>2026-04-03T14:44:57Z</time></trkpt><trkpt lat="42.92063323385624" lon="10.974617427455147"><ele>37.25</ele><time>2026-04-03T14:44:58Z</time></trkpt><trkpt lat="42.920622234650416" lon="10.974456920552816"><ele>37.5</ele><time>2026-04-03T14:44:59Z</time></trkpt><trkpt lat="42.920610642374896" lon="10.97431162496909"><ele>37.75</ele><time>2026-04-03T14:45:00Z</time></trkpt><trkpt lat="42.92059620977808" lon="10.974144832980523"><ele>38.0</ele><time>2026-04-03T14:45:01Z</time></trkpt><trkpt lat="42.920579216585956" lon="10.9739762009034"><ele>38.25</ele><time>2026-04-03T14:45:02Z</time></trkpt><trkpt lat="42.92055893705363" lon="10.97381488752691"><ele>38.5</ele><time>2026-04-03T14:45:03Z</time></trkpt><trkpt lat="42.92053627574871" lon="10.97364989280663"><ele>38.75</ele><time>2026-04-03T14:45:04Z</time></trkpt><trkpt lat="42.9205123736721" lon="10.97347695245617"><ele>39.0</ele><time>2026-04-03T14:45:05Z</time></trkpt><trkpt lat="42.92048791625216" lon="10.973299993992104"><ele>39.2</ele><time>2026-04-03T14:45:06Z</time></trkpt><trkpt lat="42.920467401091514" lon="10.973145576143"><ele>39.4</ele><time>2026-04-03T14:45:07Z</time></trkpt><trkpt lat="42.92044931545911" lon="10.973004762890863"><ele>39.6</ele><time>2026-04-03T14:45:08Z</time></trkpt><trkpt lat="42.920434128201876" lon="10.972883087872392"><ele>39.8</ele><time>2026-04-03T14:45:09Z</time></trkpt><trkpt lat="42.92041888837488" lon="10.97276099228973"><ele>40.0</ele><time>2026-04-03T14:45:10Z</time></trkpt><trkpt lat="42.92040397757074" lon="10.972641532244202"><ele>40.16666666666667</ele><time>2026-04-03T14:45:11Z</time></trkpt><trkpt lat="42.92038851313679" lon="10.972517637044623"><ele>40.333333333333336</ele><time>2026-04-03T14:45:12Z</time></trkpt><trkpt lat="42.92037403949717" lon="10.972387358116428"><ele>40.5</ele><time>2026-04-03T14:45:13Z</time></trkpt><trkpt lat="42.920362737828796" lon="10.972271449911622"><ele>40.666666666666664</ele><time>2026-04-03T14:45:14Z</time></trkpt><trkpt lat="42.92035128230986" lon="10.972146330712633"><ele>40.83333333333333</ele><time>2026-04-03T14:45:15Z</time></trkpt><trkpt lat="42.9203443797216" lon="10.972045023313445"><ele>41.0</ele><time>2026-04-03T14:45:16Z</time></trkpt><trkpt lat="42.920339750810705" lon="10.971931781836568"><ele>41.0</ele><time>2026-04-03T14:45:17Z</time></trkpt><trkpt lat="42.92033813843336" lon="10.971829677981798"><ele>41.0</ele><time>2026-04-03T14:45:18Z</time></trkpt><trkpt lat="42.92033723819998" lon="10.971708922951631"><ele>41.0</ele><time>2026-04-03T14:45:19Z</time></trkpt><trkpt lat="42.92033631529534" lon="10.971585126379184"><ele>41.0</ele><time>2026-04-03T14:45:20Z</time></trkpt><trkpt lat="42.92033451671297" lon="10.9714568368896"><ele>41.0</ele><time>2026-04-03T14:45:21Z</time></trkpt><trkpt lat="42.920329642295606" lon="10.971323807528352"><ele>41.0</ele><time>2026-04-03T14:45:22Z</time></trkpt><trkpt lat="42.92032148067954" lon="10.9711894860981"><ele>41.0</ele><time>2026-04-03T14:45:23Z</time></trkpt><trkpt lat="42.920311079530315" lon="10.971052207041511"><ele>41.0</ele><time>2026-04-03T14:45:24Z</time></trkpt><trkpt lat="42.92029921731416" lon="10.970908401195848"><ele>41.0</ele><time>2026-04-03T14:45:25Z</time></trkpt><trkpt lat="42.920286584634646" lon="10.97076930327289"><ele>41.0</ele><time>2026-04-03T14:45:26Z</time></trkpt><trkpt lat="42.92027380629273" lon="10.970628599890702"><ele>41.0</ele><time>2026-04-03T14:45:27Z</time></trkpt><trkpt lat="42.92026221858005" lon="10.970499927153293"><ele>40.8</ele><time>2026-04-03T14:45:28Z</time></trkpt><trkpt lat="42.92025126583679" lon="10.970372427366373"><ele>40.599999999999994</ele><time>2026-04-03T14:45:29Z</time></trkpt><trkpt lat="42.92023912935959" lon="10.970231147860915"><ele>40.4</ele><time>2026-04-03T14:45:30Z</time></trkpt><trkpt lat="42.920226302600845" lon="10.970081832837518"><ele>40.2</ele><time>2026-04-03T14:45:31Z</time></trkpt><trkpt lat="42.920213215917684" lon="10.969929492064836"><ele>40.0</ele><time>2026-04-03T14:45:32Z</time></trkpt><trkpt lat="42.920185227442275" lon="10.96979384300321"><ele>40.333333333333336</ele><time>2026-04-03T14:45:33Z</time></trkpt><trkpt lat="42.92017980516673" lon="10.969648322299301"><ele>40.66666666666667</ele><time>2026-04-03T14:45:34Z</time></trkpt><trkpt lat="42.920165617642844" lon="10.969517414013817"><ele>41.0</ele><time>2026-04-03T14:45:35Z</time></trkpt><trkpt lat="42.92015752286503" lon="10.969426816238862"><ele>41.333333333333336</ele><time>2026-04-03T14:45:36Z</time></trkpt><trkpt lat="42.92014738257237" lon="10.96932231479889"><ele>41.666666666666664</ele><time>2026-04-03T14:45:37Z</time></trkpt><trkpt lat="42.92014069113367" lon="10.969232380661584"><ele>42.0</ele><time>2026-04-03T14:45:38Z</time></trkpt><trkpt lat="42.92012878406452" lon="10.969078190723556"><ele>42.0</ele><time>2026-04-03T14:45:40Z</time></trkpt><trkpt lat="42.92011314256947" lon="10.968945360502277"><ele>42.0</ele><time>2026-04-03T14:45:42Z</time></trkpt><trkpt lat="42.92010651489019" lon="10.968829997449413"><ele>42.0</ele><time>2026-04-03T14:45:45Z</time></trkpt><trkpt lat="42.920130384359084" lon="10.96899590537081"><ele>42.0</ele><time>2026-04-03T14:46:54Z</time></trkpt><trkpt lat="42.92013224861157" lon="10.96914937191091"><ele>42.0</ele><time>2026-04-03T14:46:56Z</time></trkpt><trkpt lat="42.920144258092904" lon="10.969251297018404"><ele>42.0</ele><time>2026-04-03T14:46:57Z</time></trkpt><trkpt lat="42.92016457360144" lon="10.969466904775892"><ele>42.0</ele><time>2026-04-03T14:46:58Z</time></trkpt><trkpt lat="42.92018197998933" lon="10.969637647050623"><ele>42.0</ele><time>2026-04-03T14:47:00Z</time></trkpt><trkpt lat="42.92019251656223" lon="10.96976996365237"><ele>42.0</ele><time>2026-04-03T14:47:01Z</time></trkpt><trkpt lat="42.92019789858378" lon="10.969898701317623"><ele>41.6</ele><time>2026-04-03T14:47:02Z</time></trkpt><trkpt lat="42.92021027276676" lon="10.970033697494346"><ele>41.2</ele><time>2026-04-03T14:47:03Z</time></trkpt><trkpt lat="42.92021698762936" lon="10.970158363759754"><ele>40.8</ele><time>2026-04-03T14:47:04Z</time></trkpt><trkpt lat="42.920220988644594" lon="10.97028096220271"><ele>40.4</ele><time>2026-04-03T14:47:05Z</time></trkpt><trkpt lat="42.920226793362204" lon="10.970403539643385"><ele>40.0</ele><time>2026-04-03T14:47:06Z</time></trkpt><trkpt lat="42.92023571134866" lon="10.970525904652222"><ele>40.0</ele><time>2026-04-03T14:47:07Z</time></trkpt><trkpt lat="42.92024548606283" lon="10.970653483087295"><ele>40.0</ele><time>2026-04-03T14:47:08Z</time></trkpt><trkpt lat="42.92025605106217" lon="10.97077740954891"><ele>40.0</ele><time>2026-04-03T14:47:09Z</time></trkpt><trkpt lat="42.92026840754176" lon="10.970891140346087"><ele>40.0</ele><time>2026-04-03T14:47:10Z</time></trkpt><trkpt lat="42.92027666769554" lon="10.970996434544167"><ele>40.0</ele><time>2026-04-03T14:47:11Z</time></trkpt><trkpt lat="42.92028397530291" lon="10.971117383621626"><ele>40.0</ele><time>2026-04-03T14:47:12Z</time></trkpt><trkpt lat="42.92028939861519" lon="10.971235899147732"><ele>40.16666666666667</ele><time>2026-04-03T14:47:13Z</time></trkpt><trkpt lat="42.92029749039237" lon="10.971356416910966"><ele>40.333333333333336</ele><time>2026-04-03T14:47:14Z</time></trkpt><trkpt lat="42.92029877685572" lon="10.971472119614281"><ele>40.5</ele><time>2026-04-03T14:47:15Z</time></trkpt><trkpt lat="42.92029916036388" lon="10.971582335061969"><ele>40.666666666666664</ele><time>2026-04-03T14:47:16Z</time></trkpt><trkpt lat="42.920293009827994" lon="10.971690469145747"><ele>40.83333333333333</ele><time>2026-04-03T14:47:17Z</time></trkpt><trkpt lat="42.92028811260012" lon="10.971800946132488"><ele>41.0</ele><time>2026-04-03T14:47:18Z</time></trkpt><trkpt lat="42.920285894551924" lon="10.971911458762373"><ele>41.0</ele><time>2026-04-03T14:47:19Z</time></trkpt><trkpt lat="42.92028451422711" lon="10.971998995170662"><ele>41.0</ele><time>2026-04-03T14:47:20Z</time></trkpt><trkpt lat="42.920291953390596" lon="10.972117515111236"><ele>41.0</ele><time>2026-04-03T14:47:22Z</time></trkpt><trkpt lat="42.92028805641972" lon="10.971981968699195"><ele>41.0</ele><time>2026-04-03T14:48:15Z</time></trkpt><trkpt lat="42.920288932303244" lon="10.971889122877716"><ele>41.0</ele><time>2026-04-03T14:48:16Z</time></trkpt><trkpt lat="42.92028852193132" lon="10.971726405217046"><ele>41.0</ele><time>2026-04-03T14:48:18Z</time></trkpt><trkpt lat="42.920295299745064" lon="10.9716306397665"><ele>41.0</ele><time>2026-04-03T14:48:19Z</time></trkpt><trkpt lat="42.920300709042984" lon="10.971527620904826"><ele>41.0</ele><time>2026-04-03T14:48:20Z</time></trkpt><trkpt lat="42.92030154106993" lon="10.971426913168001"><ele>41.0</ele><time>2026-04-03T14:48:21Z</time></trkpt><trkpt lat="42.920298206523945" lon="10.971306838380087"><ele>41.0</ele><time>2026-04-03T14:48:22Z</time></trkpt><trkpt lat="42.92028830368648" lon="10.971196387117853"><ele>41.0</ele><time>2026-04-03T14:48:23Z</time></trkpt><trkpt lat="42.9202805417242" lon="10.971072445431805"><ele>41.0</ele><time>2026-04-03T14:48:24Z</time></trkpt><trkpt lat="42.92027281288371" lon="10.970950046535414"><ele>40.83333333333333</ele><time>2026-04-03T14:48:25Z</time></trkpt><trkpt lat="42.920263465293345" lon="10.97082816495207"><ele>40.666666666666664</ele><time>2026-04-03T14:48:26Z</time></trkpt><trkpt lat="42.92025482035128" lon="10.970708823633352"><ele>40.5</ele><time>2026-04-03T14:48:27Z</time></trkpt><trkpt lat="42.92025990381226" lon="10.97057531643895"><ele>40.333333333333336</ele><time>2026-04-03T14:48:28Z</time></trkpt><trkpt lat="42.92022998214513" lon="10.970471042608581"><ele>40.16666666666667</ele><time>2026-04-03T14:48:29Z</time></trkpt><trkpt lat="42.920225363896655" lon="10.970361373383613"><ele>40.0</ele><time>2026-04-03T14:48:30Z</time></trkpt><trkpt lat="42.9202193379694" lon="10.970242966698981"><ele>40.0</ele><time>2026-04-03T14:48:31Z</time></trkpt><trkpt lat="42.92021214187284" lon="10.970117935818267"><ele>40.0</ele><time>2026-04-03T14:48:32Z</time></trkpt><trkpt lat="42.92020295340261" lon="10.96998521598753"><ele>40.0</ele><time>2026-04-03T14:48:33Z</time></trkpt><trkpt lat="42.92019056331464" lon="10.969862156813099"><ele>40.0</ele><time>2026-04-03T14:48:34Z</time></trkpt><trkpt lat="42.92017877166031" lon="10.969728583530053"><ele>40.0</ele><time>2026-04-03T14:48:35Z</time></trkpt><trkpt lat="42.92016935321408" lon="10.96958668789714"><ele>40.5</ele><time>2026-04-03T14:48:36Z</time></trkpt><trkpt lat="42.92015908353593" lon="10.969428805240634"><ele>41.0</ele><time>2026-04-03T14:48:37Z</time></trkpt><trkpt lat="42.92014859706537" lon="10.969259793022832"><ele>41.5</ele><time>2026-04-03T14:48:38Z</time></trkpt><trkpt lat="42.920133587762116" lon="10.969101313904368"><ele>42.0</ele><time>2026-04-03T14:48:39Z</time></trkpt><trkpt lat="42.92011583858124" lon="10.968944155366675"><ele>42.25</ele><time>2026-04-03T14:48:40Z</time></trkpt><trkpt lat="42.92010208013535" lon="10.968789277853682"><ele>42.5</ele><time>2026-04-03T14:48:41Z</time></trkpt><trkpt lat="42.920089986875254" lon="10.9686319408529"><ele>42.75</ele><time>2026-04-03T14:48:42Z</time></trkpt><trkpt lat="42.920075310858124" lon="10.968474714706488"><ele>43.0</ele><time>2026-04-03T14:48:43Z</time></trkpt><trkpt lat="42.92006384568062" lon="10.968320057269109"><ele>41.0</ele><time>2026-04-03T14:48:44Z</time></trkpt><trkpt lat="42.92005445680195" lon="10.968162110639389"><ele>39.0</ele><time>2026-04-03T14:48:45Z</time></trkpt><trkpt lat="42.9200379983402" lon="10.968000507417065"><ele>37.0</ele><time>2026-04-03T14:48:46Z</time></trkpt><trkpt lat="42.920022800889505" lon="10.967840629896246"><ele>35.0</ele><time>2026-04-03T14:48:47Z</time></trkpt><trkpt lat="42.920012709269656" lon="10.967683318946024"><ele>35.0</ele><time>2026-04-03T14:48:48Z</time></trkpt><trkpt lat="42.91999919567271" lon="10.967529714495022"><ele>35.0</ele><time>2026-04-03T14:48:49Z</time></trkpt><trkpt lat="42.920007119814265" lon="10.967387713034004"><ele>35.0</ele><time>2026-04-03T14:48:50Z</time></trkpt><trkpt lat="42.92001094351872" lon="10.967227811896016"><ele>35.0</ele><time>2026-04-03T14:48:51Z</time></trkpt><trkpt lat="42.91999701300957" lon="10.96705158941377"><ele>35.0</ele><time>2026-04-03T14:48:52Z</time></trkpt><trkpt lat="42.91998948522665" lon="10.966890249681548"><ele>35.0</ele><time>2026-04-03T14:48:53Z</time></trkpt><trkpt lat="42.919988332508595" lon="10.966731485639935"><ele>35.0</ele><time>2026-04-03T14:48:54Z</time></trkpt><trkpt lat="42.91998079668687" lon="10.96657291234282"><ele>35.0</ele><time>2026-04-03T14:48:55Z</time></trkpt><trkpt lat="42.919970795658784" lon="10.966412884113469"><ele>35.0</ele><time>2026-04-03T14:48:56Z</time></trkpt><trkpt lat="42.919966424554445" lon="10.966255630738498"><ele>35.0</ele><time>2026-04-03T14:48:57Z</time></trkpt><trkpt lat="42.91996751127263" lon="10.96609944806612"><ele>35.0</ele><time>2026-04-03T14:48:58Z</time></trkpt><trkpt lat="42.91996846739372" lon="10.96594543308404"><ele>35.0</ele><time>2026-04-03T14:48:59Z</time></trkpt><trkpt lat="42.91996450001316" lon="10.965786803793582"><ele>34.75</ele><time>2026-04-03T14:49:00Z</time></trkpt><trkpt lat="42.9199638096414" lon="10.96563094853178"><ele>34.5</ele><time>2026-04-03T14:49:01Z</time></trkpt><trkpt lat="42.91996832708343" lon="10.965470019317438"><ele>34.25</ele><time>2026-04-03T14:49:02Z</time></trkpt><trkpt lat="42.919971257546635" lon="10.965308617833413"><ele>34.0</ele><time>2026-04-03T14:49:03Z</time></trkpt><trkpt lat="42.91997240106804" lon="10.965150333126319"><ele>34.25</ele><time>2026-04-03T14:49:04Z</time></trkpt><trkpt lat="42.91997487917765" lon="10.964993986697941"><ele>34.5</ele><time>2026-04-03T14:49:05Z</time></trkpt><trkpt lat="42.919978176892585" lon="10.964836913227867"><ele>34.75</ele><time>2026-04-03T14:49:06Z</time></trkpt><trkpt lat="42.91997561927904" lon="10.964683138315364"><ele>35.0</ele><time>2026-04-03T14:49:07Z</time></trkpt><trkpt lat="42.91998144888971" lon="10.9645303948135"><ele>35.0</ele><time>2026-04-03T14:49:08Z</time></trkpt><trkpt lat="42.91998976641213" lon="10.964386451629094"><ele>35.0</ele><time>2026-04-03T14:49:09Z</time></trkpt><trkpt lat="42.91999287835261" lon="10.964246446026085"><ele>35.0</ele><time>2026-04-03T14:49:10Z</time></trkpt><trkpt lat="42.92000317667892" lon="10.964116557373515"><ele>35.0</ele><time>2026-04-03T14:49:11Z</time></trkpt><trkpt lat="42.92001680615254" lon="10.963988183439342"><ele>35.0</ele><time>2026-04-03T14:49:12Z</time></trkpt><trkpt lat="42.920041046782" lon="10.96384905375053"><ele>35.5</ele><time>2026-04-03T14:49:13Z</time></trkpt><trkpt lat="42.920088001807194" lon="10.963693492099493"><ele>36.0</ele><time>2026-04-03T14:49:14Z</time></trkpt><trkpt lat="42.92012694593923" lon="10.963547723855822"><ele>36.5</ele><time>2026-04-03T14:49:15Z</time></trkpt><trkpt lat="42.92014982516764" lon="10.963392630049535"><ele>37.0</ele><time>2026-04-03T14:49:16Z</time></trkpt><trkpt lat="42.92016482168778" lon="10.96324008747702"><ele>37.0</ele><time>2026-04-03T14:49:17Z</time></trkpt><trkpt lat="42.920178036537564" lon="10.963089585494098"><ele>37.0</ele><time>2026-04-03T14:49:18Z</time></trkpt><trkpt lat="42.920188648374506" lon="10.962946695026455"><ele>37.0</ele><time>2026-04-03T14:49:19Z</time></trkpt><trkpt lat="42.920193632860325" lon="10.962804876447679"><ele>37.0</ele><time>2026-04-03T14:49:20Z</time></trkpt><trkpt lat="42.92019981656322" lon="10.96266055914585"><ele>37.0</ele><time>2026-04-03T14:49:21Z</time></trkpt><trkpt lat="42.92022399591258" lon="10.962511888482764"><ele>36.800000000000004</ele><time>2026-04-03T14:49:22Z</time></trkpt><trkpt lat="42.92022427970589" lon="10.962359957360821"><ele>36.6</ele><time>2026-04-03T14:49:23Z</time></trkpt><trkpt lat="42.920247763773354" lon="10.96221373690784"><ele>36.400000000000006</ele><time>2026-04-03T14:49:24Z</time></trkpt><trkpt lat="42.92026710725212" lon="10.962064830646357"><ele>36.2</ele><time>2026-04-03T14:49:24.999Z</time></trkpt><trkpt lat="42.92028963637942" lon="10.961915926064544"><ele>36.0</ele><time>2026-04-03T14:49:25.999Z</time></trkpt><trkpt lat="42.92031655545112" lon="10.96177240783667"><ele>36.0</ele><time>2026-04-03T14:49:26.999Z</time></trkpt><trkpt lat="42.920348117614346" lon="10.961631481394637"><ele>36.0</ele><time>2026-04-03T14:49:27.999Z</time></trkpt><trkpt lat="42.92037905847725" lon="10.961487991871337"><ele>36.0</ele><time>2026-04-03T14:49:28.999Z</time></trkpt><trkpt lat="42.92041150215263" lon="10.961346771309172"><ele>36.0</ele><time>2026-04-03T14:49:29.999Z</time></trkpt><trkpt lat="42.920450421922524" lon="10.96119669148649"><ele>36.0</ele><time>2026-04-03T14:49:30.999Z</time></trkpt><trkpt lat="42.92049048528153" lon="10.961044549830756"><ele>36.0</ele><time>2026-04-03T14:49:31.999Z</time></trkpt><trkpt lat="42.920529320846896" lon="10.960893444367775"><ele>36.0</ele><time>2026-04-03T14:49:32.999Z</time></trkpt><trkpt lat="42.92057214583752" lon="10.960726890857048"><ele>36.0</ele><time>2026-04-03T14:49:33.999Z</time></trkpt><trkpt lat="42.920617458669014" lon="10.960551902352819"><ele>36.0</ele><time>2026-04-03T14:49:34.999Z</time></trkpt><trkpt lat="42.92066781335301" lon="10.960383324350405"><ele>36.25</ele><time>2026-04-03T14:49:35.999Z</time></trkpt><trkpt lat="42.92072014805582" lon="10.960202880901932"><ele>36.5</ele><time>2026-04-03T14:49:36.999Z</time></trkpt><trkpt lat="42.92077196967027" lon="10.960032097952073"><ele>36.75</ele><time>2026-04-03T14:49:37.999Z</time></trkpt><trkpt lat="42.92082760988174" lon="10.95985856999265"><ele>37.0</ele><time>2026-04-03T14:49:38.999Z</time></trkpt><trkpt lat="42.92088246532868" lon="10.959681844473725"><ele>37.5</ele><time>2026-04-03T14:49:39.999Z</time></trkpt><trkpt lat="42.920933744442046" lon="10.959515627376685"><ele>38.0</ele><time>2026-04-03T14:49:40.999Z</time></trkpt><trkpt lat="42.92099229221263" lon="10.959351954010657"><ele>38.5</ele><time>2026-04-03T14:49:41.999Z</time></trkpt><trkpt lat="42.92105341292302" lon="10.959197833095674"><ele>39.0</ele><time>2026-04-03T14:49:42.999Z</time></trkpt><trkpt lat="42.92111007431944" lon="10.959035080061819"><ele>39.0</ele><time>2026-04-03T14:49:43.999Z</time></trkpt><trkpt lat="42.92116873764867" lon="10.95888350835197"><ele>39.0</ele><time>2026-04-03T14:49:44.999Z</time></trkpt><trkpt lat="42.92123177318471" lon="10.958724732868431"><ele>39.0</ele><time>2026-04-03T14:49:45.999Z</time></trkpt><trkpt lat="42.921296449877346" lon="10.958572037391834"><ele>39.0</ele><time>2026-04-03T14:49:46.999Z</time></trkpt><trkpt lat="42.92136576732955" lon="10.958412161542551"><ele>39.5</ele><time>2026-04-03T14:49:47.999Z</time></trkpt><trkpt lat="42.921435927498806" lon="10.958259046830436"><ele>40.0</ele><time>2026-04-03T14:49:48.999Z</time></trkpt><trkpt lat="42.9215084684439" lon="10.958093831181626"><ele>40.5</ele><time>2026-04-03T14:49:49.999Z</time></trkpt><trkpt lat="42.92158121567227" lon="10.957937807884816"><ele>41.0</ele><time>2026-04-03T14:49:50.999Z</time></trkpt><trkpt lat="42.92165844121002" lon="10.957785446261875"><ele>42.25</ele><time>2026-04-03T14:49:51.999Z</time></trkpt><trkpt lat="42.92174672282537" lon="10.957640054027458"><ele>43.5</ele><time>2026-04-03T14:49:52.999Z</time></trkpt><trkpt lat="42.92182070461432" lon="10.957486690095742"><ele>44.75</ele><time>2026-04-03T14:49:53.999Z</time></trkpt><trkpt lat="42.921889525040854" lon="10.957337400117867"><ele>46.0</ele><time>2026-04-03T14:49:54.999Z</time></trkpt><trkpt lat="42.92195574160171" lon="10.957191784368353"><ele>46.0</ele><time>2026-04-03T14:49:55.999Z</time></trkpt><trkpt lat="42.92202257707201" lon="10.957044807587918"><ele>46.0</ele><time>2026-04-03T14:49:56.999Z</time></trkpt><trkpt lat="42.92208045385624" lon="10.956886577912583"><ele>46.0</ele><time>2026-04-03T14:49:57.999Z</time></trkpt><trkpt lat="42.922157891178834" lon="10.956750765829478"><ele>46.0</ele><time>2026-04-03T14:49:58.999Z</time></trkpt><trkpt lat="42.92222786704466" lon="10.956616566355507"><ele>46.25</ele><time>2026-04-03T14:49:59.999Z</time></trkpt><trkpt lat="42.922315750479314" lon="10.956489091335406"><ele>46.5</ele><time>2026-04-03T14:50:00.999Z</time></trkpt><trkpt lat="42.92240249305944" lon="10.956346325645447"><ele>46.75</ele><time>2026-04-03T14:50:01.999Z</time></trkpt><trkpt lat="42.92249044061484" lon="10.956204351758373"><ele>47.0</ele><time>2026-04-03T14:50:02.999Z</time></trkpt><trkpt lat="42.922578302702924" lon="10.956065581618779"><ele>49.8</ele><time>2026-04-03T14:50:03.999Z</time></trkpt><trkpt lat="42.9226616854046" lon="10.955933886273256"><ele>52.6</ele><time>2026-04-03T14:50:04.999Z</time></trkpt><trkpt lat="42.922734057464595" lon="10.955821939266706"><ele>55.39999999999999</ele><time>2026-04-03T14:50:05.999Z</time></trkpt><trkpt lat="42.92279203176658" lon="10.955738621875868"><ele>58.199999999999996</ele><time>2026-04-03T14:50:06.999Z</time></trkpt><trkpt lat="42.92284734156894" lon="10.955670213863243"><ele>61.0</ele><time>2026-04-03T14:50:07.999Z</time></trkpt><trkpt lat="42.922909308139126" lon="10.955604016725806"><ele>60.99999999999999</ele><time>2026-04-03T14:50:08.999Z</time></trkpt><trkpt lat="42.92298241399721" lon="10.955547152786792"><ele>61.0</ele><time>2026-04-03T14:50:09.999Z</time></trkpt><trkpt lat="42.92307156770024" lon="10.955479910624133"><ele>61.0</ele><time>2026-04-03T14:50:10.999Z</time></trkpt><trkpt lat="42.92314429652608" lon="10.955421727565728"><ele>61.0</ele><time>2026-04-03T14:50:11.999Z</time></trkpt><trkpt lat="42.92318951243432" lon="10.95534828497767"><ele>60.99999999999999</ele><time>2026-04-03T14:50:12.999Z</time></trkpt><trkpt lat="42.92325105763652" lon="10.955310347632095"><ele>61.0</ele><time>2026-04-03T14:50:13.999Z</time></trkpt><trkpt lat="42.92331044698082" lon="10.95524724282381"><ele>60.99999999999999</ele><time>2026-04-03T14:50:14.999Z</time></trkpt><trkpt lat="42.92336927392713" lon="10.95518135663868"><ele>61.0</ele><time>2026-04-03T14:50:15.999Z</time></trkpt><trkpt lat="42.92342286176641" lon="10.955115645501689"><ele>61.0</ele><time>2026-04-03T14:50:16.999Z</time></trkpt><trkpt lat="42.92349263240978" lon="10.955015974959393"><ele>61.0</ele><time>2026-04-03T14:50:18.999Z</time></trkpt><trkpt lat="42.92354368428437" lon="10.95491663595244"><ele>60.99999999999999</ele><time>2026-04-03T14:50:21.999Z</time></trkpt><trkpt lat="42.92358919902609" lon="10.954842487388273"><ele>61.0</ele><time>2026-04-03T14:50:23.999Z</time></trkpt><trkpt lat="42.92363246147371" lon="10.954767829991418"><ele>60.99999999999999</ele><time>2026-04-03T14:50:25.999Z</time></trkpt><trkpt lat="42.923678716270615" lon="10.954702533605863"><ele>61.0</ele><time>2026-04-03T14:50:27.999Z</time></trkpt><trkpt lat="42.923740560475984" lon="10.954637468967226"><ele>61.0</ele><time>2026-04-03T14:50:30.999Z</time></trkpt><trkpt lat="42.923793700441394" lon="10.954559562512687"><ele>61.0</ele><time>2026-04-03T14:50:33.999Z</time></trkpt><trkpt lat="42.92384731141461" lon="10.954462385350382"><ele>60.99999999999999</ele><time>2026-04-03T14:50:36.999Z</time></trkpt><trkpt lat="42.923893757349695" lon="10.954389853870664"><ele>61.0</ele><time>2026-04-03T14:50:39.999Z</time></trkpt><trkpt lat="42.92396024479279" lon="10.954319279703148"><ele>60.99999999999999</ele><time>2026-04-03T14:50:42.999Z</time></trkpt><trkpt lat="42.92401501272565" lon="10.954240706438982"><ele>61.0</ele><time>2026-04-03T14:50:44.999Z</time></trkpt><trkpt lat="42.92408480391139" lon="10.954140579942539"><ele>61.0</ele><time>2026-04-03T14:50:46.999Z</time></trkpt><trkpt lat="42.924133627457735" lon="10.954070534842488"><ele>61.0</ele><time>2026-04-03T14:50:47.999Z</time></trkpt><trkpt lat="42.9241814771646" lon="10.954001886869388"><ele>60.99999999999999</ele><time>2026-04-03T14:50:48.999Z</time></trkpt><trkpt lat="42.92422808182943" lon="10.953935025128615"><ele>61.0</ele><time>2026-04-03T14:50:49.999Z</time></trkpt><trkpt lat="42.92427366690097" lon="10.953856887296551"><ele>58.599999999999994</ele><time>2026-04-03T14:50:50.999Z</time></trkpt><trkpt lat="42.924332937210266" lon="10.953798943072336"><ele>56.199999999999996</ele><time>2026-04-03T14:50:51.999Z</time></trkpt><trkpt lat="42.92439396455225" lon="10.953761196647507"><ele>53.8</ele><time>2026-04-03T14:50:52.999Z</time></trkpt><trkpt lat="42.92449944524413" lon="10.953714695503143"><ele>51.400000000000006</ele><time>2026-04-03T14:50:54.999Z</time></trkpt><trkpt lat="42.92455850121555" lon="10.953654394674185"><ele>49.0</ele><time>2026-04-03T14:50:56.999Z</time></trkpt><trkpt lat="42.924432434589754" lon="10.95347234179289"><ele>48.99999999999999</ele><time>2026-04-03T14:50:58.999Z</time></trkpt><trkpt lat="42.92434153219077" lon="10.953460996131302"><ele>49.0</ele><time>2026-04-03T14:50:59.999Z</time></trkpt><trkpt lat="42.92424395984761" lon="10.953369789420767"><ele>49.0</ele><time>2026-04-03T14:51:01.999Z</time></trkpt><trkpt lat="42.92416752828034" lon="10.953268947835532"><ele>49.0</ele><time>2026-04-03T14:51:03.999Z</time></trkpt><trkpt lat="42.92413904583164" lon="10.95318637901392"><ele>48.99999999999999</ele><time>2026-04-03T14:51:28Z</time></trkpt><trkpt lat="42.924185416505594" lon="10.95312763630006"><ele>49.0</ele><time>2026-04-03T14:51:37Z</time></trkpt><trkpt lat="42.92422366054377" lon="10.95305741559942"><ele>48.83333333333333</ele><time>2026-04-03T14:51:38Z</time></trkpt><trkpt lat="42.92427310734962" lon="10.953003631307544"><ele>48.666666666666664</ele><time>2026-04-03T14:51:39Z</time></trkpt><trkpt lat="42.92432929667797" lon="10.952949539969907"><ele>48.5</ele><time>2026-04-03T14:51:40Z</time></trkpt><trkpt lat="42.92439508670977" lon="10.952877693616129"><ele>48.33333333333333</ele><time>2026-04-03T14:51:41Z</time></trkpt><trkpt lat="42.92447044601424" lon="10.952814411863217"><ele>48.166666666666664</ele><time>2026-04-03T14:51:42Z</time></trkpt><trkpt lat="42.92453202718919" lon="10.952719262170978"><ele>48.0</ele><time>2026-04-03T14:51:43Z</time></trkpt><trkpt lat="42.924606567387194" lon="10.95263735973342"><ele>48.0</ele><time>2026-04-03T14:51:44Z</time></trkpt><trkpt lat="42.92468488331831" lon="10.952545786363265"><ele>48.0</ele><time>2026-04-03T14:51:45Z</time></trkpt><trkpt lat="42.92476615042971" lon="10.952460097789633"><ele>48.0</ele><time>2026-04-03T14:51:46Z</time></trkpt><trkpt lat="42.92485788451121" lon="10.952350871312701"><ele>48.0</ele><time>2026-04-03T14:51:47Z</time></trkpt><trkpt lat="42.924962510197645" lon="10.952234805139627"><ele>51.0</ele><time>2026-04-03T14:51:48Z</time></trkpt><trkpt lat="42.925077922859714" lon="10.952112898404238"><ele>54.0</ele><time>2026-04-03T14:51:49Z</time></trkpt><trkpt lat="42.925193566662905" lon="10.95198833774438"><ele>57.0</ele><time>2026-04-03T14:51:50Z</time></trkpt><trkpt lat="42.925325860359465" lon="10.951860552049773"><ele>54.33333333333333</ele><time>2026-04-03T14:51:51Z</time></trkpt><trkpt lat="42.9254659981886" lon="10.951706858018037"><ele>51.666666666666664</ele><time>2026-04-03T14:51:52Z</time></trkpt><trkpt lat="42.9256031054385" lon="10.95157265015401"><ele>49.0</ele><time>2026-04-03T14:51:53Z</time></trkpt><trkpt lat="42.92575749683416" lon="10.951440324228162"><ele>49.0</ele><time>2026-04-03T14:51:54Z</time></trkpt><trkpt lat="42.92588640553479" lon="10.951296279347835"><ele>49.0</ele><time>2026-04-03T14:51:55Z</time></trkpt><trkpt lat="42.926007161935054" lon="10.951148283620075"><ele>49.0</ele><time>2026-04-03T14:51:56Z</time></trkpt><trkpt lat="42.92614552014464" lon="10.950981759234333"><ele>49.666666666666664</ele><time>2026-04-03T14:51:57Z</time></trkpt><trkpt lat="42.9263031577647" lon="10.950827449764304"><ele>50.33333333333333</ele><time>2026-04-03T14:51:58Z</time></trkpt><trkpt lat="42.92644296938111" lon="10.950648116632443"><ele>51.0</ele><time>2026-04-03T14:51:59Z</time></trkpt><trkpt lat="42.92662283732477" lon="10.95046337719093"><ele>50.33333333333333</ele><time>2026-04-03T14:52:00Z</time></trkpt><trkpt lat="42.92678403767174" lon="10.950284064420416"><ele>49.666666666666664</ele><time>2026-04-03T14:52:01Z</time></trkpt><trkpt lat="42.926947357502584" lon="10.950123695327406"><ele>49.0</ele><time>2026-04-03T14:52:02Z</time></trkpt><trkpt lat="42.92713201617421" lon="10.949950391352633"><ele>49.0</ele><time>2026-04-03T14:52:02.999Z</time></trkpt><trkpt lat="42.927320142142534" lon="10.949771002989603"><ele>49.0</ele><time>2026-04-03T14:52:03.999Z</time></trkpt><trkpt lat="42.927491587977606" lon="10.94960371096824"><ele>49.0</ele><time>2026-04-03T14:52:04.999Z</time></trkpt><trkpt lat="42.927641724244616" lon="10.949481109504177"><ele>49.0</ele><time>2026-04-03T14:52:05.999Z</time></trkpt><trkpt lat="42.92777915437383" lon="10.949371855070646"><ele>49.0</ele><time>2026-04-03T14:52:06.999Z</time></trkpt><trkpt lat="42.92789735470447" lon="10.949262928551406"><ele>49.0</ele><time>2026-04-03T14:52:07.999Z</time></trkpt><trkpt lat="42.9280027299404" lon="10.94917740996055"><ele>49.0</ele><time>2026-04-03T14:52:08.999Z</time></trkpt><trkpt lat="42.928091625092215" lon="10.949115166452303"><ele>48.99999999999999</ele><time>2026-04-03T14:52:09.999Z</time></trkpt><trkpt lat="42.92815176989278" lon="10.949065968069744"><ele>49.0</ele><time>2026-04-03T14:52:10.999Z</time></trkpt><trkpt lat="42.92821572756587" lon="10.949035474167022"><ele>49.0</ele><time>2026-04-03T14:52:31.999Z</time></trkpt><trkpt lat="42.92828203263815" lon="10.948975792152597"><ele>49.0</ele><time>2026-04-03T14:52:33.999Z</time></trkpt><trkpt lat="42.92837328749887" lon="10.948923678566988"><ele>48.99999999999999</ele><time>2026-04-03T14:52:35.999Z</time></trkpt><trkpt lat="42.92847978969649" lon="10.948842500962703"><ele>49.0</ele><time>2026-04-03T14:52:37.999Z</time></trkpt><trkpt lat="42.92853671784158" lon="10.948795898787434"><ele>49.166666666666664</ele><time>2026-04-03T14:52:38.999Z</time></trkpt><trkpt lat="42.92859137521379" lon="10.948751155489608"><ele>49.33333333333333</ele><time>2026-04-03T14:52:39.999Z</time></trkpt><trkpt lat="42.928660451152105" lon="10.94869460894679"><ele>49.5</ele><time>2026-04-03T14:52:40.999Z</time></trkpt><trkpt lat="42.928719625674525" lon="10.948646167891331"><ele>49.66666666666667</ele><time>2026-04-03T14:52:41.999Z</time></trkpt><trkpt lat="42.92878677479973" lon="10.948591198676706"><ele>49.833333333333336</ele><time>2026-04-03T14:52:42.999Z</time></trkpt><trkpt lat="42.92885119077901" lon="10.948538466847141"><ele>50.0</ele><time>2026-04-03T14:52:43.999Z</time></trkpt><trkpt lat="42.92893433361437" lon="10.94846970323891"><ele>50.0</ele><time>2026-04-03T14:52:44.999Z</time></trkpt><trkpt lat="42.929010104834454" lon="10.948406816978595"><ele>50.0</ele><time>2026-04-03T14:52:45.999Z</time></trkpt><trkpt lat="42.929088341514074" lon="10.948341884509881"><ele>50.0</ele><time>2026-04-03T14:52:46.999Z</time></trkpt><trkpt lat="42.92917428441657" lon="10.948270556262818"><ele>50.0</ele><time>2026-04-03T14:52:47.999Z</time></trkpt><trkpt lat="42.929253716237376" lon="10.948205940463872"><ele>50.0</ele><time>2026-04-03T14:52:48.999Z</time></trkpt><trkpt lat="42.9293426140401" lon="10.94812145180387"><ele>50.0</ele><time>2026-04-03T14:52:49.999Z</time></trkpt><trkpt lat="42.92943523481556" lon="10.948056487542202"><ele>50.0</ele><time>2026-04-03T14:52:50.999Z</time></trkpt><trkpt lat="42.92952690190289" lon="10.947990175494137"><ele>50.0</ele><time>2026-04-03T14:52:51.999Z</time></trkpt><trkpt lat="42.92961820253079" lon="10.947922023848163"><ele>50.0</ele><time>2026-04-03T14:52:52.999Z</time></trkpt><trkpt lat="42.929711307336596" lon="10.94785931971005"><ele>50.0</ele><time>2026-04-03T14:52:53.999Z</time></trkpt><trkpt lat="42.92980776729959" lon="10.947798658798227"><ele>50.0</ele><time>2026-04-03T14:52:54.999Z</time></trkpt><trkpt lat="42.92989958197958" lon="10.947734913153347"><ele>50.0</ele><time>2026-04-03T14:52:55.999Z</time></trkpt><trkpt lat="42.92999345074699" lon="10.947673016293658"><ele>50.0</ele><time>2026-04-03T14:52:56.999Z</time></trkpt><trkpt lat="42.93009127444034" lon="10.947602766198978"><ele>50.0</ele><time>2026-04-03T14:52:57.999Z</time></trkpt><trkpt lat="42.930191001507865" lon="10.947539624261625"><ele>50.0</ele><time>2026-04-03T14:52:58.999Z</time></trkpt><trkpt lat="42.930296633429386" lon="10.947474186848874"><ele>50.0</ele><time>2026-04-03T14:52:59.999Z</time></trkpt><trkpt lat="42.93039810892442" lon="10.94741021791128"><ele>50.0</ele><time>2026-04-03T14:53:00.999Z</time></trkpt><trkpt lat="42.930504303714585" lon="10.947341689742835"><ele>50.0</ele><time>2026-04-03T14:53:01.999Z</time></trkpt><trkpt lat="42.930614805300635" lon="10.94727705327899"><ele>50.0</ele><time>2026-04-03T14:53:02.999Z</time></trkpt><trkpt lat="42.93072605899015" lon="10.947214914491443"><ele>50.0</ele><time>2026-04-03T14:53:03.999Z</time></trkpt><trkpt lat="42.930839438387935" lon="10.947154803801169"><ele>50.0</ele><time>2026-04-03T14:53:04.999Z</time></trkpt><trkpt lat="42.930946344338324" lon="10.947097279849638"><ele>50.0</ele><time>2026-04-03T14:53:05.999Z</time></trkpt><trkpt lat="42.93105418943808" lon="10.947035347558016"><ele>50.0</ele><time>2026-04-03T14:53:06.999Z</time></trkpt><trkpt lat="42.93115278260446" lon="10.946976989471167"><ele>50.16666666666667</ele><time>2026-04-03T14:53:07.999Z</time></trkpt><trkpt lat="42.931236342324254" lon="10.946931294519691"><ele>50.333333333333336</ele><time>2026-04-03T14:53:08.999Z</time></trkpt><trkpt lat="42.93131483805776" lon="10.946893617019375"><ele>50.5</ele><time>2026-04-03T14:53:09.999Z</time></trkpt><trkpt lat="42.93138256532617" lon="10.94685769946275"><ele>50.66666666666667</ele><time>2026-04-03T14:53:10.999Z</time></trkpt><trkpt lat="42.9314874825659" lon="10.946811738024067"><ele>50.833333333333336</ele><time>2026-04-03T14:53:12.999Z</time></trkpt><trkpt lat="42.9315497567757" lon="10.94678940050238"><ele>51.0</ele><time>2026-04-03T14:53:17Z</time></trkpt><trkpt lat="42.93161137175272" lon="10.946749190788031"><ele>51.0</ele><time>2026-04-03T14:53:19Z</time></trkpt><trkpt lat="42.93171934229389" lon="10.946694146994453"><ele>51.0</ele><time>2026-04-03T14:53:21Z</time></trkpt><trkpt lat="42.93178273873436" lon="10.946666508294749"><ele>51.0</ele><time>2026-04-03T14:53:22Z</time></trkpt><trkpt lat="42.931843090035905" lon="10.946640204411318"><ele>51.0</ele><time>2026-04-03T14:53:23Z</time></trkpt><trkpt lat="42.93197446149866" lon="10.946583802258552"><ele>51.0</ele><time>2026-04-03T14:53:25Z</time></trkpt><trkpt lat="42.93205881572841" lon="10.946551105742252"><ele>51.8</ele><time>2026-04-03T14:53:26Z</time></trkpt><trkpt lat="42.93215163316978" lon="10.946504008928583"><ele>52.599999999999994</ele><time>2026-04-03T14:53:27Z</time></trkpt><trkpt lat="42.932241566618345" lon="10.946464356183936"><ele>53.4</ele><time>2026-04-03T14:53:28Z</time></trkpt><trkpt lat="42.93232735635853" lon="10.946425892539157"><ele>54.2</ele><time>2026-04-03T14:53:29Z</time></trkpt><trkpt lat="42.93242026284946" lon="10.946383496511682"><ele>55.0</ele><time>2026-04-03T14:53:30Z</time></trkpt><trkpt lat="42.932531870437934" lon="10.946328320560209"><ele>55.25</ele><time>2026-04-03T14:53:31Z</time></trkpt><trkpt lat="42.9326488769239" lon="10.946275239849825"><ele>55.5</ele><time>2026-04-03T14:53:32Z</time></trkpt><trkpt lat="42.93275880664122" lon="10.946223057068316"><ele>55.75</ele><time>2026-04-03T14:53:33Z</time></trkpt><trkpt lat="42.932872605840764" lon="10.946169366844915"><ele>56.0</ele><time>2026-04-03T14:53:34Z</time></trkpt><trkpt lat="42.932984521627944" lon="10.946115108835443"><ele>56.0</ele><time>2026-04-03T14:53:35Z</time></trkpt><trkpt lat="42.933102351900544" lon="10.946064355206646"><ele>56.0</ele><time>2026-04-03T14:53:36Z</time></trkpt><trkpt lat="42.93322881152346" lon="10.946008885304673"><ele>56.0</ele><time>2026-04-03T14:53:37Z</time></trkpt><trkpt lat="42.9333653556076" lon="10.945950150468548"><ele>56.0</ele><time>2026-04-03T14:53:38Z</time></trkpt><trkpt lat="42.9335148425944" lon="10.945883930438256"><ele>56.333333333333336</ele><time>2026-04-03T14:53:39Z</time></trkpt><trkpt lat="42.93367520955481" lon="10.94581002284796"><ele>56.66666666666667</ele><time>2026-04-03T14:53:40Z</time></trkpt><trkpt lat="42.93383061420006" lon="10.945736217627758"><ele>57.0</ele><time>2026-04-03T14:53:41Z</time></trkpt><trkpt lat="42.93397353545772" lon="10.945669609780897"><ele>57.0</ele><time>2026-04-03T14:53:42Z</time></trkpt><trkpt lat="42.93409448680067" lon="10.945615690420523"><ele>57.0</ele><time>2026-04-03T14:53:43Z</time></trkpt><trkpt lat="42.934211727278694" lon="10.94555834131571"><ele>57.0</ele><time>2026-04-03T14:53:44Z</time></trkpt><trkpt lat="42.934327259615" lon="10.945502181071227"><ele>57.0</ele><time>2026-04-03T14:53:45Z</time></trkpt><trkpt lat="42.93443899606026" lon="10.945455493302518"><ele>57.0</ele><time>2026-04-03T14:53:46Z</time></trkpt><trkpt lat="42.93455581512299" lon="10.945398449793442"><ele>57.0</ele><time>2026-04-03T14:53:47Z</time></trkpt><trkpt lat="42.934672191827445" lon="10.945342546326318"><ele>57.0</ele><time>2026-04-03T14:53:48Z</time></trkpt><trkpt lat="42.934793601928114" lon="10.945271097000296"><ele>57.0</ele><time>2026-04-03T14:53:49Z</time></trkpt><trkpt lat="42.9349348381454" lon="10.945228708448743"><ele>57.75</ele><time>2026-04-03T14:53:50Z</time></trkpt><trkpt lat="42.93506997311798" lon="10.94516902279805"><ele>58.5</ele><time>2026-04-03T14:53:51Z</time></trkpt><trkpt lat="42.9352000282498" lon="10.945111580766225"><ele>59.25</ele><time>2026-04-03T14:53:52Z</time></trkpt><trkpt lat="42.93533149652768" lon="10.945053436174371"><ele>60.0</ele><time>2026-04-03T14:53:53Z</time></trkpt><trkpt lat="42.93545297985584" lon="10.94499810448959"><ele>60.0</ele><time>2026-04-03T14:53:54Z</time></trkpt><trkpt lat="42.935580889967646" lon="10.944940432531109"><ele>60.0</ele><time>2026-04-03T14:53:55Z</time></trkpt><trkpt lat="42.93570311903653" lon="10.94488729535246"><ele>60.0</ele><time>2026-04-03T14:53:56Z</time></trkpt><trkpt lat="42.93582506486703" lon="10.94483428124626"><ele>60.0</ele><time>2026-04-03T14:53:57Z</time></trkpt><trkpt lat="42.935942509663995" lon="10.944783223924217"><ele>60.25</ele><time>2026-04-03T14:53:58Z</time></trkpt><trkpt lat="42.93605648373918" lon="10.944732401467492"><ele>60.5</ele><time>2026-04-03T14:53:59Z</time></trkpt><trkpt lat="42.9361678175207" lon="10.944681000827972"><ele>60.75</ele><time>2026-04-03T14:54:00Z</time></trkpt><trkpt lat="42.936275305133584" lon="10.944617343369718"><ele>61.0</ele><time>2026-04-03T14:54:01Z</time></trkpt><trkpt lat="42.93637851966467" lon="10.944570275846102"><ele>61.0</ele><time>2026-04-03T14:54:02Z</time></trkpt><trkpt lat="42.936476971443405" lon="10.94453554910274"><ele>60.99999999999999</ele><time>2026-04-03T14:54:03Z</time></trkpt><trkpt lat="42.93658551011848" lon="10.944520533280578"><ele>60.99999999999999</ele><time>2026-04-03T14:54:04Z</time></trkpt><trkpt lat="42.93669456433672" lon="10.94449961776134"><ele>61.0</ele><time>2026-04-03T14:54:05Z</time></trkpt><trkpt lat="42.93680600443455" lon="10.944490100767505"><ele>61.0</ele><time>2026-04-03T14:54:06Z</time></trkpt><trkpt lat="42.93691989123886" lon="10.94449383435527"><ele>61.199999999999996</ele><time>2026-04-03T14:54:07Z</time></trkpt><trkpt lat="42.937030409866665" lon="10.944496984790705"><ele>61.39999999999999</ele><time>2026-04-03T14:54:08Z</time></trkpt><trkpt lat="42.93713375373602" lon="10.944484894584184"><ele>61.6</ele><time>2026-04-03T14:54:09Z</time></trkpt><trkpt lat="42.9372407833191" lon="10.94445154317125"><ele>61.8</ele><time>2026-04-03T14:54:10Z</time></trkpt><trkpt lat="42.93734809608308" lon="10.944412973443942"><ele>62.0</ele><time>2026-04-03T14:54:11Z</time></trkpt><trkpt lat="42.93746258861578" lon="10.944368223984764"><ele>62.25</ele><time>2026-04-03T14:54:12Z</time></trkpt><trkpt lat="42.937577531031216" lon="10.944324376798086"><ele>62.5</ele><time>2026-04-03T14:54:13Z</time></trkpt><trkpt lat="42.93768713404992" lon="10.944279156865306"><ele>62.75</ele><time>2026-04-03T14:54:14Z</time></trkpt><trkpt lat="42.93779526129472" lon="10.944227350267296"><ele>63.0</ele><time>2026-04-03T14:54:15Z</time></trkpt><trkpt lat="42.937894355158065" lon="10.94417261891182"><ele>63.0</ele><time>2026-04-03T14:54:16Z</time></trkpt><trkpt lat="42.93799543359422" lon="10.944112128479242"><ele>63.0</ele><time>2026-04-03T14:54:17Z</time></trkpt><trkpt lat="42.938097536160086" lon="10.943990311618798"><ele>63.0</ele><time>2026-04-03T14:54:18Z</time></trkpt><trkpt lat="42.93823702235221" lon="10.943908334288547"><ele>63.0</ele><time>2026-04-03T14:54:19Z</time></trkpt><trkpt lat="42.93841497183024" lon="10.943855323790048"><ele>64.66666666666667</ele><time>2026-04-03T14:54:20Z</time></trkpt><trkpt lat="42.938608293082495" lon="10.943792508448151"><ele>66.33333333333334</ele><time>2026-04-03T14:54:21Z</time></trkpt><trkpt lat="42.93880786831634" lon="10.943714523866921"><ele>68.0</ele><time>2026-04-03T14:54:22Z</time></trkpt><trkpt lat="42.9390091617579" lon="10.943638372964871"><ele>71.5</ele><time>2026-04-03T14:54:23Z</time></trkpt><trkpt lat="42.93923128556268" lon="10.943561786528482"><ele>75.0</ele><time>2026-04-03T14:54:24Z</time></trkpt><trkpt lat="42.93946416517299" lon="10.943478463094387"><ele>75.0</ele><time>2026-04-03T14:54:25Z</time></trkpt><trkpt lat="42.939721594237994" lon="10.943381442585144"><ele>75.0</ele><time>2026-04-03T14:54:26Z</time></trkpt><trkpt lat="42.93994018406085" lon="10.943304914748586"><ele>72.5</ele><time>2026-04-03T14:54:27Z</time></trkpt><trkpt lat="42.94009757982693" lon="10.943248562622713"><ele>70.0</ele><time>2026-04-03T14:54:28Z</time></trkpt><trkpt lat="42.94023314288168" lon="10.943210114795908"><ele>67.5</ele><time>2026-04-03T14:54:29Z</time></trkpt><trkpt lat="42.94033432775586" lon="10.94318228462862"><ele>65.0</ele><time>2026-04-03T14:54:30Z</time></trkpt><trkpt lat="42.94042157688393" lon="10.943164938005069"><ele>65.00000000000001</ele><time>2026-04-03T14:54:31Z</time></trkpt><trkpt lat="42.94049667539661" lon="10.943146891444883"><ele>65.0</ele><time>2026-04-03T14:54:32Z</time></trkpt><trkpt lat="42.940559979882835" lon="10.943132024983118"><ele>65.0</ele><time>2026-04-03T14:54:33Z</time></trkpt><trkpt lat="42.94062242030312" lon="10.94311874064818"><ele>65.0</ele><time>2026-04-03T14:54:34Z</time></trkpt><trkpt lat="42.94069881863119" lon="10.94309989269745"><ele>65.0</ele><time>2026-04-03T14:54:35Z</time></trkpt><trkpt lat="42.9407705082574" lon="10.943083034511691"><ele>65.00000000000001</ele><time>2026-04-03T14:54:36Z</time></trkpt><trkpt lat="42.940837471250816" lon="10.94307259103663"><ele>65.0</ele><time>2026-04-03T14:54:37Z</time></trkpt><trkpt lat="42.94090021987935" lon="10.94306139599536"><ele>65.0</ele><time>2026-04-03T14:54:39Z</time></trkpt><trkpt lat="42.94089394426133" lon="10.94291184451425"><ele>65.0</ele><time>2026-04-03T14:55:42Z</time></trkpt><trkpt lat="42.94084947350616" lon="10.94284252632052"><ele>65.0</ele><time>2026-04-03T14:55:43Z</time></trkpt><trkpt lat="42.94083838346288" lon="10.942750841134346"><ele>65.0</ele><time>2026-04-03T14:55:44Z</time></trkpt><trkpt lat="42.940812321442465" lon="10.942659827177943"><ele>65.0</ele><time>2026-04-03T14:55:45Z</time></trkpt><trkpt lat="42.94078738239501" lon="10.942549472091343"><ele>65.0</ele><time>2026-04-03T14:55:46Z</time></trkpt><trkpt lat="42.94074319839104" lon="10.94243704239065"><ele>64.16666666666667</ele><time>2026-04-03T14:55:47Z</time></trkpt><trkpt lat="42.940716587224706" lon="10.942255611814277"><ele>63.333333333333336</ele><time>2026-04-03T14:55:49Z</time></trkpt><trkpt lat="42.940683328493186" lon="10.942167346136426"><ele>62.5</ele><time>2026-04-03T14:55:50Z</time></trkpt><trkpt lat="42.94067665345763" lon="10.942064918278303"><ele>61.66666666666667</ele><time>2026-04-03T14:55:51Z</time></trkpt><trkpt lat="42.94066187284717" lon="10.941954685277103"><ele>60.833333333333336</ele><time>2026-04-03T14:55:52Z</time></trkpt><trkpt lat="42.940638744498" lon="10.941859824274184"><ele>60.0</ele><time>2026-04-03T14:55:53Z</time></trkpt><trkpt lat="42.94063821746454" lon="10.94176088853133"><ele>60.0</ele><time>2026-04-03T14:55:54Z</time></trkpt><trkpt lat="42.940631845522574" lon="10.941657011422278"><ele>60.0</ele><time>2026-04-03T14:55:55Z</time></trkpt><trkpt lat="42.940630057624226" lon="10.941551415694084"><ele>60.0</ele><time>2026-04-03T14:55:56Z</time></trkpt><trkpt lat="42.940627110559156" lon="10.941446291810914"><ele>60.0</ele><time>2026-04-03T14:55:57Z</time></trkpt><trkpt lat="42.9406173843635" lon="10.94134915177377"><ele>60.0</ele><time>2026-04-03T14:55:58Z</time></trkpt><trkpt lat="42.940612050066875" lon="10.941248981816864"><ele>60.0</ele><time>2026-04-03T14:55:59Z</time></trkpt><trkpt lat="42.94062303864324" lon="10.941147861935088"><ele>60.0</ele><time>2026-04-03T14:56:00Z</time></trkpt><trkpt lat="42.94060573884111" lon="10.941003142126934"><ele>60.0</ele><time>2026-04-03T14:56:02Z</time></trkpt><trkpt lat="42.940624876416265" lon="10.940918985084917"><ele>60.0</ele><time>2026-04-03T14:56:05Z</time></trkpt><trkpt lat="42.94075511676217" lon="10.940874011218005"><ele>60.0</ele><time>2026-04-03T14:56:08Z</time></trkpt><trkpt lat="42.94086784914434" lon="10.940866123524017"><ele>60.0</ele><time>2026-04-03T14:56:10Z</time></trkpt><trkpt lat="42.940937485850355" lon="10.94084675685938"><ele>60.666666666666664</ele><time>2026-04-03T14:56:11Z</time></trkpt><trkpt lat="42.94101461801616" lon="10.940828604139918"><ele>61.33333333333333</ele><time>2026-04-03T14:56:12Z</time></trkpt><trkpt lat="42.941096818501364" lon="10.940815876033973"><ele>62.0</ele><time>2026-04-03T14:56:13Z</time></trkpt><trkpt lat="42.941176505692475" lon="10.940802580748809"><ele>62.666666666666664</ele><time>2026-04-03T14:56:14Z</time></trkpt><trkpt lat="42.9412594672993" lon="10.940786184173072"><ele>63.33333333333333</ele><time>2026-04-03T14:56:15Z</time></trkpt><trkpt lat="42.9413426125183" lon="10.940771545961928"><ele>64.0</ele><time>2026-04-03T14:56:16Z</time></trkpt><trkpt lat="42.941436079362695" lon="10.940755470420992"><ele>64.0</ele><time>2026-04-03T14:56:17Z</time></trkpt><trkpt lat="42.941530956729096" lon="10.940739774919555"><ele>64.0</ele><time>2026-04-03T14:56:18Z</time></trkpt><trkpt lat="42.941630820329955" lon="10.94072259040811"><ele>64.0</ele><time>2026-04-03T14:56:19Z</time></trkpt><trkpt lat="42.94173604077549" lon="10.9407006060668"><ele>64.0</ele><time>2026-04-03T14:56:20Z</time></trkpt><trkpt lat="42.941831015133786" lon="10.940678794649351"><ele>64.0</ele><time>2026-04-03T14:56:21Z</time></trkpt><trkpt lat="42.94192329986353" lon="10.940657336862332"><ele>64.25</ele><time>2026-04-03T14:56:22Z</time></trkpt><trkpt lat="42.94201871463018" lon="10.940637428431547"><ele>64.5</ele><time>2026-04-03T14:56:23Z</time></trkpt><trkpt lat="42.94211549281993" lon="10.94061864633417"><ele>64.75</ele><time>2026-04-03T14:56:24Z</time></trkpt><trkpt lat="42.94228205516998" lon="10.940593070006964"><ele>65.0</ele><time>2026-04-03T14:56:25Z</time></trkpt><trkpt lat="42.94240335377302" lon="10.94057085830365"><ele>65.0</ele><time>2026-04-03T14:56:26Z</time></trkpt><trkpt lat="42.94253066013385" lon="10.940547979700991"><ele>65.0</ele><time>2026-04-03T14:56:27Z</time></trkpt><trkpt lat="42.94266117879924" lon="10.940525217046533"><ele>65.0</ele><time>2026-04-03T14:56:28Z</time></trkpt><trkpt lat="42.942788081704784" lon="10.94050101743387"><ele>65.0</ele><time>2026-04-03T14:56:29Z</time></trkpt><trkpt lat="42.94291332959654" lon="10.94047808236427"><ele>65.0</ele><time>2026-04-03T14:56:30Z</time></trkpt><trkpt lat="42.94303196641724" lon="10.940458127443096"><ele>65.0</ele><time>2026-04-03T14:56:31Z</time></trkpt><trkpt lat="42.9431515134652" lon="10.94043762216486"><ele>65.0</ele><time>2026-04-03T14:56:32Z</time></trkpt><trkpt lat="42.94327299158323" lon="10.94041439219508"><ele>65.0</ele><time>2026-04-03T14:56:33Z</time></trkpt><trkpt lat="42.943393291258374" lon="10.940394057800043"><ele>66.0</ele><time>2026-04-03T14:56:34Z</time></trkpt><trkpt lat="42.943514156931435" lon="10.940372589004724"><ele>67.0</ele><time>2026-04-03T14:56:35Z</time></trkpt><trkpt lat="42.94363543474631" lon="10.940346825077855"><ele>68.0</ele><time>2026-04-03T14:56:36Z</time></trkpt><trkpt lat="42.94375780449248" lon="10.940320051690104"><ele>69.0</ele><time>2026-04-03T14:56:37Z</time></trkpt><trkpt lat="42.943871368958916" lon="10.940291517433128"><ele>69.0</ele><time>2026-04-03T14:56:38Z</time></trkpt><trkpt lat="42.94397982469715" lon="10.940260954373395"><ele>69.0</ele><time>2026-04-03T14:56:39Z</time></trkpt><trkpt lat="42.94414359736713" lon="10.94022521947576"><ele>69.0</ele><time>2026-04-03T14:56:39.999Z</time></trkpt><trkpt lat="42.9442677551585" lon="10.940171570417197"><ele>69.0</ele><time>2026-04-03T14:56:40.999Z</time></trkpt><trkpt lat="42.94438653390353" lon="10.940101433538302"><ele>68.75</ele><time>2026-04-03T14:56:41.999Z</time></trkpt><trkpt lat="42.9445039282853" lon="10.940012468699464"><ele>68.5</ele><time>2026-04-03T14:56:42.999Z</time></trkpt><trkpt lat="42.94461505377924" lon="10.939913111158996"><ele>68.25</ele><time>2026-04-03T14:56:43.999Z</time></trkpt><trkpt lat="42.94471752508536" lon="10.939795771091788"><ele>68.0</ele><time>2026-04-03T14:56:44.999Z</time></trkpt><trkpt lat="42.944817951927774" lon="10.93966620021622"><ele>68.0</ele><time>2026-04-03T14:56:45.999Z</time></trkpt><trkpt lat="42.94491345981457" lon="10.939525594642758"><ele>68.0</ele><time>2026-04-03T14:56:46.999Z</time></trkpt><trkpt lat="42.94500691237006" lon="10.939387601898574"><ele>68.0</ele><time>2026-04-03T14:56:47.999Z</time></trkpt><trkpt lat="42.945105955558816" lon="10.939247531962012"><ele>68.0</ele><time>2026-04-03T14:56:48.999Z</time></trkpt><trkpt lat="42.9452031584765" lon="10.939111423336305"><ele>68.75</ele><time>2026-04-03T14:56:49.999Z</time></trkpt><trkpt lat="42.945303664281795" lon="10.938976099473892"><ele>69.5</ele><time>2026-04-03T14:56:50.999Z</time></trkpt><trkpt lat="42.94540692508089" lon="10.938834533134228"><ele>70.25</ele><time>2026-04-03T14:56:51.999Z</time></trkpt><trkpt lat="42.94550566659162" lon="10.938694358494436"><ele>71.0</ele><time>2026-04-03T14:56:52.999Z</time></trkpt><trkpt lat="42.945605143979456" lon="10.938554608679071"><ele>71.0</ele><time>2026-04-03T14:56:53.999Z</time></trkpt><trkpt lat="42.945702183844915" lon="10.938413850805091"><ele>71.0</ele><time>2026-04-03T14:56:54.999Z</time></trkpt><trkpt lat="42.945800635639" lon="10.93827849741648"><ele>71.0</ele><time>2026-04-03T14:56:55.999Z</time></trkpt><trkpt lat="42.945902350596064" lon="10.938138659703826"><ele>71.0</ele><time>2026-04-03T14:56:56.999Z</time></trkpt><trkpt lat="42.94600494263434" lon="10.938002004361472"><ele>71.5</ele><time>2026-04-03T14:56:57.999Z</time></trkpt><trkpt lat="42.946100461177444" lon="10.937857016114785"><ele>72.0</ele><time>2026-04-03T14:56:58.999Z</time></trkpt><trkpt lat="42.94619887008538" lon="10.937719505292078"><ele>72.5</ele><time>2026-04-03T14:56:59.999Z</time></trkpt><trkpt lat="42.94629068844492" lon="10.937571497317963"><ele>73.0</ele><time>2026-04-03T14:57:00.999Z</time></trkpt><trkpt lat="42.94637691933925" lon="10.93742492625234"><ele>73.0</ele><time>2026-04-03T14:57:01.999Z</time></trkpt><trkpt lat="42.946468798101336" lon="10.937272854386686"><ele>73.0</ele><time>2026-04-03T14:57:02.999Z</time></trkpt><trkpt lat="42.94655584264947" lon="10.93711642852625"><ele>73.0</ele><time>2026-04-03T14:57:03.999Z</time></trkpt><trkpt lat="42.946644812401" lon="10.936965511954618"><ele>73.0</ele><time>2026-04-03T14:57:04.999Z</time></trkpt><trkpt lat="42.94672615251526" lon="10.936803758409487"><ele>74.0</ele><time>2026-04-03T14:57:05.999Z</time></trkpt><trkpt lat="42.94680446845601" lon="10.93663798433231"><ele>75.0</ele><time>2026-04-03T14:57:06.999Z</time></trkpt><trkpt lat="42.94688510078548" lon="10.936474855741622"><ele>76.0</ele><time>2026-04-03T14:57:07.999Z</time></trkpt><trkpt lat="42.946959503497744" lon="10.936305779123408"><ele>77.0</ele><time>2026-04-03T14:57:08.999Z</time></trkpt><trkpt lat="42.94702676415146" lon="10.936130847051935"><ele>77.0</ele><time>2026-04-03T14:57:09.999Z</time></trkpt><trkpt lat="42.9470890309779" lon="10.935954134377909"><ele>77.0</ele><time>2026-04-03T14:57:10.999Z</time></trkpt><trkpt lat="42.94715501522103" lon="10.935780140800645"><ele>77.0</ele><time>2026-04-03T14:57:11.999Z</time></trkpt><trkpt lat="42.947216369638284" lon="10.93560492333946"><ele>77.0</ele><time>2026-04-03T14:57:12.999Z</time></trkpt><trkpt lat="42.94727997495857" lon="10.935440718521857"><ele>76.75</ele><time>2026-04-03T14:57:13.999Z</time></trkpt><trkpt lat="42.94733855722021" lon="10.935269696757478"><ele>76.5</ele><time>2026-04-03T14:57:14.999Z</time></trkpt><trkpt lat="42.94739809778451" lon="10.935098981628451"><ele>76.25</ele><time>2026-04-03T14:57:15.999Z</time></trkpt><trkpt lat="42.947456254818945" lon="10.934926940799212"><ele>76.0</ele><time>2026-04-03T14:57:16.999Z</time></trkpt><trkpt lat="42.94751423151738" lon="10.934755960790811"><ele>76.5</ele><time>2026-04-03T14:57:17.999Z</time></trkpt><trkpt lat="42.94757190992851" lon="10.934579924969826"><ele>77.0</ele><time>2026-04-03T14:57:18.999Z</time></trkpt><trkpt lat="42.947628513427915" lon="10.934397905851235"><ele>77.5</ele><time>2026-04-03T14:57:19.999Z</time></trkpt><trkpt lat="42.947673569500495" lon="10.934206321207002"><ele>78.0</ele><time>2026-04-03T14:57:20.999Z</time></trkpt><trkpt lat="42.94773104416071" lon="10.93401768113715"><ele>77.25</ele><time>2026-04-03T14:57:21.999Z</time></trkpt><trkpt lat="42.94777583406673" lon="10.93383081889398"><ele>76.5</ele><time>2026-04-03T14:57:22.999Z</time></trkpt><trkpt lat="42.9478205332529" lon="10.933643319735577"><ele>75.75</ele><time>2026-04-03T14:57:23.999Z</time></trkpt><trkpt lat="42.94786598805887" lon="10.933451332783903"><ele>75.0</ele><time>2026-04-03T14:57:24.999Z</time></trkpt><trkpt lat="42.94791171950095" lon="10.933260342320255"><ele>75.0</ele><time>2026-04-03T14:57:26Z</time></trkpt><trkpt lat="42.94796569589995" lon="10.933070403078936"><ele>75.0</ele><time>2026-04-03T14:57:27Z</time></trkpt><trkpt lat="42.94801018158062" lon="10.932875063268128"><ele>75.0</ele><time>2026-04-03T14:57:28Z</time></trkpt><trkpt lat="42.94805386586701" lon="10.932674529699108"><ele>74.75</ele><time>2026-04-03T14:57:29Z</time></trkpt><trkpt lat="42.948099544018014" lon="10.93247506658239"><ele>74.5</ele><time>2026-04-03T14:57:30Z</time></trkpt><trkpt lat="42.94814722752359" lon="10.93228589999916"><ele>74.25</ele><time>2026-04-03T14:57:31Z</time></trkpt><trkpt lat="42.948195945140945" lon="10.93210487021192"><ele>74.0</ele><time>2026-04-03T14:57:32Z</time></trkpt><trkpt lat="42.94823770642905" lon="10.931910607196901"><ele>74.0</ele><time>2026-04-03T14:57:33Z</time></trkpt><trkpt lat="42.94828162261718" lon="10.931714261383249"><ele>74.0</ele><time>2026-04-03T14:57:34Z</time></trkpt><trkpt lat="42.94832272636294" lon="10.931518546610352"><ele>74.0</ele><time>2026-04-03T14:57:35Z</time></trkpt><trkpt lat="42.94837093855484" lon="10.931330042363362"><ele>74.0</ele><time>2026-04-03T14:57:36Z</time></trkpt><trkpt lat="42.948421263633996" lon="10.931133472790087"><ele>74.0</ele><time>2026-04-03T14:57:37Z</time></trkpt><trkpt lat="42.94847126869319" lon="10.930934572658229"><ele>74.0</ele><time>2026-04-03T14:57:38Z</time></trkpt><trkpt lat="42.94851972347391" lon="10.930733125716264"><ele>74.0</ele><time>2026-04-03T14:57:39Z</time></trkpt><trkpt lat="42.94856360517766" lon="10.930525172522941"><ele>74.0</ele><time>2026-04-03T14:57:40Z</time></trkpt><trkpt lat="42.94861003385722" lon="10.930313595456"><ele>74.0</ele><time>2026-04-03T14:57:41Z</time></trkpt><trkpt lat="42.94865604512407" lon="10.930113828445686"><ele>74.0</ele><time>2026-04-03T14:57:42Z</time></trkpt><trkpt lat="42.94869466667984" lon="10.929915985095136"><ele>73.66666666666667</ele><time>2026-04-03T14:57:43Z</time></trkpt><trkpt lat="42.94872552428334" lon="10.929712441936307"><ele>73.33333333333333</ele><time>2026-04-03T14:57:44Z</time></trkpt><trkpt lat="42.94874912428457" lon="10.929508589436372"><ele>73.0</ele><time>2026-04-03T14:57:45Z</time></trkpt><trkpt lat="42.948765694592645" lon="10.929296977291758"><ele>73.0</ele><time>2026-04-03T14:57:46Z</time></trkpt><trkpt lat="42.94877731330298" lon="10.929073745441764"><ele>73.0</ele><time>2026-04-03T14:57:47Z</time></trkpt><trkpt lat="42.948785388139434" lon="10.928844097926797"><ele>73.0</ele><time>2026-04-03T14:57:48Z</time></trkpt><trkpt lat="42.94880376068357" lon="10.928634590158275"><ele>73.0</ele><time>2026-04-03T14:57:49Z</time></trkpt><trkpt lat="42.94881419721995" lon="10.928405345239652"><ele>73.0</ele><time>2026-04-03T14:57:50Z</time></trkpt><trkpt lat="42.94882316730157" lon="10.928178845741348"><ele>73.0</ele><time>2026-04-03T14:57:51Z</time></trkpt><trkpt lat="42.94883471437339" lon="10.92796315089824"><ele>72.33333333333333</ele><time>2026-04-03T14:57:52Z</time></trkpt><trkpt lat="42.94884544675286" lon="10.927738431844473"><ele>71.66666666666667</ele><time>2026-04-03T14:57:53Z</time></trkpt><trkpt lat="42.94885967292483" lon="10.927515846918851"><ele>71.0</ele><time>2026-04-03T14:57:54Z</time></trkpt><trkpt lat="42.94887341890251" lon="10.92729363651986"><ele>70.0</ele><time>2026-04-03T14:57:55Z</time></trkpt><trkpt lat="42.948886934619765" lon="10.927075258926592"><ele>69.0</ele><time>2026-04-03T14:57:56Z</time></trkpt><trkpt lat="42.948897686627504" lon="10.92685131245275"><ele>68.0</ele><time>2026-04-03T14:57:57Z</time></trkpt><trkpt lat="42.94890993251144" lon="10.926634885948083"><ele>68.0</ele><time>2026-04-03T14:57:58Z</time></trkpt><trkpt lat="42.94892230403305" lon="10.92640427200514"><ele>68.0</ele><time>2026-04-03T14:57:59Z</time></trkpt><trkpt lat="42.94893749643695" lon="10.926184949973834"><ele>68.0</ele><time>2026-04-03T14:58:00Z</time></trkpt><trkpt lat="42.94895350740622" lon="10.925963451285506"><ele>67.66666666666667</ele><time>2026-04-03T14:58:01Z</time></trkpt><trkpt lat="42.94896620413942" lon="10.925734102786514"><ele>67.33333333333333</ele><time>2026-04-03T14:58:02Z</time></trkpt><trkpt lat="42.948980164485086" lon="10.925512043891505"><ele>67.0</ele><time>2026-04-03T14:58:03Z</time></trkpt><trkpt lat="42.94899135401808" lon="10.925289226612088"><ele>66.66666666666666</ele><time>2026-04-03T14:58:04Z</time></trkpt><trkpt lat="42.94900291946403" lon="10.925051289052027"><ele>66.33333333333333</ele><time>2026-04-03T14:58:05Z</time></trkpt><trkpt lat="42.94901621120328" lon="10.92483408277074"><ele>66.0</ele><time>2026-04-03T14:58:06Z</time></trkpt><trkpt lat="42.94902804669874" lon="10.924607888822633"><ele>66.0</ele><time>2026-04-03T14:58:07Z</time></trkpt><trkpt lat="42.94904205090908" lon="10.924377437565335"><ele>66.0</ele><time>2026-04-03T14:58:08Z</time></trkpt><trkpt lat="42.94905703834486" lon="10.92415421834908"><ele>66.0</ele><time>2026-04-03T14:58:09Z</time></trkpt><trkpt lat="42.94907110929149" lon="10.92392004639458"><ele>65.33333333333333</ele><time>2026-04-03T14:58:10Z</time></trkpt><trkpt lat="42.94908285614702" lon="10.923686975121402"><ele>64.66666666666666</ele><time>2026-04-03T14:58:11Z</time></trkpt><trkpt lat="42.94909530810524" lon="10.92346574151934"><ele>64.0</ele><time>2026-04-03T14:58:12Z</time></trkpt><trkpt lat="42.94910731406809" lon="10.923237042491417"><ele>64.0</ele><time>2026-04-03T14:58:13Z</time></trkpt><trkpt lat="42.94911977348585" lon="10.922997686919725"><ele>64.0</ele><time>2026-04-03T14:58:14Z</time></trkpt><trkpt lat="42.94913212546854" lon="10.922770875217198"><ele>64.0</ele><time>2026-04-03T14:58:15Z</time></trkpt><trkpt lat="42.94914464662655" lon="10.922555606519927"><ele>64.0</ele><time>2026-04-03T14:58:16Z</time></trkpt><trkpt lat="42.94915918943315" lon="10.922317777803753"><ele>64.0</ele><time>2026-04-03T14:58:17Z</time></trkpt><trkpt lat="42.94916905225507" lon="10.922101245921313"><ele>64.0</ele><time>2026-04-03T14:58:18Z</time></trkpt><trkpt lat="42.94917974804345" lon="10.921877020934373"><ele>64.0</ele><time>2026-04-03T14:58:19Z</time></trkpt><trkpt lat="42.9491950156921" lon="10.921643970560382"><ele>64.0</ele><time>2026-04-03T14:58:20Z</time></trkpt><trkpt lat="42.949206223835525" lon="10.921432661358844"><ele>64.0</ele><time>2026-04-03T14:58:21Z</time></trkpt><trkpt lat="42.94922059777368" lon="10.921201680967638"><ele>64.0</ele><time>2026-04-03T14:58:22Z</time></trkpt><trkpt lat="42.94923057194535" lon="10.92098895285958"><ele>64.0</ele><time>2026-04-03T14:58:23Z</time></trkpt><trkpt lat="42.94924473821914" lon="10.920756093400183"><ele>64.0</ele><time>2026-04-03T14:58:24Z</time></trkpt><trkpt lat="42.94925375537093" lon="10.920541984709194"><ele>64.0</ele><time>2026-04-03T14:58:25Z</time></trkpt><trkpt lat="42.94927001848264" lon="10.920308435957546"><ele>64.0</ele><time>2026-04-03T14:58:26Z</time></trkpt><trkpt lat="42.94928145372103" lon="10.920088551791482"><ele>64.0</ele><time>2026-04-03T14:58:27Z</time></trkpt><trkpt lat="42.94929421353814" lon="10.91985766525795"><ele>63.666666666666664</ele><time>2026-04-03T14:58:28Z</time></trkpt><trkpt lat="42.9493056583686" lon="10.919627843021258"><ele>63.33333333333333</ele><time>2026-04-03T14:58:29Z</time></trkpt><trkpt lat="42.94931228956734" lon="10.919408989928238"><ele>63.0</ele><time>2026-04-03T14:58:30Z</time></trkpt><trkpt lat="42.949326877079265" lon="10.919165855859585"><ele>62.0</ele><time>2026-04-03T14:58:31Z</time></trkpt><trkpt lat="42.94932464106916" lon="10.918938617459053"><ele>61.0</ele><time>2026-04-03T14:58:32Z</time></trkpt><trkpt lat="42.949314433240886" lon="10.918711418844318"><ele>60.0</ele><time>2026-04-03T14:58:33Z</time></trkpt><trkpt lat="42.94930803134928" lon="10.918477316545326"><ele>59.66666666666667</ele><time>2026-04-03T14:58:34Z</time></trkpt><trkpt lat="42.949303538524" lon="10.918244011209994"><ele>59.333333333333336</ele><time>2026-04-03T14:58:35Z</time></trkpt><trkpt lat="42.94930004855533" lon="10.918006421202291"><ele>59.0</ele><time>2026-04-03T14:58:36Z</time></trkpt><trkpt lat="42.94929293286606" lon="10.917781288898583"><ele>59.0</ele><time>2026-04-03T14:58:37Z</time></trkpt><trkpt lat="42.949286697792544" lon="10.917552574615536"><ele>59.0</ele><time>2026-04-03T14:58:38Z</time></trkpt><trkpt lat="42.949283092150445" lon="10.917317590761337"><ele>59.0</ele><time>2026-04-03T14:58:39Z</time></trkpt><trkpt lat="42.949278475397804" lon="10.917086701820356"><ele>59.0</ele><time>2026-04-03T14:58:40Z</time></trkpt><trkpt lat="42.94927116061533" lon="10.91685713781808"><ele>59.0</ele><time>2026-04-03T14:58:41Z</time></trkpt><trkpt lat="42.94926515380457" lon="10.916626141847587"><ele>59.0</ele><time>2026-04-03T14:58:42Z</time></trkpt><trkpt lat="42.94926106148011" lon="10.916395249415569"><ele>59.0</ele><time>2026-04-03T14:58:43Z</time></trkpt><trkpt lat="42.94925510141569" lon="10.916162798458883"><ele>59.0</ele><time>2026-04-03T14:58:44Z</time></trkpt><trkpt lat="42.94924698722666" lon="10.9159442141495"><ele>59.0</ele><time>2026-04-03T14:58:45Z</time></trkpt><trkpt lat="42.94924040527626" lon="10.915721189996294"><ele>58.66666666666667</ele><time>2026-04-03T14:58:46Z</time></trkpt><trkpt lat="42.94923615379679" lon="10.915490747365736"><ele>58.33333333333333</ele><time>2026-04-03T14:58:47Z</time></trkpt><trkpt lat="42.94922820901438" lon="10.915275396211076"><ele>58.0</ele><time>2026-04-03T14:58:48Z</time></trkpt><trkpt lat="42.94922504223398" lon="10.915041801965627"><ele>57.666666666666664</ele><time>2026-04-03T14:58:49Z</time></trkpt><trkpt lat="42.949216398984056" lon="10.91482863924326"><ele>57.33333333333333</ele><time>2026-04-03T14:58:50Z</time></trkpt><trkpt lat="42.949213780765724" lon="10.914593894883867"><ele>57.0</ele><time>2026-04-03T14:58:51Z</time></trkpt><trkpt lat="42.949204028355986" lon="10.914376790597295"><ele>56.0</ele><time>2026-04-03T14:58:52Z</time></trkpt><trkpt lat="42.94919982508131" lon="10.914142868850425"><ele>55.0</ele><time>2026-04-03T14:58:53Z</time></trkpt><trkpt lat="42.94919144694489" lon="10.91392566896798"><ele>54.0</ele><time>2026-04-03T14:58:54Z</time></trkpt><trkpt lat="42.94918692624813" lon="10.913691022917009"><ele>54.0</ele><time>2026-04-03T14:58:55Z</time></trkpt><trkpt lat="42.94918332325057" lon="10.913459497816676"><ele>54.0</ele><time>2026-04-03T14:58:56Z</time></trkpt><trkpt lat="42.9491763709944" lon="10.913238363666542"><ele>54.0</ele><time>2026-04-03T14:58:57Z</time></trkpt><trkpt lat="42.94916886347367" lon="10.913009662314458"><ele>53.33333333333333</ele><time>2026-04-03T14:58:58Z</time></trkpt><trkpt lat="42.94916414178074" lon="10.91277010500144"><ele>52.666666666666664</ele><time>2026-04-03T14:58:59Z</time></trkpt><trkpt lat="42.94915731154939" lon="10.912543833191807"><ele>52.0</ele><time>2026-04-03T14:59:00Z</time></trkpt><trkpt lat="42.9491483900799" lon="10.912325158773879"><ele>52.0</ele><time>2026-04-03T14:59:01Z</time></trkpt><trkpt lat="42.949146383478464" lon="10.912091128019409"><ele>52.0</ele><time>2026-04-03T14:59:02Z</time></trkpt><trkpt lat="42.949135854084886" lon="10.911883680846087"><ele>52.0</ele><time>2026-04-03T14:59:03Z</time></trkpt><trkpt lat="42.94913424670294" lon="10.911657945726278"><ele>52.0</ele><time>2026-04-03T14:59:04Z</time></trkpt><trkpt lat="42.949124333278824" lon="10.911444475240334"><ele>52.0</ele><time>2026-04-03T14:59:05Z</time></trkpt><trkpt lat="42.94912308078841" lon="10.911225411552032"><ele>52.0</ele><time>2026-04-03T14:59:06Z</time></trkpt><trkpt lat="42.94911676144001" lon="10.911016609498294"><ele>52.0</ele><time>2026-04-03T14:59:07Z</time></trkpt><trkpt lat="42.949111416617974" lon="10.910802479970217"><ele>52.0</ele><time>2026-04-03T14:59:08Z</time></trkpt><trkpt lat="42.94910480084759" lon="10.910589828342273"><ele>52.0</ele><time>2026-04-03T14:59:09Z</time></trkpt><trkpt lat="42.94909842072381" lon="10.910381286162474"><ele>52.0</ele><time>2026-04-03T14:59:10Z</time></trkpt><trkpt lat="42.949091267161535" lon="10.910178783462886"><ele>52.0</ele><time>2026-04-03T14:59:11Z</time></trkpt><trkpt lat="42.949080336166304" lon="10.909980280227009"><ele>52.0</ele><time>2026-04-03T14:59:12Z</time></trkpt><trkpt lat="42.94907079975625" lon="10.909797370607254"><ele>52.0</ele><time>2026-04-03T14:59:13Z</time></trkpt><trkpt lat="42.94906332519865" lon="10.909621286620737"><ele>52.0</ele><time>2026-04-03T14:59:14Z</time></trkpt><trkpt lat="42.949060369299644" lon="10.909460123267232"><ele>52.0</ele><time>2026-04-03T14:59:15Z</time></trkpt><trkpt lat="42.94905682352032" lon="10.909309482695162"><ele>52.0</ele><time>2026-04-03T14:59:16Z</time></trkpt><trkpt lat="42.949053064745314" lon="10.909162531570878"><ele>52.0</ele><time>2026-04-03T14:59:17Z</time></trkpt><trkpt lat="42.94904475060334" lon="10.909030887209324"><ele>52.0</ele><time>2026-04-03T14:59:18Z</time></trkpt><trkpt lat="42.94905579760361" lon="10.908908198317976"><ele>51.8</ele><time>2026-04-03T14:59:19Z</time></trkpt><trkpt lat="42.949053573392646" lon="10.908816066558318"><ele>51.6</ele><time>2026-04-03T14:59:20Z</time></trkpt><trkpt lat="42.94889596961764" lon="10.90880770256244"><ele>51.4</ele><time>2026-04-03T14:59:20.999Z</time></trkpt><trkpt lat="42.94881720236357" lon="10.908770938772392"><ele>51.199999999999996</ele><time>2026-04-03T14:59:21.999Z</time></trkpt><trkpt lat="42.94874338427936" lon="10.90875171729081"><ele>51.0</ele><time>2026-04-03T14:59:22.999Z</time></trkpt><trkpt lat="42.94867849031515" lon="10.908731541216223"><ele>51.0</ele><time>2026-04-03T14:59:23.999Z</time></trkpt><trkpt lat="42.94863426478104" lon="10.908610661994562"><ele>51.0</ele><time>2026-04-03T14:59:24.999Z</time></trkpt><trkpt lat="42.94857978253649" lon="10.908523772788035"><ele>51.0</ele><time>2026-04-03T14:59:25.999Z</time></trkpt><trkpt lat="42.94852074444236" lon="10.908438983480067"><ele>51.0</ele><time>2026-04-03T14:59:26.999Z</time></trkpt><trkpt lat="42.94845974013424" lon="10.908354197609931"><ele>51.0</ele><time>2026-04-03T14:59:27.999Z</time></trkpt><trkpt lat="42.9483977854603" lon="10.908261426685891"><ele>51.0</ele><time>2026-04-03T14:59:28.999Z</time></trkpt><trkpt lat="42.94832619487929" lon="10.908168664784057"><ele>50.8</ele><time>2026-04-03T14:59:29.999Z</time></trkpt><trkpt lat="42.94824795281624" lon="10.908084400704253"><ele>50.599999999999994</ele><time>2026-04-03T14:59:30.999Z</time></trkpt><trkpt lat="42.94816564102616" lon="10.908009636025978"><ele>50.4</ele><time>2026-04-03T14:59:32Z</time></trkpt><trkpt lat="42.94807559208578" lon="10.90794738655617"><ele>50.2</ele><time>2026-04-03T14:59:33Z</time></trkpt><trkpt lat="42.9479846622378" lon="10.907902024783983"><ele>50.0</ele><time>2026-04-03T14:59:34Z</time></trkpt><trkpt lat="42.947882551678724" lon="10.907856605223847"><ele>50.0</ele><time>2026-04-03T14:59:35Z</time></trkpt><trkpt lat="42.94777980295423" lon="10.907810012659045"><ele>50.0</ele><time>2026-04-03T14:59:36Z</time></trkpt><trkpt lat="42.94767861227748" lon="10.907761814510959"><ele>50.0</ele><time>2026-04-03T14:59:37Z</time></trkpt><trkpt lat="42.9475742773295" lon="10.907711984188362"><ele>50.0</ele><time>2026-04-03T14:59:38Z</time></trkpt><trkpt lat="42.94746903904546" lon="10.907661733693967"><ele>50.0</ele><time>2026-04-03T14:59:39Z</time></trkpt><trkpt lat="42.94736333376211" lon="10.907611357052728"><ele>49.8</ele><time>2026-04-03T14:59:40Z</time></trkpt><trkpt lat="42.94725472313216" lon="10.90755795921497"><ele>49.6</ele><time>2026-04-03T14:59:41Z</time></trkpt><trkpt lat="42.94714994635512" lon="10.907506330283177"><ele>49.400000000000006</ele><time>2026-04-03T14:59:42Z</time></trkpt><trkpt lat="42.947045736614115" lon="10.907457837176826"><ele>49.2</ele><time>2026-04-03T14:59:43Z</time></trkpt><trkpt lat="42.94694232397035" lon="10.907408403124457"><ele>49.0</ele><time>2026-04-03T14:59:44Z</time></trkpt><trkpt lat="42.94684134626345" lon="10.907356009338407"><ele>49.0</ele><time>2026-04-03T14:59:45Z</time></trkpt><trkpt lat="42.94674332203087" lon="10.907308402452797"><ele>49.0</ele><time>2026-04-03T14:59:46Z</time></trkpt><trkpt lat="42.94663781385032" lon="10.907261515004336"><ele>49.0</ele><time>2026-04-03T14:59:47Z</time></trkpt><trkpt lat="42.94653084688363" lon="10.907210706187357"><ele>49.0</ele><time>2026-04-03T14:59:48Z</time></trkpt><trkpt lat="42.94642542929387" lon="10.90715805500726"><ele>49.0</ele><time>2026-04-03T14:59:49Z</time></trkpt><trkpt lat="42.94632010209309" lon="10.907106043395139"><ele>49.25</ele><time>2026-04-03T14:59:50Z</time></trkpt><trkpt lat="42.94621020265422" lon="10.907053732738206"><ele>49.5</ele><time>2026-04-03T14:59:51Z</time></trkpt><trkpt lat="42.94610056267104" lon="10.907001362131874"><ele>49.75</ele><time>2026-04-03T14:59:52Z</time></trkpt><trkpt lat="42.945992468826795" lon="10.906947917092385"><ele>50.0</ele><time>2026-04-03T14:59:53Z</time></trkpt><trkpt lat="42.945880312651305" lon="10.906891854710414"><ele>50.5</ele><time>2026-04-03T14:59:54Z</time></trkpt><trkpt lat="42.94576669156027" lon="10.906837919861191"><ele>51.0</ele><time>2026-04-03T14:59:55Z</time></trkpt><trkpt lat="42.94565194827853" lon="10.906782232985275"><ele>51.5</ele><time>2026-04-03T14:59:56Z</time></trkpt><trkpt lat="42.94553302869214" lon="10.90672072881016"><ele>52.0</ele><time>2026-04-03T14:59:57Z</time></trkpt><trkpt lat="42.945419431629794" lon="10.906664466423324"><ele>52.0</ele><time>2026-04-03T14:59:58Z</time></trkpt><trkpt lat="42.945302444923385" lon="10.906611247255274"><ele>52.0</ele><time>2026-04-03T14:59:59Z</time></trkpt><trkpt lat="42.945182772428126" lon="10.906555205277014"><ele>52.0</ele><time>2026-04-03T15:00:00Z</time></trkpt><trkpt lat="42.945065475491035" lon="10.90650047437344"><ele>52.0</ele><time>2026-04-03T15:00:01Z</time></trkpt><trkpt lat="42.944951018822955" lon="10.906444283472515"><ele>52.75</ele><time>2026-04-03T15:00:02Z</time></trkpt><trkpt lat="42.94483744173027" lon="10.906385355202515"><ele>53.5</ele><time>2026-04-03T15:00:03Z</time></trkpt><trkpt lat="42.94472115136545" lon="10.906316813520476"><ele>54.25</ele><time>2026-04-03T15:00:04Z</time></trkpt><trkpt lat="42.94460630208554" lon="10.906234322062616"><ele>55.0</ele><time>2026-04-03T15:00:05Z</time></trkpt><trkpt lat="42.94449049126443" lon="10.90614457210036"><ele>55.0</ele><time>2026-04-03T15:00:06Z</time></trkpt><trkpt lat="42.944376585228355" lon="10.906052657203759"><ele>55.0</ele><time>2026-04-03T15:00:07Z</time></trkpt><trkpt lat="42.94426406426612" lon="10.905957694689748"><ele>55.0</ele><time>2026-04-03T15:00:08Z</time></trkpt><trkpt lat="42.944146666791525" lon="10.905861068497916"><ele>55.0</ele><time>2026-04-03T15:00:09Z</time></trkpt><trkpt lat="42.944031583305915" lon="10.905763903270833"><ele>55.0</ele><time>2026-04-03T15:00:10Z</time></trkpt><trkpt lat="42.94391246594049" lon="10.90566282909857"><ele>55.0</ele><time>2026-04-03T15:00:11Z</time></trkpt><trkpt lat="42.943790743475404" lon="10.905555318452208"><ele>55.0</ele><time>2026-04-03T15:00:12Z</time></trkpt><trkpt lat="42.94366888947873" lon="10.905448199268712"><ele>55.0</ele><time>2026-04-03T15:00:13Z</time></trkpt><trkpt lat="42.94354730719228" lon="10.905343092006536"><ele>55.0</ele><time>2026-04-03T15:00:14Z</time></trkpt><trkpt lat="42.94341983818365" lon="10.905231560614258"><ele>55.0</ele><time>2026-04-03T15:00:15Z</time></trkpt><trkpt lat="42.94329676890703" lon="10.90512132884764"><ele>55.0</ele><time>2026-04-03T15:00:16Z</time></trkpt><trkpt lat="42.94317712422857" lon="10.905014236585593"><ele>55.0</ele><time>2026-04-03T15:00:17Z</time></trkpt><trkpt lat="42.94305664801659" lon="10.904909241801574"><ele>54.75</ele><time>2026-04-03T15:00:18Z</time></trkpt><trkpt lat="42.942932833037496" lon="10.904803613905026"><ele>54.5</ele><time>2026-04-03T15:00:19Z</time></trkpt><trkpt lat="42.942806119646285" lon="10.904695283097242"><ele>54.25</ele><time>2026-04-03T15:00:20Z</time></trkpt><trkpt lat="42.94268029471136" lon="10.904586912362745"><ele>54.0</ele><time>2026-04-03T15:00:21Z</time></trkpt><trkpt lat="42.942555124347436" lon="10.904487577611087"><ele>54.25</ele><time>2026-04-03T15:00:22Z</time></trkpt><trkpt lat="42.942425707915966" lon="10.904392239622718"><ele>54.5</ele><time>2026-04-03T15:00:23Z</time></trkpt><trkpt lat="42.94229767590578" lon="10.904299924003801"><ele>54.75</ele><time>2026-04-03T15:00:24Z</time></trkpt><trkpt lat="42.942164609964436" lon="10.904202888386878"><ele>55.0</ele><time>2026-04-03T15:00:25Z</time></trkpt><trkpt lat="42.94203503294084" lon="10.904111980089267"><ele>55.0</ele><time>2026-04-03T15:00:26Z</time></trkpt><trkpt lat="42.94190499976983" lon="10.904018921880152"><ele>55.0</ele><time>2026-04-03T15:00:27Z</time></trkpt><trkpt lat="42.94177108206072" lon="10.903921974243985"><ele>55.0</ele><time>2026-04-03T15:00:28Z</time></trkpt><trkpt lat="42.94164110221868" lon="10.903833050416708"><ele>55.0</ele><time>2026-04-03T15:00:29Z</time></trkpt><trkpt lat="42.94151538878571" lon="10.903747068817946"><ele>55.0</ele><time>2026-04-03T15:00:30Z</time></trkpt><trkpt lat="42.941392846354205" lon="10.903660314693086"><ele>55.0</ele><time>2026-04-03T15:00:31Z</time></trkpt><trkpt lat="42.941264707751735" lon="10.903570679172955"><ele>55.0</ele><time>2026-04-03T15:00:32Z</time></trkpt><trkpt lat="42.94113967101562" lon="10.903484999290939"><ele>55.0</ele><time>2026-04-03T15:00:33Z</time></trkpt><trkpt lat="42.94101250406273" lon="10.903396068778552"><ele>55.0</ele><time>2026-04-03T15:00:34Z</time></trkpt><trkpt lat="42.94088779320736" lon="10.903299784631718"><ele>55.0</ele><time>2026-04-03T15:00:35Z</time></trkpt><trkpt lat="42.940771581241975" lon="10.903190026377137"><ele>55.0</ele><time>2026-04-03T15:00:36Z</time></trkpt><trkpt lat="42.940661169788555" lon="10.90306162510876"><ele>55.0</ele><time>2026-04-03T15:00:37Z</time></trkpt><trkpt lat="42.94055788368473" lon="10.902922518987095"><ele>55.666666666666664</ele><time>2026-04-03T15:00:38Z</time></trkpt><trkpt lat="42.940454024733775" lon="10.9027776675379"><ele>56.33333333333333</ele><time>2026-04-03T15:00:39Z</time></trkpt><trkpt lat="42.940350485239705" lon="10.902630562089868"><ele>57.0</ele><time>2026-04-03T15:00:40Z</time></trkpt><trkpt lat="42.94024767487113" lon="10.902478137427735"><ele>57.0</ele><time>2026-04-03T15:00:41Z</time></trkpt><trkpt lat="42.9401531502731" lon="10.902319902498874"><ele>57.0</ele><time>2026-04-03T15:00:42Z</time></trkpt><trkpt lat="42.94007003780148" lon="10.902164074149118"><ele>57.0</ele><time>2026-04-03T15:00:43Z</time></trkpt><trkpt lat="42.93998307648382" lon="10.90200454726816"><ele>57.0</ele><time>2026-04-03T15:00:44Z</time></trkpt><trkpt lat="42.9398955634244" lon="10.901850366486478"><ele>57.25</ele><time>2026-04-03T15:00:45Z</time></trkpt><trkpt lat="42.93980207158277" lon="10.901690034078491"><ele>57.5</ele><time>2026-04-03T15:00:46Z</time></trkpt><trkpt lat="42.939706415701956" lon="10.901534433980764"><ele>57.75</ele><time>2026-04-03T15:00:47Z</time></trkpt><trkpt lat="42.93960672537137" lon="10.901389135607253"><ele>58.0</ele><time>2026-04-03T15:00:48Z</time></trkpt><trkpt lat="42.93949629728577" lon="10.901247823836192"><ele>58.0</ele><time>2026-04-03T15:00:49Z</time></trkpt><trkpt lat="42.93939236390109" lon="10.901108532551213"><ele>58.0</ele><time>2026-04-03T15:00:50Z</time></trkpt><trkpt lat="42.93928463279823" lon="10.900990309950924"><ele>58.0</ele><time>2026-04-03T15:00:51Z</time></trkpt><trkpt lat="42.93915692349551" lon="10.900877357795538"><ele>58.0</ele><time>2026-04-03T15:00:52Z</time></trkpt><trkpt lat="42.93903087910907" lon="10.900783748729522"><ele>58.25</ele><time>2026-04-03T15:00:53Z</time></trkpt><trkpt lat="42.938892650647695" lon="10.900700810597804"><ele>58.5</ele><time>2026-04-03T15:00:54Z</time></trkpt><trkpt lat="42.93875543052802" lon="10.900631173776539"><ele>58.75</ele><time>2026-04-03T15:00:55Z</time></trkpt><trkpt lat="42.93861912213291" lon="10.900567847400607"><ele>59.0</ele><time>2026-04-03T15:00:56Z</time></trkpt><trkpt lat="42.93847938117736" lon="10.90050391322143"><ele>59.5</ele><time>2026-04-03T15:00:57Z</time></trkpt><trkpt lat="42.93834736181423" lon="10.900447043959808"><ele>60.0</ele><time>2026-04-03T15:00:58Z</time></trkpt><trkpt lat="42.938212478570556" lon="10.90039894659883"><ele>60.5</ele><time>2026-04-03T15:00:59Z</time></trkpt><trkpt lat="42.93809265879306" lon="10.900367614145315"><ele>61.0</ele><time>2026-04-03T15:01:00Z</time></trkpt><trkpt lat="42.93797406133272" lon="10.900369073890952"><ele>61.0</ele><time>2026-04-03T15:01:01Z</time></trkpt><trkpt lat="42.937852867199105" lon="10.900409611414494"><ele>61.0</ele><time>2026-04-03T15:01:02Z</time></trkpt><trkpt lat="42.937730933276114" lon="10.900473656466303"><ele>61.0</ele><time>2026-04-03T15:01:03Z</time></trkpt><trkpt lat="42.937607000733834" lon="10.900535903325885"><ele>61.0</ele><time>2026-04-03T15:01:04Z</time></trkpt><trkpt lat="42.93748310015302" lon="10.90059710957807"><ele>60.75</ele><time>2026-04-03T15:01:05Z</time></trkpt><trkpt lat="42.937358656640136" lon="10.900662528897785"><ele>60.5</ele><time>2026-04-03T15:01:06Z</time></trkpt><trkpt lat="42.937234864706475" lon="10.900722213499963"><ele>60.25</ele><time>2026-04-03T15:01:07Z</time></trkpt><trkpt lat="42.937106792550416" lon="10.900768312534026"><ele>60.0</ele><time>2026-04-03T15:01:08Z</time></trkpt><trkpt lat="42.93697809290709" lon="10.90080412501262"><ele>60.0</ele><time>2026-04-03T15:01:09Z</time></trkpt><trkpt lat="42.93685405070046" lon="10.900825007679247"><ele>60.0</ele><time>2026-04-03T15:01:10Z</time></trkpt><trkpt lat="42.93672119403937" lon="10.90084997024635"><ele>60.0</ele><time>2026-04-03T15:01:11Z</time></trkpt><trkpt lat="42.936597398808544" lon="10.900874012293693"><ele>60.0</ele><time>2026-04-03T15:01:12Z</time></trkpt><trkpt lat="42.93647165751642" lon="10.900877532996654"><ele>59.75</ele><time>2026-04-03T15:01:13Z</time></trkpt><trkpt lat="42.93633804888126" lon="10.90084525636109"><ele>59.5</ele><time>2026-04-03T15:01:14Z</time></trkpt><trkpt lat="42.93621404886738" lon="10.90078398739453"><ele>59.25</ele><time>2026-04-03T15:01:15Z</time></trkpt><trkpt lat="42.936093275878626" lon="10.900703567054254"><ele>59.0</ele><time>2026-04-03T15:01:16Z</time></trkpt><trkpt lat="42.93596974586197" lon="10.900622676436955"><ele>60.0</ele><time>2026-04-03T15:01:17Z</time></trkpt><trkpt lat="42.93584797383951" lon="10.900542426882156"><ele>61.0</ele><time>2026-04-03T15:01:18Z</time></trkpt><trkpt lat="42.93572445696811" lon="10.900460954924409"><ele>62.0</ele><time>2026-04-03T15:01:19Z</time></trkpt><trkpt lat="42.935605283663996" lon="10.900383333017249"><ele>63.0</ele><time>2026-04-03T15:01:20Z</time></trkpt><trkpt lat="42.935490211951446" lon="10.900312227778661"><ele>63.0</ele><time>2026-04-03T15:01:21Z</time></trkpt><trkpt lat="42.93537661083865" lon="10.900232560155226"><ele>63.0</ele><time>2026-04-03T15:01:22Z</time></trkpt><trkpt lat="42.93527373039797" lon="10.900128077919325"><ele>63.0</ele><time>2026-04-03T15:01:23Z</time></trkpt><trkpt lat="42.93516867627922" lon="10.900000969664358"><ele>63.0</ele><time>2026-04-03T15:01:24Z</time></trkpt><trkpt lat="42.935093587463754" lon="10.899829483510118"><ele>63.0</ele><time>2026-04-03T15:01:25Z</time></trkpt><trkpt lat="42.93502321302744" lon="10.899737749591258"><ele>63.0</ele><time>2026-04-03T15:01:26Z</time></trkpt><trkpt lat="42.934955576730005" lon="10.89962712061873"><ele>63.0</ele><time>2026-04-03T15:01:27Z</time></trkpt><trkpt lat="42.93489639394987" lon="10.899528818153495"><ele>63.0</ele><time>2026-04-03T15:01:28Z</time></trkpt><trkpt lat="42.93484854151958" lon="10.899450548615038"><ele>63.0</ele><time>2026-04-03T15:01:29Z</time></trkpt><trkpt lat="42.9348443028843" lon="10.899353211784945"><ele>63.0</ele><time>2026-04-03T15:01:32Z</time></trkpt><trkpt lat="42.93491783179286" lon="10.899346045324746"><ele>63.0</ele><time>2026-04-03T15:01:34Z</time></trkpt><trkpt lat="42.9349981924161" lon="10.899274691979718"><ele>63.0</ele><time>2026-04-03T15:01:37Z</time></trkpt><trkpt lat="42.935073743005084" lon="10.899183585469604"><ele>63.0</ele><time>2026-04-03T15:01:39Z</time></trkpt><trkpt lat="42.935159858912904" lon="10.899081515145754"><ele>63.0</ele><time>2026-04-03T15:01:41Z</time></trkpt><trkpt lat="42.935260307899824" lon="10.898963354001085"><ele>63.0</ele><time>2026-04-03T15:01:43Z</time></trkpt><trkpt lat="42.935315300115995" lon="10.89888566133475"><ele>62.333333333333336</ele><time>2026-04-03T15:01:44Z</time></trkpt><trkpt lat="42.935371652630565" lon="10.898812073596691"><ele>61.66666666666667</ele><time>2026-04-03T15:01:45Z</time></trkpt><trkpt lat="42.935427007004385" lon="10.898730441944343"><ele>61.0</ele><time>2026-04-03T15:01:46Z</time></trkpt><trkpt lat="42.93547933320534" lon="10.89865705118998"><ele>60.333333333333336</ele><time>2026-04-03T15:01:47Z</time></trkpt><trkpt lat="42.93554230963099" lon="10.898576511837604"><ele>59.66666666666667</ele><time>2026-04-03T15:01:48Z</time></trkpt><trkpt lat="42.93558792238205" lon="10.898512678345071"><ele>59.0</ele><time>2026-04-03T15:01:49Z</time></trkpt><trkpt lat="42.93564414690677" lon="10.898441557948066"><ele>58.71428571428571</ele><time>2026-04-03T15:01:50Z</time></trkpt><trkpt lat="42.9356942412419" lon="10.898368014175215"><ele>58.42857142857143</ele><time>2026-04-03T15:01:51Z</time></trkpt><trkpt lat="42.93573986934878" lon="10.898287252802492"><ele>58.14285714285714</ele><time>2026-04-03T15:01:52Z</time></trkpt><trkpt lat="42.93578505250677" lon="10.898206868076226"><ele>57.857142857142854</ele><time>2026-04-03T15:01:53Z</time></trkpt><trkpt lat="42.93584629969403" lon="10.898128618985117"><ele>57.57142857142857</ele><time>2026-04-03T15:01:54Z</time></trkpt><trkpt lat="42.93589975676853" lon="10.898059336157779"><ele>57.285714285714285</ele><time>2026-04-03T15:01:55Z</time></trkpt><trkpt lat="42.93595429543442" lon="10.898001998505478"><ele>57.0</ele><time>2026-04-03T15:01:56Z</time></trkpt><trkpt lat="42.9360068371003" lon="10.89793365202751"><ele>56.57142857142857</ele><time>2026-04-03T15:01:57Z</time></trkpt><trkpt lat="42.93606216568267" lon="10.897866269263993"><ele>56.14285714285714</ele><time>2026-04-03T15:01:58Z</time></trkpt><trkpt lat="42.93611873736196" lon="10.897823328213413"><ele>55.71428571428571</ele><time>2026-04-03T15:01:59Z</time></trkpt><trkpt lat="42.93617609851381" lon="10.897786135387076"><ele>55.285714285714285</ele><time>2026-04-03T15:02:00Z</time></trkpt><trkpt lat="42.93624014952317" lon="10.89774301937177"><ele>54.857142857142854</ele><time>2026-04-03T15:02:01Z</time></trkpt><trkpt lat="42.93630905296479" lon="10.897697491723878"><ele>54.42857142857143</ele><time>2026-04-03T15:02:02Z</time></trkpt><trkpt lat="42.936377534072655" lon="10.897659528680313"><ele>54.0</ele><time>2026-04-03T15:02:03Z</time></trkpt><trkpt lat="42.93645565644073" lon="10.897615940466341"><ele>54.0</ele><time>2026-04-03T15:02:04Z</time></trkpt><trkpt lat="42.93653114094926" lon="10.897574297560395"><ele>54.0</ele><time>2026-04-03T15:02:05Z</time></trkpt><trkpt lat="42.936594985787835" lon="10.897558958517763"><ele>54.0</ele><time>2026-04-03T15:02:06Z</time></trkpt><trkpt lat="42.93666706699854" lon="10.897517421132724"><ele>54.0</ele><time>2026-04-03T15:02:07Z</time></trkpt><trkpt lat="42.93674233873128" lon="10.897486832773277"><ele>54.0</ele><time>2026-04-03T15:02:08Z</time></trkpt><trkpt lat="42.9368277781843" lon="10.897442736584892"><ele>54.0</ele><time>2026-04-03T15:02:09Z</time></trkpt><trkpt lat="42.93689915688031" lon="10.897419951378689"><ele>53.800000000000004</ele><time>2026-04-03T15:02:10Z</time></trkpt><trkpt lat="42.93697448037426" lon="10.897377770596531"><ele>53.60000000000001</ele><time>2026-04-03T15:02:11Z</time></trkpt><trkpt lat="42.93704970986252" lon="10.897334889392178"><ele>53.4</ele><time>2026-04-03T15:02:12Z</time></trkpt><trkpt lat="42.937138051512704" lon="10.897243085609647"><ele>53.2</ele><time>2026-04-03T15:02:14Z</time></trkpt><trkpt lat="42.937230361036015" lon="10.897120499546013"><ele>53.0</ele><time>2026-04-03T15:02:16Z</time></trkpt><trkpt lat="42.937275909247006" lon="10.897051614808314"><ele>53.0</ele><time>2026-04-03T15:02:17Z</time></trkpt><trkpt lat="42.937322901946516" lon="10.896983842647892"><ele>53.0</ele><time>2026-04-03T15:02:18Z</time></trkpt><trkpt lat="42.93741613435476" lon="10.896898914307203"><ele>53.0</ele><time>2026-04-03T15:02:20Z</time></trkpt><trkpt lat="42.93737078995777" lon="10.896691413162557"><ele>53.0</ele><time>2026-04-03T15:02:40Z</time></trkpt><trkpt lat="42.93738149014266" lon="10.896598696431601"><ele>53.0</ele><time>2026-04-03T15:02:43Z</time></trkpt><trkpt lat="42.9373894480624" lon="10.896503302408787"><ele>53.00000000000001</ele><time>2026-04-03T15:02:45Z</time></trkpt><trkpt lat="42.93739557963011" lon="10.896415385936052"><ele>53.0</ele><time>2026-04-03T15:02:47Z</time></trkpt><trkpt lat="42.93739867238091" lon="10.896327822759458"><ele>53.0</ele><time>2026-04-03T15:02:49Z</time></trkpt><trkpt lat="42.937400936349995" lon="10.896234917186595"><ele>53.0</ele><time>2026-04-03T15:02:51Z</time></trkpt><trkpt lat="42.937417556259255" lon="10.896116932173321"><ele>53.00000000000001</ele><time>2026-04-03T15:02:53Z</time></trkpt><trkpt lat="42.937416680740235" lon="10.89598652583368"><ele>53.0</ele><time>2026-04-03T15:02:55Z</time></trkpt><trkpt lat="42.93741669279697" lon="10.895849081664622"><ele>53.00000000000001</ele><time>2026-04-03T15:02:57Z</time></trkpt><trkpt lat="42.93740596805056" lon="10.89571679269266"><ele>53.0</ele><time>2026-04-03T15:02:59Z</time></trkpt><trkpt lat="42.937410656433016" lon="10.895586758281555"><ele>53.0</ele><time>2026-04-03T15:03:01Z</time></trkpt><trkpt lat="42.93741471936505" lon="10.895459700022569"><ele>53.0</ele><time>2026-04-03T15:03:03Z</time></trkpt><trkpt lat="42.937407040480686" lon="10.89535206387885"><ele>53.00000000000001</ele><time>2026-04-03T15:03:05Z</time></trkpt><trkpt lat="42.93739815911755" lon="10.895255855354502"><ele>53.0</ele><time>2026-04-03T15:03:07Z</time></trkpt><trkpt lat="42.937427199453644" lon="10.895155643443196"><ele>52.833333333333336</ele><time>2026-04-03T15:03:09Z</time></trkpt><trkpt lat="42.9374527354757" lon="10.895045194987048"><ele>52.66666666666667</ele><time>2026-04-03T15:03:11Z</time></trkpt><trkpt lat="42.937473465915346" lon="10.894920550613415"><ele>52.5</ele><time>2026-04-03T15:03:13Z</time></trkpt><trkpt lat="42.93748907028142" lon="10.894793289079058"><ele>52.33333333333333</ele><time>2026-04-03T15:03:15Z</time></trkpt><trkpt lat="42.93748771379239" lon="10.894676597370703"><ele>52.166666666666664</ele><time>2026-04-03T15:03:17Z</time></trkpt><trkpt lat="42.937515326896964" lon="10.89459151522108"><ele>52.0</ele><time>2026-04-03T15:03:19Z</time></trkpt><trkpt lat="42.93751365368614" lon="10.894505313467812"><ele>51.99999999999999</ele><time>2026-04-03T15:03:21Z</time></trkpt><trkpt lat="42.9375371895779" lon="10.894408050864678"><ele>52.0</ele><time>2026-04-03T15:03:23Z</time></trkpt><trkpt lat="42.93755603236598" lon="10.89430653887264"><ele>52.0</ele><time>2026-04-03T15:03:25Z</time></trkpt><trkpt lat="42.937568195817455" lon="10.894213396586757"><ele>52.0</ele><time>2026-04-03T15:03:27Z</time></trkpt><trkpt lat="42.9375886880958" lon="10.89410689420822"><ele>51.99999999999999</ele><time>2026-04-03T15:03:29Z</time></trkpt><trkpt lat="42.937626435134234" lon="10.894008261333921"><ele>52.0</ele><time>2026-04-03T15:03:31Z</time></trkpt><trkpt lat="42.93763967567822" lon="10.893878831855682"><ele>51.2</ele><time>2026-04-03T15:03:33Z</time></trkpt><trkpt lat="42.93766731596159" lon="10.893755197830925"><ele>50.400000000000006</ele><time>2026-04-03T15:03:35Z</time></trkpt><trkpt lat="42.93771081081005" lon="10.893628820100416"><ele>49.599999999999994</ele><time>2026-04-03T15:03:37Z</time></trkpt><trkpt lat="42.937740409212715" lon="10.893441618000574"><ele>48.8</ele><time>2026-04-03T15:03:40Z</time></trkpt><trkpt lat="42.93773687683843" lon="10.893314900137392"><ele>48.0</ele><time>2026-04-03T15:03:42Z</time></trkpt><trkpt lat="42.93775273721251" lon="10.893214646019363"><ele>47.833333333333336</ele><time>2026-04-03T15:03:44.001Z</time></trkpt><trkpt lat="42.937756330539656" lon="10.89308230209079"><ele>47.666666666666664</ele><time>2026-04-03T15:03:46.001Z</time></trkpt><trkpt lat="42.93774225573412" lon="10.892968724526787"><ele>47.5</ele><time>2026-04-03T15:03:48.001Z</time></trkpt><trkpt lat="42.937751837777114" lon="10.892868621010734"><ele>47.33333333333333</ele><time>2026-04-03T15:03:50.001Z</time></trkpt><trkpt lat="42.93774881944677" lon="10.892745211490482"><ele>47.166666666666664</ele><time>2026-04-03T15:03:52.001Z</time></trkpt><trkpt lat="42.93776112731616" lon="10.892604773602434"><ele>47.0</ele><time>2026-04-03T15:03:54.001Z</time></trkpt><trkpt lat="42.93779400994724" lon="10.892451977134256"><ele>46.8</ele><time>2026-04-03T15:03:56Z</time></trkpt><trkpt lat="42.93782537876896" lon="10.892290988396372"><ele>46.6</ele><time>2026-04-03T15:03:58Z</time></trkpt><trkpt lat="42.937852965663936" lon="10.89221092870225"><ele>46.4</ele><time>2026-04-03T15:03:59Z</time></trkpt><trkpt lat="42.93788511701547" lon="10.89213300764169"><ele>46.199999999999996</ele><time>2026-04-03T15:04:00Z</time></trkpt><trkpt lat="42.937944025775934" lon="10.89198777219603"><ele>46.0</ele><time>2026-04-03T15:04:02Z</time></trkpt><trkpt lat="42.93799066675186" lon="10.891828263806323"><ele>46.0</ele><time>2026-04-03T15:04:04Z</time></trkpt><trkpt lat="42.93801159253281" lon="10.89174134204157"><ele>46.0</ele><time>2026-04-03T15:04:05Z</time></trkpt><trkpt lat="42.93803523703133" lon="10.891649366774134"><ele>46.0</ele><time>2026-04-03T15:04:06Z</time></trkpt><trkpt lat="42.938061152988816" lon="10.891559986619573"><ele>46.0</ele><time>2026-04-03T15:04:07Z</time></trkpt><trkpt lat="42.938089333118086" lon="10.891470741853622"><ele>46.0</ele><time>2026-04-03T15:04:08Z</time></trkpt><trkpt lat="42.93811548924693" lon="10.891385695929188"><ele>46.0</ele><time>2026-04-03T15:04:09Z</time></trkpt><trkpt lat="42.93814140832891" lon="10.891296023029645"><ele>46.0</ele><time>2026-04-03T15:04:10Z</time></trkpt><trkpt lat="42.93816242694529" lon="10.891205289286392"><ele>46.0</ele><time>2026-04-03T15:04:11Z</time></trkpt><trkpt lat="42.93818319580857" lon="10.891120179440755"><ele>46.0</ele><time>2026-04-03T15:04:12Z</time></trkpt><trkpt lat="42.938213947656614" lon="10.890991363691759"><ele>46.0</ele><time>2026-04-03T15:04:14Z</time></trkpt><trkpt lat="42.938204007425156" lon="10.89088572874971"><ele>46.0</ele><time>2026-04-03T15:04:16Z</time></trkpt><trkpt lat="42.9382075533822" lon="10.89075927030048"><ele>46.0</ele><time>2026-04-03T15:04:18Z</time></trkpt><trkpt lat="42.93821672591448" lon="10.890640347310526"><ele>46.0</ele><time>2026-04-03T15:04:20Z</time></trkpt><trkpt lat="42.93821677352657" lon="10.890526755952424"><ele>45.833333333333336</ele><time>2026-04-03T15:04:22Z</time></trkpt><trkpt lat="42.938231123997035" lon="10.89041492318947"><ele>45.66666666666667</ele><time>2026-04-03T15:04:24Z</time></trkpt><trkpt lat="42.93826111481266" lon="10.890310299704357"><ele>45.5</ele><time>2026-04-03T15:04:26Z</time></trkpt><trkpt lat="42.938291780666454" lon="10.890202730759723"><ele>45.333333333333336</ele><time>2026-04-03T15:04:28Z</time></trkpt><trkpt lat="42.938336585574916" lon="10.890089390311909"><ele>45.166666666666664</ele><time>2026-04-03T15:04:30Z</time></trkpt><trkpt lat="42.93838548938699" lon="10.889976374884231"><ele>45.0</ele><time>2026-04-03T15:04:32Z</time></trkpt><trkpt lat="42.93843948679046" lon="10.889842271787826"><ele>44.5</ele><time>2026-04-03T15:04:34Z</time></trkpt><trkpt lat="42.93848481632021" lon="10.889747545204946"><ele>44.0</ele><time>2026-04-03T15:04:36Z</time></trkpt><trkpt lat="42.938538350506725" lon="10.889629923177646"><ele>43.5</ele><time>2026-04-03T15:04:38Z</time></trkpt><trkpt lat="42.938592996196114" lon="10.889512373880036"><ele>43.0</ele><time>2026-04-03T15:04:40Z</time></trkpt><trkpt lat="42.93864438691903" lon="10.889428034237614"><ele>42.5</ele><time>2026-04-03T15:04:41.999Z</time></trkpt><trkpt lat="42.938679009972944" lon="10.88935536980744"><ele>42.0</ele><time>2026-04-03T15:04:44.999Z</time></trkpt><trkpt lat="42.93873164276663" lon="10.889294248604575"><ele>42.0</ele><time>2026-04-03T15:04:48.999Z</time></trkpt><trkpt lat="42.93881808698989" lon="10.88933112866554"><ele>42.0</ele><time>2026-04-03T15:04:50.999Z</time></trkpt><trkpt lat="42.93888456304415" lon="10.889364053387077"><ele>42.0</ele><time>2026-04-03T15:04:52.999Z</time></trkpt><trkpt lat="42.938945863093345" lon="10.889384876696123"><ele>42.0</ele><time>2026-04-03T15:04:54.999Z</time></trkpt><trkpt lat="42.9390182940934" lon="10.889407532276302"><ele>42.0</ele><time>2026-04-03T15:04:56.999Z</time></trkpt><trkpt lat="42.93908916690583" lon="10.889436003576392"><ele>42.0</ele><time>2026-04-03T15:04:58.999Z</time></trkpt><trkpt lat="42.93917570078" lon="10.889463462590175"><ele>41.833333333333336</ele><time>2026-04-03T15:05:01.999Z</time></trkpt><trkpt lat="42.93926405424982" lon="10.889498926214666"><ele>41.666666666666664</ele><time>2026-04-03T15:05:04.999Z</time></trkpt><trkpt lat="42.93934560781994" lon="10.8895319770224"><ele>41.5</ele><time>2026-04-03T15:05:06.999Z</time></trkpt><trkpt lat="42.939442196665446" lon="10.889575310726059"><ele>41.33333333333333</ele><time>2026-04-03T15:05:08.999Z</time></trkpt><trkpt lat="42.939518320165696" lon="10.889606975724133"><ele>41.166666666666664</ele><time>2026-04-03T15:05:11.999Z</time></trkpt><trkpt lat="42.9395814752413" lon="10.889628395997741"><ele>41.0</ele><time>2026-04-03T15:05:13.999Z</time></trkpt><trkpt lat="42.93965873340754" lon="10.889634628810548"><ele>41.0</ele><time>2026-04-03T15:05:16.999Z</time></trkpt><trkpt lat="42.93972633413279" lon="10.88966287585597"><ele>41.0</ele><time>2026-04-03T15:05:18.999Z</time></trkpt><trkpt lat="42.93980706512517" lon="10.889731662133125"><ele>41.0</ele><time>2026-04-03T15:05:20.999Z</time></trkpt><trkpt lat="42.939896438954214" lon="10.889806105990775"><ele>41.0</ele><time>2026-04-03T15:05:22.999Z</time></trkpt><trkpt lat="42.939982369963985" lon="10.889875628510552"><ele>41.0</ele><time>2026-04-03T15:05:24.999Z</time></trkpt><trkpt lat="42.940088468478805" lon="10.889949363709247"><ele>41.0</ele><time>2026-04-03T15:05:26.999Z</time></trkpt><trkpt lat="42.94018454211854" lon="10.890042093955673"><ele>41.0</ele><time>2026-04-03T15:05:28.999Z</time></trkpt><trkpt lat="42.940182430888704" lon="10.890154010352191"><ele>41.0</ele><time>2026-04-03T15:05:30.999Z</time></trkpt><trkpt lat="42.94006607922704" lon="10.890120203574686"><ele>41.0</ele><time>2026-04-03T15:05:33.999Z</time></trkpt><trkpt lat="42.94000273293884" lon="10.890064129443099"><ele>41.0</ele><time>2026-04-03T15:05:35.999Z</time></trkpt><trkpt lat="42.94006364776218" lon="10.890107021812097"><ele>41.0</ele><time>2026-04-03T15:06:12Z</time></trkpt><trkpt lat="42.940126668840605" lon="10.890214549447876"><ele>41.0</ele><time>2026-04-03T15:06:14Z</time></trkpt><trkpt lat="42.94020469862178" lon="10.889997264842396"><ele>41.0</ele><time>2026-04-03T15:06:36Z</time></trkpt><trkpt lat="42.94008509252668" lon="10.889933829679952"><ele>41.0</ele><time>2026-04-03T15:06:39Z</time></trkpt><trkpt lat="42.93999023836469" lon="10.890031348002028"><ele>41.0</ele><time>2026-04-03T15:06:40Z</time></trkpt><trkpt lat="42.93985706965952" lon="10.889961558378173"><ele>41.0</ele><time>2026-04-03T15:06:42Z</time></trkpt><trkpt lat="42.9397539005486" lon="10.889888909784668"><ele>41.0</ele><time>2026-04-03T15:06:44Z</time></trkpt><trkpt lat="42.93974177074276" lon="10.889581531032972"><ele>41.0</ele><time>2026-04-03T15:06:46Z</time></trkpt><trkpt lat="42.93965858123986" lon="10.889467621252502"><ele>41.0</ele><time>2026-04-03T15:06:48Z</time></trkpt><trkpt lat="42.93958100476534" lon="10.889346249722891"><ele>41.0</ele><time>2026-04-03T15:06:50Z</time></trkpt><trkpt lat="42.93953592008539" lon="10.889279949135332"><ele>41.0</ele><time>2026-04-03T15:06:51Z</time></trkpt><trkpt lat="42.93949030894444" lon="10.889207803399605"><ele>41.0</ele><time>2026-04-03T15:06:52Z</time></trkpt><trkpt lat="42.93944325953108" lon="10.889130309290959"><ele>41.0</ele><time>2026-04-03T15:06:53Z</time></trkpt><trkpt lat="42.939393634766205" lon="10.889051378191473"><ele>41.166666666666664</ele><time>2026-04-03T15:06:54Z</time></trkpt><trkpt lat="42.93934396523946" lon="10.88897301535245"><ele>41.33333333333333</ele><time>2026-04-03T15:06:55Z</time></trkpt><trkpt lat="42.93929509796352" lon="10.888896274597245"><ele>41.5</ele><time>2026-04-03T15:06:56Z</time></trkpt><trkpt lat="42.9392456439345" lon="10.88882150660149"><ele>41.666666666666664</ele><time>2026-04-03T15:06:57Z</time></trkpt><trkpt lat="42.93919258972977" lon="10.888743914493991"><ele>41.833333333333336</ele><time>2026-04-03T15:06:58Z</time></trkpt><trkpt lat="42.939137744394515" lon="10.888661891023522"><ele>42.0</ele><time>2026-04-03T15:06:59Z</time></trkpt><trkpt lat="42.93908593106665" lon="10.888582248986372"><ele>42.0</ele><time>2026-04-03T15:07:00Z</time></trkpt><trkpt lat="42.93903321560905" lon="10.888498788528786"><ele>42.0</ele><time>2026-04-03T15:07:01Z</time></trkpt><trkpt lat="42.93898265452619" lon="10.88841899975258"><ele>42.0</ele><time>2026-04-03T15:07:02Z</time></trkpt><trkpt lat="42.938935858774826" lon="10.888347826010916"><ele>42.0</ele><time>2026-04-03T15:07:03Z</time></trkpt><trkpt lat="42.9388917151656" lon="10.88828011367722"><ele>42.0</ele><time>2026-04-03T15:07:04Z</time></trkpt><trkpt lat="42.93884770718927" lon="10.888207933913213"><ele>42.0</ele><time>2026-04-03T15:07:05Z</time></trkpt><trkpt lat="42.93876847816536" lon="10.888082327048766"><ele>41.5</ele><time>2026-04-03T15:07:06Z</time></trkpt><trkpt lat="42.93871403437192" lon="10.887998620573446"><ele>41.0</ele><time>2026-04-03T15:07:07Z</time></trkpt><trkpt lat="42.93867253009392" lon="10.88792472549388"><ele>40.5</ele><time>2026-04-03T15:07:08Z</time></trkpt><trkpt lat="42.938628751275466" lon="10.887861406747952"><ele>40.0</ele><time>2026-04-03T15:07:09Z</time></trkpt><trkpt lat="42.93854878709216" lon="10.88774017033397"><ele>39.5</ele><time>2026-04-03T15:07:11Z</time></trkpt><trkpt lat="42.93849264803855" lon="10.887628335561947"><ele>39.0</ele><time>2026-04-03T15:07:13Z</time></trkpt><trkpt lat="42.93852447109155" lon="10.887511105486887"><ele>38.833333333333336</ele><time>2026-04-03T15:07:15Z</time></trkpt><trkpt lat="42.93858573191251" lon="10.887453964098182"><ele>38.666666666666664</ele><time>2026-04-03T15:07:16Z</time></trkpt><trkpt lat="42.938646004260896" lon="10.887382890228062"><ele>38.5</ele><time>2026-04-03T15:07:17Z</time></trkpt><trkpt lat="42.93870321497896" lon="10.88731026821153"><ele>38.33333333333333</ele><time>2026-04-03T15:07:18Z</time></trkpt><trkpt lat="42.938758145988864" lon="10.887234942148691"><ele>38.166666666666664</ele><time>2026-04-03T15:07:19Z</time></trkpt><trkpt lat="42.93881324355667" lon="10.8871669581302"><ele>38.0</ele><time>2026-04-03T15:07:20Z</time></trkpt><trkpt lat="42.93886853542273" lon="10.887106758766024"><ele>38.0</ele><time>2026-04-03T15:07:21Z</time></trkpt><trkpt lat="42.93893265608063" lon="10.887036561485457"><ele>38.0</ele><time>2026-04-03T15:07:22Z</time></trkpt><trkpt lat="42.93899761547017" lon="10.886965078560403"><ele>38.0</ele><time>2026-04-03T15:07:23Z</time></trkpt><trkpt lat="42.939062451584846" lon="10.886894912854897"><ele>38.0</ele><time>2026-04-03T15:07:24Z</time></trkpt><trkpt lat="42.93912046773203" lon="10.886823943611567"><ele>38.0</ele><time>2026-04-03T15:07:25Z</time></trkpt><trkpt lat="42.9391830605118" lon="10.886756169645649"><ele>38.0</ele><time>2026-04-03T15:07:26Z</time></trkpt><trkpt lat="42.93924690417906" lon="10.886686449080601"><ele>38.0</ele><time>2026-04-03T15:07:27Z</time></trkpt><trkpt lat="42.9393141170435" lon="10.886610375568614"><ele>38.0</ele><time>2026-04-03T15:07:28Z</time></trkpt><trkpt lat="42.939373427558245" lon="10.886542365736668"><ele>38.0</ele><time>2026-04-03T15:07:29Z</time></trkpt><trkpt lat="42.93943324707974" lon="10.88647532554988"><ele>38.0</ele><time>2026-04-03T15:07:30Z</time></trkpt><trkpt lat="42.93948597020064" lon="10.886411103525397"><ele>38.0</ele><time>2026-04-03T15:07:31Z</time></trkpt><trkpt lat="42.939547167497736" lon="10.886341699728035"><ele>38.0</ele><time>2026-04-03T15:07:32Z</time></trkpt><trkpt lat="42.939606695425645" lon="10.886273917184544"><ele>38.0</ele><time>2026-04-03T15:07:33Z</time></trkpt><trkpt lat="42.9396697987754" lon="10.886206323601668"><ele>38.0</ele><time>2026-04-03T15:07:34Z</time></trkpt><trkpt lat="42.93973193780868" lon="10.886138814286662"><ele>38.0</ele><time>2026-04-03T15:07:35Z</time></trkpt><trkpt lat="42.9397907114885" lon="10.886070881353056"><ele>38.0</ele><time>2026-04-03T15:07:36Z</time></trkpt><trkpt lat="42.93985512704183" lon="10.885995685576848"><ele>38.0</ele><time>2026-04-03T15:07:37Z</time></trkpt><trkpt lat="42.939915105195894" lon="10.885924678057256"><ele>38.0</ele><time>2026-04-03T15:07:38Z</time></trkpt><trkpt lat="42.9399747139015" lon="10.885852510914676"><ele>38.166666666666664</ele><time>2026-04-03T15:07:39Z</time></trkpt><trkpt lat="42.94003901921901" lon="10.885779464484232"><ele>38.33333333333333</ele><time>2026-04-03T15:07:40Z</time></trkpt><trkpt lat="42.94010011782505" lon="10.885708566757744"><ele>38.5</ele><time>2026-04-03T15:07:41Z</time></trkpt><trkpt lat="42.94016319290653" lon="10.885634792312086"><ele>38.666666666666664</ele><time>2026-04-03T15:07:42Z</time></trkpt><trkpt lat="42.94022488812987" lon="10.885561780298936"><ele>38.833333333333336</ele><time>2026-04-03T15:07:43Z</time></trkpt><trkpt lat="42.940286361749486" lon="10.885490273773081"><ele>39.0</ele><time>2026-04-03T15:07:44Z</time></trkpt><trkpt lat="42.94035340063134" lon="10.885415020542741"><ele>38.666666666666664</ele><time>2026-04-03T15:07:45Z</time></trkpt><trkpt lat="42.940419495446505" lon="10.885341043766404"><ele>38.333333333333336</ele><time>2026-04-03T15:07:46Z</time></trkpt><trkpt lat="42.940483174284736" lon="10.885268016111697"><ele>38.0</ele><time>2026-04-03T15:07:47Z</time></trkpt><trkpt lat="42.9405519270049" lon="10.885192582735504"><ele>37.66666666666667</ele><time>2026-04-03T15:07:48Z</time></trkpt><trkpt lat="42.940617616959706" lon="10.885117576673744"><ele>37.333333333333336</ele><time>2026-04-03T15:07:49Z</time></trkpt><trkpt lat="42.9406892377966" lon="10.885036691193834"><ele>37.0</ele><time>2026-04-03T15:07:50Z</time></trkpt><trkpt lat="42.94075693708711" lon="10.884954059145581"><ele>37.0</ele><time>2026-04-03T15:07:51Z</time></trkpt><trkpt lat="42.94082886979257" lon="10.884870105428474"><ele>37.0</ele><time>2026-04-03T15:07:51.999Z</time></trkpt><trkpt lat="42.940898827000446" lon="10.884790407633286"><ele>37.0</ele><time>2026-04-03T15:07:52.999Z</time></trkpt><trkpt lat="42.9409718791678" lon="10.884712137362461"><ele>37.0</ele><time>2026-04-03T15:07:53.999Z</time></trkpt><trkpt lat="42.94104233344886" lon="10.884634250734798"><ele>37.0</ele><time>2026-04-03T15:07:54.999Z</time></trkpt><trkpt lat="42.9411083922013" lon="10.884552960286548"><ele>36.6</ele><time>2026-04-03T15:07:56Z</time></trkpt><trkpt lat="42.94116873378811" lon="10.884465519120035"><ele>36.2</ele><time>2026-04-03T15:07:57Z</time></trkpt><trkpt lat="42.941224549693324" lon="10.884366540162599"><ele>35.8</ele><time>2026-04-03T15:07:58Z</time></trkpt><trkpt lat="42.94127254667109" lon="10.884259350429486"><ele>35.4</ele><time>2026-04-03T15:07:59Z</time></trkpt><trkpt lat="42.94131801226176" lon="10.884141663093482"><ele>35.0</ele><time>2026-04-03T15:08:00Z</time></trkpt><trkpt lat="42.941350636196056" lon="10.884025630258153"><ele>35.0</ele><time>2026-04-03T15:08:01Z</time></trkpt><trkpt lat="42.94138934930948" lon="10.883900332332608"><ele>35.0</ele><time>2026-04-03T15:08:02Z</time></trkpt><trkpt lat="42.941424386050606" lon="10.883777262815482"><ele>35.0</ele><time>2026-04-03T15:08:03Z</time></trkpt><trkpt lat="42.94146493906315" lon="10.883654534168391"><ele>35.0</ele><time>2026-04-03T15:08:04Z</time></trkpt><trkpt lat="42.941501428137904" lon="10.883533245104742"><ele>35.0</ele><time>2026-04-03T15:08:05Z</time></trkpt><trkpt lat="42.94153242762413" lon="10.88341608602695"><ele>35.4</ele><time>2026-04-03T15:08:06Z</time></trkpt><trkpt lat="42.94156545186677" lon="10.883306542759819"><ele>35.8</ele><time>2026-04-03T15:08:07Z</time></trkpt><trkpt lat="42.941595820230155" lon="10.883217484200777"><ele>36.2</ele><time>2026-04-03T15:08:08Z</time></trkpt><trkpt lat="42.94163999106479" lon="10.883069081492224"><ele>36.6</ele><time>2026-04-03T15:08:10Z</time></trkpt><trkpt lat="42.94156639815567" lon="10.882957452644254"><ele>37.0</ele><time>2026-04-03T15:08:13Z</time></trkpt><trkpt lat="42.941475921041594" lon="10.882889895308747"><ele>37.0</ele><time>2026-04-03T15:08:15Z</time></trkpt><trkpt lat="42.94137541048349" lon="10.882827979214763"><ele>37.0</ele><time>2026-04-03T15:08:17Z</time></trkpt><trkpt lat="42.941310677322" lon="10.882773473473735"><ele>37.0</ele><time>2026-04-03T15:08:19Z</time></trkpt><trkpt lat="42.94132720090343" lon="10.882623169630046"><ele>37.0</ele><time>2026-04-03T15:08:21Z</time></trkpt><trkpt lat="42.9413820164068" lon="10.882468150997825"><ele>37.0</ele><time>2026-04-03T15:08:23Z</time></trkpt><trkpt lat="42.941405910129006" lon="10.882381437843632"><ele>37.0</ele><time>2026-04-03T15:08:24Z</time></trkpt><trkpt lat="42.941433362182906" lon="10.88229627850455"><ele>37.0</ele><time>2026-04-03T15:08:25Z</time></trkpt><trkpt lat="42.94146092023109" lon="10.882206738421333"><ele>37.0</ele><time>2026-04-03T15:08:26Z</time></trkpt><trkpt lat="42.94149308243994" lon="10.882112567596263"><ele>37.0</ele><time>2026-04-03T15:08:27Z</time></trkpt><trkpt lat="42.941526797417836" lon="10.882014193445274"><ele>37.0</ele><time>2026-04-03T15:08:28Z</time></trkpt><trkpt lat="42.94156454733963" lon="10.881909146138003"><ele>37.0</ele><time>2026-04-03T15:08:29Z</time></trkpt><trkpt lat="42.94159817955367" lon="10.881811503857886"><ele>36.833333333333336</ele><time>2026-04-03T15:08:30Z</time></trkpt><trkpt lat="42.94163059493319" lon="10.881711913258561"><ele>36.66666666666667</ele><time>2026-04-03T15:08:31Z</time></trkpt><trkpt lat="42.94166488379934" lon="10.881618066044462"><ele>36.5</ele><time>2026-04-03T15:08:32Z</time></trkpt><trkpt lat="42.9417095734609" lon="10.881487364293942"><ele>36.333333333333336</ele><time>2026-04-03T15:08:34Z</time></trkpt><trkpt lat="42.94174794887886" lon="10.881367755512263"><ele>36.166666666666664</ele><time>2026-04-03T15:08:36Z</time></trkpt><trkpt lat="42.94179234195291" lon="10.881304397020656"><ele>36.0</ele><time>2026-04-03T15:08:38Z</time></trkpt><trkpt lat="42.94187984023431" lon="10.88131132980841"><ele>35.0</ele><time>2026-04-03T15:08:40Z</time></trkpt><trkpt lat="42.941943713990554" lon="10.881332314550313"><ele>34.0</ele><time>2026-04-03T15:08:41Z</time></trkpt><trkpt lat="42.942037885035425" lon="10.881373130750097"><ele>33.0</ele><time>2026-04-03T15:08:43Z</time></trkpt><trkpt lat="42.94210728349485" lon="10.881409519903942"><ele>32.0</ele><time>2026-04-03T15:08:46Z</time></trkpt><trkpt lat="42.942175932673976" lon="10.881294717762486"><ele>31.0</ele><time>2026-04-03T15:08:50Z</time></trkpt><trkpt lat="42.94220056450922" lon="10.881150781514041"><ele>31.000000000000004</ele><time>2026-04-03T15:08:52Z</time></trkpt><trkpt lat="42.9422174494589" lon="10.880997840497795"><ele>31.0</ele><time>2026-04-03T15:08:54Z</time></trkpt><trkpt lat="42.942236087921444" lon="10.880847437040016"><ele>31.0</ele><time>2026-04-03T15:08:56Z</time></trkpt><trkpt lat="42.94224847102031" lon="10.880754302585583"><ele>31.0</ele><time>2026-04-03T15:08:57Z</time></trkpt><trkpt lat="42.942259905667655" lon="10.88066830158605"><ele>31.000000000000004</ele><time>2026-04-03T15:08:58Z</time></trkpt><trkpt lat="42.942273003296506" lon="10.880574651589628"><ele>31.0</ele><time>2026-04-03T15:08:59Z</time></trkpt><trkpt lat="42.94228799541657" lon="10.880474786405715"><ele>31.0</ele><time>2026-04-03T15:09:00Z</time></trkpt><trkpt lat="42.94230128417262" lon="10.880386268290513"><ele>31.000000000000004</ele><time>2026-04-03T15:09:01Z</time></trkpt><trkpt lat="42.942319250895494" lon="10.880289766770467"><ele>31.0</ele><time>2026-04-03T15:09:02Z</time></trkpt><trkpt lat="42.942340303895584" lon="10.880199872945537"><ele>31.0</ele><time>2026-04-03T15:09:03Z</time></trkpt><trkpt lat="42.942349715371954" lon="10.880108472638348"><ele>31.000000000000004</ele><time>2026-04-03T15:09:04Z</time></trkpt><trkpt lat="42.942362369572535" lon="10.880020917682936"><ele>31.0</ele><time>2026-04-03T15:09:05Z</time></trkpt><trkpt lat="42.94238582927207" lon="10.879933639753558"><ele>31.0</ele><time>2026-04-03T15:09:06Z</time></trkpt><trkpt lat="42.942417202943716" lon="10.879753832277103"><ele>31.166666666666668</ele><time>2026-04-03T15:09:08Z</time></trkpt><trkpt lat="42.942428254561555" lon="10.879663176503616"><ele>31.333333333333336</ele><time>2026-04-03T15:09:09Z</time></trkpt><trkpt lat="42.94243878286701" lon="10.87957352830071"><ele>31.5</ele><time>2026-04-03T15:09:10Z</time></trkpt><trkpt lat="42.94244965835013" lon="10.879486942475339"><ele>31.666666666666664</ele><time>2026-04-03T15:09:11Z</time></trkpt><trkpt lat="42.942462197162676" lon="10.879393787003881"><ele>31.833333333333332</ele><time>2026-04-03T15:09:12Z</time></trkpt><trkpt lat="42.94248855650448" lon="10.879214921771943"><ele>32.0</ele><time>2026-04-03T15:09:14Z</time></trkpt><trkpt lat="42.942510144860265" lon="10.879045135162558"><ele>31.999999999999996</ele><time>2026-04-03T15:09:16Z</time></trkpt><trkpt lat="42.942506850762584" lon="10.878952616085272"><ele>32.0</ele><time>2026-04-03T15:09:17Z</time></trkpt><trkpt lat="42.94251785414297" lon="10.878793287756334"><ele>32.0</ele><time>2026-04-03T15:09:19Z</time></trkpt><trkpt lat="42.94251002501197" lon="10.878627487812459"><ele>32.0</ele><time>2026-04-03T15:09:21Z</time></trkpt><trkpt lat="42.942503699040536" lon="10.878536315005944"><ele>31.999999999999996</ele><time>2026-04-03T15:09:22Z</time></trkpt><trkpt lat="42.94251176461853" lon="10.878443875620624"><ele>32.0</ele><time>2026-04-03T15:09:23Z</time></trkpt><trkpt lat="42.942492189489556" lon="10.878351342864015"><ele>32.0</ele><time>2026-04-03T15:09:24Z</time></trkpt><trkpt lat="42.942488121772605" lon="10.878262124317937"><ele>31.999999999999996</ele><time>2026-04-03T15:09:25Z</time></trkpt><trkpt lat="42.942491944519794" lon="10.878170741880037"><ele>32.0</ele><time>2026-04-03T15:09:26Z</time></trkpt><trkpt lat="42.94250047898527" lon="10.878078142204929"><ele>32.0</ele><time>2026-04-03T15:09:27Z</time></trkpt><trkpt lat="42.94250796823804" lon="10.877989007479984"><ele>31.999999999999996</ele><time>2026-04-03T15:09:28Z</time></trkpt><trkpt lat="42.942515822458496" lon="10.877896368486478"><ele>32.0</ele><time>2026-04-03T15:09:29Z</time></trkpt><trkpt lat="42.94251655643289" lon="10.877803763878791"><ele>32.0</ele><time>2026-04-03T15:09:30Z</time></trkpt><trkpt lat="42.942509904528585" lon="10.877638964031833"><ele>32.2</ele><time>2026-04-03T15:09:32Z</time></trkpt><trkpt lat="42.94250794644118" lon="10.877551269997669"><ele>32.400000000000006</ele><time>2026-04-03T15:09:33Z</time></trkpt><trkpt lat="42.94248423037684" lon="10.877391171915637"><ele>32.599999999999994</ele><time>2026-04-03T15:09:35Z</time></trkpt><trkpt lat="42.94247975645265" lon="10.877245520490646"><ele>32.8</ele><time>2026-04-03T15:09:37Z</time></trkpt><trkpt lat="42.94248525033136" lon="10.877125672923777"><ele>33.0</ele><time>2026-04-03T15:09:39Z</time></trkpt><trkpt lat="42.942485546610605" lon="10.8769954528074"><ele>33.0</ele><time>2026-04-03T15:09:41Z</time></trkpt><trkpt lat="42.942485005171385" lon="10.876849332069176"><ele>33.0</ele><time>2026-04-03T15:09:43Z</time></trkpt><trkpt lat="42.942497568570445" lon="10.876683794199772"><ele>33.0</ele><time>2026-04-03T15:09:45Z</time></trkpt><trkpt lat="42.94248985449276" lon="10.876540167481059"><ele>33.0</ele><time>2026-04-03T15:09:47Z</time></trkpt><trkpt lat="42.94250496515567" lon="10.876392892138165"><ele>33.0</ele><time>2026-04-03T15:09:49Z</time></trkpt><trkpt lat="42.9425105700892" lon="10.87622616544872"><ele>32.6</ele><time>2026-04-03T15:09:51Z</time></trkpt><trkpt lat="42.942516456380226" lon="10.876137144985464"><ele>32.199999999999996</ele><time>2026-04-03T15:09:52Z</time></trkpt><trkpt lat="42.94252751196036" lon="10.875970221187986"><ele>31.8</ele><time>2026-04-03T15:09:54Z</time></trkpt><trkpt lat="42.94253944262376" lon="10.875884124594739"><ele>31.4</ele><time>2026-04-03T15:09:55Z</time></trkpt><trkpt lat="42.94257666478609" lon="10.875715056398246"><ele>31.0</ele><time>2026-04-03T15:09:57Z</time></trkpt><trkpt lat="42.94260491174712" lon="10.875549829580303"><ele>30.8</ele><time>2026-04-03T15:09:59Z</time></trkpt><trkpt lat="42.942637152791086" lon="10.875426480533699"><ele>30.6</ele><time>2026-04-03T15:10:01Z</time></trkpt><trkpt lat="42.94266671369913" lon="10.875344930536679"><ele>30.4</ele><time>2026-04-03T15:10:05Z</time></trkpt><trkpt lat="42.94267051235324" lon="10.875255049710912"><ele>30.2</ele><time>2026-04-03T15:10:08Z</time></trkpt><trkpt lat="42.94251850866004" lon="10.875200819278158"><ele>30.0</ele><time>2026-04-03T15:10:09Z</time></trkpt><trkpt lat="42.942416939367405" lon="10.875121375061285"><ele>29.714285714285715</ele><time>2026-04-03T15:10:11Z</time></trkpt><trkpt lat="42.942358870202895" lon="10.875076708944176"><ele>29.428571428571427</ele><time>2026-04-03T15:10:12Z</time></trkpt><trkpt lat="42.94229826188411" lon="10.875033048134558"><ele>29.142857142857142</ele><time>2026-04-03T15:10:13Z</time></trkpt><trkpt lat="42.942239728890215" lon="10.874986291792107"><ele>28.857142857142858</ele><time>2026-04-03T15:10:14Z</time></trkpt><trkpt lat="42.94216796853222" lon="10.874923535783964"><ele>28.57142857142857</ele><time>2026-04-03T15:10:16Z</time></trkpt><trkpt lat="42.942114276701474" lon="10.874875418020533"><ele>28.285714285714285</ele><time>2026-04-03T15:10:29.999Z</time></trkpt><trkpt lat="42.94203527304505" lon="10.874818311575698"><ele>28.0</ele><time>2026-04-03T15:10:31.999Z</time></trkpt><trkpt lat="42.941976731229005" lon="10.874775877780783"><ele>28.000000000000004</ele><time>2026-04-03T15:10:32.999Z</time></trkpt><trkpt lat="42.94190755143342" lon="10.874725219600398"><ele>28.0</ele><time>2026-04-03T15:10:33.999Z</time></trkpt><trkpt lat="42.94182946963507" lon="10.874664635073314"><ele>28.0</ele><time>2026-04-03T15:10:34.999Z</time></trkpt><trkpt lat="42.9417595652144" lon="10.874579416068494"><ele>28.0</ele><time>2026-04-03T15:10:35.999Z</time></trkpt><trkpt lat="42.94169729681425" lon="10.87455018836137"><ele>28.000000000000004</ele><time>2026-04-03T15:10:37.999Z</time></trkpt><trkpt lat="42.94164066929441" lon="10.874496055087748"><ele>28.0</ele><time>2026-04-03T15:10:38.999Z</time></trkpt><trkpt lat="42.941586839205456" lon="10.8744492892298"><ele>27.714285714285715</ele><time>2026-04-03T15:10:39.999Z</time></trkpt><trkpt lat="42.94154269114991" lon="10.874386405197123"><ele>27.42857142857143</ele><time>2026-04-03T15:10:40.999Z</time></trkpt><trkpt lat="42.94148940983309" lon="10.874336177920258"><ele>27.142857142857142</ele><time>2026-04-03T15:10:41.999Z</time></trkpt><trkpt lat="42.94143840840433" lon="10.874285595310006"><ele>26.857142857142858</ele><time>2026-04-03T15:10:42.999Z</time></trkpt><trkpt lat="42.94138767343355" lon="10.87423242652241"><ele>26.571428571428573</ele><time>2026-04-03T15:10:43.999Z</time></trkpt><trkpt lat="42.9412989081419" lon="10.874128690701294"><ele>26.285714285714285</ele><time>2026-04-03T15:10:45.999Z</time></trkpt><trkpt lat="42.94125273967112" lon="10.874066526871928"><ele>26.0</ele><time>2026-04-03T15:10:46.999Z</time></trkpt><trkpt lat="42.94116491164751" lon="10.87393764312135"><ele>25.857142857142858</ele><time>2026-04-03T15:10:48.999Z</time></trkpt><trkpt lat="42.94112156898185" lon="10.873871290206488"><ele>25.714285714285715</ele><time>2026-04-03T15:10:49.999Z</time></trkpt><trkpt lat="42.94107595616929" lon="10.87379961762931"><ele>25.571428571428573</ele><time>2026-04-03T15:10:50.999Z</time></trkpt><trkpt lat="42.94102970064793" lon="10.873726935318281"><ele>25.42857142857143</ele><time>2026-04-03T15:10:51.999Z</time></trkpt><trkpt lat="42.940980000988986" lon="10.873649423575596"><ele>25.285714285714285</ele><time>2026-04-03T15:10:52.999Z</time></trkpt><trkpt lat="42.9409178062585" lon="10.873586810679402"><ele>25.142857142857146</ele><time>2026-04-03T15:10:53.999Z</time></trkpt><trkpt lat="42.94087199480045" lon="10.873507990714856"><ele>25.0</ele><time>2026-04-03T15:10:54.999Z</time></trkpt><trkpt lat="42.94082140421508" lon="10.873431486649412"><ele>24.833333333333336</ele><time>2026-04-03T15:10:55.999Z</time></trkpt><trkpt lat="42.94076323321218" lon="10.873361647947418"><ele>24.666666666666668</ele><time>2026-04-03T15:10:56.999Z</time></trkpt><trkpt lat="42.940712865174724" lon="10.873279313583431"><ele>24.5</ele><time>2026-04-03T15:10:57.999Z</time></trkpt><trkpt lat="42.94065346017059" lon="10.873212363091673"><ele>24.333333333333336</ele><time>2026-04-03T15:10:58.999Z</time></trkpt><trkpt lat="42.940584211504564" lon="10.873146903504756"><ele>24.166666666666668</ele><time>2026-04-03T15:10:59.999Z</time></trkpt><trkpt lat="42.940517500014685" lon="10.873091379138593"><ele>24.0</ele><time>2026-04-03T15:11:00.999Z</time></trkpt><trkpt lat="42.94045470013988" lon="10.873041895659375"><ele>24.0</ele><time>2026-04-03T15:11:01.999Z</time></trkpt><trkpt lat="42.94037468933411" lon="10.872981180296843"><ele>24.0</ele><time>2026-04-03T15:11:03.999Z</time></trkpt><trkpt lat="42.940268473410924" lon="10.872928863267514"><ele>24.0</ele><time>2026-04-03T15:11:05.999Z</time></trkpt><trkpt lat="42.94020914807789" lon="10.87288009319845"><ele>24.0</ele><time>2026-04-03T15:11:06.999Z</time></trkpt><trkpt lat="42.940143532712646" lon="10.872837048931062"><ele>24.0</ele><time>2026-04-03T15:11:07.999Z</time></trkpt><trkpt lat="42.940088720251346" lon="10.872772442883338"><ele>24.0</ele><time>2026-04-03T15:11:08.999Z</time></trkpt><trkpt lat="42.940021919448895" lon="10.872722191283568"><ele>24.0</ele><time>2026-04-03T15:11:09.999Z</time></trkpt><trkpt lat="42.93995562733399" lon="10.872670010014991"><ele>24.0</ele><time>2026-04-03T15:11:10.999Z</time></trkpt><trkpt lat="42.93989034162845" lon="10.872616882275985"><ele>24.0</ele><time>2026-04-03T15:11:11.998Z</time></trkpt><trkpt lat="42.93982764845631" lon="10.872560907731586"><ele>24.0</ele><time>2026-04-03T15:11:12.998Z</time></trkpt><trkpt lat="42.93977124996609" lon="10.8725037482726"><ele>24.0</ele><time>2026-04-03T15:11:13.998Z</time></trkpt><trkpt lat="42.93971413638125" lon="10.872442695043832"><ele>24.0</ele><time>2026-04-03T15:11:14.998Z</time></trkpt><trkpt lat="42.93965426433386" lon="10.872370172632793"><ele>24.0</ele><time>2026-04-03T15:11:15.998Z</time></trkpt><trkpt lat="42.939596169101264" lon="10.872292727286935"><ele>24.0</ele><time>2026-04-03T15:11:16.998Z</time></trkpt><trkpt lat="42.93954079947869" lon="10.872208690132604"><ele>24.0</ele><time>2026-04-03T15:11:17.998Z</time></trkpt><trkpt lat="42.939486597191184" lon="10.87212326994498"><ele>24.0</ele><time>2026-04-03T15:11:18.998Z</time></trkpt><trkpt lat="42.93943591550041" lon="10.872037222795516"><ele>24.0</ele><time>2026-04-03T15:11:19.998Z</time></trkpt><trkpt lat="42.93937968222477" lon="10.871939455343558"><ele>24.0</ele><time>2026-04-03T15:11:20.998Z</time></trkpt><trkpt lat="42.93932972801757" lon="10.871852604773101"><ele>24.0</ele><time>2026-04-03T15:11:21.998Z</time></trkpt><trkpt lat="42.93927741709489" lon="10.871760978416098"><ele>24.0</ele><time>2026-04-03T15:11:22.998Z</time></trkpt><trkpt lat="42.93923117023651" lon="10.871679918746933"><ele>24.0</ele><time>2026-04-03T15:11:23.998Z</time></trkpt><trkpt lat="42.93917807270223" lon="10.871586851573936"><ele>24.0</ele><time>2026-04-03T15:11:24.998Z</time></trkpt><trkpt lat="42.93912505966563" lon="10.871490659661307"><ele>24.0</ele><time>2026-04-03T15:11:25.998Z</time></trkpt><trkpt lat="42.939071087535254" lon="10.871391781904705"><ele>24.0</ele><time>2026-04-03T15:11:26.998Z</time></trkpt><trkpt lat="42.9390091821534" lon="10.871285480392006"><ele>24.4</ele><time>2026-04-03T15:11:27.998Z</time></trkpt><trkpt lat="42.938940566277466" lon="10.871186463294698"><ele>24.799999999999997</ele><time>2026-04-03T15:11:28.998Z</time></trkpt><trkpt lat="42.938879726259124" lon="10.871103303990237"><ele>25.200000000000003</ele><time>2026-04-03T15:11:29.998Z</time></trkpt><trkpt lat="42.93881005083633" lon="10.87101557816692"><ele>25.6</ele><time>2026-04-03T15:11:30.998Z</time></trkpt><trkpt lat="42.93874561382904" lon="10.87094050107385"><ele>26.0</ele><time>2026-04-03T15:11:31.998Z</time></trkpt><trkpt lat="42.93866759286982" lon="10.870859948408544"><ele>26.200000000000003</ele><time>2026-04-03T15:11:32.998Z</time></trkpt><trkpt lat="42.93859200156232" lon="10.870791525666359"><ele>26.400000000000002</ele><time>2026-04-03T15:11:33.998Z</time></trkpt><trkpt lat="42.93851334585197" lon="10.870729970485788"><ele>26.6</ele><time>2026-04-03T15:11:34.998Z</time></trkpt><trkpt lat="42.93843348916571" lon="10.870672112843723"><ele>26.8</ele><time>2026-04-03T15:11:35.998Z</time></trkpt><trkpt lat="42.93834946474811" lon="10.870620107993837"><ele>27.0</ele><time>2026-04-03T15:11:36.998Z</time></trkpt><trkpt lat="42.93827101201618" lon="10.870573065486386"><ele>27.0</ele><time>2026-04-03T15:11:37.998Z</time></trkpt><trkpt lat="42.93819192407001" lon="10.870526429513111"><ele>27.0</ele><time>2026-04-03T15:11:38.998Z</time></trkpt><trkpt lat="42.93810311954815" lon="10.87047821295132"><ele>27.0</ele><time>2026-04-03T15:11:39.998Z</time></trkpt><trkpt lat="42.938020469425375" lon="10.870436577119277"><ele>27.0</ele><time>2026-04-03T15:11:40.998Z</time></trkpt><trkpt lat="42.93793966823938" lon="10.870398610239944"><ele>27.0</ele><time>2026-04-03T15:11:41.998Z</time></trkpt><trkpt lat="42.93786036588141" lon="10.870361347748045"><ele>27.0</ele><time>2026-04-03T15:11:42.998Z</time></trkpt><trkpt lat="42.9377801485464" lon="10.870322342048908"><ele>27.0</ele><time>2026-04-03T15:11:43.998Z</time></trkpt><trkpt lat="42.93770396461132" lon="10.870282180833566"><ele>27.0</ele><time>2026-04-03T15:11:44.998Z</time></trkpt><trkpt lat="42.93762684966092" lon="10.870238167213298"><ele>27.0</ele><time>2026-04-03T15:11:45.998Z</time></trkpt><trkpt lat="42.93754924490546" lon="10.870205804875031"><ele>27.0</ele><time>2026-04-03T15:11:46.998Z</time></trkpt><trkpt lat="42.93748206803995" lon="10.870174397009476"><ele>27.0</ele><time>2026-04-03T15:11:47.998Z</time></trkpt><trkpt lat="42.937416210711575" lon="10.870133248600391"><ele>27.0</ele><time>2026-04-03T15:11:48.998Z</time></trkpt><trkpt lat="42.93734882136045" lon="10.870080596693798"><ele>26.857142857142858</ele><time>2026-04-03T15:11:49.998Z</time></trkpt><trkpt lat="42.93728546537066" lon="10.87004390782331"><ele>26.714285714285715</ele><time>2026-04-03T15:11:50.998Z</time></trkpt><trkpt lat="42.937218396453936" lon="10.869997690148143"><ele>26.57142857142857</ele><time>2026-04-03T15:11:51.998Z</time></trkpt><trkpt lat="42.93715127332426" lon="10.86994763725252"><ele>26.42857142857143</ele><time>2026-04-03T15:11:52.998Z</time></trkpt><trkpt lat="42.937085872300905" lon="10.869901265593425"><ele>26.28571428571429</ele><time>2026-04-03T15:11:53.998Z</time></trkpt><trkpt lat="42.9370175416128" lon="10.869853436376825"><ele>26.142857142857142</ele><time>2026-04-03T15:11:54.998Z</time></trkpt><trkpt lat="42.93695113258997" lon="10.86979899094517"><ele>26.0</ele><time>2026-04-03T15:11:55.998Z</time></trkpt><trkpt lat="42.93688033674421" lon="10.86973698519599"><ele>25.999999999999996</ele><time>2026-04-03T15:11:56.998Z</time></trkpt><trkpt lat="42.93681993303192" lon="10.869694773714983"><ele>26.0</ele><time>2026-04-03T15:11:57.998Z</time></trkpt><trkpt lat="42.93676011657114" lon="10.869654393798532"><ele>26.0</ele><time>2026-04-03T15:11:58.998Z</time></trkpt><trkpt lat="42.93664812048815" lon="10.869589938647406"><ele>26.0</ele><time>2026-04-03T15:12:00.998Z</time></trkpt><trkpt lat="42.93659257875986" lon="10.869549321498246"><ele>25.999999999999996</ele><time>2026-04-03T15:12:01.998Z</time></trkpt><trkpt lat="42.9364792392164" lon="10.869486167471809"><ele>26.0</ele><time>2026-04-03T15:12:03.998Z</time></trkpt><trkpt lat="42.93642076502784" lon="10.869449152765986"><ele>26.285714285714285</ele><time>2026-04-03T15:12:04.998Z</time></trkpt><trkpt lat="42.936352201635195" lon="10.869407984059924"><ele>26.571428571428573</ele><time>2026-04-03T15:12:05.998Z</time></trkpt><trkpt lat="42.93629174569271" lon="10.86937389482218"><ele>26.857142857142858</ele><time>2026-04-03T15:12:06.998Z</time></trkpt><trkpt lat="42.93622135676362" lon="10.869324868214038"><ele>27.142857142857142</ele><time>2026-04-03T15:12:07.998Z</time></trkpt><trkpt lat="42.93615345511726" lon="10.869279652931265"><ele>27.42857142857143</ele><time>2026-04-03T15:12:08.998Z</time></trkpt><trkpt lat="42.936087039856545" lon="10.869240051948605"><ele>27.714285714285715</ele><time>2026-04-03T15:12:09.998Z</time></trkpt><trkpt lat="42.93601757330207" lon="10.869192653847099"><ele>28.0</ele><time>2026-04-03T15:12:10.998Z</time></trkpt><trkpt lat="42.93594710566399" lon="10.869146807423252"><ele>28.333333333333336</ele><time>2026-04-03T15:12:11.998Z</time></trkpt><trkpt lat="42.93588123021242" lon="10.869091357611648"><ele>28.666666666666668</ele><time>2026-04-03T15:12:12.998Z</time></trkpt><trkpt lat="42.93581769385837" lon="10.869013939497115"><ele>29.0</ele><time>2026-04-03T15:12:13.999Z</time></trkpt><trkpt lat="42.93575124997428" lon="10.868944115301996"><ele>29.333333333333336</ele><time>2026-04-03T15:12:14.999Z</time></trkpt><trkpt lat="42.93568664033122" lon="10.868867882555737"><ele>29.666666666666668</ele><time>2026-04-03T15:12:15.999Z</time></trkpt><trkpt lat="42.93562262469084" lon="10.86878978138038"><ele>30.0</ele><time>2026-04-03T15:12:16.999Z</time></trkpt><trkpt lat="42.93555586578046" lon="10.86871286727757"><ele>30.0</ele><time>2026-04-03T15:12:17.999Z</time></trkpt><trkpt lat="42.93548513398726" lon="10.868635004999627"><ele>30.0</ele><time>2026-04-03T15:12:18.999Z</time></trkpt><trkpt lat="42.93541300999759" lon="10.868555610141346"><ele>30.0</ele><time>2026-04-03T15:12:19.999Z</time></trkpt><trkpt lat="42.93534341760483" lon="10.868480517887877"><ele>30.0</ele><time>2026-04-03T15:12:20.999Z</time></trkpt><trkpt lat="42.935258098261386" lon="10.868403594304292"><ele>30.0</ele><time>2026-04-03T15:12:21.999Z</time></trkpt><trkpt lat="42.93517493814982" lon="10.86835256653698"><ele>29.8</ele><time>2026-04-03T15:12:22.999Z</time></trkpt><trkpt lat="42.93508195729473" lon="10.868321139903868"><ele>29.6</ele><time>2026-04-03T15:12:23.999Z</time></trkpt><trkpt lat="42.93497646502863" lon="10.868328667394415"><ele>29.4</ele><time>2026-04-03T15:12:24.999Z</time></trkpt><trkpt lat="42.93486745671491" lon="10.868338014046167"><ele>29.2</ele><time>2026-04-03T15:12:25.999Z</time></trkpt><trkpt lat="42.934759037266154" lon="10.868365756693345"><ele>29.0</ele><time>2026-04-03T15:12:26.999Z</time></trkpt><trkpt lat="42.9346518818089" lon="10.868409177366212"><ele>29.2</ele><time>2026-04-03T15:12:27.999Z</time></trkpt><trkpt lat="42.93455079763906" lon="10.86845093441246"><ele>29.4</ele><time>2026-04-03T15:12:28.999Z</time></trkpt><trkpt lat="42.934450058177525" lon="10.86848850335897"><ele>29.6</ele><time>2026-04-03T15:12:29.999Z</time></trkpt><trkpt lat="42.93434988882345" lon="10.868517736132777"><ele>29.8</ele><time>2026-04-03T15:12:30.999Z</time></trkpt><trkpt lat="42.934253318070624" lon="10.868520612540577"><ele>30.0</ele><time>2026-04-03T15:12:31.999Z</time></trkpt><trkpt lat="42.93416060976421" lon="10.868562561617466"><ele>30.0</ele><time>2026-04-03T15:12:32.999Z</time></trkpt><trkpt lat="42.93406127053868" lon="10.868556667811136"><ele>30.0</ele><time>2026-04-03T15:12:33.999Z</time></trkpt><trkpt lat="42.933962332412946" lon="10.868585738331488"><ele>30.0</ele><time>2026-04-03T15:12:34.999Z</time></trkpt><trkpt lat="42.93386627001663" lon="10.86858639984226"><ele>30.0</ele><time>2026-04-03T15:12:35.999Z</time></trkpt><trkpt lat="42.93377292263693" lon="10.868567280635705"><ele>30.0</ele><time>2026-04-03T15:12:36.999Z</time></trkpt><trkpt lat="42.93369649628982" lon="10.868554513004213"><ele>30.0</ele><time>2026-04-03T15:12:37.999Z</time></trkpt><trkpt lat="42.93362483906316" lon="10.868537157027907"><ele>30.0</ele><time>2026-04-03T15:12:38.999Z</time></trkpt><trkpt lat="42.93355716865767" lon="10.868512003962586"><ele>30.0</ele><time>2026-04-03T15:12:39.999Z</time></trkpt><trkpt lat="42.93343702739598" lon="10.868625598590167"><ele>30.0</ele><time>2026-04-03T15:12:41.999Z</time></trkpt><trkpt lat="42.93336050685149" lon="10.868723757575953"><ele>30.0</ele><time>2026-04-03T15:12:43.999Z</time></trkpt><trkpt lat="42.933297157762894" lon="10.868749298328712"><ele>30.0</ele><time>2026-04-03T15:12:46.999Z</time></trkpt><trkpt lat="42.933204710407246" lon="10.868718727220525"><ele>30.0</ele><time>2026-04-03T15:12:49.999Z</time></trkpt><trkpt lat="42.93312297676206" lon="10.86862169689969"><ele>30.0</ele><time>2026-04-03T15:12:51.999Z</time></trkpt><trkpt lat="42.93302362582932" lon="10.868523097642377"><ele>30.0</ele><time>2026-04-03T15:12:53.999Z</time></trkpt><trkpt lat="42.93296273307755" lon="10.868462682637084"><ele>30.0</ele><time>2026-04-03T15:12:54.999Z</time></trkpt><trkpt lat="42.93289573900843" lon="10.868400511091474"><ele>30.0</ele><time>2026-04-03T15:12:55.999Z</time></trkpt><trkpt lat="42.93282804650391" lon="10.868342574792653"><ele>30.0</ele><time>2026-04-03T15:12:56.999Z</time></trkpt><trkpt lat="42.932760109510156" lon="10.868289971260142"><ele>30.0</ele><time>2026-04-03T15:12:57.999Z</time></trkpt><trkpt lat="42.93268575190074" lon="10.868232797879124"><ele>30.0</ele><time>2026-04-03T15:12:58.999Z</time></trkpt><trkpt lat="42.93260010721233" lon="10.868169989771657"><ele>30.0</ele><time>2026-04-03T15:12:59.999Z</time></trkpt><trkpt lat="42.932507212983445" lon="10.868106708905506"><ele>30.0</ele><time>2026-04-03T15:13:00.999Z</time></trkpt><trkpt lat="42.93241870054363" lon="10.86805128647837"><ele>30.0</ele><time>2026-04-03T15:13:01.999Z</time></trkpt><trkpt lat="42.9323322067428" lon="10.868005515063293"><ele>30.0</ele><time>2026-04-03T15:13:02.999Z</time></trkpt><trkpt lat="42.932239318251476" lon="10.867957466489795"><ele>30.0</ele><time>2026-04-03T15:13:03.999Z</time></trkpt><trkpt lat="42.93213827770717" lon="10.86791124210688"><ele>30.0</ele><time>2026-04-03T15:13:04.999Z</time></trkpt><trkpt lat="42.932038988550865" lon="10.867866893186969"><ele>30.0</ele><time>2026-04-03T15:13:05.999Z</time></trkpt><trkpt lat="42.93192819758339" lon="10.867821174833164"><ele>30.0</ele><time>2026-04-03T15:13:06.999Z</time></trkpt><trkpt lat="42.931817516285804" lon="10.867775459599"><ele>30.0</ele><time>2026-04-03T15:13:07.999Z</time></trkpt><trkpt lat="42.93170954368898" lon="10.867728900437422"><ele>30.0</ele><time>2026-04-03T15:13:08.999Z</time></trkpt><trkpt lat="42.931600974025514" lon="10.867680779592579"><ele>30.0</ele><time>2026-04-03T15:13:09.999Z</time></trkpt><trkpt lat="42.93149537958651" lon="10.867638518274562"><ele>29.8</ele><time>2026-04-03T15:13:10.999Z</time></trkpt><trkpt lat="42.93138713931728" lon="10.86759495135627"><ele>29.6</ele><time>2026-04-03T15:13:11.999Z</time></trkpt><trkpt lat="42.93128981498381" lon="10.867555764917146"><ele>29.4</ele><time>2026-04-03T15:13:12.999Z</time></trkpt><trkpt lat="42.9311921023856" lon="10.86751861214436"><ele>29.2</ele><time>2026-04-03T15:13:13.999Z</time></trkpt><trkpt lat="42.9311079213039" lon="10.867484783815806"><ele>29.0</ele><time>2026-04-03T15:13:14.999Z</time></trkpt><trkpt lat="42.93103245551734" lon="10.867455317250272"><ele>29.0</ele><time>2026-04-03T15:13:15.999Z</time></trkpt><trkpt lat="42.930960930693125" lon="10.867425891412037"><ele>29.0</ele><time>2026-04-03T15:13:16.999Z</time></trkpt><trkpt lat="42.93088010100649" lon="10.867363732140644"><ele>29.0</ele><time>2026-04-03T15:13:18.999Z</time></trkpt><trkpt lat="42.93093491877734" lon="10.867195669318049"><ele>29.0</ele><time>2026-04-03T15:13:21.999Z</time></trkpt><trkpt lat="42.93098444327167" lon="10.867038246798618"><ele>29.0</ele><time>2026-04-03T15:13:23.999Z</time></trkpt><trkpt lat="42.93102506701072" lon="10.866957053476842"><ele>28.999999999999996</ele><time>2026-04-03T15:13:24.999Z</time></trkpt><trkpt lat="42.93106100953396" lon="10.866876092013554"><ele>29.0</ele><time>2026-04-03T15:13:25.999Z</time></trkpt><trkpt lat="42.931105634544295" lon="10.866783834310208"><ele>29.0</ele><time>2026-04-03T15:13:26.999Z</time></trkpt><trkpt lat="42.93114284093792" lon="10.866702417917892"><ele>29.0</ele><time>2026-04-03T15:13:27.999Z</time></trkpt><trkpt lat="42.93119151716731" lon="10.86662253911135"><ele>28.999999999999996</ele><time>2026-04-03T15:13:28.999Z</time></trkpt><trkpt lat="42.93122893125469" lon="10.866530407675254"><ele>29.0</ele><time>2026-04-03T15:13:29.999Z</time></trkpt><trkpt lat="42.931253728450514" lon="10.866430750115983"><ele>28.666666666666664</ele><time>2026-04-03T15:13:30.999Z</time></trkpt><trkpt lat="42.93125974927106" lon="10.866326854789671"><ele>28.333333333333332</ele><time>2026-04-03T15:13:31.999Z</time></trkpt><trkpt lat="42.931256816591336" lon="10.866204317991775"><ele>28.0</ele><time>2026-04-03T15:13:32.999Z</time></trkpt><trkpt lat="42.93123637337983" lon="10.866090531186694"><ele>27.666666666666664</ele><time>2026-04-03T15:13:33.999Z</time></trkpt><trkpt lat="42.931244852481065" lon="10.865974476680123"><ele>27.333333333333332</ele><time>2026-04-03T15:13:34.999Z</time></trkpt><trkpt lat="42.93128466351314" lon="10.865877383112558"><ele>27.0</ele><time>2026-04-03T15:13:35.999Z</time></trkpt><trkpt lat="42.931306507358734" lon="10.865777576380525"><ele>27.0</ele><time>2026-04-03T15:13:36.999Z</time></trkpt><trkpt lat="42.93133014550265" lon="10.865676441483137"><ele>27.0</ele><time>2026-04-03T15:13:37.999Z</time></trkpt><trkpt lat="42.931353082448446" lon="10.865594259933685"><ele>27.0</ele><time>2026-04-03T15:13:38.999Z</time></trkpt><trkpt lat="42.93137886883707" lon="10.86551282670204"><ele>27.0</ele><time>2026-04-03T15:13:39.999Z</time></trkpt><trkpt lat="42.93142121730244" lon="10.865361367126368"><ele>27.0</ele><time>2026-04-03T15:13:41.999Z</time></trkpt><trkpt lat="42.931461941403185" lon="10.865229222290333"><ele>27.0</ele><time>2026-04-03T15:13:43.999Z</time></trkpt><trkpt lat="42.9315019703503" lon="10.865110925690843"><ele>27.166666666666668</ele><time>2026-04-03T15:13:45.999Z</time></trkpt><trkpt lat="42.93152868650797" lon="10.865014287460351"><ele>27.333333333333336</ele><time>2026-04-03T15:13:48.999Z</time></trkpt><trkpt lat="42.93155672147887" lon="10.864925608543858"><ele>27.5</ele><time>2026-04-03T15:14:03.999Z</time></trkpt><trkpt lat="42.93159375228308" lon="10.864826992490189"><ele>27.666666666666668</ele><time>2026-04-03T15:14:05.999Z</time></trkpt><trkpt lat="42.93163299697843" lon="10.864755094522295"><ele>27.833333333333336</ele><time>2026-04-03T15:14:07.999Z</time></trkpt><trkpt lat="42.9316592092484" lon="10.864623751778627"><ele>28.0</ele><time>2026-04-03T15:14:08.999Z</time></trkpt><trkpt lat="42.9316932500439" lon="10.864547778315973"><ele>27.2</ele><time>2026-04-03T15:14:09.999Z</time></trkpt><trkpt lat="42.931733731574646" lon="10.864468398372583"><ele>26.4</ele><time>2026-04-03T15:14:10.999Z</time></trkpt><trkpt lat="42.931765900381826" lon="10.864331153843334"><ele>25.599999999999998</ele><time>2026-04-03T15:14:12.999Z</time></trkpt><trkpt lat="42.931813083781826" lon="10.86417292546798"><ele>24.799999999999997</ele><time>2026-04-03T15:14:15Z</time></trkpt><trkpt lat="42.931874013980604" lon="10.864021829177728"><ele>24.0</ele><time>2026-04-03T15:14:17Z</time></trkpt><trkpt lat="42.93190331874703" lon="10.863942605324743"><ele>23.6</ele><time>2026-04-03T15:14:18Z</time></trkpt><trkpt lat="42.93196013666892" lon="10.863790885070115"><ele>23.2</ele><time>2026-04-03T15:14:20Z</time></trkpt><trkpt lat="42.93202164595775" lon="10.863643640417948"><ele>22.8</ele><time>2026-04-03T15:14:22Z</time></trkpt><trkpt lat="42.93208234870062" lon="10.863497277328069"><ele>22.400000000000002</ele><time>2026-04-03T15:14:24Z</time></trkpt><trkpt lat="42.93211688920218" lon="10.863422742319006"><ele>22.0</ele><time>2026-04-03T15:14:25Z</time></trkpt><trkpt lat="42.93215148962501" lon="10.863348738396828"><ele>22.0</ele><time>2026-04-03T15:14:26Z</time></trkpt><trkpt lat="42.9322130503521" lon="10.863215898611546"><ele>22.0</ele><time>2026-04-03T15:14:28Z</time></trkpt><trkpt lat="42.93226935416321" lon="10.863107896096185"><ele>22.0</ele><time>2026-04-03T15:14:30Z</time></trkpt><trkpt lat="42.932305831356416" lon="10.863031320499545"><ele>22.0</ele><time>2026-04-03T15:14:33Z</time></trkpt><trkpt lat="42.93215572646708" lon="10.862950337598596"><ele>22.0</ele><time>2026-04-03T15:14:36Z</time></trkpt><trkpt lat="42.93205348890635" lon="10.86301221240776"><ele>22.0</ele><time>2026-04-03T15:14:38Z</time></trkpt><trkpt lat="42.931949858688895" lon="10.863053252480022"><ele>22.0</ele><time>2026-04-03T15:14:40Z</time></trkpt><trkpt lat="42.931851707342865" lon="10.863085346260402"><ele>22.0</ele><time>2026-04-03T15:14:42Z</time></trkpt><trkpt lat="42.93178764658666" lon="10.86310311788346"><ele>22.0</ele><time>2026-04-03T15:14:43Z</time></trkpt><trkpt lat="42.93167324607313" lon="10.863121845330882"><ele>22.0</ele><time>2026-04-03T15:14:45Z</time></trkpt><trkpt lat="42.931554851530734" lon="10.863141612258968"><ele>23.400000000000002</ele><time>2026-04-03T15:14:47Z</time></trkpt><trkpt lat="42.93143768403801" lon="10.863183458441036"><ele>24.8</ele><time>2026-04-03T15:14:49Z</time></trkpt><trkpt lat="42.93131862815993" lon="10.863194429499304"><ele>26.2</ele><time>2026-04-03T15:14:51Z</time></trkpt><trkpt lat="42.93125469733992" lon="10.863205461311606"><ele>27.6</ele><time>2026-04-03T15:14:52Z</time></trkpt><trkpt lat="42.931145259406115" lon="10.863229145933271"><ele>29.0</ele><time>2026-04-03T15:14:54Z</time></trkpt><trkpt lat="42.93103378127315" lon="10.863247168881207"><ele>29.0</ele><time>2026-04-03T15:14:56Z</time></trkpt><trkpt lat="42.93093188619438" lon="10.863250212882035"><ele>29.0</ele><time>2026-04-03T15:14:58Z</time></trkpt><trkpt lat="42.930864420815965" lon="10.863229789823956"><ele>29.0</ele><time>2026-04-03T15:15:00Z</time></trkpt><trkpt lat="42.930940536157856" lon="10.863320439672872"><ele>29.0</ele><time>2026-04-03T15:15:35Z</time></trkpt><trkpt lat="42.93100968958831" lon="10.863283038431982"><ele>29.0</ele><time>2026-04-03T15:15:36Z</time></trkpt><trkpt lat="42.93113190274452" lon="10.86326358795032"><ele>28.999999999999996</ele><time>2026-04-03T15:15:38Z</time></trkpt><trkpt lat="42.931198347915135" lon="10.863244376757526"><ele>29.0</ele><time>2026-04-03T15:15:39Z</time></trkpt><trkpt lat="42.93126490863478" lon="10.863229775475281"><ele>29.0</ele><time>2026-04-03T15:15:40Z</time></trkpt><trkpt lat="42.93133098385455" lon="10.863219444910905"><ele>29.0</ele><time>2026-04-03T15:15:41Z</time></trkpt><trkpt lat="42.931445685853696" lon="10.8631990402655"><ele>28.999999999999996</ele><time>2026-04-03T15:15:43Z</time></trkpt><trkpt lat="42.93151095682766" lon="10.86319222668052"><ele>29.0</ele><time>2026-04-03T15:15:44Z</time></trkpt><trkpt lat="42.931578863619166" lon="10.863186300769264"><ele>28.999999999999996</ele><time>2026-04-03T15:15:45Z</time></trkpt><trkpt lat="42.93164619342722" lon="10.863181628545906"><ele>29.0</ele><time>2026-04-03T15:15:46Z</time></trkpt><trkpt lat="42.93171732015975" lon="10.863156621733555"><ele>29.0</ele><time>2026-04-03T15:15:47Z</time></trkpt><trkpt lat="42.931789125367835" lon="10.863127615028011"><ele>29.0</ele><time>2026-04-03T15:15:48Z</time></trkpt><trkpt lat="42.93189297898183" lon="10.86314434423946"><ele>28.999999999999996</ele><time>2026-04-03T15:15:50Z</time></trkpt><trkpt lat="42.93200008128888" lon="10.863099203969014"><ele>29.0</ele><time>2026-04-03T15:15:52Z</time></trkpt><trkpt lat="42.93211218748797" lon="10.863049143095107"><ele>27.6</ele><time>2026-04-03T15:15:54Z</time></trkpt><trkpt lat="42.93220483246172" lon="10.86300103815754"><ele>26.2</ele><time>2026-04-03T15:15:56Z</time></trkpt><trkpt lat="42.932269646668495" lon="10.863026591379983"><ele>24.8</ele><time>2026-04-03T15:15:59Z</time></trkpt><trkpt lat="42.93234289510169" lon="10.862929706089409"><ele>23.400000000000002</ele><time>2026-04-03T15:16:04Z</time></trkpt><trkpt lat="42.93240063501829" lon="10.86278529721612"><ele>22.0</ele><time>2026-04-03T15:16:06Z</time></trkpt><trkpt lat="42.93243808245765" lon="10.862705012063959"><ele>22.0</ele><time>2026-04-03T15:16:07Z</time></trkpt><trkpt lat="42.93248099385063" lon="10.862625876322134"><ele>22.0</ele><time>2026-04-03T15:16:08Z</time></trkpt><trkpt lat="42.9325204387378" lon="10.862541193442226"><ele>22.0</ele><time>2026-04-03T15:16:09Z</time></trkpt><trkpt lat="42.93255802214996" lon="10.862465752611493"><ele>22.0</ele><time>2026-04-03T15:16:10Z</time></trkpt><trkpt lat="42.93259808268373" lon="10.862380525958548"><ele>22.0</ele><time>2026-04-03T15:16:11Z</time></trkpt><trkpt lat="42.932626132614715" lon="10.862281419114293"><ele>22.0</ele><time>2026-04-03T15:16:12Z</time></trkpt><trkpt lat="42.93266723822108" lon="10.862169395361649"><ele>22.0</ele><time>2026-04-03T15:16:13Z</time></trkpt><trkpt lat="42.93269523801381" lon="10.862063743959096"><ele>22.0</ele><time>2026-04-03T15:16:14Z</time></trkpt><trkpt lat="42.932721766217064" lon="10.861947717237193"><ele>22.0</ele><time>2026-04-03T15:16:15Z</time></trkpt><trkpt lat="42.9327482294911" lon="10.861859155681165"><ele>22.0</ele><time>2026-04-03T15:16:16Z</time></trkpt><trkpt lat="42.93276809704985" lon="10.861739985984247"><ele>22.0</ele><time>2026-04-03T15:16:17Z</time></trkpt><trkpt lat="42.93276477427255" lon="10.861640787486014"><ele>22.0</ele><time>2026-04-03T15:16:18Z</time></trkpt><trkpt lat="42.93277446552592" lon="10.861492092208305"><ele>22.0</ele><time>2026-04-03T15:16:20Z</time></trkpt><trkpt lat="42.932705696160326" lon="10.861403547030744"><ele>22.0</ele><time>2026-04-03T15:16:22Z</time></trkpt><trkpt lat="42.93260603507932" lon="10.861305153540721"><ele>22.0</ele><time>2026-04-03T15:16:24Z</time></trkpt><trkpt lat="42.9325481604037" lon="10.861244694103604"><ele>22.0</ele><time>2026-04-03T15:16:25Z</time></trkpt><trkpt lat="42.932451942104834" lon="10.861144178425464"><ele>22.0</ele><time>2026-04-03T15:16:27Z</time></trkpt><trkpt lat="42.932350849391206" lon="10.86103309486102"><ele>22.400000000000002</ele><time>2026-04-03T15:16:29Z</time></trkpt><trkpt lat="42.932254666405726" lon="10.860928792079775"><ele>22.8</ele><time>2026-04-03T15:16:31Z</time></trkpt><trkpt lat="42.9321759400953" lon="10.860844357983087"><ele>23.2</ele><time>2026-04-03T15:16:33Z</time></trkpt><trkpt lat="42.932142698079325" lon="10.860770856203112"><ele>23.6</ele><time>2026-04-03T15:16:35Z</time></trkpt><trkpt lat="42.93215220694861" lon="10.860672210755848"><ele>24.0</ele><time>2026-04-03T15:16:37Z</time></trkpt><trkpt lat="42.93221213787595" lon="10.860549370837065"><ele>24.0</ele><time>2026-04-03T15:16:39Z</time></trkpt><trkpt lat="42.93225466954641" lon="10.860477005856888"><ele>24.0</ele><time>2026-04-03T15:16:40Z</time></trkpt><trkpt lat="42.932329373588374" lon="10.86032928229532"><ele>24.0</ele><time>2026-04-03T15:16:42Z</time></trkpt><trkpt lat="42.93236803991039" lon="10.860244101184298"><ele>24.0</ele><time>2026-04-03T15:16:43Z</time></trkpt><trkpt lat="42.932409642634354" lon="10.860158220605658"><ele>24.0</ele><time>2026-04-03T15:16:44Z</time></trkpt><trkpt lat="42.93244975608057" lon="10.8600807661141"><ele>24.0</ele><time>2026-04-03T15:16:45Z</time></trkpt><trkpt lat="42.93249353820596" lon="10.859992906487452"><ele>24.0</ele><time>2026-04-03T15:16:46Z</time></trkpt><trkpt lat="42.93253078259064" lon="10.859909658553402"><ele>24.0</ele><time>2026-04-03T15:16:47Z</time></trkpt><trkpt lat="42.9325683074582" lon="10.859816167199389"><ele>24.0</ele><time>2026-04-03T15:16:48Z</time></trkpt><trkpt lat="42.93261285973195" lon="10.859711669256003"><ele>24.0</ele><time>2026-04-03T15:16:49Z</time></trkpt><trkpt lat="42.93266681336844" lon="10.859600721651272"><ele>24.0</ele><time>2026-04-03T15:16:50Z</time></trkpt><trkpt lat="42.93271909575889" lon="10.859495765075888"><ele>24.0</ele><time>2026-04-03T15:16:51Z</time></trkpt><trkpt lat="42.9327781702418" lon="10.859381213259407"><ele>23.2</ele><time>2026-04-03T15:16:52Z</time></trkpt><trkpt lat="42.93282919693089" lon="10.859274883072974"><ele>22.4</ele><time>2026-04-03T15:16:53Z</time></trkpt><trkpt lat="42.932881199222" lon="10.859158789605324"><ele>21.6</ele><time>2026-04-03T15:16:54Z</time></trkpt><trkpt lat="42.93293535490055" lon="10.859048864743084"><ele>20.8</ele><time>2026-04-03T15:16:55Z</time></trkpt><trkpt lat="42.93298435421959" lon="10.858949582419005"><ele>20.0</ele><time>2026-04-03T15:16:56Z</time></trkpt><trkpt lat="42.933039500450896" lon="10.858832836816982"><ele>20.0</ele><time>2026-04-03T15:16:57Z</time></trkpt><trkpt lat="42.933087532749504" lon="10.858721364245081"><ele>20.0</ele><time>2026-04-03T15:16:58Z</time></trkpt><trkpt lat="42.933139782714036" lon="10.858613539271888"><ele>20.0</ele><time>2026-04-03T15:16:59Z</time></trkpt><trkpt lat="42.93318718754277" lon="10.858516681547924"><ele>20.0</ele><time>2026-04-03T15:17:00Z</time></trkpt><trkpt lat="42.93323871507178" lon="10.85840997596213"><ele>20.0</ele><time>2026-04-03T15:17:01Z</time></trkpt><trkpt lat="42.93328407732923" lon="10.858323396637742"><ele>20.0</ele><time>2026-04-03T15:17:02Z</time></trkpt><trkpt lat="42.9333415034827" lon="10.858222765984952"><ele>20.2</ele><time>2026-04-03T15:17:03Z</time></trkpt><trkpt lat="42.933377818093014" lon="10.858105959063842"><ele>20.4</ele><time>2026-04-03T15:17:04Z</time></trkpt><trkpt lat="42.93340322247137" lon="10.857972712239354"><ele>20.6</ele><time>2026-04-03T15:17:05Z</time></trkpt><trkpt lat="42.933443270615385" lon="10.857843368677955"><ele>20.8</ele><time>2026-04-03T15:17:06Z</time></trkpt><trkpt lat="42.9334722924431" lon="10.857729018576602"><ele>21.0</ele><time>2026-04-03T15:17:07Z</time></trkpt><trkpt lat="42.93350685039675" lon="10.857617331620627"><ele>20.666666666666668</ele><time>2026-04-03T15:17:08Z</time></trkpt><trkpt lat="42.933540303229925" lon="10.857496634892629"><ele>20.333333333333332</ele><time>2026-04-03T15:17:09Z</time></trkpt><trkpt lat="42.93357256227332" lon="10.857387970442488"><ele>20.0</ele><time>2026-04-03T15:17:10Z</time></trkpt><trkpt lat="42.933601410273674" lon="10.857298771955856"><ele>19.666666666666664</ele><time>2026-04-03T15:17:11Z</time></trkpt><trkpt lat="42.93362597377452" lon="10.85721590972033"><ele>19.333333333333332</ele><time>2026-04-03T15:17:12Z</time></trkpt><trkpt lat="42.93365482883184" lon="10.857084931027632"><ele>19.0</ele><time>2026-04-03T15:17:14Z</time></trkpt><trkpt lat="42.93372307953006" lon="10.85703184350266"><ele>19.0</ele><time>2026-04-03T15:17:17Z</time></trkpt><trkpt lat="42.93383725215341" lon="10.857097900291723"><ele>19.0</ele><time>2026-04-03T15:17:19Z</time></trkpt><trkpt lat="42.93390317494937" lon="10.857119689739124"><ele>19.0</ele><time>2026-04-03T15:17:20Z</time></trkpt><trkpt lat="42.93402210435598" lon="10.857158146887732"><ele>19.0</ele><time>2026-04-03T15:17:22Z</time></trkpt><trkpt lat="42.93414160607593" lon="10.8571921492524"><ele>19.0</ele><time>2026-04-03T15:17:24Z</time></trkpt><trkpt lat="42.93420599335455" lon="10.85721199373825"><ele>19.0</ele><time>2026-04-03T15:17:25Z</time></trkpt><trkpt lat="42.934283107090465" lon="10.857251690704436"><ele>19.0</ele><time>2026-04-03T15:17:27Z</time></trkpt><trkpt lat="42.93429710648417" lon="10.857345586551816"><ele>19.0</ele><time>2026-04-03T15:17:29Z</time></trkpt><trkpt lat="42.934296316181204" lon="10.85752459197859"><ele>19.0</ele><time>2026-04-03T15:17:31Z</time></trkpt><trkpt lat="42.93429625841065" lon="10.857634292905944"><ele>19.0</ele><time>2026-04-03T15:17:32Z</time></trkpt><trkpt lat="42.93430002132312" lon="10.857737140985737"><ele>19.0</ele><time>2026-04-03T15:17:33Z</time></trkpt><trkpt lat="42.93429847894697" lon="10.8578299159893"><ele>19.0</ele><time>2026-04-03T15:17:34Z</time></trkpt><trkpt lat="42.9343028253829" lon="10.857946058480884"><ele>19.0</ele><time>2026-04-03T15:17:35Z</time></trkpt><trkpt lat="42.93431270836144" lon="10.858065828685616"><ele>19.0</ele><time>2026-04-03T15:17:36Z</time></trkpt><trkpt lat="42.934313893057066" lon="10.8581887291317"><ele>19.0</ele><time>2026-04-03T15:17:37Z</time></trkpt><trkpt lat="42.934318016414366" lon="10.85830772693291"><ele>19.0</ele><time>2026-04-03T15:17:38Z</time></trkpt><trkpt lat="42.93431793970671" lon="10.858416812868764"><ele>19.0</ele><time>2026-04-03T15:17:39Z</time></trkpt><trkpt lat="42.93432464227485" lon="10.85853425526722"><ele>19.0</ele><time>2026-04-03T15:17:40Z</time></trkpt><trkpt lat="42.93432607783015" lon="10.858634407187509"><ele>19.0</ele><time>2026-04-03T15:17:41Z</time></trkpt><trkpt lat="42.93432611630208" lon="10.85873478028621"><ele>19.0</ele><time>2026-04-03T15:17:42Z</time></trkpt><trkpt lat="42.93433350499681" lon="10.858833852099272"><ele>19.0</ele><time>2026-04-03T15:17:43Z</time></trkpt><trkpt lat="42.93434096706124" lon="10.85896641881388"><ele>19.0</ele><time>2026-04-03T15:17:45Z</time></trkpt><trkpt lat="42.93444050072415" lon="10.858899286075632"><ele>19.0</ele><time>2026-04-03T15:18:02Z</time></trkpt><trkpt lat="42.93447442516886" lon="10.858826555494641"><ele>19.0</ele><time>2026-04-03T15:18:04Z</time></trkpt><trkpt lat="42.93452448146163" lon="10.8587412156689"><ele>19.0</ele><time>2026-04-03T15:18:06Z</time></trkpt><trkpt lat="42.93458747038354" lon="10.858625959416088"><ele>19.0</ele><time>2026-04-03T15:18:08Z</time></trkpt><trkpt lat="42.9346611749582" lon="10.858499719116452"><ele>19.0</ele><time>2026-04-03T15:18:10Z</time></trkpt><trkpt lat="42.93474236442154" lon="10.85836633850078"><ele>19.0</ele><time>2026-04-03T15:18:12Z</time></trkpt><trkpt lat="42.93478626493829" lon="10.858291226327719"><ele>19.0</ele><time>2026-04-03T15:18:13Z</time></trkpt><trkpt lat="42.93482428783467" lon="10.85821528067441"><ele>19.0</ele><time>2026-04-03T15:18:14Z</time></trkpt><trkpt lat="42.934867864166954" lon="10.85813338736319"><ele>19.0</ele><time>2026-04-03T15:18:15Z</time></trkpt><trkpt lat="42.93491784355813" lon="10.858050882029593"><ele>19.0</ele><time>2026-04-03T15:18:16Z</time></trkpt><trkpt lat="42.93496186389078" lon="10.857968297946556"><ele>19.0</ele><time>2026-04-03T15:18:17Z</time></trkpt><trkpt lat="42.935008170258186" lon="10.857879285738761"><ele>19.0</ele><time>2026-04-03T15:18:18Z</time></trkpt><trkpt lat="42.93505866660641" lon="10.85778809401271"><ele>18.8</ele><time>2026-04-03T15:18:19Z</time></trkpt><trkpt lat="42.935118444875634" lon="10.85768113285645"><ele>18.599999999999998</ele><time>2026-04-03T15:18:20Z</time></trkpt><trkpt lat="42.935169769454625" lon="10.857587332599055"><ele>18.4</ele><time>2026-04-03T15:18:21Z</time></trkpt><trkpt lat="42.93522347179288" lon="10.85749429460749"><ele>18.2</ele><time>2026-04-03T15:18:22Z</time></trkpt><trkpt lat="42.93528013721873" lon="10.857390543434605"><ele>18.0</ele><time>2026-04-03T15:18:23Z</time></trkpt><trkpt lat="42.93533546051615" lon="10.85729388488336"><ele>17.833333333333332</ele><time>2026-04-03T15:18:24Z</time></trkpt><trkpt lat="42.935388613910135" lon="10.85719922219207"><ele>17.666666666666668</ele><time>2026-04-03T15:18:25Z</time></trkpt><trkpt lat="42.93544206218793" lon="10.857103900759379"><ele>17.5</ele><time>2026-04-03T15:18:26Z</time></trkpt><trkpt lat="42.93549699171124" lon="10.857007332151488"><ele>17.333333333333336</ele><time>2026-04-03T15:18:26.999Z</time></trkpt><trkpt lat="42.93554835395942" lon="10.856911386643851"><ele>17.166666666666668</ele><time>2026-04-03T15:18:27.999Z</time></trkpt><trkpt lat="42.93558836201322" lon="10.856844033615744"><ele>17.0</ele><time>2026-04-03T15:18:28.999Z</time></trkpt><trkpt lat="42.935632763469535" lon="10.856768735280049"><ele>16.833333333333336</ele><time>2026-04-03T15:18:29.999Z</time></trkpt><trkpt lat="42.93567863141637" lon="10.8566926779045"><ele>16.666666666666668</ele><time>2026-04-03T15:18:30.999Z</time></trkpt><trkpt lat="42.93573558892141" lon="10.856603157868479"><ele>16.5</ele><time>2026-04-03T15:18:31.999Z</time></trkpt><trkpt lat="42.9357916831813" lon="10.856529461891206"><ele>16.333333333333332</ele><time>2026-04-03T15:18:33Z</time></trkpt><trkpt lat="42.93584252412617" lon="10.8564717127188"><ele>16.166666666666664</ele><time>2026-04-03T15:18:34Z</time></trkpt><trkpt lat="42.93594084009262" lon="10.856380777995977"><ele>16.0</ele><time>2026-04-03T15:18:36Z</time></trkpt><trkpt lat="42.93600026859422" lon="10.856334070009806"><ele>15.833333333333332</ele><time>2026-04-03T15:18:37Z</time></trkpt><trkpt lat="42.93606752258802" lon="10.856288692296793"><ele>15.666666666666666</ele><time>2026-04-03T15:18:38Z</time></trkpt><trkpt lat="42.93613556702207" lon="10.856238716797971"><ele>15.5</ele><time>2026-04-03T15:18:39Z</time></trkpt><trkpt lat="42.936204380934235" lon="10.856189574236126"><ele>15.333333333333332</ele><time>2026-04-03T15:18:40Z</time></trkpt><trkpt lat="42.936278368490555" lon="10.856137958843952"><ele>15.166666666666666</ele><time>2026-04-03T15:18:41Z</time></trkpt><trkpt lat="42.936341526239715" lon="10.856091630110738"><ele>15.0</ele><time>2026-04-03T15:18:42Z</time></trkpt><trkpt lat="42.93644915233126" lon="10.856014757462287"><ele>15.0</ele><time>2026-04-03T15:18:44Z</time></trkpt><trkpt lat="42.93651843018916" lon="10.855965487277818"><ele>15.0</ele><time>2026-04-03T15:18:45Z</time></trkpt><trkpt lat="42.93658402463879" lon="10.85592243862509"><ele>15.0</ele><time>2026-04-03T15:18:46Z</time></trkpt><trkpt lat="42.93664757281017" lon="10.855874437836817"><ele>15.0</ele><time>2026-04-03T15:18:47Z</time></trkpt><trkpt lat="42.93673342336061" lon="10.855815348838007"><ele>15.0</ele><time>2026-04-03T15:18:48Z</time></trkpt><trkpt lat="42.93679201417567" lon="10.855774677845265"><ele>15.0</ele><time>2026-04-03T15:18:49Z</time></trkpt><trkpt lat="42.93685363043665" lon="10.855728691856187"><ele>15.166666666666666</ele><time>2026-04-03T15:18:50Z</time></trkpt><trkpt lat="42.936931979363685" lon="10.85567666394065"><ele>15.333333333333332</ele><time>2026-04-03T15:18:51Z</time></trkpt><trkpt lat="42.937002871066824" lon="10.855624858851957"><ele>15.5</ele><time>2026-04-03T15:18:52Z</time></trkpt><trkpt lat="42.93708218227275" lon="10.855570426274596"><ele>15.666666666666666</ele><time>2026-04-03T15:18:53Z</time></trkpt><trkpt lat="42.93716488575128" lon="10.855514714877009"><ele>15.833333333333332</ele><time>2026-04-03T15:18:54Z</time></trkpt><trkpt lat="42.93723593963996" lon="10.855461959757646"><ele>16.0</ele><time>2026-04-03T15:18:54.999Z</time></trkpt><trkpt lat="42.93730753099955" lon="10.855410291835387"><ele>15.999999999999998</ele><time>2026-04-03T15:18:55.999Z</time></trkpt><trkpt lat="42.937385622943815" lon="10.855352313612439"><ele>16.0</ele><time>2026-04-03T15:18:56.999Z</time></trkpt><trkpt lat="42.93746500090924" lon="10.855296841674907"><ele>16.0</ele><time>2026-04-03T15:18:57.999Z</time></trkpt><trkpt lat="42.93754963699603" lon="10.855239201530734"><ele>16.0</ele><time>2026-04-03T15:18:58.999Z</time></trkpt><trkpt lat="42.93762689225263" lon="10.855182886170477"><ele>15.999999999999998</ele><time>2026-04-03T15:18:59.999Z</time></trkpt><trkpt lat="42.937706066168744" lon="10.855129025439394"><ele>16.0</ele><time>2026-04-03T15:19:00.999Z</time></trkpt><trkpt lat="42.93778344401285" lon="10.855075238421087"><ele>15.833333333333332</ele><time>2026-04-03T15:19:01.999Z</time></trkpt><trkpt lat="42.937866067137975" lon="10.855020468925852"><ele>15.666666666666666</ele><time>2026-04-03T15:19:02.999Z</time></trkpt><trkpt lat="42.937943697743194" lon="10.854964505724602"><ele>15.5</ele><time>2026-04-03T15:19:03.999Z</time></trkpt><trkpt lat="42.93802720768096" lon="10.854906967732964"><ele>15.333333333333332</ele><time>2026-04-03T15:19:04.999Z</time></trkpt><trkpt lat="42.938108150515575" lon="10.854855332132871"><ele>15.166666666666666</ele><time>2026-04-03T15:19:05.999Z</time></trkpt><trkpt lat="42.938173180859856" lon="10.854797591604228"><ele>15.0</ele><time>2026-04-03T15:19:06.999Z</time></trkpt><trkpt lat="42.93825054654775" lon="10.854747224980517"><ele>15.0</ele><time>2026-04-03T15:19:07.999Z</time></trkpt><trkpt lat="42.93832413139021" lon="10.85469334461201"><ele>15.0</ele><time>2026-04-03T15:19:08.999Z</time></trkpt><trkpt lat="42.9383931820939" lon="10.854636972101998"><ele>15.0</ele><time>2026-04-03T15:19:09.999Z</time></trkpt><trkpt lat="42.93844401739455" lon="10.854581919936614"><ele>15.0</ele><time>2026-04-03T15:19:10.999Z</time></trkpt><trkpt lat="42.938492886926795" lon="10.854515515729823"><ele>15.0</ele><time>2026-04-03T15:19:11.999Z</time></trkpt><trkpt lat="42.938545486754805" lon="10.854428251195255"><ele>15.0</ele><time>2026-04-03T15:19:13.999Z</time></trkpt><trkpt lat="42.938591652892086" lon="10.854341908578126"><ele>14.6</ele><time>2026-04-03T15:19:16.999Z</time></trkpt><trkpt lat="42.938656863204514" lon="10.85422011705812"><ele>14.2</ele><time>2026-04-03T15:19:48.999Z</time></trkpt><trkpt lat="42.93872647831224" lon="10.85410354409352"><ele>13.8</ele><time>2026-04-03T15:19:50.999Z</time></trkpt><trkpt lat="42.9387680892913" lon="10.854033915947015"><ele>13.4</ele><time>2026-04-03T15:19:51.999Z</time></trkpt><trkpt lat="42.93883886368602" lon="10.853912153480582"><ele>13.0</ele><time>2026-04-03T15:19:53.999Z</time></trkpt><trkpt lat="42.93888090867978" lon="10.853841378890008"><ele>12.999999999999998</ele><time>2026-04-03T15:19:54.999Z</time></trkpt><trkpt lat="42.93892324385807" lon="10.853769529090764"><ele>13.0</ele><time>2026-04-03T15:19:55.999Z</time></trkpt><trkpt lat="42.93896874231882" lon="10.853692358844993"><ele>13.0</ele><time>2026-04-03T15:19:56.999Z</time></trkpt><trkpt lat="42.93901439315826" lon="10.853617261982492"><ele>13.0</ele><time>2026-04-03T15:19:57.999Z</time></trkpt><trkpt lat="42.939056938082594" lon="10.85354449527408"><ele>12.999999999999998</ele><time>2026-04-03T15:19:58.999Z</time></trkpt><trkpt lat="42.93909872715846" lon="10.853471126608396"><ele>13.0</ele><time>2026-04-03T15:19:59.999Z</time></trkpt><trkpt lat="42.93916134741481" lon="10.853348423999355"><ele>13.0</ele><time>2026-04-03T15:20:01.999Z</time></trkpt><trkpt lat="42.9392101297691" lon="10.853230187514278"><ele>13.0</ele><time>2026-04-03T15:20:03.999Z</time></trkpt><trkpt lat="42.93930031224752" lon="10.853135588408872"><ele>13.0</ele><time>2026-04-03T15:20:04.999Z</time></trkpt><trkpt lat="42.939372525549075" lon="10.853012651026383"><ele>13.0</ele><time>2026-04-03T15:20:06.999Z</time></trkpt><trkpt lat="42.939448736352226" lon="10.8528775240646"><ele>13.0</ele><time>2026-04-03T15:20:08.999Z</time></trkpt><trkpt lat="42.939524117006485" lon="10.852754137670084"><ele>13.0</ele><time>2026-04-03T15:20:10.999Z</time></trkpt><trkpt lat="42.939584606593606" lon="10.852665382489395"><ele>13.0</ele><time>2026-04-03T15:20:12.999Z</time></trkpt><trkpt lat="42.93964490863595" lon="10.852556597840547"><ele>13.0</ele><time>2026-04-03T15:20:14.999Z</time></trkpt><trkpt lat="42.939709673631995" lon="10.852438006389185"><ele>13.0</ele><time>2026-04-03T15:20:16.999Z</time></trkpt><trkpt lat="42.93975847657309" lon="10.852337013398468"><ele>13.0</ele><time>2026-04-03T15:20:18.999Z</time></trkpt><trkpt lat="42.93981266560809" lon="10.852281904478012"><ele>13.0</ele><time>2026-04-03T15:20:20.999Z</time></trkpt><trkpt lat="42.93973908158003" lon="10.852395792283113"><ele>13.0</ele><time>2026-04-03T15:20:41Z</time></trkpt><trkpt lat="42.93967707670101" lon="10.852503071410274"><ele>13.0</ele><time>2026-04-03T15:20:43Z</time></trkpt><trkpt lat="42.939604625091505" lon="10.852629640776149"><ele>13.0</ele><time>2026-04-03T15:20:45Z</time></trkpt><trkpt lat="42.939520555320364" lon="10.852756118193545"><ele>13.0</ele><time>2026-04-03T15:20:47Z</time></trkpt><trkpt lat="42.93944735301482" lon="10.852888502096041"><ele>13.0</ele><time>2026-04-03T15:20:49Z</time></trkpt><trkpt lat="42.93937083502445" lon="10.853013324936674"><ele>13.0</ele><time>2026-04-03T15:20:51Z</time></trkpt><trkpt lat="42.93930557865007" lon="10.853129108302092"><ele>13.0</ele><time>2026-04-03T15:20:53Z</time></trkpt><trkpt lat="42.93924917647567" lon="10.853217986578548"><ele>13.0</ele><time>2026-04-03T15:20:55Z</time></trkpt><trkpt lat="42.93930540630462" lon="10.85317277707609"><ele>13.0</ele><time>2026-04-03T15:23:31Z</time></trkpt><trkpt lat="42.93937034425794" lon="10.853065274329447"><ele>13.0</ele><time>2026-04-03T15:23:33Z</time></trkpt><trkpt lat="42.93945320025617" lon="10.852912802101361"><ele>13.0</ele><time>2026-04-03T15:23:35Z</time></trkpt><trkpt lat="42.93952485706357" lon="10.85278749620163"><ele>13.0</ele><time>2026-04-03T15:23:37Z</time></trkpt><trkpt lat="42.939598508075235" lon="10.852665606375355"><ele>13.0</ele><time>2026-04-03T15:23:39Z</time></trkpt><trkpt lat="42.93964009472822" lon="10.852595258006382"><ele>13.0</ele><time>2026-04-03T15:23:40Z</time></trkpt><trkpt lat="42.939686421185165" lon="10.852520788371265"><ele>13.0</ele><time>2026-04-03T15:23:41Z</time></trkpt><trkpt lat="42.939727261586455" lon="10.852448418799895"><ele>13.0</ele><time>2026-04-03T15:23:43Z</time></trkpt><trkpt lat="42.939761376139195" lon="10.8523707416727"><ele>13.0</ele><time>2026-04-03T15:23:45Z</time></trkpt><trkpt lat="42.9397980809614" lon="10.852286572769893"><ele>13.0</ele><time>2026-04-03T15:33:39Z</time></trkpt><trkpt lat="42.93975341724034" lon="10.852201285888723"><ele>13.0</ele><time>2026-04-03T15:33:44Z</time></trkpt><trkpt lat="42.939678683896034" lon="10.852095799006998"><ele>12.999999999999998</ele><time>2026-04-03T15:33:47Z</time></trkpt><trkpt lat="42.93963318945089" lon="10.852028102288708"><ele>13.0</ele><time>2026-04-03T15:33:48Z</time></trkpt><trkpt lat="42.939588853980624" lon="10.851953710252443"><ele>13.0</ele><time>2026-04-03T15:33:49Z</time></trkpt><trkpt lat="42.93954411708016" lon="10.851859319833277"><ele>13.0</ele><time>2026-04-03T15:33:54Z</time></trkpt><trkpt lat="42.93948996285489" lon="10.851800370510716"><ele>12.999999999999998</ele><time>2026-04-03T15:33:57Z</time></trkpt><trkpt lat="42.939424795161614" lon="10.85174075949642"><ele>13.0</ele><time>2026-04-03T15:34:25.999Z</time></trkpt><trkpt lat="42.939371906547194" lon="10.85163012102546"><ele>13.0</ele><time>2026-04-03T15:34:28.999Z</time></trkpt><trkpt lat="42.939344746167954" lon="10.851530636578707"><ele>13.0</ele><time>2026-04-03T15:34:30.999Z</time></trkpt><trkpt lat="42.939295443022935" lon="10.85143690953765"><ele>13.0</ele><time>2026-04-03T15:34:32.999Z</time></trkpt><trkpt lat="42.93922191940875" lon="10.851345563852746"><ele>13.0</ele><time>2026-04-03T15:34:34.999Z</time></trkpt><trkpt lat="42.93913888115205" lon="10.85125639294491"><ele>13.0</ele><time>2026-04-03T15:34:36.999Z</time></trkpt><trkpt lat="42.939088805346934" lon="10.851150455130007"><ele>13.0</ele><time>2026-04-03T15:34:38.999Z</time></trkpt><trkpt lat="42.93907136515626" lon="10.851007283733118"><ele>13.0</ele><time>2026-04-03T15:34:40.999Z</time></trkpt><trkpt lat="42.939016985236194" lon="10.85086828868718"><ele>13.0</ele><time>2026-04-03T15:34:42.999Z</time></trkpt><trkpt lat="42.9389479792847" lon="10.850738023787937"><ele>13.0</ele><time>2026-04-03T15:34:44.999Z</time></trkpt><trkpt lat="42.938880002552224" lon="10.850614003645736"><ele>13.0</ele><time>2026-04-03T15:34:46.999Z</time></trkpt><trkpt lat="42.93882595875422" lon="10.850486761330703"><ele>13.0</ele><time>2026-04-03T15:34:48.999Z</time></trkpt><trkpt lat="42.9387544584679" lon="10.850350835104877"><ele>13.0</ele><time>2026-04-03T15:34:50.999Z</time></trkpt><trkpt lat="42.93868929699073" lon="10.850214118158299"><ele>13.0</ele><time>2026-04-03T15:34:52.999Z</time></trkpt><trkpt lat="42.93861214462225" lon="10.850090856464305"><ele>13.0</ele><time>2026-04-03T15:34:54.999Z</time></trkpt><trkpt lat="42.93854343278967" lon="10.849971831242055"><ele>13.0</ele><time>2026-04-03T15:34:56.999Z</time></trkpt><trkpt lat="42.93850364423491" lon="10.84983848318192"><ele>13.0</ele><time>2026-04-03T15:34:58.999Z</time></trkpt><trkpt lat="42.938475598866304" lon="10.84969387002736"><ele>13.0</ele><time>2026-04-03T15:35:00.999Z</time></trkpt><trkpt lat="42.93842327519613" lon="10.849551527063163"><ele>13.0</ele><time>2026-04-03T15:35:02.999Z</time></trkpt><trkpt lat="42.93837348918039" lon="10.84943523711951"><ele>13.0</ele><time>2026-04-03T15:35:04.999Z</time></trkpt><trkpt lat="42.93830407490917" lon="10.849302469163158"><ele>13.0</ele><time>2026-04-03T15:35:06.999Z</time></trkpt><trkpt lat="42.93824737342946" lon="10.849190997757605"><ele>13.0</ele><time>2026-04-03T15:35:08.999Z</time></trkpt><trkpt lat="42.93819222884746" lon="10.849061472718622"><ele>13.0</ele><time>2026-04-03T15:35:10.999Z</time></trkpt><trkpt lat="42.93815070343521" lon="10.848929902544835"><ele>13.0</ele><time>2026-04-03T15:35:13Z</time></trkpt><trkpt lat="42.93808601199913" lon="10.84878682027027"><ele>12.8</ele><time>2026-04-03T15:35:15Z</time></trkpt><trkpt lat="42.9380279538121" lon="10.848646703135335"><ele>12.600000000000001</ele><time>2026-04-03T15:35:17Z</time></trkpt><trkpt lat="42.93796831018664" lon="10.848510799277957"><ele>12.399999999999999</ele><time>2026-04-03T15:35:19Z</time></trkpt><trkpt lat="42.937901912124644" lon="10.848381795215413"><ele>12.2</ele><time>2026-04-03T15:35:21Z</time></trkpt><trkpt lat="42.93786275081629" lon="10.848278156260113"><ele>12.0</ele><time>2026-04-03T15:35:23Z</time></trkpt><trkpt lat="42.93782988676814" lon="10.848197187826914"><ele>12.0</ele><time>2026-04-03T15:35:26Z</time></trkpt><trkpt lat="42.93776080041556" lon="10.848100250917902"><ele>12.0</ele><time>2026-04-03T15:35:28Z</time></trkpt><trkpt lat="42.9377265216408" lon="10.848024548202973"><ele>12.0</ele><time>2026-04-03T15:35:29Z</time></trkpt><trkpt lat="42.937674071654016" lon="10.847908633603035"><ele>12.0</ele><time>2026-04-03T15:35:31Z</time></trkpt><trkpt lat="42.93760900239965" lon="10.847794107584209"><ele>12.0</ele><time>2026-04-03T15:35:33Z</time></trkpt><trkpt lat="42.93755068932272" lon="10.84767009079647"><ele>11.8</ele><time>2026-04-03T15:35:35Z</time></trkpt><trkpt lat="42.937489413477984" lon="10.84755734369874"><ele>11.6</ele><time>2026-04-03T15:35:37Z</time></trkpt><trkpt lat="42.93742873555259" lon="10.847439114081148"><ele>11.4</ele><time>2026-04-03T15:35:39Z</time></trkpt><trkpt lat="42.93736708521715" lon="10.847326957816657"><ele>11.200000000000001</ele><time>2026-04-03T15:35:41Z</time></trkpt><trkpt lat="42.93730258838992" lon="10.84723828725607"><ele>11.0</ele><time>2026-04-03T15:35:43Z</time></trkpt><trkpt lat="42.937250834162235" lon="10.847150376738654"><ele>11.0</ele><time>2026-04-03T15:35:45Z</time></trkpt><trkpt lat="42.93720911308223" lon="10.84705383351883"><ele>11.0</ele><time>2026-04-03T15:35:47Z</time></trkpt><trkpt lat="42.93716645932552" lon="10.84696313109648"><ele>11.0</ele><time>2026-04-03T15:35:49Z</time></trkpt><trkpt lat="42.93710842105889" lon="10.846877830964667"><ele>11.0</ele><time>2026-04-03T15:36:07Z</time></trkpt><trkpt lat="42.93705988028867" lon="10.846796615299889"><ele>11.0</ele><time>2026-04-03T15:36:09Z</time></trkpt><trkpt lat="42.937013224129316" lon="10.846722951432627"><ele>11.0</ele><time>2026-04-03T15:36:11Z</time></trkpt><trkpt lat="42.9369539489959" lon="10.846644504636059"><ele>10.833333333333332</ele><time>2026-04-03T15:36:13Z</time></trkpt><trkpt lat="42.936915845806766" lon="10.846564554979798"><ele>10.666666666666666</ele><time>2026-04-03T15:36:15Z</time></trkpt><trkpt lat="42.93687303685452" lon="10.846495153029311"><ele>10.5</ele><time>2026-04-03T15:36:32Z</time></trkpt><trkpt lat="42.93676499845755" lon="10.846562785867686"><ele>10.333333333333334</ele><time>2026-04-03T15:36:35Z</time></trkpt><trkpt lat="42.93669154438106" lon="10.846547817570016"><ele>10.166666666666668</ele><time>2026-04-03T15:36:38Z</time></trkpt><trkpt lat="42.93662796779307" lon="10.846490952901298"><ele>10.0</ele><time>2026-04-03T15:36:39.999Z</time></trkpt><trkpt lat="42.93656990465846" lon="10.846448196308618"><ele>10.0</ele><time>2026-04-03T15:36:43.999Z</time></trkpt><trkpt lat="42.93662350903138" lon="10.846494155642455"><ele>10.0</ele><time>2026-04-03T15:37:46Z</time></trkpt><trkpt lat="42.93668230561236" lon="10.84653032566734"><ele>10.0</ele><time>2026-04-03T15:37:48Z</time></trkpt><trkpt lat="42.93681435222796" lon="10.846527758117524"><ele>10.0</ele><time>2026-04-03T15:38:03Z</time></trkpt><trkpt lat="42.936877435476234" lon="10.84650145571095"><ele>10.0</ele><time>2026-04-03T15:38:05Z</time></trkpt><trkpt lat="42.93691847533275" lon="10.84656800094557"><ele>10.0</ele><time>2026-04-03T15:38:25Z</time></trkpt><trkpt lat="42.93697211054437" lon="10.846670334857055"><ele>10.0</ele><time>2026-04-03T15:38:28Z</time></trkpt><trkpt lat="42.93702130209813" lon="10.846751465389794"><ele>10.0</ele><time>2026-04-03T15:38:30Z</time></trkpt><trkpt lat="42.937073484912105" lon="10.846837061492868"><ele>10.0</ele><time>2026-04-03T15:38:32Z</time></trkpt><trkpt lat="42.93712563443367" lon="10.846916887538947"><ele>10.0</ele><time>2026-04-03T15:38:34Z</time></trkpt><trkpt lat="42.93717292269035" lon="10.846986853866845"><ele>10.0</ele><time>2026-04-03T15:38:36Z</time></trkpt><trkpt lat="42.93724260917901" lon="10.846963968758688"><ele>10.0</ele><time>2026-04-03T15:38:41Z</time></trkpt><trkpt lat="42.937215241010556" lon="10.847063185011512"><ele>10.166666666666668</ele><time>2026-04-03T15:39:09Z</time></trkpt><trkpt lat="42.937270228966625" lon="10.847187100639406"><ele>10.333333333333334</ele><time>2026-04-03T15:39:12Z</time></trkpt><trkpt lat="42.93732600191146" lon="10.847254477901597"><ele>10.5</ele><time>2026-04-03T15:39:14Z</time></trkpt><trkpt lat="42.93737867427992" lon="10.847332999426541"><ele>10.666666666666666</ele><time>2026-04-03T15:39:16Z</time></trkpt><trkpt lat="42.93739817990651" lon="10.847423438880071"><ele>10.833333333333332</ele><time>2026-04-03T15:39:18Z</time></trkpt><trkpt lat="42.937452259426685" lon="10.847507077145119"><ele>11.0</ele><time>2026-04-03T15:39:20Z</time></trkpt><trkpt lat="42.93750089051748" lon="10.847596624414741"><ele>11.0</ele><time>2026-04-03T15:39:22Z</time></trkpt><trkpt lat="42.93755206539611" lon="10.847676986281831"><ele>11.0</ele><time>2026-04-03T15:39:24Z</time></trkpt><trkpt lat="42.93760612774078" lon="10.847778156874774"><ele>11.0</ele><time>2026-04-03T15:39:26Z</time></trkpt><trkpt lat="42.93765589007825" lon="10.847875040603501"><ele>11.0</ele><time>2026-04-03T15:39:28Z</time></trkpt><trkpt lat="42.93770060972111" lon="10.84797518164017"><ele>11.0</ele><time>2026-04-03T15:39:30Z</time></trkpt><trkpt lat="42.937746410202145" lon="10.84805634056808"><ele>11.0</ele><time>2026-04-03T15:39:34Z</time></trkpt><trkpt lat="42.93778326127184" lon="10.848133561752492"><ele>11.0</ele><time>2026-04-03T15:39:36Z</time></trkpt><trkpt lat="42.93781039577929" lon="10.8482125325862"><ele>11.0</ele><time>2026-04-03T15:39:38Z</time></trkpt><trkpt lat="42.93785928521716" lon="10.848298077769412"><ele>11.0</ele><time>2026-04-03T15:39:41Z</time></trkpt><trkpt lat="42.937907511808504" lon="10.848371300159172"><ele>11.0</ele><time>2026-04-03T15:39:43Z</time></trkpt><trkpt lat="42.937954492490555" lon="10.84848358783553"><ele>11.0</ele><time>2026-04-03T15:39:45Z</time></trkpt><trkpt lat="42.93800264423308" lon="10.848607612410468"><ele>11.0</ele><time>2026-04-03T15:39:47Z</time></trkpt><trkpt lat="42.938057877219606" lon="10.848720743609128"><ele>11.25</ele><time>2026-04-03T15:39:48.999Z</time></trkpt><trkpt lat="42.938107816618285" lon="10.84884763521979"><ele>11.5</ele><time>2026-04-03T15:39:50.999Z</time></trkpt><trkpt lat="42.938170579191514" lon="10.848989846602331"><ele>11.75</ele><time>2026-04-03T15:39:52.999Z</time></trkpt><trkpt lat="42.93823271491699" lon="10.849126346819679"><ele>12.0</ele><time>2026-04-03T15:39:54.999Z</time></trkpt><trkpt lat="42.93830378165942" lon="10.849259374353966"><ele>12.2</ele><time>2026-04-03T15:39:56.999Z</time></trkpt><trkpt lat="42.93833679152923" lon="10.849332753852316"><ele>12.399999999999999</ele><time>2026-04-03T15:39:57.999Z</time></trkpt><trkpt lat="42.93838622424995" lon="10.849474293904423"><ele>12.600000000000001</ele><time>2026-04-03T15:39:59.999Z</time></trkpt><trkpt lat="42.938420880079235" lon="10.849555679827448"><ele>12.8</ele><time>2026-04-03T15:40:00.999Z</time></trkpt><trkpt lat="42.938465373241044" lon="10.849706593620729"><ele>13.0</ele><time>2026-04-03T15:40:02.999Z</time></trkpt><trkpt lat="42.938516638943405" lon="10.849849901286788"><ele>12.999999999999998</ele><time>2026-04-03T15:40:04.999Z</time></trkpt><trkpt lat="42.93856199247828" lon="10.850005291623637"><ele>13.0</ele><time>2026-04-03T15:40:06.999Z</time></trkpt><trkpt lat="42.938595624810205" lon="10.850082252861858"><ele>13.0</ele><time>2026-04-03T15:40:07.999Z</time></trkpt><trkpt lat="42.938635922377" lon="10.850154034077647"><ele>13.0</ele><time>2026-04-03T15:40:08.999Z</time></trkpt><trkpt lat="42.93867840935364" lon="10.85022240764053"><ele>12.999999999999998</ele><time>2026-04-03T15:40:09.999Z</time></trkpt><trkpt lat="42.93871445167936" lon="10.85029952238284"><ele>13.0</ele><time>2026-04-03T15:40:10.999Z</time></trkpt><trkpt lat="42.93875225218077" lon="10.85037606100218"><ele>13.0</ele><time>2026-04-03T15:40:11.999Z</time></trkpt><trkpt lat="42.93880246597359" lon="10.850488498419827"><ele>13.0</ele><time>2026-04-03T15:40:13.999Z</time></trkpt><trkpt lat="42.93886168868809" lon="10.850586377975"><ele>13.0</ele><time>2026-04-03T15:40:15.999Z</time></trkpt><trkpt lat="42.9389129919967" lon="10.850690676354318"><ele>13.0</ele><time>2026-04-03T15:40:17.999Z</time></trkpt><trkpt lat="42.93897303662425" lon="10.850793909685029"><ele>13.0</ele><time>2026-04-03T15:40:20.998Z</time></trkpt><trkpt lat="42.93903125486942" lon="10.850920353623962"><ele>13.0</ele><time>2026-04-03T15:40:22.998Z</time></trkpt><trkpt lat="42.93907855267225" lon="10.851052554648666"><ele>13.0</ele><time>2026-04-03T15:40:24.998Z</time></trkpt><trkpt lat="42.93910520367709" lon="10.851187748304788"><ele>13.0</ele><time>2026-04-03T15:40:26.998Z</time></trkpt><trkpt lat="42.939169689775625" lon="10.851308746125033"><ele>13.0</ele><time>2026-04-03T15:40:28.997Z</time></trkpt><trkpt lat="42.93927328309753" lon="10.85140959371116"><ele>13.0</ele><time>2026-04-03T15:40:30.997Z</time></trkpt><trkpt lat="42.939349115628126" lon="10.85153807134198"><ele>12.999999999999998</ele><time>2026-04-03T15:40:32.997Z</time></trkpt><trkpt lat="42.9393845903825" lon="10.851678633243955"><ele>13.0</ele><time>2026-04-03T15:40:34.997Z</time></trkpt><trkpt lat="42.939418444310874" lon="10.851754375116062"><ele>13.0</ele><time>2026-04-03T15:40:36.997Z</time></trkpt><trkpt lat="42.939478945328645" lon="10.851798282075059"><ele>13.0</ele><time>2026-04-03T15:40:37.997Z</time></trkpt><trkpt lat="42.939533471031076" lon="10.851849698265267"><ele>12.999999999999998</ele><time>2026-04-03T15:40:38.997Z</time></trkpt><trkpt lat="42.93961206249497" lon="10.851977051441482"><ele>13.0</ele><time>2026-04-03T15:40:40.997Z</time></trkpt><trkpt lat="42.93967925850863" lon="10.852113460863455"><ele>13.0</ele><time>2026-04-03T15:40:42.997Z</time></trkpt><trkpt lat="42.93974650620631" lon="10.852224645818012"><ele>13.0</ele><time>2026-04-03T15:40:44.997Z</time></trkpt><trkpt lat="42.939789944922055" lon="10.852295517890576"><ele>13.0</ele><time>2026-04-03T15:40:46.997Z</time></trkpt><trkpt lat="42.939760710784974" lon="10.852384486401805"><ele>13.0</ele><time>2026-04-03T15:40:48.997Z</time></trkpt><trkpt lat="42.93968867506674" lon="10.852483946607833"><ele>13.0</ele><time>2026-04-03T15:40:50.997Z</time></trkpt><trkpt lat="42.93962286237011" lon="10.852607630145762"><ele>13.0</ele><time>2026-04-03T15:40:52.997Z</time></trkpt><trkpt lat="42.939549212961495" lon="10.852723853070518"><ele>13.0</ele><time>2026-04-03T15:40:54.997Z</time></trkpt><trkpt lat="42.9394749924581" lon="10.852849838800216"><ele>13.0</ele><time>2026-04-03T15:40:56.997Z</time></trkpt><trkpt lat="42.939396417512825" lon="10.852979004168246"><ele>13.0</ele><time>2026-04-03T15:40:58.997Z</time></trkpt><trkpt lat="42.939320170795256" lon="10.853115698505862"><ele>13.0</ele><time>2026-04-03T15:41:00.997Z</time></trkpt><trkpt lat="42.93927274050699" lon="10.853189522784302"><ele>13.0</ele><time>2026-04-03T15:41:01.997Z</time></trkpt><trkpt lat="42.939229897404715" lon="10.85326273624561"><ele>13.0</ele><time>2026-04-03T15:41:02.997Z</time></trkpt><trkpt lat="42.93918344076695" lon="10.853339709062883"><ele>13.0</ele><time>2026-04-03T15:41:03.997Z</time></trkpt><trkpt lat="42.93914129824341" lon="10.853412317134996"><ele>13.0</ele><time>2026-04-03T15:41:04.997Z</time></trkpt><trkpt lat="42.93909414513891" lon="10.85349428609278"><ele>13.0</ele><time>2026-04-03T15:41:05.997Z</time></trkpt><trkpt lat="42.93904491700608" lon="10.85357523085228"><ele>13.0</ele><time>2026-04-03T15:41:06.997Z</time></trkpt><trkpt lat="42.938997518644754" lon="10.853653532516143"><ele>13.0</ele><time>2026-04-03T15:41:07.997Z</time></trkpt><trkpt lat="42.93895330958032" lon="10.85372860843555"><ele>13.0</ele><time>2026-04-03T15:41:08.997Z</time></trkpt><trkpt lat="42.93891015873118" lon="10.85380109727952"><ele>13.0</ele><time>2026-04-03T15:41:09.997Z</time></trkpt><trkpt lat="42.93886536723629" lon="10.853875414479283"><ele>13.0</ele><time>2026-04-03T15:41:10.997Z</time></trkpt><trkpt lat="42.93881818498164" lon="10.853953786532728"><ele>13.0</ele><time>2026-04-03T15:41:11.997Z</time></trkpt><trkpt lat="42.938773649831475" lon="10.854030273908206"><ele>13.0</ele><time>2026-04-03T15:41:12.997Z</time></trkpt><trkpt lat="42.93872911797427" lon="10.854107610172944"><ele>13.0</ele><time>2026-04-03T15:41:13.997Z</time></trkpt><trkpt lat="42.93868458431004" lon="10.854185184275472"><ele>13.0</ele><time>2026-04-03T15:41:14.997Z</time></trkpt><trkpt lat="42.93863798498005" lon="10.854265271643918"><ele>13.0</ele><time>2026-04-03T15:41:15.997Z</time></trkpt><trkpt lat="42.93859378323163" lon="10.8543443649911"><ele>13.0</ele><time>2026-04-03T15:41:16.997Z</time></trkpt><trkpt lat="42.93854699979661" lon="10.854428257112929"><ele>13.0</ele><time>2026-04-03T15:41:17.997Z</time></trkpt><trkpt lat="42.93849322587084" lon="10.85450473182859"><ele>13.0</ele><time>2026-04-03T15:41:18.997Z</time></trkpt><trkpt lat="42.938447874073674" lon="10.854577888626954"><ele>13.0</ele><time>2026-04-03T15:41:19.997Z</time></trkpt><trkpt lat="42.93839449560534" lon="10.854639343989977"><ele>13.0</ele><time>2026-04-03T15:41:20.997Z</time></trkpt><trkpt lat="42.938329978824115" lon="10.85469748842225"><ele>13.333333333333332</ele><time>2026-04-03T15:41:21.997Z</time></trkpt><trkpt lat="42.938269357968146" lon="10.854743612997687"><ele>13.666666666666666</ele><time>2026-04-03T15:41:22.997Z</time></trkpt><trkpt lat="42.93820175369671" lon="10.854787997857425"><ele>14.0</ele><time>2026-04-03T15:41:23.997Z</time></trkpt><trkpt lat="42.93813220082203" lon="10.854835035971883"><ele>14.333333333333332</ele><time>2026-04-03T15:41:24.997Z</time></trkpt><trkpt lat="42.9380572094414" lon="10.854886113495429"><ele>14.666666666666666</ele><time>2026-04-03T15:41:25.997Z</time></trkpt><trkpt lat="42.93798212107754" lon="10.854940779384652"><ele>15.0</ele><time>2026-04-03T15:41:26.997Z</time></trkpt><trkpt lat="42.93790501470455" lon="10.854996001692568"><ele>15.0</ele><time>2026-04-03T15:41:27.997Z</time></trkpt><trkpt lat="42.937826804964146" lon="10.855049382344443"><ele>15.0</ele><time>2026-04-03T15:41:28.997Z</time></trkpt><trkpt lat="42.93775125402711" lon="10.855105645753966"><ele>15.0</ele><time>2026-04-03T15:41:29.998Z</time></trkpt><trkpt lat="42.937672354181544" lon="10.855165491909872"><ele>15.0</ele><time>2026-04-03T15:41:30.998Z</time></trkpt><trkpt lat="42.93758511070816" lon="10.85521764528527"><ele>15.0</ele><time>2026-04-03T15:41:31.998Z</time></trkpt><trkpt lat="42.93749936769918" lon="10.855273377183519"><ele>15.2</ele><time>2026-04-03T15:41:32.998Z</time></trkpt><trkpt lat="42.93741976941499" lon="10.855331703018901"><ele>15.4</ele><time>2026-04-03T15:41:33.998Z</time></trkpt><trkpt lat="42.93734164674313" lon="10.855390000509638"><ele>15.600000000000001</ele><time>2026-04-03T15:41:34.998Z</time></trkpt><trkpt lat="42.93726028362194" lon="10.855447787955832"><ele>15.8</ele><time>2026-04-03T15:41:35.998Z</time></trkpt><trkpt lat="42.937172355291075" lon="10.855510645054476"><ele>16.0</ele><time>2026-04-03T15:41:36.998Z</time></trkpt><trkpt lat="42.937089988979686" lon="10.85557036794543"><ele>15.999999999999998</ele><time>2026-04-03T15:41:37.998Z</time></trkpt><trkpt lat="42.93699992958719" lon="10.855631145357558"><ele>16.0</ele><time>2026-04-03T15:41:38.999Z</time></trkpt><trkpt lat="42.936914947314776" lon="10.85569072578298"><ele>16.0</ele><time>2026-04-03T15:41:39.999Z</time></trkpt><trkpt lat="42.936828599476115" lon="10.855747815917503"><ele>16.0</ele><time>2026-04-03T15:41:40.999Z</time></trkpt><trkpt lat="42.93676510231713" lon="10.855795439841268"><ele>15.999999999999998</ele><time>2026-04-03T15:41:41.999Z</time></trkpt><trkpt lat="42.93670102104848" lon="10.85584045253534"><ele>16.0</ele><time>2026-04-03T15:41:42.999Z</time></trkpt><trkpt lat="42.93662805712732" lon="10.855899622890451"><ele>15.833333333333332</ele><time>2026-04-03T15:41:43.999Z</time></trkpt><trkpt lat="42.93655657429907" lon="10.85595986393779"><ele>15.666666666666666</ele><time>2026-04-03T15:41:44.999Z</time></trkpt><trkpt lat="42.936469471423926" lon="10.85600795713272"><ele>15.5</ele><time>2026-04-03T15:41:45.999Z</time></trkpt><trkpt lat="42.93639600708791" lon="10.856068236409058"><ele>15.333333333333332</ele><time>2026-04-03T15:41:46.999Z</time></trkpt><trkpt lat="42.93631098211824" lon="10.856117958048769"><ele>15.166666666666666</ele><time>2026-04-03T15:41:47.999Z</time></trkpt><trkpt lat="42.93623916807881" lon="10.8561720038342"><ele>15.0</ele><time>2026-04-03T15:41:48.999Z</time></trkpt><trkpt lat="42.9361632623761" lon="10.856226708170732"><ele>15.0</ele><time>2026-04-03T15:41:49.999Z</time></trkpt><trkpt lat="42.936092785129766" lon="10.856277846506046"><ele>15.0</ele><time>2026-04-03T15:41:50.999Z</time></trkpt><trkpt lat="42.93601987014197" lon="10.856328641248966"><ele>15.0</ele><time>2026-04-03T15:41:51.999Z</time></trkpt><trkpt lat="42.93595176747448" lon="10.856380660220237"><ele>15.0</ele><time>2026-04-03T15:41:52.999Z</time></trkpt><trkpt lat="42.93589257995822" lon="10.856424430947438"><ele>15.0</ele><time>2026-04-03T15:41:53.999Z</time></trkpt><trkpt lat="42.93584289051815" lon="10.85647960969769"><ele>15.0</ele><time>2026-04-03T15:41:54.999Z</time></trkpt><trkpt lat="42.93578781557057" lon="10.85654704956711"><ele>15.0</ele><time>2026-04-03T15:41:55.999Z</time></trkpt><trkpt lat="42.93572976104513" lon="10.856619399231382"><ele>15.166666666666666</ele><time>2026-04-03T15:41:56.999Z</time></trkpt><trkpt lat="42.93567539781742" lon="10.856697045473195"><ele>15.333333333333332</ele><time>2026-04-03T15:41:57.999Z</time></trkpt><trkpt lat="42.9356271655655" lon="10.856778795832449"><ele>15.5</ele><time>2026-04-03T15:41:58.999Z</time></trkpt><trkpt lat="42.93558250675392" lon="10.856859540275185"><ele>15.666666666666666</ele><time>2026-04-03T15:41:59.999Z</time></trkpt><trkpt lat="42.935538426273006" lon="10.856945752223428"><ele>15.833333333333332</ele><time>2026-04-03T15:42:00.999Z</time></trkpt><trkpt lat="42.93549466761749" lon="10.857029324718285"><ele>16.0</ele><time>2026-04-03T15:42:01.999Z</time></trkpt><trkpt lat="42.93544319988475" lon="10.857115616046837"><ele>16.166666666666664</ele><time>2026-04-03T15:42:02.999Z</time></trkpt><trkpt lat="42.93539211691526" lon="10.857202194663275"><ele>16.333333333333332</ele><time>2026-04-03T15:42:03.999Z</time></trkpt><trkpt lat="42.935342745928274" lon="10.85728534120566"><ele>16.5</ele><time>2026-04-03T15:42:04.999Z</time></trkpt><trkpt lat="42.9353026235587" lon="10.857361075974564"><ele>16.666666666666668</ele><time>2026-04-03T15:42:05.999Z</time></trkpt><trkpt lat="42.93525272825137" lon="10.8574476371754"><ele>16.833333333333336</ele><time>2026-04-03T15:42:06.999Z</time></trkpt><trkpt lat="42.93520341687079" lon="10.857532811403345"><ele>17.0</ele><time>2026-04-03T15:42:07.999Z</time></trkpt><trkpt lat="42.935156952887546" lon="10.857617594617832"><ele>17.166666666666668</ele><time>2026-04-03T15:42:08.999Z</time></trkpt><trkpt lat="42.935109809851944" lon="10.857703741658868"><ele>17.333333333333336</ele><time>2026-04-03T15:42:09.999Z</time></trkpt><trkpt lat="42.93506119561316" lon="10.857789769108745"><ele>17.5</ele><time>2026-04-03T15:42:10.999Z</time></trkpt><trkpt lat="42.93501498493794" lon="10.857875308989478"><ele>17.666666666666668</ele><time>2026-04-03T15:42:11.999Z</time></trkpt><trkpt lat="42.934970677753334" lon="10.857959586837376"><ele>17.833333333333332</ele><time>2026-04-03T15:42:12.999Z</time></trkpt><trkpt lat="42.934923667337785" lon="10.858049111021554"><ele>18.0</ele><time>2026-04-03T15:42:13.999Z</time></trkpt><trkpt lat="42.93488338008422" lon="10.858132738841817"><ele>18.166666666666668</ele><time>2026-04-03T15:42:14.999Z</time></trkpt><trkpt lat="42.934836472735576" lon="10.85821418191443"><ele>18.333333333333332</ele><time>2026-04-03T15:42:15.999Z</time></trkpt><trkpt lat="42.93478238701173" lon="10.858300852582563"><ele>18.5</ele><time>2026-04-03T15:42:16.999Z</time></trkpt><trkpt lat="42.934737163872576" lon="10.85838661759681"><ele>18.666666666666664</ele><time>2026-04-03T15:42:17.999Z</time></trkpt><trkpt lat="42.934685695734835" lon="10.858471931593884"><ele>18.833333333333332</ele><time>2026-04-03T15:42:18.999Z</time></trkpt><trkpt lat="42.93464418645158" lon="10.858543942377207"><ele>19.0</ele><time>2026-04-03T15:42:19.999Z</time></trkpt><trkpt lat="42.934601687894485" lon="10.858613631597823"><ele>19.0</ele><time>2026-04-03T15:42:20.999Z</time></trkpt><trkpt lat="42.934528947285536" lon="10.858743622110278"><ele>19.0</ele><time>2026-04-03T15:42:22.999Z</time></trkpt><trkpt lat="42.93447429132417" lon="10.8588367129755"><ele>19.0</ele><time>2026-04-03T15:42:24.999Z</time></trkpt><trkpt lat="42.93442647027569" lon="10.858909963473712"><ele>19.0</ele><time>2026-04-03T15:42:56.999Z</time></trkpt><trkpt lat="42.93437909107871" lon="10.858985158979984"><ele>19.0</ele><time>2026-04-03T15:42:58.999Z</time></trkpt><trkpt lat="42.934364592060376" lon="10.859075952566968"><ele>19.0</ele><time>2026-04-03T15:43:00.999Z</time></trkpt><trkpt lat="42.934365306055504" lon="10.85918951687116"><ele>19.166666666666664</ele><time>2026-04-03T15:43:03.999Z</time></trkpt><trkpt lat="42.93437567551281" lon="10.85929812810294"><ele>19.333333333333332</ele><time>2026-04-03T15:43:05.999Z</time></trkpt><trkpt lat="42.93435423094651" lon="10.859427721441055"><ele>19.5</ele><time>2026-04-03T15:43:07.999Z</time></trkpt><trkpt lat="42.93434857702664" lon="10.859548749440226"><ele>19.666666666666668</ele><time>2026-04-03T15:43:09.999Z</time></trkpt><trkpt lat="42.934368190630515" lon="10.859632389170779"><ele>19.833333333333336</ele><time>2026-04-03T15:43:11.999Z</time></trkpt><trkpt lat="42.93440422788058" lon="10.859723986532206"><ele>20.0</ele><time>2026-04-03T15:43:12.999Z</time></trkpt><trkpt lat="42.93449118706918" lon="10.859804543038921"><ele>20.0</ele><time>2026-04-03T15:43:14.999Z</time></trkpt><trkpt lat="42.93458152801538" lon="10.85989032902417"><ele>20.0</ele><time>2026-04-03T15:43:16.999Z</time></trkpt><trkpt lat="42.934678871952485" lon="10.859981266586672"><ele>20.0</ele><time>2026-04-03T15:43:18.999Z</time></trkpt><trkpt lat="42.934774398051104" lon="10.860085699132725"><ele>20.0</ele><time>2026-04-03T15:43:20.999Z</time></trkpt><trkpt lat="42.93486783730792" lon="10.860197503438638"><ele>20.0</ele><time>2026-04-03T15:43:22.999Z</time></trkpt><trkpt lat="42.934916967081406" lon="10.860254161481604"><ele>20.0</ele><time>2026-04-03T15:43:23.999Z</time></trkpt><trkpt lat="42.934969752873165" lon="10.860307087989051"><ele>20.0</ele><time>2026-04-03T15:43:24.999Z</time></trkpt><trkpt lat="42.93502056273603" lon="10.860361456261026"><ele>20.0</ele><time>2026-04-03T15:43:25.999Z</time></trkpt><trkpt lat="42.935073045427835" lon="10.860410734495503"><ele>20.0</ele><time>2026-04-03T15:43:26.999Z</time></trkpt><trkpt lat="42.93512848050061" lon="10.860457049559216"><ele>20.0</ele><time>2026-04-03T15:43:27.999Z</time></trkpt><trkpt lat="42.93518135664538" lon="10.86050489373257"><ele>20.0</ele><time>2026-04-03T15:43:28.999Z</time></trkpt><trkpt lat="42.93523527326645" lon="10.860550438829437"><ele>20.0</ele><time>2026-04-03T15:43:29.999Z</time></trkpt><trkpt lat="42.93529306606372" lon="10.860598199172586"><ele>20.0</ele><time>2026-04-03T15:43:30.999Z</time></trkpt><trkpt lat="42.93534719619954" lon="10.860647513519432"><ele>20.0</ele><time>2026-04-03T15:43:31.999Z</time></trkpt><trkpt lat="42.935404522157626" lon="10.86069749114462"><ele>20.0</ele><time>2026-04-03T15:43:32.999Z</time></trkpt><trkpt lat="42.93551506084849" lon="10.860778543205146"><ele>20.0</ele><time>2026-04-03T15:43:34.999Z</time></trkpt><trkpt lat="42.935570897605594" lon="10.860823538549553"><ele>20.0</ele><time>2026-04-03T15:43:36Z</time></trkpt><trkpt lat="42.93567301887922" lon="10.860884923030856"><ele>20.0</ele><time>2026-04-03T15:43:38Z</time></trkpt><trkpt lat="42.93575762542506" lon="10.860940310618908"><ele>20.0</ele><time>2026-04-03T15:43:40Z</time></trkpt><trkpt lat="42.93580861962212" lon="10.861014500737951"><ele>20.0</ele><time>2026-04-03T15:44:06Z</time></trkpt><trkpt lat="42.93573988732103" lon="10.861185125842995"><ele>20.0</ele><time>2026-04-03T15:44:08Z</time></trkpt><trkpt lat="42.93569398710291" lon="10.861330103408282"><ele>20.0</ele><time>2026-04-03T15:44:10Z</time></trkpt><trkpt lat="42.93564517024372" lon="10.861494127305887"><ele>20.333333333333336</ele><time>2026-04-03T15:44:12Z</time></trkpt><trkpt lat="42.93561560857795" lon="10.861581361067996"><ele>20.666666666666668</ele><time>2026-04-03T15:44:13Z</time></trkpt><trkpt lat="42.935587393457595" lon="10.861680210883478"><ele>21.0</ele><time>2026-04-03T15:44:14Z</time></trkpt><trkpt lat="42.935561640913214" lon="10.861778045376797"><ele>21.333333333333332</ele><time>2026-04-03T15:44:15Z</time></trkpt><trkpt lat="42.93553347196167" lon="10.861875577588954"><ele>21.666666666666664</ele><time>2026-04-03T15:44:16Z</time></trkpt><trkpt lat="42.935502978308726" lon="10.861974897061842"><ele>22.0</ele><time>2026-04-03T15:44:17Z</time></trkpt><trkpt lat="42.93547415576819" lon="10.862067404200243"><ele>22.166666666666664</ele><time>2026-04-03T15:44:18Z</time></trkpt><trkpt lat="42.93544416905333" lon="10.86216204273397"><ele>22.333333333333332</ele><time>2026-04-03T15:44:19Z</time></trkpt><trkpt lat="42.935418239959624" lon="10.862255639427019"><ele>22.5</ele><time>2026-04-03T15:44:20Z</time></trkpt><trkpt lat="42.93538912636301" lon="10.86235768739941"><ele>22.666666666666668</ele><time>2026-04-03T15:44:21Z</time></trkpt><trkpt lat="42.93535432627617" lon="10.862466805594362"><ele>22.833333333333336</ele><time>2026-04-03T15:44:22Z</time></trkpt><trkpt lat="42.9353239829994" lon="10.862570173787626"><ele>23.0</ele><time>2026-04-03T15:44:23Z</time></trkpt><trkpt lat="42.935288559408555" lon="10.862682027874033"><ele>23.2</ele><time>2026-04-03T15:44:24Z</time></trkpt><trkpt lat="42.93525544908538" lon="10.86279592157324"><ele>23.4</ele><time>2026-04-03T15:44:25Z</time></trkpt><trkpt lat="42.93521967794329" lon="10.862912006392783"><ele>23.599999999999998</ele><time>2026-04-03T15:44:26Z</time></trkpt><trkpt lat="42.93518587178391" lon="10.863032737091805"><ele>23.799999999999997</ele><time>2026-04-03T15:44:27Z</time></trkpt><trkpt lat="42.93514835679386" lon="10.863160674888315"><ele>24.0</ele><time>2026-04-03T15:44:28Z</time></trkpt><trkpt lat="42.935114518640525" lon="10.863276746489545"><ele>24.0</ele><time>2026-04-03T15:44:29Z</time></trkpt><trkpt lat="42.93508108909999" lon="10.863393581829925"><ele>24.0</ele><time>2026-04-03T15:44:30Z</time></trkpt><trkpt lat="42.935038565583845" lon="10.863513358393103"><ele>24.0</ele><time>2026-04-03T15:44:31Z</time></trkpt><trkpt lat="42.9350084185957" lon="10.863629064452864"><ele>24.0</ele><time>2026-04-03T15:44:32Z</time></trkpt><trkpt lat="42.934968192886785" lon="10.863758293020169"><ele>24.0</ele><time>2026-04-03T15:44:33Z</time></trkpt><trkpt lat="42.934934079137484" lon="10.86387008159465"><ele>24.0</ele><time>2026-04-03T15:44:34Z</time></trkpt><trkpt lat="42.9348945548326" lon="10.863989612871563"><ele>24.0</ele><time>2026-04-03T15:44:35Z</time></trkpt><trkpt lat="42.93486297913731" lon="10.86410575436515"><ele>24.0</ele><time>2026-04-03T15:44:36Z</time></trkpt><trkpt lat="42.9348199341564" lon="10.864224479668446"><ele>24.0</ele><time>2026-04-03T15:44:37Z</time></trkpt><trkpt lat="42.93479673663711" lon="10.864338733335266"><ele>24.0</ele><time>2026-04-03T15:44:38Z</time></trkpt><trkpt lat="42.93475072949997" lon="10.864455924136331"><ele>24.2</ele><time>2026-04-03T15:44:39Z</time></trkpt><trkpt lat="42.934722644144344" lon="10.864574769261514"><ele>24.4</ele><time>2026-04-03T15:44:40Z</time></trkpt><trkpt lat="42.93467757680093" lon="10.86470039536115"><ele>24.6</ele><time>2026-04-03T15:44:41Z</time></trkpt><trkpt lat="42.93465379534919" lon="10.864818668001204"><ele>24.8</ele><time>2026-04-03T15:44:42Z</time></trkpt><trkpt lat="42.9346160158273" lon="10.864946228914755"><ele>25.0</ele><time>2026-04-03T15:44:43Z</time></trkpt><trkpt lat="42.934576886498895" lon="10.865069768588326"><ele>25.4</ele><time>2026-04-03T15:44:44Z</time></trkpt><trkpt lat="42.9345382629589" lon="10.865190506813645"><ele>25.8</ele><time>2026-04-03T15:44:45Z</time></trkpt><trkpt lat="42.934503649311566" lon="10.865306123452818"><ele>26.200000000000003</ele><time>2026-04-03T15:44:46Z</time></trkpt><trkpt lat="42.934462809789224" lon="10.86542375246637"><ele>26.6</ele><time>2026-04-03T15:44:47Z</time></trkpt><trkpt lat="42.93442938444834" lon="10.865545394492978"><ele>27.0</ele><time>2026-04-03T15:44:48Z</time></trkpt><trkpt lat="42.93439291303497" lon="10.86567051350429"><ele>27.0</ele><time>2026-04-03T15:44:49Z</time></trkpt><trkpt lat="42.93435666769485" lon="10.865794811548934"><ele>27.000000000000004</ele><time>2026-04-03T15:44:50Z</time></trkpt><trkpt lat="42.93431913229212" lon="10.865917911425068"><ele>27.000000000000004</ele><time>2026-04-03T15:44:51Z</time></trkpt><trkpt lat="42.934287115839965" lon="10.866042581664624"><ele>27.0</ele><time>2026-04-03T15:44:52Z</time></trkpt><trkpt lat="42.93424787644307" lon="10.866162020247568"><ele>27.0</ele><time>2026-04-03T15:44:53Z</time></trkpt><trkpt lat="42.93422494722818" lon="10.86628019491907"><ele>27.0</ele><time>2026-04-03T15:44:54Z</time></trkpt><trkpt lat="42.93419311973311" lon="10.866394713887951"><ele>27.000000000000004</ele><time>2026-04-03T15:44:55Z</time></trkpt><trkpt lat="42.93415344881633" lon="10.866513007014671"><ele>27.000000000000004</ele><time>2026-04-03T15:44:56Z</time></trkpt><trkpt lat="42.934117096227745" lon="10.866631057313722"><ele>27.0</ele><time>2026-04-03T15:44:57Z</time></trkpt><trkpt lat="42.934077010431054" lon="10.866755713905738"><ele>27.0</ele><time>2026-04-03T15:44:58Z</time></trkpt><trkpt lat="42.93403890470746" lon="10.866881212854109"><ele>27.0</ele><time>2026-04-03T15:44:59Z</time></trkpt><trkpt lat="42.934001072430185" lon="10.867008243304902"><ele>27.000000000000004</ele><time>2026-04-03T15:45:00Z</time></trkpt><trkpt lat="42.933960849487455" lon="10.867136249268396"><ele>27.000000000000004</ele><time>2026-04-03T15:45:01Z</time></trkpt><trkpt lat="42.933926716611225" lon="10.867256634488504"><ele>27.0</ele><time>2026-04-03T15:45:02Z</time></trkpt><trkpt lat="42.933886726674444" lon="10.867378159307963"><ele>27.0</ele><time>2026-04-03T15:45:03Z</time></trkpt><trkpt lat="42.93384742060631" lon="10.86750481938709"><ele>27.200000000000003</ele><time>2026-04-03T15:45:04Z</time></trkpt><trkpt lat="42.93381131799232" lon="10.867636653870601"><ele>27.400000000000002</ele><time>2026-04-03T15:45:05Z</time></trkpt><trkpt lat="42.933773356170875" lon="10.86777155836082"><ele>27.599999999999998</ele><time>2026-04-03T15:45:06Z</time></trkpt><trkpt lat="42.93373486746098" lon="10.86789626014558"><ele>27.799999999999997</ele><time>2026-04-03T15:45:07Z</time></trkpt><trkpt lat="42.933698088615785" lon="10.86801698652243"><ele>28.0</ele><time>2026-04-03T15:45:08Z</time></trkpt><trkpt lat="42.933661155165" lon="10.868139621409522"><ele>28.0</ele><time>2026-04-03T15:45:09Z</time></trkpt><trkpt lat="42.93362707677532" lon="10.868241946026233"><ele>27.999999999999996</ele><time>2026-04-03T15:45:10Z</time></trkpt><trkpt lat="42.93360196688822" lon="10.868330332084042"><ele>27.999999999999996</ele><time>2026-04-03T15:45:11Z</time></trkpt><trkpt lat="42.93354607422439" lon="10.868470061141743"><ele>28.0</ele><time>2026-04-03T15:45:13Z</time></trkpt><trkpt lat="42.93347197421369" lon="10.86858130549028"><ele>28.0</ele><time>2026-04-03T15:45:15Z</time></trkpt><trkpt lat="42.933384231489896" lon="10.868673637117341"><ele>28.333333333333336</ele><time>2026-04-03T15:45:17Z</time></trkpt><trkpt lat="42.93333674980759" lon="10.868742108553459"><ele>28.666666666666668</ele><time>2026-04-03T15:45:20Z</time></trkpt><trkpt lat="42.93329744684275" lon="10.868811480877842"><ele>29.0</ele><time>2026-04-03T15:46:17Z</time></trkpt><trkpt lat="42.933369272423825" lon="10.868975036261086"><ele>29.333333333333336</ele><time>2026-04-03T15:46:19Z</time></trkpt><trkpt lat="42.9334129399211" lon="10.86903926835556"><ele>29.666666666666668</ele><time>2026-04-03T15:46:20Z</time></trkpt><trkpt lat="42.93345610651942" lon="10.869103579905643"><ele>30.0</ele><time>2026-04-03T15:46:21Z</time></trkpt><trkpt lat="42.93351076604753" lon="10.869181046227107"><ele>30.0</ele><time>2026-04-03T15:46:22Z</time></trkpt><trkpt lat="42.9335663472823" lon="10.869268592884731"><ele>30.0</ele><time>2026-04-03T15:46:23Z</time></trkpt><trkpt lat="42.933620984194214" lon="10.86936297500561"><ele>30.0</ele><time>2026-04-03T15:46:24Z</time></trkpt><trkpt lat="42.933670613668035" lon="10.869453154840505"><ele>30.0</ele><time>2026-04-03T15:46:25Z</time></trkpt><trkpt lat="42.93372316357191" lon="10.869546454959803"><ele>30.0</ele><time>2026-04-03T15:46:26Z</time></trkpt><trkpt lat="42.93378180563654" lon="10.869652231534166"><ele>30.0</ele><time>2026-04-03T15:46:27Z</time></trkpt><trkpt lat="42.9338408855681" lon="10.869767394156746"><ele>30.2</ele><time>2026-04-03T15:46:28Z</time></trkpt><trkpt lat="42.933897234622414" lon="10.869891060029548"><ele>30.4</ele><time>2026-04-03T15:46:29Z</time></trkpt><trkpt lat="42.93395174112463" lon="10.870021784826983"><ele>30.6</ele><time>2026-04-03T15:46:30Z</time></trkpt><trkpt lat="42.93400309620145" lon="10.870151722813048"><ele>30.8</ele><time>2026-04-03T15:46:31Z</time></trkpt><trkpt lat="42.934058175108454" lon="10.870287803092193"><ele>31.0</ele><time>2026-04-03T15:46:32Z</time></trkpt><trkpt lat="42.93411679167623" lon="10.870427963600475"><ele>31.0</ele><time>2026-04-03T15:46:33Z</time></trkpt><trkpt lat="42.93417616216401" lon="10.870570764690674"><ele>31.0</ele><time>2026-04-03T15:46:34Z</time></trkpt><trkpt lat="42.9342367501724" lon="10.870718576569985"><ele>31.0</ele><time>2026-04-03T15:46:35Z</time></trkpt><trkpt lat="42.93429835442376" lon="10.870874072198752"><ele>31.0</ele><time>2026-04-03T15:46:36Z</time></trkpt><trkpt lat="42.93436137037806" lon="10.87103618467873"><ele>31.0</ele><time>2026-04-03T15:46:37Z</time></trkpt><trkpt lat="42.934424878555284" lon="10.871196062125069"><ele>31.0</ele><time>2026-04-03T15:46:38Z</time></trkpt><trkpt lat="42.93448800497863" lon="10.87134800469036"><ele>31.0</ele><time>2026-04-03T15:46:39Z</time></trkpt><trkpt lat="42.93455249453432" lon="10.871504916717088"><ele>31.0</ele><time>2026-04-03T15:46:40Z</time></trkpt><trkpt lat="42.93461854768987" lon="10.871667925114256"><ele>31.25</ele><time>2026-04-03T15:46:41Z</time></trkpt><trkpt lat="42.93468440687904" lon="10.871830375049557"><ele>31.5</ele><time>2026-04-03T15:46:42Z</time></trkpt><trkpt lat="42.934753030353725" lon="10.871994893473245"><ele>31.75</ele><time>2026-04-03T15:46:43Z</time></trkpt><trkpt lat="42.93482025953988" lon="10.872161507461218"><ele>32.0</ele><time>2026-04-03T15:46:44Z</time></trkpt><trkpt lat="42.93488598640764" lon="10.872329043503305"><ele>32.0</ele><time>2026-04-03T15:46:45Z</time></trkpt><trkpt lat="42.934952264124725" lon="10.872496763772666"><ele>32.0</ele><time>2026-04-03T15:46:46Z</time></trkpt><trkpt lat="42.93502072508978" lon="10.87266648153236"><ele>32.0</ele><time>2026-04-03T15:46:47Z</time></trkpt><trkpt lat="42.93509285820469" lon="10.87284027201306"><ele>32.0</ele><time>2026-04-03T15:46:48Z</time></trkpt><trkpt lat="42.93516205694323" lon="10.873007316806671"><ele>32.25</ele><time>2026-04-03T15:46:49Z</time></trkpt><trkpt lat="42.935231781614505" lon="10.873177316806652"><ele>32.5</ele><time>2026-04-03T15:46:50Z</time></trkpt><trkpt lat="42.93530084695966" lon="10.873348241462423"><ele>32.75</ele><time>2026-04-03T15:46:51Z</time></trkpt><trkpt lat="42.93536852722921" lon="10.87351770044308"><ele>33.0</ele><time>2026-04-03T15:46:52Z</time></trkpt><trkpt lat="42.93543841126009" lon="10.873691411995402"><ele>33.0</ele><time>2026-04-03T15:46:53Z</time></trkpt><trkpt lat="42.93551120337719" lon="10.873867391150755"><ele>33.0</ele><time>2026-04-03T15:46:54Z</time></trkpt><trkpt lat="42.93557906891032" lon="10.874039027420876"><ele>33.0</ele><time>2026-04-03T15:46:55Z</time></trkpt><trkpt lat="42.935647117502995" lon="10.874212424574065"><ele>33.0</ele><time>2026-04-03T15:46:56Z</time></trkpt><trkpt lat="42.9357201586188" lon="10.87439247746203"><ele>32.5</ele><time>2026-04-03T15:46:57Z</time></trkpt><trkpt lat="42.93579236164945" lon="10.87456862728541"><ele>32.0</ele><time>2026-04-03T15:46:58Z</time></trkpt><trkpt lat="42.93586334979142" lon="10.874742975846154"><ele>31.5</ele><time>2026-04-03T15:46:59Z</time></trkpt><trkpt lat="42.93593558374517" lon="10.874920086980051"><ele>31.0</ele><time>2026-04-03T15:47:00Z</time></trkpt><trkpt lat="42.93600412905526" lon="10.875088532838745"><ele>31.0</ele><time>2026-04-03T15:47:01Z</time></trkpt><trkpt lat="42.936073062694675" lon="10.875259123745062"><ele>31.0</ele><time>2026-04-03T15:47:02Z</time></trkpt><trkpt lat="42.936141388914486" lon="10.875428924194944"><ele>31.0</ele><time>2026-04-03T15:47:03Z</time></trkpt><trkpt lat="42.93620734094837" lon="10.875595244915473"><ele>31.0</ele><time>2026-04-03T15:47:04Z</time></trkpt><trkpt lat="42.93627291749064" lon="10.875757914625275"><ele>31.0</ele><time>2026-04-03T15:47:05Z</time></trkpt><trkpt lat="42.93633840252871" lon="10.8759185143645"><ele>31.0</ele><time>2026-04-03T15:47:06Z</time></trkpt><trkpt lat="42.93640923545186" lon="10.876100885874354"><ele>31.0</ele><time>2026-04-03T15:47:07Z</time></trkpt><trkpt lat="42.93647830742358" lon="10.876274132644536"><ele>31.0</ele><time>2026-04-03T15:47:08Z</time></trkpt><trkpt lat="42.93654434452124" lon="10.876447064850053"><ele>31.25</ele><time>2026-04-03T15:47:09Z</time></trkpt><trkpt lat="42.936608377931876" lon="10.876620707459333"><ele>31.5</ele><time>2026-04-03T15:47:10Z</time></trkpt><trkpt lat="42.936667395042015" lon="10.876800892013618"><ele>31.75</ele><time>2026-04-03T15:47:11Z</time></trkpt><trkpt lat="42.93672059028895" lon="10.876979921065864"><ele>32.0</ele><time>2026-04-03T15:47:12Z</time></trkpt><trkpt lat="42.9367740089764" lon="10.877166962408307"><ele>32.25</ele><time>2026-04-03T15:47:13Z</time></trkpt><trkpt lat="42.93681057643603" lon="10.877339511973315"><ele>32.5</ele><time>2026-04-03T15:47:14Z</time></trkpt><trkpt lat="42.93684925763091" lon="10.877521038155542"><ele>32.75</ele><time>2026-04-03T15:47:15Z</time></trkpt><trkpt lat="42.9368851454545" lon="10.877704626689292"><ele>33.0</ele><time>2026-04-03T15:47:16Z</time></trkpt><trkpt lat="42.93691902391454" lon="10.877891385423998"><ele>34.0</ele><time>2026-04-03T15:47:17Z</time></trkpt><trkpt lat="42.93695005991623" lon="10.878078924685623"><ele>35.0</ele><time>2026-04-03T15:47:18Z</time></trkpt><trkpt lat="42.936976521939926" lon="10.87827245552494"><ele>36.0</ele><time>2026-04-03T15:47:19Z</time></trkpt><trkpt lat="42.93699795732434" lon="10.87846471087592"><ele>37.0</ele><time>2026-04-03T15:47:20Z</time></trkpt><trkpt lat="42.93701520856122" lon="10.878657831632232"><ele>37.5</ele><time>2026-04-03T15:47:21Z</time></trkpt><trkpt lat="42.93702781591297" lon="10.878853766435979"><ele>38.0</ele><time>2026-04-03T15:47:22Z</time></trkpt><trkpt lat="42.93704084950287" lon="10.879044630252206"><ele>38.5</ele><time>2026-04-03T15:47:23Z</time></trkpt><trkpt lat="42.937056018014566" lon="10.879231818828421"><ele>39.0</ele><time>2026-04-03T15:47:24Z</time></trkpt><trkpt lat="42.93707436765669" lon="10.879421035524677"><ele>39.25</ele><time>2026-04-03T15:47:25Z</time></trkpt><trkpt lat="42.93709109206649" lon="10.879605560018963"><ele>39.5</ele><time>2026-04-03T15:47:26Z</time></trkpt><trkpt lat="42.9371059174062" lon="10.87978989845178"><ele>39.75</ele><time>2026-04-03T15:47:27Z</time></trkpt><trkpt lat="42.93712117995412" lon="10.879978958348314"><ele>40.0</ele><time>2026-04-03T15:47:28Z</time></trkpt><trkpt lat="42.93713500213641" lon="10.880164930433061"><ele>39.5</ele><time>2026-04-03T15:47:29Z</time></trkpt><trkpt lat="42.93714885234061" lon="10.880349617180416"><ele>39.0</ele><time>2026-04-03T15:47:30Z</time></trkpt><trkpt lat="42.93716361626642" lon="10.880541983737523"><ele>38.5</ele><time>2026-04-03T15:47:31Z</time></trkpt><trkpt lat="42.93717922054169" lon="10.880724441598105"><ele>38.0</ele><time>2026-04-03T15:47:32Z</time></trkpt><trkpt lat="42.93719409187871" lon="10.880909274869515"><ele>38.0</ele><time>2026-04-03T15:47:32.999Z</time></trkpt><trkpt lat="42.93720798394788" lon="10.88109528277573"><ele>38.0</ele><time>2026-04-03T15:47:33.999Z</time></trkpt><trkpt lat="42.93722250471879" lon="10.881286466053323"><ele>38.0</ele><time>2026-04-03T15:47:34.999Z</time></trkpt><trkpt lat="42.93723567210852" lon="10.881478777199037"><ele>38.0</ele><time>2026-04-03T15:47:35.999Z</time></trkpt><trkpt lat="42.93725037188848" lon="10.881669715887293"><ele>38.25</ele><time>2026-04-03T15:47:36.999Z</time></trkpt><trkpt lat="42.93726881555702" lon="10.88185607762641"><ele>38.5</ele><time>2026-04-03T15:47:37.999Z</time></trkpt><trkpt lat="42.93728364355365" lon="10.882046191877762"><ele>38.75</ele><time>2026-04-03T15:47:38.999Z</time></trkpt><trkpt lat="42.937297626654974" lon="10.882235879865735"><ele>39.0</ele><time>2026-04-03T15:47:39.999Z</time></trkpt><trkpt lat="42.937311064295486" lon="10.882423165420443"><ele>39.25</ele><time>2026-04-03T15:47:40.999Z</time></trkpt><trkpt lat="42.93732396051174" lon="10.882611227552696"><ele>39.5</ele><time>2026-04-03T15:47:41.999Z</time></trkpt><trkpt lat="42.93733708682012" lon="10.882795059598603"><ele>39.75</ele><time>2026-04-03T15:47:42.999Z</time></trkpt><trkpt lat="42.937349408466496" lon="10.882971972455406"><ele>40.0</ele><time>2026-04-03T15:47:43.999Z</time></trkpt><trkpt lat="42.93736521422476" lon="10.883155174091097"><ele>40.0</ele><time>2026-04-03T15:47:44.999Z</time></trkpt><trkpt lat="42.93738306412758" lon="10.883335803178818"><ele>40.0</ele><time>2026-04-03T15:47:45.999Z</time></trkpt><trkpt lat="42.93740232927255" lon="10.883522138582212"><ele>40.0</ele><time>2026-04-03T15:47:46.999Z</time></trkpt><trkpt lat="42.93742403677991" lon="10.883704509473816"><ele>40.0</ele><time>2026-04-03T15:47:47.999Z</time></trkpt><trkpt lat="42.9374529584988" lon="10.883885230833755"><ele>40.5</ele><time>2026-04-03T15:47:48.999Z</time></trkpt><trkpt lat="42.9374985041458" lon="10.884064210991891"><ele>41.0</ele><time>2026-04-03T15:47:49.999Z</time></trkpt><trkpt lat="42.93755236466937" lon="10.884247591755909"><ele>41.5</ele><time>2026-04-03T15:47:50.999Z</time></trkpt><trkpt lat="42.9376045046655" lon="10.884433824818148"><ele>42.0</ele><time>2026-04-03T15:47:51.999Z</time></trkpt><trkpt lat="42.937652122938005" lon="10.884613802272144"><ele>42.25</ele><time>2026-04-03T15:47:52.999Z</time></trkpt><trkpt lat="42.93769997717608" lon="10.884802489890829"><ele>42.5</ele><time>2026-04-03T15:47:53.999Z</time></trkpt><trkpt lat="42.937745089122814" lon="10.884976292508709"><ele>42.75</ele><time>2026-04-03T15:47:54.999Z</time></trkpt><trkpt lat="42.93779533236454" lon="10.885154852919458"><ele>43.0</ele><time>2026-04-03T15:47:55.999Z</time></trkpt><trkpt lat="42.93784159710602" lon="10.885325887840809"><ele>42.25</ele><time>2026-04-03T15:47:56.999Z</time></trkpt><trkpt lat="42.93788871499536" lon="10.885499113786246"><ele>41.5</ele><time>2026-04-03T15:47:57.999Z</time></trkpt><trkpt lat="42.93793318505478" lon="10.885664846184113"><ele>40.75</ele><time>2026-04-03T15:47:58.999Z</time></trkpt><trkpt lat="42.93797352956171" lon="10.885820310338474"><ele>40.0</ele><time>2026-04-03T15:47:59.999Z</time></trkpt><trkpt lat="42.938009055463155" lon="10.88595826126692"><ele>39.8</ele><time>2026-04-03T15:48:00.999Z</time></trkpt><trkpt lat="42.93804020011073" lon="10.886093046481857"><ele>39.6</ele><time>2026-04-03T15:48:01.999Z</time></trkpt><trkpt lat="42.93807434704017" lon="10.886223546388333"><ele>39.4</ele><time>2026-04-03T15:48:02.999Z</time></trkpt><trkpt lat="42.93810795627421" lon="10.886353632971094"><ele>39.2</ele><time>2026-04-03T15:48:03.999Z</time></trkpt><trkpt lat="42.9381422452494" lon="10.886485542597832"><ele>39.0</ele><time>2026-04-03T15:48:04.999Z</time></trkpt><trkpt lat="42.93817683883399" lon="10.886613224320554"><ele>39.0</ele><time>2026-04-03T15:48:05.999Z</time></trkpt><trkpt lat="42.93821378958667" lon="10.886744955179564"><ele>39.0</ele><time>2026-04-03T15:48:06.999Z</time></trkpt><trkpt lat="42.93824257478621" lon="10.886852847998366"><ele>39.0</ele><time>2026-04-03T15:48:07.999Z</time></trkpt><trkpt lat="42.93827268641286" lon="10.886966821576783"><ele>39.0</ele><time>2026-04-03T15:48:08.999Z</time></trkpt><trkpt lat="42.93830200343054" lon="10.887077756253571"><ele>39.0</ele><time>2026-04-03T15:48:09.999Z</time></trkpt><trkpt lat="42.93832669587488" lon="10.887170225652591"><ele>39.0</ele><time>2026-04-03T15:48:10.999Z</time></trkpt><trkpt lat="42.9383519762134" lon="10.88725445632216"><ele>39.0</ele><time>2026-04-03T15:48:11.999Z</time></trkpt><trkpt lat="42.9383838373047" lon="10.887364361087867"><ele>39.0</ele><time>2026-04-03T15:48:13.999Z</time></trkpt><trkpt lat="42.93841607092077" lon="10.887469567865969"><ele>39.0</ele><time>2026-04-03T15:48:25.999Z</time></trkpt><trkpt lat="42.938567380556485" lon="10.887464596862184"><ele>39.0</ele><time>2026-04-03T15:48:27.999Z</time></trkpt><trkpt lat="42.93862104774967" lon="10.887418407063738"><ele>39.0</ele><time>2026-04-03T15:48:28.999Z</time></trkpt><trkpt lat="42.93868336141449" lon="10.887345269895551"><ele>38.8</ele><time>2026-04-03T15:48:29.999Z</time></trkpt><trkpt lat="42.93875165162195" lon="10.887265343881724"><ele>38.599999999999994</ele><time>2026-04-03T15:48:30.999Z</time></trkpt><trkpt lat="42.93881939919824" lon="10.887184507841981"><ele>38.4</ele><time>2026-04-03T15:48:31.998Z</time></trkpt><trkpt lat="42.93889005778741" lon="10.887106081999201"><ele>38.199999999999996</ele><time>2026-04-03T15:48:32.998Z</time></trkpt><trkpt lat="42.93896683312678" lon="10.88701891093422"><ele>38.0</ele><time>2026-04-03T15:48:33.998Z</time></trkpt><trkpt lat="42.93904728925637" lon="10.886928621079532"><ele>38.0</ele><time>2026-04-03T15:48:34.998Z</time></trkpt><trkpt lat="42.93912750600254" lon="10.886832519932756"><ele>38.0</ele><time>2026-04-03T15:48:35.998Z</time></trkpt><trkpt lat="42.93920992149439" lon="10.886734098457525"><ele>38.0</ele><time>2026-04-03T15:48:36.998Z</time></trkpt><trkpt lat="42.93929173543933" lon="10.886644048435574"><ele>38.0</ele><time>2026-04-03T15:48:37.998Z</time></trkpt><trkpt lat="42.93937763728122" lon="10.886547611507261"><ele>38.0</ele><time>2026-04-03T15:48:38.998Z</time></trkpt><trkpt lat="42.939465338523284" lon="10.886446453631018"><ele>38.0</ele><time>2026-04-03T15:48:39.998Z</time></trkpt><trkpt lat="42.939538865037704" lon="10.886351281249754"><ele>38.0</ele><time>2026-04-03T15:48:40.998Z</time></trkpt><trkpt lat="42.93961916821992" lon="10.886258024977694"><ele>38.0</ele><time>2026-04-03T15:48:41.998Z</time></trkpt><trkpt lat="42.93978564808482" lon="10.886075988217662"><ele>38.0</ele><time>2026-04-03T15:48:43.998Z</time></trkpt><trkpt lat="42.93987078618239" lon="10.885977047693054"><ele>38.199999999999996</ele><time>2026-04-03T15:48:44.998Z</time></trkpt><trkpt lat="42.93995423183442" lon="10.885879593374092"><ele>38.4</ele><time>2026-04-03T15:48:45.998Z</time></trkpt><trkpt lat="42.9400385410162" lon="10.885777550014055"><ele>38.599999999999994</ele><time>2026-04-03T15:48:46.998Z</time></trkpt><trkpt lat="42.940125184640294" lon="10.885679288095927"><ele>38.8</ele><time>2026-04-03T15:48:47.998Z</time></trkpt><trkpt lat="42.940212410725486" lon="10.885583298244299"><ele>39.0</ele><time>2026-04-03T15:48:48.998Z</time></trkpt><trkpt lat="42.940300065094" lon="10.885484303230749"><ele>38.6</ele><time>2026-04-03T15:48:49.998Z</time></trkpt><trkpt lat="42.94038407435538" lon="10.885389698827874"><ele>38.2</ele><time>2026-04-03T15:48:50.998Z</time></trkpt><trkpt lat="42.9404726845537" lon="10.885292339835901"><ele>37.800000000000004</ele><time>2026-04-03T15:48:51.998Z</time></trkpt><trkpt lat="42.94055658589048" lon="10.885195401128016"><ele>37.4</ele><time>2026-04-03T15:48:52.998Z</time></trkpt><trkpt lat="42.94064137170344" lon="10.885095629896682"><ele>37.0</ele><time>2026-04-03T15:48:53.998Z</time></trkpt><trkpt lat="42.940725390053146" lon="10.884998601523078"><ele>37.0</ele><time>2026-04-03T15:48:54.998Z</time></trkpt><trkpt lat="42.940808712541006" lon="10.884902193284574"><ele>37.0</ele><time>2026-04-03T15:48:55.998Z</time></trkpt><trkpt lat="42.94089230049282" lon="10.884813258542538"><ele>37.0</ele><time>2026-04-03T15:48:56.998Z</time></trkpt><trkpt lat="42.94096831383918" lon="10.884743119590564"><ele>37.0</ele><time>2026-04-03T15:48:57.998Z</time></trkpt><trkpt lat="42.94103258391035" lon="10.884682870034073"><ele>37.0</ele><time>2026-04-03T15:48:58.998Z</time></trkpt><trkpt lat="42.941086271943924" lon="10.88462794655617"><ele>36.66666666666667</ele><time>2026-04-03T15:48:59.998Z</time></trkpt><trkpt lat="42.94114905144439" lon="10.884540102411192"><ele>36.333333333333336</ele><time>2026-04-03T15:49:01.998Z</time></trkpt><trkpt lat="42.941194561793225" lon="10.88443756248326"><ele>36.0</ele><time>2026-04-03T15:49:50.998Z</time></trkpt><trkpt lat="42.94123598074295" lon="10.884351680853108"><ele>35.666666666666664</ele><time>2026-04-03T15:49:51.998Z</time></trkpt><trkpt lat="42.94127021417543" lon="10.884277096368512"><ele>35.33333333333333</ele><time>2026-04-03T15:49:52.998Z</time></trkpt><trkpt lat="42.94130224102985" lon="10.884188566867833"><ele>35.0</ele><time>2026-04-03T15:49:53.999Z</time></trkpt><trkpt lat="42.941332202047704" lon="10.884088155768389"><ele>35.0</ele><time>2026-04-03T15:49:54.999Z</time></trkpt><trkpt lat="42.941362614991775" lon="10.883984677681584"><ele>35.0</ele><time>2026-04-03T15:49:55.999Z</time></trkpt><trkpt lat="42.94139171390143" lon="10.883885837594406"><ele>35.0</ele><time>2026-04-03T15:49:56.999Z</time></trkpt><trkpt lat="42.94142466827572" lon="10.883770264875826"><ele>35.0</ele><time>2026-04-03T15:49:57.999Z</time></trkpt><trkpt lat="42.94146330287987" lon="10.883651128036433"><ele>35.0</ele><time>2026-04-03T15:49:58.999Z</time></trkpt><trkpt lat="42.94150325718222" lon="10.883526040270182"><ele>35.0</ele><time>2026-04-03T15:49:59.999Z</time></trkpt><trkpt lat="42.94154624250848" lon="10.883388660868587"><ele>35.5</ele><time>2026-04-03T15:50:00.999Z</time></trkpt><trkpt lat="42.94159266282844" lon="10.88324004360218"><ele>36.0</ele><time>2026-04-03T15:50:01.999Z</time></trkpt><trkpt lat="42.941641143005" lon="10.883088693831912"><ele>36.5</ele><time>2026-04-03T15:50:02.999Z</time></trkpt><trkpt lat="42.94170570717716" lon="10.882902229315349"><ele>37.0</ele><time>2026-04-03T15:50:04.999Z</time></trkpt><trkpt lat="42.94174486043142" lon="10.882772679486257"><ele>36.2</ele><time>2026-04-03T15:50:05.999Z</time></trkpt><trkpt lat="42.94178366305155" lon="10.882637318564973"><ele>35.400000000000006</ele><time>2026-04-03T15:50:06.999Z</time></trkpt><trkpt lat="42.94182310133329" lon="10.882513812996836"><ele>34.599999999999994</ele><time>2026-04-03T15:50:07.999Z</time></trkpt><trkpt lat="42.94186165129563" lon="10.882379435405205"><ele>33.8</ele><time>2026-04-03T15:50:08.999Z</time></trkpt><trkpt lat="42.94190216917471" lon="10.88225199798723"><ele>33.0</ele><time>2026-04-03T15:50:09.999Z</time></trkpt><trkpt lat="42.94195018924672" lon="10.882142886539647"><ele>33.0</ele><time>2026-04-03T15:50:10.999Z</time></trkpt><trkpt lat="42.94200000343285" lon="10.882024088471717"><ele>33.0</ele><time>2026-04-03T15:50:11.999Z</time></trkpt><trkpt lat="42.942059476776265" lon="10.881908730357143"><ele>33.0</ele><time>2026-04-03T15:50:12.999Z</time></trkpt><trkpt lat="42.9421252335785" lon="10.881803422723458"><ele>33.0</ele><time>2026-04-03T15:50:13.999Z</time></trkpt><trkpt lat="42.94221056836939" lon="10.881715035244572"><ele>33.0</ele><time>2026-04-03T15:50:14.999Z</time></trkpt><trkpt lat="42.94229808480357" lon="10.88161996869385"><ele>32.5</ele><time>2026-04-03T15:50:15.999Z</time></trkpt><trkpt lat="42.94239306271123" lon="10.881530933502688"><ele>32.0</ele><time>2026-04-03T15:50:16.999Z</time></trkpt><trkpt lat="42.94248823032505" lon="10.881428882385931"><ele>31.5</ele><time>2026-04-03T15:50:17.999Z</time></trkpt><trkpt lat="42.94258384731779" lon="10.88132294595344"><ele>31.0</ele><time>2026-04-03T15:50:18.999Z</time></trkpt><trkpt lat="42.94268275995546" lon="10.881215476416184"><ele>30.75</ele><time>2026-04-03T15:50:19.999Z</time></trkpt><trkpt lat="42.94278053771472" lon="10.88110211359834"><ele>30.5</ele><time>2026-04-03T15:50:21Z</time></trkpt><trkpt lat="42.94288385635625" lon="10.88098401975312"><ele>30.25</ele><time>2026-04-03T15:50:22Z</time></trkpt><trkpt lat="42.9429870373222" lon="10.880862857377492"><ele>30.0</ele><time>2026-04-03T15:50:23Z</time></trkpt><trkpt lat="42.94309263297506" lon="10.880741657287158"><ele>30.0</ele><time>2026-04-03T15:50:24Z</time></trkpt><trkpt lat="42.94320161400195" lon="10.880625287599777"><ele>30.0</ele><time>2026-04-03T15:50:25Z</time></trkpt><trkpt lat="42.943304653627216" lon="10.880511416445534"><ele>30.0</ele><time>2026-04-03T15:50:26Z</time></trkpt><trkpt lat="42.94341679897276" lon="10.880394010025547"><ele>30.0</ele><time>2026-04-03T15:50:27Z</time></trkpt><trkpt lat="42.943528611618106" lon="10.880267726500653"><ele>29.333333333333336</ele><time>2026-04-03T15:50:28Z</time></trkpt><trkpt lat="42.94364434846232" lon="10.880137157263047"><ele>28.666666666666668</ele><time>2026-04-03T15:50:29Z</time></trkpt><trkpt lat="42.943761960193356" lon="10.880007851368061"><ele>28.0</ele><time>2026-04-03T15:50:30Z</time></trkpt><trkpt lat="42.943876711121725" lon="10.879877919937206"><ele>28.0</ele><time>2026-04-03T15:50:31Z</time></trkpt><trkpt lat="42.943991989272774" lon="10.879745542549871"><ele>28.0</ele><time>2026-04-03T15:50:32Z</time></trkpt><trkpt lat="42.944105866261204" lon="10.879617150916667"><ele>28.0</ele><time>2026-04-03T15:50:33Z</time></trkpt><trkpt lat="42.94422495020319" lon="10.879487668560614"><ele>28.333333333333336</ele><time>2026-04-03T15:50:34Z</time></trkpt><trkpt lat="42.944342102683" lon="10.879359462557078"><ele>28.666666666666664</ele><time>2026-04-03T15:50:35Z</time></trkpt><trkpt lat="42.94446122258541" lon="10.879228144658434"><ele>29.0</ele><time>2026-04-03T15:50:36Z</time></trkpt><trkpt lat="42.94457563039769" lon="10.879100204504306"><ele>29.0</ele><time>2026-04-03T15:50:37Z</time></trkpt><trkpt lat="42.94468762334829" lon="10.87897258053523"><ele>29.0</ele><time>2026-04-03T15:50:38Z</time></trkpt><trkpt lat="42.94479760482775" lon="10.878843980274985"><ele>29.0</ele><time>2026-04-03T15:50:39Z</time></trkpt><trkpt lat="42.94491198744775" lon="10.878720304864325"><ele>29.0</ele><time>2026-04-03T15:50:40Z</time></trkpt><trkpt lat="42.945018547565006" lon="10.87859138377986"><ele>29.0</ele><time>2026-04-03T15:50:41Z</time></trkpt><trkpt lat="42.94513025607847" lon="10.878470014192038"><ele>29.0</ele><time>2026-04-03T15:50:42Z</time></trkpt><trkpt lat="42.9452367419903" lon="10.87834727050476"><ele>29.0</ele><time>2026-04-03T15:50:43Z</time></trkpt><trkpt lat="42.945344111706525" lon="10.878229263561833"><ele>29.0</ele><time>2026-04-03T15:50:44Z</time></trkpt><trkpt lat="42.94545384717991" lon="10.878110165487213"><ele>29.0</ele><time>2026-04-03T15:50:45Z</time></trkpt><trkpt lat="42.94556166340677" lon="10.87798606317681"><ele>29.0</ele><time>2026-04-03T15:50:46Z</time></trkpt><trkpt lat="42.945663468619856" lon="10.877865717995949"><ele>29.0</ele><time>2026-04-03T15:50:47Z</time></trkpt><trkpt lat="42.945758081222344" lon="10.877747766305891"><ele>29.0</ele><time>2026-04-03T15:50:48Z</time></trkpt><trkpt lat="42.9458561509881" lon="10.877637910540138"><ele>29.5</ele><time>2026-04-03T15:50:49Z</time></trkpt><trkpt lat="42.94596152198255" lon="10.877544898921563"><ele>30.0</ele><time>2026-04-03T15:50:50Z</time></trkpt><trkpt lat="42.94607701030111" lon="10.87748487973599"><ele>30.5</ele><time>2026-04-03T15:50:51Z</time></trkpt><trkpt lat="42.94619749480713" lon="10.87746010716907"><ele>31.0</ele><time>2026-04-03T15:50:52Z</time></trkpt><trkpt lat="42.946320422355676" lon="10.877494904481475"><ele>31.0</ele><time>2026-04-03T15:50:53Z</time></trkpt><trkpt lat="42.946425244703356" lon="10.877559499568532"><ele>31.0</ele><time>2026-04-03T15:50:54Z</time></trkpt><trkpt lat="42.94651821324367" lon="10.877659914596952"><ele>31.0</ele><time>2026-04-03T15:50:55Z</time></trkpt><trkpt lat="42.94659295823536" lon="10.877781681521165"><ele>31.0</ele><time>2026-04-03T15:50:56Z</time></trkpt><trkpt lat="42.94664737545086" lon="10.877926101042902"><ele>31.0</ele><time>2026-04-03T15:50:57Z</time></trkpt><trkpt lat="42.946680306993855" lon="10.878085883116972"><ele>31.0</ele><time>2026-04-03T15:50:58Z</time></trkpt><trkpt lat="42.94669697444037" lon="10.878256117573429"><ele>31.0</ele><time>2026-04-03T15:50:59Z</time></trkpt><trkpt lat="42.946722385482985" lon="10.878429758055209"><ele>31.0</ele><time>2026-04-03T15:51:00Z</time></trkpt><trkpt lat="42.94674965152076" lon="10.878600943138036"><ele>31.0</ele><time>2026-04-03T15:51:01Z</time></trkpt><trkpt lat="42.94678174383245" lon="10.878786596984517"><ele>31.0</ele><time>2026-04-03T15:51:02Z</time></trkpt><trkpt lat="42.946813516094885" lon="10.878971882683029"><ele>31.0</ele><time>2026-04-03T15:51:03Z</time></trkpt><trkpt lat="42.94684414629766" lon="10.879159248091732"><ele>31.0</ele><time>2026-04-03T15:51:04Z</time></trkpt><trkpt lat="42.94687499649172" lon="10.879352032809692"><ele>31.25</ele><time>2026-04-03T15:51:05Z</time></trkpt><trkpt lat="42.94690249954667" lon="10.879536337210302"><ele>31.5</ele><time>2026-04-03T15:51:06Z</time></trkpt><trkpt lat="42.94693019049323" lon="10.879719036861987"><ele>31.75</ele><time>2026-04-03T15:51:07Z</time></trkpt><trkpt lat="42.946965948077946" lon="10.879905714501378"><ele>32.0</ele><time>2026-04-03T15:51:08Z</time></trkpt><trkpt lat="42.94699747490781" lon="10.88009043407533"><ele>32.25</ele><time>2026-04-03T15:51:09Z</time></trkpt><trkpt lat="42.947027645047335" lon="10.880273943463806"><ele>32.5</ele><time>2026-04-03T15:51:10Z</time></trkpt><trkpt lat="42.94705381147538" lon="10.880450074243795"><ele>32.75</ele><time>2026-04-03T15:51:11Z</time></trkpt><trkpt lat="42.94708306669265" lon="10.88062415816883"><ele>33.0</ele><time>2026-04-03T15:51:12Z</time></trkpt><trkpt lat="42.94711200100236" lon="10.880795376992069"><ele>33.5</ele><time>2026-04-03T15:51:13Z</time></trkpt><trkpt lat="42.94713480741176" lon="10.880955436031224"><ele>34.0</ele><time>2026-04-03T15:51:14Z</time></trkpt><trkpt lat="42.947148759782465" lon="10.881120278064413"><ele>34.5</ele><time>2026-04-03T15:51:15Z</time></trkpt><trkpt lat="42.94715501813926" lon="10.8812775725382"><ele>35.0</ele><time>2026-04-03T15:51:16Z</time></trkpt><trkpt lat="42.94716148180765" lon="10.881430448984956"><ele>35.0</ele><time>2026-04-03T15:51:17Z</time></trkpt><trkpt lat="42.94718587474061" lon="10.881579244321035"><ele>35.0</ele><time>2026-04-03T15:51:18Z</time></trkpt><trkpt lat="42.94721959087749" lon="10.881726239900775"><ele>35.0</ele><time>2026-04-03T15:51:19Z</time></trkpt><trkpt lat="42.94724950184663" lon="10.881880118513335"><ele>35.0</ele><time>2026-04-03T15:51:20Z</time></trkpt><trkpt lat="42.94728009623856" lon="10.88203714713613"><ele>36.0</ele><time>2026-04-03T15:51:21Z</time></trkpt><trkpt lat="42.947310733886" lon="10.882186801652791"><ele>37.0</ele><time>2026-04-03T15:51:22Z</time></trkpt><trkpt lat="42.947342153577324" lon="10.882336400133601"><ele>38.0</ele><time>2026-04-03T15:51:23Z</time></trkpt><trkpt lat="42.94740003526907" lon="10.882648277654184"><ele>38.0</ele><time>2026-04-03T15:51:25Z</time></trkpt><trkpt lat="42.94742440711801" lon="10.882803568791807"><ele>38.0</ele><time>2026-04-03T15:51:26Z</time></trkpt><trkpt lat="42.94744792327158" lon="10.882974789443136"><ele>38.0</ele><time>2026-04-03T15:51:27Z</time></trkpt><trkpt lat="42.94746407431297" lon="10.883136793772646"><ele>38.0</ele><time>2026-04-03T15:51:28Z</time></trkpt><trkpt lat="42.94747753086981" lon="10.88328381475116"><ele>37.8</ele><time>2026-04-03T15:51:29Z</time></trkpt><trkpt lat="42.94748527278341" lon="10.883430882643623"><ele>37.599999999999994</ele><time>2026-04-03T15:51:30Z</time></trkpt><trkpt lat="42.94748943978311" lon="10.883572772110332"><ele>37.400000000000006</ele><time>2026-04-03T15:51:31Z</time></trkpt><trkpt lat="42.947477300579216" lon="10.883692584907823"><ele>37.2</ele><time>2026-04-03T15:51:32Z</time></trkpt><trkpt lat="42.947443792417495" lon="10.883794649571241"><ele>37.0</ele><time>2026-04-03T15:51:33Z</time></trkpt><trkpt lat="42.94739161924237" lon="10.88386846767045"><ele>37.0</ele><time>2026-04-03T15:51:34Z</time></trkpt><trkpt lat="42.94730551973465" lon="10.883970639708178"><ele>37.0</ele><time>2026-04-03T15:51:36Z</time></trkpt><trkpt lat="42.94723595001903" lon="10.883910640008908"><ele>37.0</ele><time>2026-04-03T15:51:37Z</time></trkpt><trkpt lat="42.94712829961521" lon="10.883830706430494"><ele>37.0</ele><time>2026-04-03T15:51:39Z</time></trkpt><trkpt lat="42.94707024441515" lon="10.883761300344815"><ele>37.0</ele><time>2026-04-03T15:51:40Z</time></trkpt><trkpt lat="42.947025969082276" lon="10.883668533641709"><ele>37.0</ele><time>2026-04-03T15:51:41Z</time></trkpt><trkpt lat="42.94699787355109" lon="10.883561481005382"><ele>37.0</ele><time>2026-04-03T15:51:42Z</time></trkpt><trkpt lat="42.94697793869734" lon="10.883435906317422"><ele>37.0</ele><time>2026-04-03T15:51:43Z</time></trkpt><trkpt lat="42.94697638318147" lon="10.883308088372576"><ele>37.0</ele><time>2026-04-03T15:51:44Z</time></trkpt><trkpt lat="42.94699345327486" lon="10.88317333133321"><ele>37.0</ele><time>2026-04-03T15:51:45Z</time></trkpt><trkpt lat="42.94702678944802" lon="10.88304780438399"><ele>37.2</ele><time>2026-04-03T15:51:46Z</time></trkpt><trkpt lat="42.94707941493366" lon="10.882930586225035"><ele>37.400000000000006</ele><time>2026-04-03T15:51:47Z</time></trkpt><trkpt lat="42.947148947504864" lon="10.882828487929288"><ele>37.599999999999994</ele><time>2026-04-03T15:51:48Z</time></trkpt><trkpt lat="42.94723341409688" lon="10.882745763015022"><ele>37.8</ele><time>2026-04-03T15:51:49Z</time></trkpt><trkpt lat="42.94732576729461" lon="10.882685921794884"><ele>38.0</ele><time>2026-04-03T15:51:50Z</time></trkpt><trkpt lat="42.94742331088607" lon="10.882628145990923"><ele>38.0</ele><time>2026-04-03T15:51:51Z</time></trkpt><trkpt lat="42.9475256430284" lon="10.882557678689574"><ele>38.0</ele><time>2026-04-03T15:51:52Z</time></trkpt><trkpt lat="42.947631271918894" lon="10.882483475480361"><ele>38.0</ele><time>2026-04-03T15:51:53Z</time></trkpt><trkpt lat="42.94773852167907" lon="10.882411189808913"><ele>38.0</ele><time>2026-04-03T15:51:54Z</time></trkpt><trkpt lat="42.94784175670319" lon="10.882341380283965"><ele>37.5</ele><time>2026-04-03T15:51:55Z</time></trkpt><trkpt lat="42.947944966067055" lon="10.88226793396395"><ele>37.0</ele><time>2026-04-03T15:51:56Z</time></trkpt><trkpt lat="42.94805234288077" lon="10.882192538108034"><ele>36.5</ele><time>2026-04-03T15:51:57Z</time></trkpt><trkpt lat="42.948156417942386" lon="10.882119818119046"><ele>36.0</ele><time>2026-04-03T15:51:58Z</time></trkpt><trkpt lat="42.948260337084996" lon="10.882049902334405"><ele>36.0</ele><time>2026-04-03T15:51:59Z</time></trkpt><trkpt lat="42.94836808068395" lon="10.881977454120685"><ele>36.0</ele><time>2026-04-03T15:52:00Z</time></trkpt><trkpt lat="42.94846856686172" lon="10.881911264290201"><ele>36.0</ele><time>2026-04-03T15:52:01Z</time></trkpt><trkpt lat="42.94856596177238" lon="10.881844380793172"><ele>36.0</ele><time>2026-04-03T15:52:02Z</time></trkpt><trkpt lat="42.94865695234065" lon="10.88178562785156"><ele>36.0</ele><time>2026-04-03T15:52:03Z</time></trkpt><trkpt lat="42.94873781994078" lon="10.881737081422356"><ele>36.333333333333336</ele><time>2026-04-03T15:52:04Z</time></trkpt><trkpt lat="42.94881598686895" lon="10.881700654561229"><ele>36.666666666666664</ele><time>2026-04-03T15:52:05Z</time></trkpt><trkpt lat="42.94889447638284" lon="10.881678821205405"><ele>37.0</ele><time>2026-04-03T15:52:06Z</time></trkpt><trkpt lat="42.948982731127145" lon="10.881666982977391"><ele>37.33333333333333</ele><time>2026-04-03T15:52:07Z</time></trkpt><trkpt lat="42.949074204638386" lon="10.88166788267129"><ele>37.666666666666664</ele><time>2026-04-03T15:52:08Z</time></trkpt><trkpt lat="42.94916493975345" lon="10.881675547051069"><ele>38.0</ele><time>2026-04-03T15:52:09Z</time></trkpt><trkpt lat="42.94925343867548" lon="10.881666118990948"><ele>38.599999999999994</ele><time>2026-04-03T15:52:10Z</time></trkpt><trkpt lat="42.94934215271855" lon="10.881613973894796"><ele>39.199999999999996</ele><time>2026-04-03T15:52:11Z</time></trkpt><trkpt lat="42.94943085051173" lon="10.881420519900802"><ele>39.8</ele><time>2026-04-03T15:52:13Z</time></trkpt><trkpt lat="42.949438252181245" lon="10.881320371923714"><ele>40.4</ele><time>2026-04-03T15:52:14Z</time></trkpt><trkpt lat="42.949422440146584" lon="10.881203300998392"><ele>41.0</ele><time>2026-04-03T15:52:15Z</time></trkpt><trkpt lat="42.9493809215551" lon="10.881091884876325"><ele>41.0</ele><time>2026-04-03T15:52:16Z</time></trkpt><trkpt lat="42.94932153400995" lon="10.880987489822942"><ele>41.0</ele><time>2026-04-03T15:52:17Z</time></trkpt><trkpt lat="42.94925107236612" lon="10.880881417299635"><ele>41.0</ele><time>2026-04-03T15:52:18Z</time></trkpt><trkpt lat="42.94918041155601" lon="10.880776014603718"><ele>41.0</ele><time>2026-04-03T15:52:19Z</time></trkpt><trkpt lat="42.949106648008055" lon="10.880663373598153"><ele>41.0</ele><time>2026-04-03T15:52:20Z</time></trkpt><trkpt lat="42.94902853545757" lon="10.88054871663486"><ele>40.0</ele><time>2026-04-03T15:52:21Z</time></trkpt><trkpt lat="42.948946771501554" lon="10.880435594778188"><ele>39.0</ele><time>2026-04-03T15:52:22Z</time></trkpt><trkpt lat="42.94886377943218" lon="10.88031910107667"><ele>38.0</ele><time>2026-04-03T15:52:23Z</time></trkpt><trkpt lat="42.94877831349457" lon="10.880200537874547"><ele>37.0</ele><time>2026-04-03T15:52:24Z</time></trkpt><trkpt lat="42.94869310842895" lon="10.880085343683776"><ele>36.75</ele><time>2026-04-03T15:52:25Z</time></trkpt><trkpt lat="42.94860592102996" lon="10.87997249915147"><ele>36.5</ele><time>2026-04-03T15:52:26Z</time></trkpt><trkpt lat="42.948521137261885" lon="10.879854770707398"><ele>36.25</ele><time>2026-04-03T15:52:27Z</time></trkpt><trkpt lat="42.94844008716414" lon="10.87974177616475"><ele>36.0</ele><time>2026-04-03T15:52:28Z</time></trkpt><trkpt lat="42.94835398653026" lon="10.879623977771194"><ele>35.0</ele><time>2026-04-03T15:52:29Z</time></trkpt><trkpt lat="42.94826756260409" lon="10.879511336710808"><ele>34.0</ele><time>2026-04-03T15:52:30Z</time></trkpt><trkpt lat="42.94818471575227" lon="10.879397744129847"><ele>33.0</ele><time>2026-04-03T15:52:31Z</time></trkpt><trkpt lat="42.94809843110473" lon="10.879281142875186"><ele>32.0</ele><time>2026-04-03T15:52:32Z</time></trkpt><trkpt lat="42.948010189481664" lon="10.879162323080335"><ele>32.0</ele><time>2026-04-03T15:52:33Z</time></trkpt><trkpt lat="42.94792668873138" lon="10.879047017322536"><ele>32.0</ele><time>2026-04-03T15:52:34Z</time></trkpt><trkpt lat="42.94784149154282" lon="10.878931411407512"><ele>32.0</ele><time>2026-04-03T15:52:35Z</time></trkpt><trkpt lat="42.94775762804849" lon="10.878815253152469"><ele>32.0</ele><time>2026-04-03T15:52:36Z</time></trkpt><trkpt lat="42.94766891904" lon="10.878693714452078"><ele>32.0</ele><time>2026-04-03T15:52:37Z</time></trkpt><trkpt lat="42.94757851128261" lon="10.878569189158116"><ele>32.0</ele><time>2026-04-03T15:52:38Z</time></trkpt><trkpt lat="42.94748658525314" lon="10.87844080407364"><ele>32.0</ele><time>2026-04-03T15:52:39Z</time></trkpt><trkpt lat="42.947400686117675" lon="10.878319332673074"><ele>32.0</ele><time>2026-04-03T15:52:40Z</time></trkpt><trkpt lat="42.947312426242895" lon="10.878193135465454"><ele>32.0</ele><time>2026-04-03T15:52:41Z</time></trkpt><trkpt lat="42.94723408184866" lon="10.878055410789361"><ele>32.0</ele><time>2026-04-03T15:52:42Z</time></trkpt><trkpt lat="42.94717619269974" lon="10.87790381233355"><ele>32.0</ele><time>2026-04-03T15:52:43Z</time></trkpt><trkpt lat="42.94714272434087" lon="10.877736855528367"><ele>32.0</ele><time>2026-04-03T15:52:44Z</time></trkpt><trkpt lat="42.94712675566423" lon="10.877565296998421"><ele>32.0</ele><time>2026-04-03T15:52:45Z</time></trkpt><trkpt lat="42.94712025798165" lon="10.877379507340995"><ele>32.0</ele><time>2026-04-03T15:52:46Z</time></trkpt><trkpt lat="42.94711449098065" lon="10.877198872943806"><ele>32.0</ele><time>2026-04-03T15:52:47Z</time></trkpt><trkpt lat="42.94710413051751" lon="10.877010628595976"><ele>32.0</ele><time>2026-04-03T15:52:48Z</time></trkpt><trkpt lat="42.94709370528434" lon="10.876824158897891"><ele>31.5</ele><time>2026-04-03T15:52:49Z</time></trkpt><trkpt lat="42.947082730677224" lon="10.876632388760589"><ele>31.0</ele><time>2026-04-03T15:52:50Z</time></trkpt><trkpt lat="42.947073077631124" lon="10.876441385646375"><ele>30.5</ele><time>2026-04-03T15:52:51Z</time></trkpt><trkpt lat="42.947059837552544" lon="10.876243094636733"><ele>30.0</ele><time>2026-04-03T15:52:52Z</time></trkpt><trkpt lat="42.94704743203059" lon="10.87604705816367"><ele>30.0</ele><time>2026-04-03T15:52:53Z</time></trkpt><trkpt lat="42.947035980510655" lon="10.875852509174788"><ele>30.0</ele><time>2026-04-03T15:52:54Z</time></trkpt><trkpt lat="42.947018807230464" lon="10.875651063065945"><ele>30.0</ele><time>2026-04-03T15:52:55Z</time></trkpt><trkpt lat="42.94700459819278" lon="10.875452952352308"><ele>30.0</ele><time>2026-04-03T15:52:56Z</time></trkpt><trkpt lat="42.94699571978221" lon="10.875254032575315"><ele>29.5</ele><time>2026-04-03T15:52:57Z</time></trkpt><trkpt lat="42.94698463690492" lon="10.87504758012366"><ele>29.0</ele><time>2026-04-03T15:52:58Z</time></trkpt><trkpt lat="42.946973002012726" lon="10.874846917331704"><ele>28.5</ele><time>2026-04-03T15:52:59Z</time></trkpt><trkpt lat="42.94696058298171" lon="10.874649521981667"><ele>28.0</ele><time>2026-04-03T15:53:00Z</time></trkpt><trkpt lat="42.94694810875608" lon="10.8744500240619"><ele>28.0</ele><time>2026-04-03T15:53:01Z</time></trkpt><trkpt lat="42.94693478676195" lon="10.87424889586392"><ele>28.0</ele><time>2026-04-03T15:53:02Z</time></trkpt><trkpt lat="42.946921596933294" lon="10.874042536632341"><ele>28.0</ele><time>2026-04-03T15:53:03Z</time></trkpt><trkpt lat="42.94691044097226" lon="10.873840373613904"><ele>28.0</ele><time>2026-04-03T15:53:04Z</time></trkpt><trkpt lat="42.94689790096314" lon="10.873637134823134"><ele>28.0</ele><time>2026-04-03T15:53:05Z</time></trkpt><trkpt lat="42.94688445333795" lon="10.873436442414107"><ele>28.0</ele><time>2026-04-03T15:53:06Z</time></trkpt><trkpt lat="42.94687065608407" lon="10.873237880320856"><ele>28.0</ele><time>2026-04-03T15:53:07Z</time></trkpt><trkpt lat="42.946858574049195" lon="10.8730415043309"><ele>28.0</ele><time>2026-04-03T15:53:08Z</time></trkpt><trkpt lat="42.94684950842419" lon="10.872837287954912"><ele>28.0</ele><time>2026-04-03T15:53:09Z</time></trkpt><trkpt lat="42.946837085318826" lon="10.872625637253122"><ele>28.0</ele><time>2026-04-03T15:53:10Z</time></trkpt><trkpt lat="42.946822162599865" lon="10.872413751796696"><ele>28.0</ele><time>2026-04-03T15:53:11Z</time></trkpt><trkpt lat="42.94680806283456" lon="10.872200513326172"><ele>28.0</ele><time>2026-04-03T15:53:12Z</time></trkpt><trkpt lat="42.946794318603835" lon="10.87198079101142"><ele>28.0</ele><time>2026-04-03T15:53:13Z</time></trkpt><trkpt lat="42.946780706998396" lon="10.871761231374578"><ele>28.0</ele><time>2026-04-03T15:53:14Z</time></trkpt><trkpt lat="42.94676754314741" lon="10.871534031381046"><ele>28.0</ele><time>2026-04-03T15:53:15Z</time></trkpt><trkpt lat="42.94675409686985" lon="10.871317613509111"><ele>28.0</ele><time>2026-04-03T15:53:16Z</time></trkpt><trkpt lat="42.946741654014964" lon="10.871091256399808"><ele>28.0</ele><time>2026-04-03T15:53:17Z</time></trkpt><trkpt lat="42.9467286790391" lon="10.870876298256805"><ele>27.333333333333336</ele><time>2026-04-03T15:53:18Z</time></trkpt><trkpt lat="42.946715019440425" lon="10.870662092479774"><ele>26.666666666666664</ele><time>2026-04-03T15:53:19Z</time></trkpt><trkpt lat="42.94670203046818" lon="10.870435373471103"><ele>26.0</ele><time>2026-04-03T15:53:20Z</time></trkpt><trkpt lat="42.94668678612492" lon="10.870214106881331"><ele>26.333333333333332</ele><time>2026-04-03T15:53:21Z</time></trkpt><trkpt lat="42.946673848389246" lon="10.869980147630343"><ele>26.666666666666664</ele><time>2026-04-03T15:53:22Z</time></trkpt><trkpt lat="42.94665934045208" lon="10.869761235130794"><ele>27.0</ele><time>2026-04-03T15:53:23Z</time></trkpt><trkpt lat="42.94664523290619" lon="10.869531120523611"><ele>27.0</ele><time>2026-04-03T15:53:24Z</time></trkpt><trkpt lat="42.946630909277474" lon="10.869304127914864"><ele>27.0</ele><time>2026-04-03T15:53:25Z</time></trkpt><trkpt lat="42.94661539457449" lon="10.86908558398699"><ele>27.0</ele><time>2026-04-03T15:53:26Z</time></trkpt><trkpt lat="42.94660016156466" lon="10.868852567199664"><ele>26.333333333333336</ele><time>2026-04-03T15:53:27Z</time></trkpt><trkpt lat="42.946585209695826" lon="10.86862352192879"><ele>25.666666666666668</ele><time>2026-04-03T15:53:28Z</time></trkpt><trkpt lat="42.946570492976704" lon="10.868392657675408"><ele>25.0</ele><time>2026-04-03T15:53:29Z</time></trkpt><trkpt lat="42.9465543182447" lon="10.868169871968966"><ele>24.666666666666668</ele><time>2026-04-03T15:53:30Z</time></trkpt><trkpt lat="42.94653795507116" lon="10.86793524657603"><ele>24.333333333333336</ele><time>2026-04-03T15:53:31Z</time></trkpt><trkpt lat="42.94652346503607" lon="10.867702000745409"><ele>24.0</ele><time>2026-04-03T15:53:32Z</time></trkpt><trkpt lat="42.94650888841163" lon="10.867473034929741"><ele>24.0</ele><time>2026-04-03T15:53:33Z</time></trkpt><trkpt lat="42.94649770003448" lon="10.867248521052261"><ele>24.0</ele><time>2026-04-03T15:53:34Z</time></trkpt><trkpt lat="42.94648623203678" lon="10.86701928739436"><ele>24.0</ele><time>2026-04-03T15:53:35Z</time></trkpt><trkpt lat="42.94647066523189" lon="10.866781871191348"><ele>23.333333333333332</ele><time>2026-04-03T15:53:36Z</time></trkpt><trkpt lat="42.94645279420407" lon="10.866552407795755"><ele>22.666666666666664</ele><time>2026-04-03T15:53:37Z</time></trkpt><trkpt lat="42.94643601486381" lon="10.866323308087047"><ele>22.0</ele><time>2026-04-03T15:53:38Z</time></trkpt><trkpt lat="42.94641950964766" lon="10.86609352471239"><ele>21.666666666666664</ele><time>2026-04-03T15:53:39Z</time></trkpt><trkpt lat="42.94640382226492" lon="10.865859765553498"><ele>21.333333333333332</ele><time>2026-04-03T15:53:40Z</time></trkpt><trkpt lat="42.94638956133938" lon="10.865624963010642"><ele>21.0</ele><time>2026-04-03T15:53:41Z</time></trkpt><trkpt lat="42.94637628866126" lon="10.865393086018607"><ele>21.0</ele><time>2026-04-03T15:53:42Z</time></trkpt><trkpt lat="42.946359752296985" lon="10.86516501774317"><ele>21.0</ele><time>2026-04-03T15:53:43Z</time></trkpt><trkpt lat="42.94634474079128" lon="10.864934631532178"><ele>21.0</ele><time>2026-04-03T15:53:44Z</time></trkpt><trkpt lat="42.94633317386543" lon="10.864698662633844"><ele>20.333333333333332</ele><time>2026-04-03T15:53:45Z</time></trkpt><trkpt lat="42.946321327148574" lon="10.864465407533366"><ele>19.666666666666664</ele><time>2026-04-03T15:53:46Z</time></trkpt><trkpt lat="42.94631056375924" lon="10.864230031456689"><ele>19.0</ele><time>2026-04-03T15:53:47Z</time></trkpt><trkpt lat="42.9462949424714" lon="10.864000174477445"><ele>19.0</ele><time>2026-04-03T15:53:48Z</time></trkpt><trkpt lat="42.94627943844716" lon="10.863774882783057"><ele>19.0</ele><time>2026-04-03T15:53:49Z</time></trkpt><trkpt lat="42.946261689936634" lon="10.86354972558753"><ele>19.0</ele><time>2026-04-03T15:53:50Z</time></trkpt><trkpt lat="42.94624758359626" lon="10.863318135234541"><ele>19.333333333333332</ele><time>2026-04-03T15:53:51Z</time></trkpt><trkpt lat="42.94623453068287" lon="10.863085179582292"><ele>19.666666666666668</ele><time>2026-04-03T15:53:52Z</time></trkpt><trkpt lat="42.94621663453798" lon="10.862860210717736"><ele>20.0</ele><time>2026-04-03T15:53:53Z</time></trkpt><trkpt lat="42.94619676821736" lon="10.862635788031442"><ele>20.0</ele><time>2026-04-03T15:53:54Z</time></trkpt><trkpt lat="42.94618396212349" lon="10.862402475564112"><ele>20.0</ele><time>2026-04-03T15:53:55Z</time></trkpt><trkpt lat="42.946174125154045" lon="10.862164697928248"><ele>20.0</ele><time>2026-04-03T15:53:56Z</time></trkpt><trkpt lat="42.946160367856294" lon="10.861935031422137"><ele>19.333333333333336</ele><time>2026-04-03T15:53:57Z</time></trkpt><trkpt lat="42.9461467848954" lon="10.861698699040904"><ele>18.666666666666668</ele><time>2026-04-03T15:53:58Z</time></trkpt><trkpt lat="42.94613295843842" lon="10.86146493825626"><ele>18.0</ele><time>2026-04-03T15:53:59Z</time></trkpt><trkpt lat="42.94611273594366" lon="10.861235740052042"><ele>18.0</ele><time>2026-04-03T15:54:00Z</time></trkpt><trkpt lat="42.94609465869515" lon="10.86100369412891"><ele>18.0</ele><time>2026-04-03T15:54:01Z</time></trkpt><trkpt lat="42.94607926377067" lon="10.860768826245241"><ele>18.0</ele><time>2026-04-03T15:54:02Z</time></trkpt><trkpt lat="42.94606605761664" lon="10.86053245912168"><ele>18.333333333333332</ele><time>2026-04-03T15:54:03Z</time></trkpt><trkpt lat="42.94605370108291" lon="10.860295384360693"><ele>18.666666666666664</ele><time>2026-04-03T15:54:04Z</time></trkpt><trkpt lat="42.94603927788606" lon="10.860058636486903"><ele>19.0</ele><time>2026-04-03T15:54:05.001Z</time></trkpt><trkpt lat="42.94602064314076" lon="10.859826891437423"><ele>19.333333333333332</ele><time>2026-04-03T15:54:06.001Z</time></trkpt><trkpt lat="42.946006357254326" lon="10.85959512535688"><ele>19.666666666666668</ele><time>2026-04-03T15:54:07.001Z</time></trkpt><trkpt lat="42.945998303457614" lon="10.859361479497101"><ele>20.0</ele><time>2026-04-03T15:54:08.001Z</time></trkpt><trkpt lat="42.94598598854089" lon="10.859129464732737"><ele>20.333333333333336</ele><time>2026-04-03T15:54:09.001Z</time></trkpt><trkpt lat="42.94596973286455" lon="10.858900121105236"><ele>20.666666666666668</ele><time>2026-04-03T15:54:10.001Z</time></trkpt><trkpt lat="42.945950433851465" lon="10.858672205019717"><ele>21.0</ele><time>2026-04-03T15:54:11.001Z</time></trkpt><trkpt lat="42.94594068781611" lon="10.858435556497417"><ele>21.0</ele><time>2026-04-03T15:54:12.001Z</time></trkpt><trkpt lat="42.945928033013026" lon="10.858200057453374"><ele>21.0</ele><time>2026-04-03T15:54:13.001Z</time></trkpt><trkpt lat="42.94591082336707" lon="10.857964696358273"><ele>21.0</ele><time>2026-04-03T15:54:14.001Z</time></trkpt><trkpt lat="42.94589617672918" lon="10.857727138287508"><ele>21.0</ele><time>2026-04-03T15:54:15.001Z</time></trkpt><trkpt lat="42.94588319781814" lon="10.857494498035251"><ele>21.0</ele><time>2026-04-03T15:54:16.001Z</time></trkpt><trkpt lat="42.94587085863716" lon="10.857260454288959"><ele>21.0</ele><time>2026-04-03T15:54:17.001Z</time></trkpt><trkpt lat="42.945855099905074" lon="10.857028624594157"><ele>21.0</ele><time>2026-04-03T15:54:18.001Z</time></trkpt><trkpt lat="42.94583651982073" lon="10.856799758282566"><ele>21.0</ele><time>2026-04-03T15:54:19.001Z</time></trkpt><trkpt lat="42.9458242213434" lon="10.856568409505444"><ele>21.0</ele><time>2026-04-03T15:54:20.001Z</time></trkpt><trkpt lat="42.94581372881893" lon="10.856333541486293"><ele>20.333333333333332</ele><time>2026-04-03T15:54:21.001Z</time></trkpt><trkpt lat="42.94579948975164" lon="10.856101146560853"><ele>19.666666666666664</ele><time>2026-04-03T15:54:22.001Z</time></trkpt><trkpt lat="42.945787442245006" lon="10.85586421978998"><ele>19.0</ele><time>2026-04-03T15:54:23.001Z</time></trkpt><trkpt lat="42.9457728167535" lon="10.855628928899963"><ele>18.333333333333332</ele><time>2026-04-03T15:54:24.001Z</time></trkpt><trkpt lat="42.945756808483736" lon="10.855396193427985"><ele>17.666666666666668</ele><time>2026-04-03T15:54:25.001Z</time></trkpt><trkpt lat="42.94574390870148" lon="10.855161573769866"><ele>17.0</ele><time>2026-04-03T15:54:26Z</time></trkpt><trkpt lat="42.945726121476845" lon="10.854932824529339"><ele>16.666666666666668</ele><time>2026-04-03T15:54:27Z</time></trkpt><trkpt lat="42.94570764614268" lon="10.854705900499468"><ele>16.333333333333332</ele><time>2026-04-03T15:54:28Z</time></trkpt><trkpt lat="42.94569167628134" lon="10.854474287083717"><ele>16.0</ele><time>2026-04-03T15:54:29Z</time></trkpt><trkpt lat="42.94567616590043" lon="10.854244603701728"><ele>15.666666666666666</ele><time>2026-04-03T15:54:30Z</time></trkpt><trkpt lat="42.9456642665692" lon="10.854012758436323"><ele>15.333333333333332</ele><time>2026-04-03T15:54:31Z</time></trkpt><trkpt lat="42.945651061409706" lon="10.853780464697461"><ele>15.0</ele><time>2026-04-03T15:54:32Z</time></trkpt><trkpt lat="42.94563233294859" lon="10.853556472863708"><ele>14.666666666666668</ele><time>2026-04-03T15:54:33Z</time></trkpt><trkpt lat="42.94561907496369" lon="10.853324160661819"><ele>14.333333333333334</ele><time>2026-04-03T15:54:34Z</time></trkpt><trkpt lat="42.94560413585942" lon="10.853094490408422"><ele>14.0</ele><time>2026-04-03T15:54:35Z</time></trkpt><trkpt lat="42.94558968584205" lon="10.852857118581344"><ele>13.666666666666668</ele><time>2026-04-03T15:54:36Z</time></trkpt><trkpt lat="42.94557724403847" lon="10.852616685760111"><ele>13.333333333333332</ele><time>2026-04-03T15:54:37Z</time></trkpt><trkpt lat="42.94556282597447" lon="10.852373563912657"><ele>13.0</ele><time>2026-04-03T15:54:38Z</time></trkpt><trkpt lat="42.94554519132066" lon="10.852130651717358"><ele>13.0</ele><time>2026-04-03T15:54:39Z</time></trkpt><trkpt lat="42.94553235142735" lon="10.851886146613426"><ele>13.0</ele><time>2026-04-03T15:54:40Z</time></trkpt><trkpt lat="42.94551379860819" lon="10.851651981118723"><ele>13.0</ele><time>2026-04-03T15:54:41Z</time></trkpt><trkpt lat="42.9455016812065" lon="10.851412452395921"><ele>12.666666666666666</ele><time>2026-04-03T15:54:42Z</time></trkpt><trkpt lat="42.945485067991406" lon="10.851180674068175"><ele>12.333333333333332</ele><time>2026-04-03T15:54:43Z</time></trkpt><trkpt lat="42.94546646191443" lon="10.85094932878037"><ele>12.0</ele><time>2026-04-03T15:54:44Z</time></trkpt><trkpt lat="42.94545489086061" lon="10.850713886827275"><ele>12.666666666666668</ele><time>2026-04-03T15:54:45Z</time></trkpt><trkpt lat="42.9454386943771" lon="10.850485465412422"><ele>13.333333333333334</ele><time>2026-04-03T15:54:46Z</time></trkpt><trkpt lat="42.94542547656892" lon="10.850254994788273"><ele>14.0</ele><time>2026-04-03T15:54:47Z</time></trkpt><trkpt lat="42.9454177976839" lon="10.850019643647016"><ele>14.333333333333334</ele><time>2026-04-03T15:54:47.999Z</time></trkpt><trkpt lat="42.945404296962124" lon="10.849790367873405"><ele>14.666666666666668</ele><time>2026-04-03T15:54:48.999Z</time></trkpt><trkpt lat="42.94538449631331" lon="10.849563971779062"><ele>15.0</ele><time>2026-04-03T15:54:49.999Z</time></trkpt><trkpt lat="42.94537102443932" lon="10.849334826600861"><ele>15.333333333333332</ele><time>2026-04-03T15:54:50.999Z</time></trkpt><trkpt lat="42.94536228401581" lon="10.849102852973592"><ele>15.666666666666666</ele><time>2026-04-03T15:54:51.999Z</time></trkpt><trkpt lat="42.945345479679034" lon="10.848878341268431"><ele>16.0</ele><time>2026-04-03T15:54:52.999Z</time></trkpt><trkpt lat="42.94533170590302" lon="10.848654121488176"><ele>15.666666666666666</ele><time>2026-04-03T15:54:53.999Z</time></trkpt><trkpt lat="42.945314654271606" lon="10.848429529104504"><ele>15.333333333333332</ele><time>2026-04-03T15:54:54.999Z</time></trkpt><trkpt lat="42.945296650428666" lon="10.848206010018748"><ele>15.0</ele><time>2026-04-03T15:54:55.999Z</time></trkpt><trkpt lat="42.94528616317497" lon="10.847976804747654"><ele>15.0</ele><time>2026-04-03T15:54:56.999Z</time></trkpt><trkpt lat="42.94527348776294" lon="10.847749809137213"><ele>15.0</ele><time>2026-04-03T15:54:57.999Z</time></trkpt><trkpt lat="42.945256787403956" lon="10.847524392546323"><ele>15.0</ele><time>2026-04-03T15:54:58.999Z</time></trkpt><trkpt lat="42.94524920162424" lon="10.847293284998067"><ele>14.666666666666668</ele><time>2026-04-03T15:54:59.999Z</time></trkpt><trkpt lat="42.94523471085068" lon="10.847065993256399"><ele>14.333333333333334</ele><time>2026-04-03T15:55:00.999Z</time></trkpt><trkpt lat="42.94521243896439" lon="10.84683959081767"><ele>14.0</ele><time>2026-04-03T15:55:01.999Z</time></trkpt><trkpt lat="42.94519843296904" lon="10.84661275658447"><ele>13.666666666666668</ele><time>2026-04-03T15:55:02.999Z</time></trkpt><trkpt lat="42.94518608286381" lon="10.846390688755294"><ele>13.333333333333332</ele><time>2026-04-03T15:55:03.999Z</time></trkpt><trkpt lat="42.94516810167061" lon="10.8461744881508"><ele>13.0</ele><time>2026-04-03T15:55:04.999Z</time></trkpt><trkpt lat="42.945157542368705" lon="10.845956036431003"><ele>13.0</ele><time>2026-04-03T15:55:05.999Z</time></trkpt><trkpt lat="42.94514516323397" lon="10.84575186363746"><ele>13.0</ele><time>2026-04-03T15:55:06.999Z</time></trkpt><trkpt lat="42.94513544910119" lon="10.845555593878075"><ele>13.0</ele><time>2026-04-03T15:55:07.999Z</time></trkpt><trkpt lat="42.94512181169374" lon="10.84536590053912"><ele>13.0</ele><time>2026-04-03T15:55:08.999Z</time></trkpt><trkpt lat="42.94510861850539" lon="10.845175262997401"><ele>13.25</ele><time>2026-04-03T15:55:09.999Z</time></trkpt><trkpt lat="42.94509600749553" lon="10.844984714779123"><ele>13.5</ele><time>2026-04-03T15:55:10.999Z</time></trkpt><trkpt lat="42.94508365060213" lon="10.844799583258325"><ele>13.75</ele><time>2026-04-03T15:55:11.999Z</time></trkpt><trkpt lat="42.94507544843745" lon="10.844626608590644"><ele>14.0</ele><time>2026-04-03T15:55:12.999Z</time></trkpt><trkpt lat="42.94505943290236" lon="10.844446561473791"><ele>13.75</ele><time>2026-04-03T15:55:13.999Z</time></trkpt><trkpt lat="42.9450444008642" lon="10.84426613352762"><ele>13.5</ele><time>2026-04-03T15:55:14.999Z</time></trkpt><trkpt lat="42.945032069347135" lon="10.844084106247985"><ele>13.25</ele><time>2026-04-03T15:55:15.999Z</time></trkpt><trkpt lat="42.94502061965017" lon="10.843905703287032"><ele>13.0</ele><time>2026-04-03T15:55:16.999Z</time></trkpt><trkpt lat="42.94501231287979" lon="10.843725072767644"><ele>13.0</ele><time>2026-04-03T15:55:17.999Z</time></trkpt><trkpt lat="42.9450016905682" lon="10.843545175840879"><ele>13.0</ele><time>2026-04-03T15:55:18.999Z</time></trkpt><trkpt lat="42.94499523637808" lon="10.843364495790912"><ele>13.0</ele><time>2026-04-03T15:55:19.999Z</time></trkpt><trkpt lat="42.944982940566796" lon="10.843186989988416"><ele>13.0</ele><time>2026-04-03T15:55:20.999Z</time></trkpt><trkpt lat="42.94497275000131" lon="10.843003491413505"><ele>13.0</ele><time>2026-04-03T15:55:21.999Z</time></trkpt><trkpt lat="42.94496046693878" lon="10.842826514375204"><ele>13.0</ele><time>2026-04-03T15:55:22.999Z</time></trkpt><trkpt lat="42.94494943476267" lon="10.8426435161631"><ele>13.0</ele><time>2026-04-03T15:55:23.999Z</time></trkpt><trkpt lat="42.94493824464944" lon="10.842460640122644"><ele>13.0</ele><time>2026-04-03T15:55:24.999Z</time></trkpt><trkpt lat="42.94492552456271" lon="10.842279981143621"><ele>13.0</ele><time>2026-04-03T15:55:25.999Z</time></trkpt><trkpt lat="42.94491594164424" lon="10.842096810266462"><ele>13.0</ele><time>2026-04-03T15:55:26.999Z</time></trkpt><trkpt lat="42.94490560717989" lon="10.841914930486551"><ele>13.0</ele><time>2026-04-03T15:55:27.999Z</time></trkpt><trkpt lat="42.94489365402794" lon="10.841732793000206"><ele>13.0</ele><time>2026-04-03T15:55:28.999Z</time></trkpt><trkpt lat="42.94487975580282" lon="10.841553522370935"><ele>13.0</ele><time>2026-04-03T15:55:29.999Z</time></trkpt><trkpt lat="42.94486813243464" lon="10.84137536450999"><ele>13.0</ele><time>2026-04-03T15:55:30.999Z</time></trkpt><trkpt lat="42.94485444539093" lon="10.84120094340154"><ele>13.0</ele><time>2026-04-03T15:55:31.999Z</time></trkpt><trkpt lat="42.94484069310035" lon="10.84102423096103"><ele>13.0</ele><time>2026-04-03T15:55:32.999Z</time></trkpt><trkpt lat="42.944822341642706" lon="10.840857086361927"><ele>12.833333333333332</ele><time>2026-04-03T15:55:33.999Z</time></trkpt><trkpt lat="42.94480630440371" lon="10.840717417675801"><ele>12.666666666666666</ele><time>2026-04-03T15:55:34.999Z</time></trkpt><trkpt lat="42.9447981931772" lon="10.840600912964856"><ele>12.5</ele><time>2026-04-03T15:55:35.999Z</time></trkpt><trkpt lat="42.94479199456431" lon="10.840502498995797"><ele>12.333333333333332</ele><time>2026-04-03T15:55:36.999Z</time></trkpt><trkpt lat="42.944783697931584" lon="10.840387802538874"><ele>12.166666666666666</ele><time>2026-04-03T15:55:38.999Z</time></trkpt><trkpt lat="42.944782820970964" lon="10.840294636513425"><ele>12.0</ele><time>2026-04-03T15:55:45.999Z</time></trkpt><trkpt lat="42.94465083468743" lon="10.840320826005433"><ele>12.0</ele><time>2026-04-03T15:55:46.999Z</time></trkpt><trkpt lat="42.94453693971139" lon="10.840360883643521"><ele>12.0</ele><time>2026-04-03T15:55:48.999Z</time></trkpt><trkpt lat="42.94441670437046" lon="10.840369384290238"><ele>12.0</ele><time>2026-04-03T15:55:50.999Z</time></trkpt><trkpt lat="42.94434980653729" lon="10.840376248450896"><ele>12.0</ele><time>2026-04-03T15:55:51.999Z</time></trkpt><trkpt lat="42.94428296963554" lon="10.840390072596634"><ele>12.0</ele><time>2026-04-03T15:55:52.999Z</time></trkpt><trkpt lat="42.944168171977935" lon="10.840391008151336"><ele>11.8</ele><time>2026-04-03T15:55:54.999Z</time></trkpt><trkpt lat="42.94413207534568" lon="10.840271447818004"><ele>11.6</ele><time>2026-04-03T15:55:56.999Z</time></trkpt><trkpt lat="42.94415101030088" lon="10.840111261225553"><ele>11.4</ele><time>2026-04-03T15:55:58.999Z</time></trkpt><trkpt lat="42.94417001237417" lon="10.839940540265419"><ele>11.200000000000001</ele><time>2026-04-03T15:56:00.999Z</time></trkpt><trkpt lat="42.94416954343688" lon="10.839817035199339"><ele>11.0</ele><time>2026-04-03T15:56:02.999Z</time></trkpt><trkpt lat="42.94420525806066" lon="10.839657352262265"><ele>11.333333333333332</ele><time>2026-04-03T15:56:04.999Z</time></trkpt><trkpt lat="42.944209101857176" lon="10.839559113140059"><ele>11.666666666666666</ele><time>2026-04-03T15:56:05.999Z</time></trkpt><trkpt lat="42.94422205439574" lon="10.83944557020767"><ele>12.0</ele><time>2026-04-03T15:56:06.999Z</time></trkpt><trkpt lat="42.944240382321055" lon="10.839347832538545"><ele>12.333333333333332</ele><time>2026-04-03T15:56:08.999Z</time></trkpt><trkpt lat="42.944258654339045" lon="10.839177665214093"><ele>12.666666666666666</ele><time>2026-04-03T15:56:11Z</time></trkpt><trkpt lat="42.94427123990682" lon="10.839086008556748"><ele>13.0</ele><time>2026-04-03T15:56:12Z</time></trkpt><trkpt lat="42.94428029932049" lon="10.838989602929539"><ele>12.999999999999998</ele><time>2026-04-03T15:56:13Z</time></trkpt><trkpt lat="42.94429248833426" lon="10.838886420959007"><ele>13.0</ele><time>2026-04-03T15:56:14Z</time></trkpt><trkpt lat="42.94430935740421" lon="10.838792163180845"><ele>13.0</ele><time>2026-04-03T15:56:15Z</time></trkpt><trkpt lat="42.94432964740337" lon="10.83862064590982"><ele>13.0</ele><time>2026-04-03T15:56:17Z</time></trkpt><trkpt lat="42.94434183984864" lon="10.838530577813692"><ele>12.999999999999998</ele><time>2026-04-03T15:56:18Z</time></trkpt><trkpt lat="42.944351320678535" lon="10.838444890231115"><ele>13.0</ele><time>2026-04-03T15:56:19Z</time></trkpt><trkpt lat="42.944364555439314" lon="10.838312341468379"><ele>12.999999999999998</ele><time>2026-04-03T15:56:21Z</time></trkpt><trkpt lat="42.94437308631253" lon="10.838147222613644"><ele>13.0</ele><time>2026-04-03T15:56:23Z</time></trkpt><trkpt lat="42.944367807456544" lon="10.8380537983235"><ele>13.0</ele><time>2026-04-03T15:56:24Z</time></trkpt><trkpt lat="42.944358908336426" lon="10.837950692940035"><ele>13.0</ele><time>2026-04-03T15:56:25Z</time></trkpt><trkpt lat="42.94435059940738" lon="10.837854520489229"><ele>12.999999999999998</ele><time>2026-04-03T15:56:26Z</time></trkpt><trkpt lat="42.94433615627999" lon="10.8377622404054"><ele>13.0</ele><time>2026-04-03T15:56:27Z</time></trkpt><trkpt lat="42.94432633891105" lon="10.83765823620898"><ele>12.999999999999998</ele><time>2026-04-03T15:56:28Z</time></trkpt><trkpt lat="42.94430928442169" lon="10.837558160884543"><ele>13.0</ele><time>2026-04-03T15:56:29Z</time></trkpt><trkpt lat="42.944298962064664" lon="10.837455328961966"><ele>13.0</ele><time>2026-04-03T15:56:30Z</time></trkpt><trkpt lat="42.944294803815374" lon="10.837345277058173"><ele>13.0</ele><time>2026-04-03T15:56:31Z</time></trkpt><trkpt lat="42.94428278777422" lon="10.837227228806386"><ele>12.999999999999998</ele><time>2026-04-03T15:56:32Z</time></trkpt><trkpt lat="42.94427612870942" lon="10.837120941399325"><ele>13.0</ele><time>2026-04-03T15:56:33Z</time></trkpt><trkpt lat="42.94427092329315" lon="10.837003875108728"><ele>12.999999999999998</ele><time>2026-04-03T15:56:34Z</time></trkpt><trkpt lat="42.94427108079286" lon="10.836903029029756"><ele>13.0</ele><time>2026-04-03T15:56:35Z</time></trkpt><trkpt lat="42.944267817994756" lon="10.836806498106025"><ele>13.0</ele><time>2026-04-03T15:56:36Z</time></trkpt><trkpt lat="42.94425589792387" lon="10.8366441324879"><ele>13.0</ele><time>2026-04-03T15:56:38Z</time></trkpt><trkpt lat="42.944246228217615" lon="10.836555597685116"><ele>12.999999999999998</ele><time>2026-04-03T15:56:39Z</time></trkpt><trkpt lat="42.9442239153503" lon="10.836467543284542"><ele>13.0</ele><time>2026-04-03T15:56:40Z</time></trkpt><trkpt lat="42.94419453833125" lon="10.836369170317603"><ele>12.999999999999998</ele><time>2026-04-03T15:56:41Z</time></trkpt><trkpt lat="42.94416639542876" lon="10.836278403715497"><ele>13.0</ele><time>2026-04-03T15:56:42Z</time></trkpt><trkpt lat="42.94413952352675" lon="10.836175920915972"><ele>13.0</ele><time>2026-04-03T15:56:43Z</time></trkpt><trkpt lat="42.94411113149755" lon="10.836070452307746"><ele>13.0</ele><time>2026-04-03T15:56:44Z</time></trkpt><trkpt lat="42.94408375793264" lon="10.835966732532999"><ele>12.999999999999998</ele><time>2026-04-03T15:56:45Z</time></trkpt><trkpt lat="42.94405850787952" lon="10.835867124962725"><ele>13.0</ele><time>2026-04-03T15:56:46Z</time></trkpt><trkpt lat="42.944036927621596" lon="10.835784819574194"><ele>12.833333333333332</ele><time>2026-04-03T15:56:47Z</time></trkpt><trkpt lat="42.944003005459294" lon="10.835642262038391"><ele>12.666666666666666</ele><time>2026-04-03T15:56:49Z</time></trkpt><trkpt lat="42.94396909114334" lon="10.835563039164837"><ele>12.5</ele><time>2026-04-03T15:56:58Z</time></trkpt><trkpt lat="42.94404510821216" lon="10.835507198823027"><ele>12.333333333333332</ele><time>2026-04-03T15:56:59Z</time></trkpt><trkpt lat="42.94414726857422" lon="10.835489770466145"><ele>12.166666666666666</ele><time>2026-04-03T15:57:01Z</time></trkpt><trkpt lat="42.94421662748572" lon="10.835493827908758"><ele>12.0</ele><time>2026-04-03T15:57:08Z</time></trkpt><trkpt lat="42.94431757517047" lon="10.835516886014572"><ele>11.5</ele><time>2026-04-03T15:57:15Z</time></trkpt><trkpt lat="42.94442515256034" lon="10.83556747461107"><ele>11.0</ele><time>2026-04-03T15:57:17Z</time></trkpt><trkpt lat="42.94453663336709" lon="10.835567161455172"><ele>10.5</ele><time>2026-04-03T15:57:19Z</time></trkpt><trkpt lat="42.94459629358798" lon="10.83552040655662"><ele>10.0</ele><time>2026-04-03T15:57:20Z</time></trkpt><trkpt lat="42.94464182248641" lon="10.835455793644286"><ele>9.5</ele><time>2026-04-03T15:57:21Z</time></trkpt><trkpt lat="42.94467358971755" lon="10.835376387813914"><ele>9.0</ele><time>2026-04-03T15:57:22Z</time></trkpt><trkpt lat="42.94468340638433" lon="10.835279073416736"><ele>9.0</ele><time>2026-04-03T15:57:23Z</time></trkpt><trkpt lat="42.94466952219309" lon="10.835188981172797"><ele>9.0</ele><time>2026-04-03T15:57:24Z</time></trkpt><trkpt lat="42.94463199062681" lon="10.835114627807068"><ele>9.0</ele><time>2026-04-03T15:57:25Z</time></trkpt><trkpt lat="42.94451988553716" lon="10.835022763632127"><ele>9.0</ele><time>2026-04-03T15:57:27Z</time></trkpt><trkpt lat="42.94444839172872" lon="10.835020661176822"><ele>9.0</ele><time>2026-04-03T15:57:28Z</time></trkpt><trkpt lat="42.94437751285215" lon="10.83505583047912"><ele>9.0</ele><time>2026-04-03T15:57:29Z</time></trkpt><trkpt lat="42.944315286874385" lon="10.83512318439173"><ele>9.0</ele><time>2026-04-03T15:57:30Z</time></trkpt><trkpt lat="42.944271814425306" lon="10.835201197331939"><ele>9.0</ele><time>2026-04-03T15:57:31Z</time></trkpt><trkpt lat="42.94422871945702" lon="10.835291944632456"><ele>9.0</ele><time>2026-04-03T15:57:32Z</time></trkpt><trkpt lat="42.94417691680096" lon="10.835366399974586"><ele>9.0</ele><time>2026-04-03T15:57:33Z</time></trkpt><trkpt lat="42.944110626999304" lon="10.835424219874584"><ele>9.0</ele><time>2026-04-03T15:57:34Z</time></trkpt><trkpt lat="42.94402975484676" lon="10.835469821613854"><ele>9.0</ele><time>2026-04-03T15:57:35Z</time></trkpt><trkpt lat="42.943955628013434" lon="10.83550664190384"><ele>9.5</ele><time>2026-04-03T15:57:36Z</time></trkpt><trkpt lat="42.943894837390424" lon="10.835537615368693"><ele>10.0</ele><time>2026-04-03T15:57:37Z</time></trkpt><trkpt lat="42.943795108098065" lon="10.83559263965994"><ele>10.5</ele><time>2026-04-03T15:57:39Z</time></trkpt><trkpt lat="42.94372144398603" lon="10.835627066432645"><ele>11.0</ele><time>2026-04-03T15:57:42Z</time></trkpt><trkpt lat="42.94363661819392" lon="10.835665835128436"><ele>11.5</ele><time>2026-04-03T15:57:46Z</time></trkpt><trkpt lat="42.94355072349416" lon="10.835710499607988"><ele>12.0</ele><time>2026-04-03T15:57:48Z</time></trkpt><trkpt lat="42.94345113653164" lon="10.835762863463737"><ele>12.0</ele><time>2026-04-03T15:57:50Z</time></trkpt><trkpt lat="42.94334535279846" lon="10.83581845078498"><ele>12.0</ele><time>2026-04-03T15:57:52Z</time></trkpt><trkpt lat="42.943237562191406" lon="10.83587314284736"><ele>12.0</ele><time>2026-04-03T15:57:54Z</time></trkpt><trkpt lat="42.9431744840646" lon="10.835904780119277"><ele>12.0</ele><time>2026-04-03T15:57:55Z</time></trkpt><trkpt lat="42.94310441112759" lon="10.835945348921989"><ele>12.0</ele><time>2026-04-03T15:57:56Z</time></trkpt><trkpt lat="42.943028095875924" lon="10.835986301433268"><ele>12.0</ele><time>2026-04-03T15:57:57Z</time></trkpt><trkpt lat="42.942944968993565" lon="10.836026681089235"><ele>12.0</ele><time>2026-04-03T15:57:58Z</time></trkpt><trkpt lat="42.94286525914197" lon="10.836062183133109"><ele>12.0</ele><time>2026-04-03T15:57:59Z</time></trkpt><trkpt lat="42.94277784795555" lon="10.836097291508562"><ele>12.0</ele><time>2026-04-03T15:58:00Z</time></trkpt><trkpt lat="42.94268423887272" lon="10.836139860296651"><ele>12.0</ele><time>2026-04-03T15:58:01Z</time></trkpt><trkpt lat="42.94258205756058" lon="10.836191745746145"><ele>12.0</ele><time>2026-04-03T15:58:02Z</time></trkpt><trkpt lat="42.94248094339089" lon="10.836242957407638"><ele>12.0</ele><time>2026-04-03T15:58:03Z</time></trkpt><trkpt lat="42.94238098509745" lon="10.83629240235723"><ele>12.0</ele><time>2026-04-03T15:58:04Z</time></trkpt><trkpt lat="42.942267008692305" lon="10.836350569837116"><ele>12.0</ele><time>2026-04-03T15:58:05Z</time></trkpt><trkpt lat="42.94214730310565" lon="10.836407743663395"><ele>12.0</ele><time>2026-04-03T15:58:06Z</time></trkpt><trkpt lat="42.94202675569181" lon="10.836468501483482"><ele>12.0</ele><time>2026-04-03T15:58:07Z</time></trkpt><trkpt lat="42.94192146081686" lon="10.836527868611034"><ele>12.0</ele><time>2026-04-03T15:58:08Z</time></trkpt><trkpt lat="42.94180559512218" lon="10.83657197417361"><ele>12.0</ele><time>2026-04-03T15:58:09Z</time></trkpt><trkpt lat="42.941702403128446" lon="10.836639354832661"><ele>12.0</ele><time>2026-04-03T15:58:10Z</time></trkpt><trkpt lat="42.94160469186719" lon="10.836682068172278"><ele>12.0</ele><time>2026-04-03T15:58:11Z</time></trkpt><trkpt lat="42.94151249346655" lon="10.836727038507671"><ele>12.0</ele><time>2026-04-03T15:58:12Z</time></trkpt><trkpt lat="42.9414276423084" lon="10.836771502299799"><ele>12.0</ele><time>2026-04-03T15:58:13Z</time></trkpt><trkpt lat="42.94134240231439" lon="10.836818474451748"><ele>12.0</ele><time>2026-04-03T15:58:14Z</time></trkpt><trkpt lat="42.941252123394925" lon="10.836870702629762"><ele>12.0</ele><time>2026-04-03T15:58:15Z</time></trkpt><trkpt lat="42.941159974541186" lon="10.83690878120828"><ele>12.0</ele><time>2026-04-03T15:58:16Z</time></trkpt><trkpt lat="42.94107013168947" lon="10.83696133563607"><ele>12.0</ele><time>2026-04-03T15:58:17Z</time></trkpt><trkpt lat="42.94097095804476" lon="10.837000390559336"><ele>12.0</ele><time>2026-04-03T15:58:18Z</time></trkpt><trkpt lat="42.940881070290374" lon="10.8370381013873"><ele>12.0</ele><time>2026-04-03T15:58:19Z</time></trkpt><trkpt lat="42.9407971319985" lon="10.837080376671217"><ele>12.0</ele><time>2026-04-03T15:58:20Z</time></trkpt><trkpt lat="42.940707265450364" lon="10.83712729193095"><ele>12.0</ele><time>2026-04-03T15:58:21Z</time></trkpt><trkpt lat="42.94062114583904" lon="10.837169196615912"><ele>12.0</ele><time>2026-04-03T15:58:22Z</time></trkpt><trkpt lat="42.940543881289344" lon="10.837209497708763"><ele>12.0</ele><time>2026-04-03T15:58:23Z</time></trkpt><trkpt lat="42.94047712675772" lon="10.837244682533665"><ele>12.0</ele><time>2026-04-03T15:58:24Z</time></trkpt><trkpt lat="42.94036425362852" lon="10.837234763816268"><ele>12.0</ele><time>2026-04-03T15:58:27Z</time></trkpt><trkpt lat="42.94036184474601" lon="10.83708138577049"><ele>12.0</ele><time>2026-04-03T15:58:29Z</time></trkpt><trkpt lat="42.94034135278151" lon="10.836995980094118"><ele>12.0</ele><time>2026-04-03T15:58:30Z</time></trkpt><trkpt lat="42.94031749941866" lon="10.836899396559225"><ele>12.0</ele><time>2026-04-03T15:58:31Z</time></trkpt><trkpt lat="42.94029272415046" lon="10.836801985399427"><ele>12.0</ele><time>2026-04-03T15:58:32Z</time></trkpt><trkpt lat="42.94025559082687" lon="10.836710151185663"><ele>12.0</ele><time>2026-04-03T15:58:33Z</time></trkpt><trkpt lat="42.940241023765196" lon="10.83661185466087"><ele>11.833333333333334</ele><time>2026-04-03T15:58:34Z</time></trkpt><trkpt lat="42.94024142151047" lon="10.836458454706722"><ele>11.666666666666666</ele><time>2026-04-03T15:58:36Z</time></trkpt><trkpt lat="42.940288678230296" lon="10.83639289620818"><ele>11.5</ele><time>2026-04-03T15:58:37Z</time></trkpt><trkpt lat="42.94031079191031" lon="10.836298289924406"><ele>11.333333333333332</ele><time>2026-04-03T15:58:38Z</time></trkpt><trkpt lat="42.94029534985917" lon="10.836187005112444"><ele>11.166666666666666</ele><time>2026-04-03T15:58:39Z</time></trkpt><trkpt lat="42.940266159790724" lon="10.836077448696908"><ele>11.0</ele><time>2026-04-03T15:58:40Z</time></trkpt><trkpt lat="42.940230903759996" lon="10.835981357533264"><ele>10.8</ele><time>2026-04-03T15:58:41Z</time></trkpt><trkpt lat="42.94019701204506" lon="10.835879766483876"><ele>10.600000000000001</ele><time>2026-04-03T15:58:42Z</time></trkpt><trkpt lat="42.940163003065045" lon="10.835766096048612"><ele>10.4</ele><time>2026-04-03T15:58:43Z</time></trkpt><trkpt lat="42.94012569191242" lon="10.835646815584228"><ele>10.2</ele><time>2026-04-03T15:58:44Z</time></trkpt><trkpt lat="42.940082843674794" lon="10.835514898192423"><ele>10.0</ele><time>2026-04-03T15:58:45Z</time></trkpt><trkpt lat="42.940046965703594" lon="10.835384520319781"><ele>10.0</ele><time>2026-04-03T15:58:46Z</time></trkpt><trkpt lat="42.94001239140899" lon="10.835245201700973"><ele>10.0</ele><time>2026-04-03T15:58:47Z</time></trkpt><trkpt lat="42.93998150509504" lon="10.835116036052398"><ele>10.0</ele><time>2026-04-03T15:58:48Z</time></trkpt><trkpt lat="42.939954813391786" lon="10.83500401926761"><ele>10.0</ele><time>2026-04-03T15:58:49Z</time></trkpt><trkpt lat="42.93992513834964" lon="10.834850644614498"><ele>10.0</ele><time>2026-04-03T15:58:51Z</time></trkpt><trkpt lat="42.939988730185654" lon="10.834748297207845"><ele>10.0</ele><time>2026-04-03T15:58:53Z</time></trkpt><trkpt lat="42.940067655522384" lon="10.834724392098698"><ele>10.0</ele><time>2026-04-03T15:58:54Z</time></trkpt><trkpt lat="42.940153202993606" lon="10.834693213047489"><ele>10.0</ele><time>2026-04-03T15:58:55Z</time></trkpt><trkpt lat="42.94024282724966" lon="10.834653168305955"><ele>10.0</ele><time>2026-04-03T15:58:56Z</time></trkpt><trkpt lat="42.94031727464416" lon="10.83459142499234"><ele>10.0</ele><time>2026-04-03T15:58:57Z</time></trkpt><trkpt lat="42.94038149782244" lon="10.83455824622384"><ele>10.0</ele><time>2026-04-03T15:58:58Z</time></trkpt><trkpt lat="42.94047461145982" lon="10.834524839657037"><ele>10.0</ele><time>2026-04-03T15:59:00Z</time></trkpt><trkpt lat="42.94035068477704" lon="10.834573014255117"><ele>10.0</ele><time>2026-04-03T15:59:41Z</time></trkpt><trkpt lat="42.94028699399066" lon="10.834605062551296"><ele>10.0</ele><time>2026-04-03T15:59:42Z</time></trkpt><trkpt lat="42.940221647349794" lon="10.834600745261385"><ele>10.0</ele><time>2026-04-03T15:59:43Z</time></trkpt><trkpt lat="42.94010487893039" lon="10.83466612837546"><ele>10.0</ele><time>2026-04-03T15:59:45Z</time></trkpt><trkpt lat="42.940034799705735" lon="10.834697767063568"><ele>10.0</ele><time>2026-04-03T15:59:46Z</time></trkpt><trkpt lat="42.93997384900654" lon="10.834726778694183"><ele>10.0</ele><time>2026-04-03T15:59:47Z</time></trkpt><trkpt lat="42.93988195783319" lon="10.834773324766111"><ele>10.0</ele><time>2026-04-03T15:59:49Z</time></trkpt><trkpt lat="42.93980132981316" lon="10.834819674649278"><ele>10.0</ele><time>2026-04-03T15:59:51Z</time></trkpt><trkpt lat="42.939717261718606" lon="10.834915601795675"><ele>10.0</ele><time>2026-04-03T15:59:53Z</time></trkpt><trkpt lat="42.939787493161944" lon="10.83507602161219"><ele>9.833333333333334</ele><time>2026-04-03T15:59:55Z</time></trkpt><trkpt lat="42.93980062037882" lon="10.835168569549257"><ele>9.666666666666668</ele><time>2026-04-03T15:59:56Z</time></trkpt><trkpt lat="42.939848181624946" lon="10.835309290641932"><ele>9.5</ele><time>2026-04-03T15:59:58Z</time></trkpt><trkpt lat="42.93988579442418" lon="10.835423657002504"><ele>9.333333333333334</ele><time>2026-04-03T16:00:00Z</time></trkpt><trkpt lat="42.93991474286614" lon="10.835530556134067"><ele>9.166666666666666</ele><time>2026-04-03T16:00:02Z</time></trkpt><trkpt lat="42.9399408890321" lon="10.835625346314062"><ele>9.0</ele><time>2026-04-03T16:00:04Z</time></trkpt><trkpt lat="42.939966794244626" lon="10.835707029005528"><ele>9.0</ele><time>2026-04-03T16:00:06Z</time></trkpt><trkpt lat="42.94000033178773" lon="10.835847257622351"><ele>9.0</ele><time>2026-04-03T16:00:08Z</time></trkpt><trkpt lat="42.940015610898" lon="10.835931964673954"><ele>9.0</ele><time>2026-04-03T16:00:09Z</time></trkpt><trkpt lat="42.94003687204734" lon="10.836016069124849"><ele>9.0</ele><time>2026-04-03T16:00:10Z</time></trkpt><trkpt lat="42.94006190170464" lon="10.83610320123605"><ele>9.0</ele><time>2026-04-03T16:00:11Z</time></trkpt><trkpt lat="42.94008808738567" lon="10.836195632041106"><ele>9.0</ele><time>2026-04-03T16:00:12Z</time></trkpt><trkpt lat="42.9401127341365" lon="10.836294957972434"><ele>9.333333333333334</ele><time>2026-04-03T16:00:13Z</time></trkpt><trkpt lat="42.94013781268295" lon="10.836398803222714"><ele>9.666666666666666</ele><time>2026-04-03T16:00:14Z</time></trkpt><trkpt lat="42.94018433399419" lon="10.836505090409673"><ele>10.0</ele><time>2026-04-03T16:00:15Z</time></trkpt><trkpt lat="42.940207375767606" lon="10.836619007708974"><ele>10.333333333333332</ele><time>2026-04-03T16:00:16Z</time></trkpt><trkpt lat="42.94023531696004" lon="10.836720021374498"><ele>10.666666666666666</ele><time>2026-04-03T16:00:17Z</time></trkpt><trkpt lat="42.94026082906853" lon="10.836815258909484"><ele>11.0</ele><time>2026-04-03T16:00:18Z</time></trkpt><trkpt lat="42.94027300459574" lon="10.836929206223939"><ele>11.166666666666666</ele><time>2026-04-03T16:00:19Z</time></trkpt><trkpt lat="42.940298136928995" lon="10.837022319135322"><ele>11.333333333333332</ele><time>2026-04-03T16:00:20Z</time></trkpt><trkpt lat="42.94032159511572" lon="10.83711012187316"><ele>11.5</ele><time>2026-04-03T16:00:21Z</time></trkpt><trkpt lat="42.94034467597628" lon="10.83721582289612"><ele>11.666666666666666</ele><time>2026-04-03T16:00:23.001Z</time></trkpt><trkpt lat="42.940384347856956" lon="10.837288633031726"><ele>11.833333333333334</ele><time>2026-04-03T16:00:44.001Z</time></trkpt><trkpt lat="42.94051231115089" lon="10.837297739675812"><ele>12.0</ele><time>2026-04-03T16:00:47Z</time></trkpt><trkpt lat="42.940595164382636" lon="10.837241406516016"><ele>12.0</ele><time>2026-04-03T16:00:48Z</time></trkpt><trkpt lat="42.94068464632505" lon="10.837189294443855"><ele>12.0</ele><time>2026-04-03T16:00:49Z</time></trkpt><trkpt lat="42.94077561552436" lon="10.837144495365973"><ele>12.0</ele><time>2026-04-03T16:00:50Z</time></trkpt><trkpt lat="42.94086380577831" lon="10.837102559106174"><ele>12.0</ele><time>2026-04-03T16:00:51Z</time></trkpt><trkpt lat="42.9409573911451" lon="10.837055429668434"><ele>12.0</ele><time>2026-04-03T16:00:52Z</time></trkpt><trkpt lat="42.941056463226225" lon="10.837005201270564"><ele>12.0</ele><time>2026-04-03T16:00:53Z</time></trkpt><trkpt lat="42.94115660646123" lon="10.836950801560588"><ele>12.0</ele><time>2026-04-03T16:00:54Z</time></trkpt><trkpt lat="42.94125842761518" lon="10.836898206666207"><ele>12.0</ele><time>2026-04-03T16:00:55Z</time></trkpt><trkpt lat="42.9413630497391" lon="10.836844362380825"><ele>12.0</ele><time>2026-04-03T16:00:56Z</time></trkpt><trkpt lat="42.941474987463245" lon="10.836788000785791"><ele>12.0</ele><time>2026-04-03T16:00:57Z</time></trkpt><trkpt lat="42.941601270622854" lon="10.836718554307634"><ele>12.0</ele><time>2026-04-03T16:00:58Z</time></trkpt><trkpt lat="42.941756503352394" lon="10.836642726602712"><ele>12.0</ele><time>2026-04-03T16:00:59Z</time></trkpt><trkpt lat="42.94194869025414" lon="10.836546068841535"><ele>12.0</ele><time>2026-04-03T16:01:00Z</time></trkpt><trkpt lat="42.9421763580075" lon="10.836442889828325"><ele>12.0</ele><time>2026-04-03T16:01:01Z</time></trkpt><trkpt lat="42.94237930538388" lon="10.836354067680848"><ele>12.0</ele><time>2026-04-03T16:01:02Z</time></trkpt><trkpt lat="42.9425090074752" lon="10.836272336239174"><ele>12.0</ele><time>2026-04-03T16:01:03Z</time></trkpt><trkpt lat="42.94258756337054" lon="10.836245512651768"><ele>12.0</ele><time>2026-04-03T16:01:04Z</time></trkpt><trkpt lat="42.942655646054966" lon="10.83620826542731"><ele>12.0</ele><time>2026-04-03T16:01:05Z</time></trkpt><trkpt lat="42.94273099363026" lon="10.836170825843237"><ele>12.0</ele><time>2026-04-03T16:01:06Z</time></trkpt><trkpt lat="42.942810441416086" lon="10.83613197095953"><ele>12.0</ele><time>2026-04-03T16:01:07Z</time></trkpt><trkpt lat="42.94289456898784" lon="10.836087233398688"><ele>12.0</ele><time>2026-04-03T16:01:08Z</time></trkpt><trkpt lat="42.942975479752405" lon="10.836046846038466"><ele>12.0</ele><time>2026-04-03T16:01:09Z</time></trkpt><trkpt lat="42.943060715650724" lon="10.836006544307713"><ele>12.0</ele><time>2026-04-03T16:01:10Z</time></trkpt><trkpt lat="42.94314342509704" lon="10.835965545841733"><ele>12.0</ele><time>2026-04-03T16:01:11Z</time></trkpt><trkpt lat="42.943223679184605" lon="10.835923724879839"><ele>12.0</ele><time>2026-04-03T16:01:12Z</time></trkpt><trkpt lat="42.94330959957912" lon="10.835878658716274"><ele>12.0</ele><time>2026-04-03T16:01:13Z</time></trkpt><trkpt lat="42.94339403292734" lon="10.835837418245955"><ele>12.0</ele><time>2026-04-03T16:01:14Z</time></trkpt><trkpt lat="42.94348139214616" lon="10.835791147059279"><ele>12.0</ele><time>2026-04-03T16:01:15Z</time></trkpt><trkpt lat="42.94357018434621" lon="10.83574378895527"><ele>12.0</ele><time>2026-04-03T16:01:16Z</time></trkpt><trkpt lat="42.94365487571018" lon="10.835699298234804"><ele>12.0</ele><time>2026-04-03T16:01:17Z</time></trkpt><trkpt lat="42.94374615088488" lon="10.835656057638126"><ele>12.0</ele><time>2026-04-03T16:01:18Z</time></trkpt><trkpt lat="42.94383088752375" lon="10.835610071293466"><ele>12.0</ele><time>2026-04-03T16:01:19Z</time></trkpt><trkpt lat="42.94390952336898" lon="10.835573763179882"><ele>12.0</ele><time>2026-04-03T16:01:20Z</time></trkpt><trkpt lat="42.94398929916538" lon="10.835534919769383"><ele>12.0</ele><time>2026-04-03T16:01:21Z</time></trkpt><trkpt lat="42.94407380880612" lon="10.835494362368824"><ele>12.0</ele><time>2026-04-03T16:01:22Z</time></trkpt><trkpt lat="42.94414545170959" lon="10.83546653413323"><ele>12.0</ele><time>2026-04-03T16:01:23Z</time></trkpt><trkpt lat="42.944227612854384" lon="10.835456278978507"><ele>12.0</ele><time>2026-04-03T16:01:24Z</time></trkpt><trkpt lat="42.944301833793865" lon="10.835482500175493"><ele>12.0</ele><time>2026-04-03T16:01:25Z</time></trkpt><trkpt lat="42.94438126141042" lon="10.835531241996284"><ele>12.0</ele><time>2026-04-03T16:01:26Z</time></trkpt><trkpt lat="42.94445611320985" lon="10.835572246291791"><ele>12.0</ele><time>2026-04-03T16:01:27Z</time></trkpt><trkpt lat="42.94452949964787" lon="10.835578376792128"><ele>11.5</ele><time>2026-04-03T16:01:28Z</time></trkpt><trkpt lat="42.9446067332246" lon="10.83553118482184"><ele>11.0</ele><time>2026-04-03T16:01:29Z</time></trkpt><trkpt lat="42.94466290636214" lon="10.83545109329313"><ele>10.5</ele><time>2026-04-03T16:01:30Z</time></trkpt><trkpt lat="42.944694966798245" lon="10.835342163215861"><ele>10.0</ele><time>2026-04-03T16:01:31Z</time></trkpt><trkpt lat="42.944692262653845" lon="10.835219544927089"><ele>9.5</ele><time>2026-04-03T16:01:32Z</time></trkpt><trkpt lat="42.94464767535035" lon="10.835102082286024"><ele>9.0</ele><time>2026-04-03T16:01:33Z</time></trkpt><trkpt lat="42.94457942463871" lon="10.835025984232331"><ele>8.8</ele><time>2026-04-03T16:01:34Z</time></trkpt><trkpt lat="42.94449609715704" lon="10.834938071492182"><ele>8.600000000000001</ele><time>2026-04-03T16:01:35Z</time></trkpt><trkpt lat="42.9444383953525" lon="10.834830304673966"><ele>8.4</ele><time>2026-04-03T16:01:36Z</time></trkpt><trkpt lat="42.94441419212106" lon="10.834709965352966"><ele>8.200000000000001</ele><time>2026-04-03T16:01:37Z</time></trkpt><trkpt lat="42.944407824029" lon="10.834571511453465"><ele>8.0</ele><time>2026-04-03T16:01:38Z</time></trkpt><trkpt lat="42.94440559528317" lon="10.834423179987855"><ele>7.75</ele><time>2026-04-03T16:01:39Z</time></trkpt><trkpt lat="42.94439601599968" lon="10.834264798849178"><ele>7.5</ele><time>2026-04-03T16:01:40Z</time></trkpt><trkpt lat="42.94438238904828" lon="10.834100806861032"><ele>7.25</ele><time>2026-04-03T16:01:41Z</time></trkpt><trkpt lat="42.94437235274619" lon="10.833932479885904"><ele>7.0</ele><time>2026-04-03T16:01:42Z</time></trkpt><trkpt lat="42.94436393938781" lon="10.833760836497156"><ele>7.0</ele><time>2026-04-03T16:01:43Z</time></trkpt><trkpt lat="42.9443547323839" lon="10.833588759965448"><ele>7.0</ele><time>2026-04-03T16:01:44Z</time></trkpt><trkpt lat="42.94434430810321" lon="10.83342299354162"><ele>7.0</ele><time>2026-04-03T16:01:45Z</time></trkpt><trkpt lat="42.94433300563936" lon="10.833247786825611"><ele>7.0</ele><time>2026-04-03T16:01:46Z</time></trkpt><trkpt lat="42.944320318598365" lon="10.833069696633826"><ele>7.5</ele><time>2026-04-03T16:01:47Z</time></trkpt><trkpt lat="42.94430943108539" lon="10.83288905565439"><ele>8.0</ele><time>2026-04-03T16:01:48Z</time></trkpt><trkpt lat="42.9442982379278" lon="10.832704587095762"><ele>8.5</ele><time>2026-04-03T16:01:49Z</time></trkpt><trkpt lat="42.94428642631827" lon="10.832520166219403"><ele>9.0</ele><time>2026-04-03T16:01:50Z</time></trkpt><trkpt lat="42.9442742412881" lon="10.83233835667593"><ele>9.5</ele><time>2026-04-03T16:01:51Z</time></trkpt><trkpt lat="42.944262957757445" lon="10.832158608157446"><ele>10.0</ele><time>2026-04-03T16:01:52Z</time></trkpt><trkpt lat="42.94425104408562" lon="10.831972581170898"><ele>10.5</ele><time>2026-04-03T16:01:53Z</time></trkpt><trkpt lat="42.944240391931665" lon="10.83178550900954"><ele>11.0</ele><time>2026-04-03T16:01:54Z</time></trkpt><trkpt lat="42.9442298512658" lon="10.831600022252987"><ele>11.0</ele><time>2026-04-03T16:01:55Z</time></trkpt><trkpt lat="42.94421593553009" lon="10.831417454576265"><ele>11.0</ele><time>2026-04-03T16:01:56Z</time></trkpt><trkpt lat="42.94420101802446" lon="10.831234192788006"><ele>11.0</ele><time>2026-04-03T16:01:57Z</time></trkpt><trkpt lat="42.944186228576115" lon="10.831053459683364"><ele>11.0</ele><time>2026-04-03T16:01:58Z</time></trkpt><trkpt lat="42.94416793625322" lon="10.830871880399895"><ele>10.75</ele><time>2026-04-03T16:01:59Z</time></trkpt><trkpt lat="42.944144647839344" lon="10.830688818650867"><ele>10.5</ele><time>2026-04-03T16:02:00Z</time></trkpt><trkpt lat="42.94411868037294" lon="10.830504670122108"><ele>10.25</ele><time>2026-04-03T16:02:01Z</time></trkpt><trkpt lat="42.94409223654093" lon="10.830324516234631"><ele>10.0</ele><time>2026-04-03T16:02:02Z</time></trkpt><trkpt lat="42.944065841776364" lon="10.830144298031263"><ele>9.75</ele><time>2026-04-03T16:02:03Z</time></trkpt><trkpt lat="42.94403958733437" lon="10.829959648713029"><ele>9.5</ele><time>2026-04-03T16:02:04Z</time></trkpt><trkpt lat="42.94401050897944" lon="10.829776991018493"><ele>9.25</ele><time>2026-04-03T16:02:04.999Z</time></trkpt><trkpt lat="42.94398108137761" lon="10.829595572950788"><ele>9.0</ele><time>2026-04-03T16:02:05.999Z</time></trkpt><trkpt lat="42.94395376075265" lon="10.829412915310707"><ele>8.75</ele><time>2026-04-03T16:02:06.999Z</time></trkpt><trkpt lat="42.94392606137727" lon="10.829231810494651"><ele>8.5</ele><time>2026-04-03T16:02:07.999Z</time></trkpt><trkpt lat="42.94389804338905" lon="10.829045621107886"><ele>8.25</ele><time>2026-04-03T16:02:08.999Z</time></trkpt><trkpt lat="42.943869476009375" lon="10.82886129561432"><ele>8.0</ele><time>2026-04-03T16:02:09.999Z</time></trkpt><trkpt lat="42.94384097035803" lon="10.828678039931344"><ele>8.0</ele><time>2026-04-03T16:02:10.999Z</time></trkpt><trkpt lat="42.94381370805834" lon="10.828493979659235"><ele>8.0</ele><time>2026-04-03T16:02:11.999Z</time></trkpt><trkpt lat="42.94378626384049" lon="10.828310625684995"><ele>8.0</ele><time>2026-04-03T16:02:12.999Z</time></trkpt><trkpt lat="42.94375824302585" lon="10.828128081998617"><ele>8.0</ele><time>2026-04-03T16:02:13.999Z</time></trkpt><trkpt lat="42.94372964630973" lon="10.8279451368043"><ele>8.25</ele><time>2026-04-03T16:02:14.999Z</time></trkpt><trkpt lat="42.94370080430716" lon="10.827762018807228"><ele>8.5</ele><time>2026-04-03T16:02:15.999Z</time></trkpt><trkpt lat="42.94367304600889" lon="10.827582080655112"><ele>8.75</ele><time>2026-04-03T16:02:16.999Z</time></trkpt><trkpt lat="42.9436457845656" lon="10.827397458782249"><ele>9.0</ele><time>2026-04-03T16:02:17.999Z</time></trkpt><trkpt lat="42.943617789215125" lon="10.827220416716347"><ele>9.25</ele><time>2026-04-03T16:02:18.999Z</time></trkpt><trkpt lat="42.94358814169519" lon="10.827033754355625"><ele>9.5</ele><time>2026-04-03T16:02:19.999Z</time></trkpt><trkpt lat="42.94356044115232" lon="10.826853670015755"><ele>9.75</ele><time>2026-04-03T16:02:20.999Z</time></trkpt><trkpt lat="42.94353351205133" lon="10.826673177407278"><ele>10.0</ele><time>2026-04-03T16:02:21.999Z</time></trkpt><trkpt lat="42.943505476647616" lon="10.826488555022886"><ele>10.5</ele><time>2026-04-03T16:02:22.999Z</time></trkpt><trkpt lat="42.94347706986058" lon="10.826304646450659"><ele>11.0</ele><time>2026-04-03T16:02:23.999Z</time></trkpt><trkpt lat="42.94344723741247" lon="10.826125851841963"><ele>11.5</ele><time>2026-04-03T16:02:24.999Z</time></trkpt><trkpt lat="42.94341990386929" lon="10.825937647265501"><ele>12.0</ele><time>2026-04-03T16:02:25.999Z</time></trkpt><trkpt lat="42.943391351227994" lon="10.825755455178571"><ele>12.0</ele><time>2026-04-03T16:02:26.999Z</time></trkpt><trkpt lat="42.943364167457716" lon="10.82556970390861"><ele>12.0</ele><time>2026-04-03T16:02:27.999Z</time></trkpt><trkpt lat="42.94333766536007" lon="10.825386380621177"><ele>12.0</ele><time>2026-04-03T16:02:29Z</time></trkpt><trkpt lat="42.943310409962685" lon="10.825207144144091"><ele>12.0</ele><time>2026-04-03T16:02:30Z</time></trkpt><trkpt lat="42.94328360517484" lon="10.8250312399791"><ele>12.0</ele><time>2026-04-03T16:02:31Z</time></trkpt><trkpt lat="42.94325612836903" lon="10.824855414583539"><ele>12.0</ele><time>2026-04-03T16:02:32Z</time></trkpt><trkpt lat="42.943229736260584" lon="10.824676148371909"><ele>12.0</ele><time>2026-04-03T16:02:33Z</time></trkpt><trkpt lat="42.94320203967432" lon="10.824511232833164"><ele>12.0</ele><time>2026-04-03T16:02:34Z</time></trkpt><trkpt lat="42.943176701437785" lon="10.8243477212565"><ele>12.0</ele><time>2026-04-03T16:02:35Z</time></trkpt><trkpt lat="42.943151252241634" lon="10.824187045809913"><ele>12.0</ele><time>2026-04-03T16:02:36Z</time></trkpt><trkpt lat="42.94312948420725" lon="10.8240517027378"><ele>12.0</ele><time>2026-04-03T16:02:37Z</time></trkpt><trkpt lat="42.94310899467738" lon="10.82392170339133"><ele>12.0</ele><time>2026-04-03T16:02:38Z</time></trkpt><trkpt lat="42.943087836344475" lon="10.823787129623978"><ele>12.0</ele><time>2026-04-03T16:02:39Z</time></trkpt><trkpt lat="42.94306705209764" lon="10.823651444782824"><ele>12.0</ele><time>2026-04-03T16:02:40Z</time></trkpt><trkpt lat="42.943046259124834" lon="10.823506332382767"><ele>12.0</ele><time>2026-04-03T16:02:41Z</time></trkpt><trkpt lat="42.94302476425699" lon="10.823355890039629"><ele>12.0</ele><time>2026-04-03T16:02:42Z</time></trkpt><trkpt lat="42.94300192874333" lon="10.823200488069725"><ele>12.0</ele><time>2026-04-03T16:02:43Z</time></trkpt><trkpt lat="42.942977318354046" lon="10.823042414657689"><ele>11.5</ele><time>2026-04-03T16:02:44Z</time></trkpt><trkpt lat="42.94295104264542" lon="10.822877261594568"><ele>11.0</ele><time>2026-04-03T16:02:45Z</time></trkpt><trkpt lat="42.94292354873177" lon="10.822709403076942"><ele>10.5</ele><time>2026-04-03T16:02:46Z</time></trkpt><trkpt lat="42.942896111517356" lon="10.822535323645393"><ele>10.0</ele><time>2026-04-03T16:02:47Z</time></trkpt><trkpt lat="42.94286606764676" lon="10.822355292924179"><ele>10.0</ele><time>2026-04-03T16:02:48Z</time></trkpt><trkpt lat="42.94284022531449" lon="10.822176552745594"><ele>10.0</ele><time>2026-04-03T16:02:49Z</time></trkpt><trkpt lat="42.94281235354698" lon="10.821991580873018"><ele>10.0</ele><time>2026-04-03T16:02:50Z</time></trkpt><trkpt lat="42.9427853886093" lon="10.821807008183006"><ele>10.0</ele><time>2026-04-03T16:02:51Z</time></trkpt><trkpt lat="42.94275634053477" lon="10.821615028493135"><ele>10.5</ele><time>2026-04-03T16:02:52Z</time></trkpt><trkpt lat="42.94272660661666" lon="10.821429340116731"><ele>11.0</ele><time>2026-04-03T16:02:53Z</time></trkpt><trkpt lat="42.94270077958964" lon="10.821233716352664"><ele>11.5</ele><time>2026-04-03T16:02:54Z</time></trkpt><trkpt lat="42.942672203995315" lon="10.821041647177518"><ele>12.0</ele><time>2026-04-03T16:02:54.999Z</time></trkpt><trkpt lat="42.942645050603424" lon="10.82085401255406"><ele>12.0</ele><time>2026-04-03T16:02:55.999Z</time></trkpt><trkpt lat="42.942623621471846" lon="10.820676086925433"><ele>12.0</ele><time>2026-04-03T16:02:56.999Z</time></trkpt><trkpt lat="42.9426077055331" lon="10.820506810460119"><ele>12.0</ele><time>2026-04-03T16:02:57.999Z</time></trkpt><trkpt lat="42.94254683506614" lon="10.820254808480152"><ele>11.666666666666666</ele><time>2026-04-03T16:02:58.999Z</time></trkpt><trkpt lat="42.942517031045114" lon="10.820051966551143"><ele>11.333333333333332</ele><time>2026-04-03T16:02:59.999Z</time></trkpt><trkpt lat="42.94248753375995" lon="10.819850240714768"><ele>11.0</ele><time>2026-04-03T16:03:00.999Z</time></trkpt><trkpt lat="42.94245651156997" lon="10.819646434988174"><ele>11.0</ele><time>2026-04-03T16:03:01.999Z</time></trkpt><trkpt lat="42.94242512398431" lon="10.819442332987908"><ele>11.0</ele><time>2026-04-03T16:03:02.999Z</time></trkpt><trkpt lat="42.942394582584136" lon="10.81923848469118"><ele>11.0</ele><time>2026-04-03T16:03:03.999Z</time></trkpt><trkpt lat="42.942363635932125" lon="10.819032725157918"><ele>11.25</ele><time>2026-04-03T16:03:04.999Z</time></trkpt><trkpt lat="42.942334839448336" lon="10.81883196628448"><ele>11.5</ele><time>2026-04-03T16:03:05.999Z</time></trkpt><trkpt lat="42.94230725874704" lon="10.81862822308973"><ele>11.75</ele><time>2026-04-03T16:03:06.999Z</time></trkpt><trkpt lat="42.942275303435515" lon="10.8184354253554"><ele>12.0</ele><time>2026-04-03T16:03:07.999Z</time></trkpt><trkpt lat="42.94224260603623" lon="10.818237029723264"><ele>12.333333333333332</ele><time>2026-04-03T16:03:08.999Z</time></trkpt><trkpt lat="42.94221597684248" lon="10.818035944194671"><ele>12.666666666666666</ele><time>2026-04-03T16:03:09.999Z</time></trkpt><trkpt lat="42.94218232949011" lon="10.817829355796057"><ele>13.0</ele><time>2026-04-03T16:03:10.999Z</time></trkpt><trkpt lat="42.94214971185208" lon="10.817624333655596"><ele>12.333333333333332</ele><time>2026-04-03T16:03:11.999Z</time></trkpt><trkpt lat="42.94211628676876" lon="10.817418937838443"><ele>11.666666666666666</ele><time>2026-04-03T16:03:12.999Z</time></trkpt><trkpt lat="42.94208393295372" lon="10.817211844108138"><ele>11.0</ele><time>2026-04-03T16:03:13.999Z</time></trkpt><trkpt lat="42.94205340949498" lon="10.816997713915104"><ele>10.333333333333332</ele><time>2026-04-03T16:03:14.999Z</time></trkpt><trkpt lat="42.94202148726537" lon="10.816785309838966"><ele>9.666666666666666</ele><time>2026-04-03T16:03:15.999Z</time></trkpt><trkpt lat="42.94198600010163" lon="10.816572185068566"><ele>9.0</ele><time>2026-04-03T16:03:16.999Z</time></trkpt><trkpt lat="42.941953926969944" lon="10.81635673902332"><ele>9.0</ele><time>2026-04-03T16:03:17.999Z</time></trkpt><trkpt lat="42.94191986240136" lon="10.816139852242385"><ele>9.0</ele><time>2026-04-03T16:03:18.999Z</time></trkpt><trkpt lat="42.94188556631393" lon="10.815921562945762"><ele>9.0</ele><time>2026-04-03T16:03:19.999Z</time></trkpt><trkpt lat="42.941851981019425" lon="10.815704048815093"><ele>9.0</ele><time>2026-04-03T16:03:20.999Z</time></trkpt><trkpt lat="42.941819451423214" lon="10.815486389946003"><ele>9.0</ele><time>2026-04-03T16:03:21.999Z</time></trkpt><trkpt lat="42.94178885369541" lon="10.815267223694384"><ele>9.0</ele><time>2026-04-03T16:03:22.999Z</time></trkpt><trkpt lat="42.9417554699763" lon="10.815049655206277"><ele>9.0</ele><time>2026-04-03T16:03:23.999Z</time></trkpt><trkpt lat="42.94172084154298" lon="10.814837699275946"><ele>9.0</ele><time>2026-04-03T16:03:24.999Z</time></trkpt><trkpt lat="42.941690876879356" lon="10.81461867924011"><ele>9.0</ele><time>2026-04-03T16:03:25.999Z</time></trkpt><trkpt lat="42.94165641740979" lon="10.814405088192167"><ele>9.0</ele><time>2026-04-03T16:03:26.999Z</time></trkpt><trkpt lat="42.94162759284133" lon="10.814188462265307"><ele>9.0</ele><time>2026-04-03T16:03:27.999Z</time></trkpt><trkpt lat="42.941591322389634" lon="10.813975112134722"><ele>9.0</ele><time>2026-04-03T16:03:28.999Z</time></trkpt><trkpt lat="42.941554283070005" lon="10.813763648090598"><ele>9.0</ele><time>2026-04-03T16:03:29.999Z</time></trkpt><trkpt lat="42.94152806883601" lon="10.813545162192208"><ele>9.0</ele><time>2026-04-03T16:03:30.999Z</time></trkpt><trkpt lat="42.94148692548222" lon="10.813339905426686"><ele>9.0</ele><time>2026-04-03T16:03:31.999Z</time></trkpt><trkpt lat="42.94145516515893" lon="10.81312861471867"><ele>9.333333333333334</ele><time>2026-04-03T16:03:32.999Z</time></trkpt><trkpt lat="42.941431587875506" lon="10.812911293513631"><ele>9.666666666666668</ele><time>2026-04-03T16:03:33.999Z</time></trkpt><trkpt lat="42.941395269168105" lon="10.812705417026343"><ele>10.0</ele><time>2026-04-03T16:03:34.999Z</time></trkpt><trkpt lat="42.94136238903278" lon="10.81249769040923"><ele>10.0</ele><time>2026-04-03T16:03:35.999Z</time></trkpt><trkpt lat="42.94133098141005" lon="10.812285145525514"><ele>10.0</ele><time>2026-04-03T16:03:36.999Z</time></trkpt><trkpt lat="42.94129620504025" lon="10.812074968671062"><ele>10.0</ele><time>2026-04-03T16:03:37.999Z</time></trkpt><trkpt lat="42.94126128637439" lon="10.81186105328914"><ele>10.333333333333334</ele><time>2026-04-03T16:03:38.999Z</time></trkpt><trkpt lat="42.94122965333206" lon="10.811645365015348"><ele>10.666666666666666</ele><time>2026-04-03T16:03:39.999Z</time></trkpt><trkpt lat="42.94120175235428" lon="10.81142617940024"><ele>11.0</ele><time>2026-04-03T16:03:40.999Z</time></trkpt><trkpt lat="42.94116191140649" lon="10.811213136017688"><ele>11.0</ele><time>2026-04-03T16:03:41.999Z</time></trkpt><trkpt lat="42.941132175468205" lon="10.810994029765919"><ele>11.0</ele><time>2026-04-03T16:03:42.999Z</time></trkpt><trkpt lat="42.941096932985175" lon="10.810776067073753"><ele>11.0</ele><time>2026-04-03T16:03:43.999Z</time></trkpt><trkpt lat="42.941063106027634" lon="10.810559738941667"><ele>11.0</ele><time>2026-04-03T16:03:44.999Z</time></trkpt><trkpt lat="42.94103293013249" lon="10.81033870480916"><ele>11.0</ele><time>2026-04-03T16:03:45.999Z</time></trkpt><trkpt lat="42.94099502494541" lon="10.810120310735186"><ele>11.0</ele><time>2026-04-03T16:03:46.999Z</time></trkpt><trkpt lat="42.94096620210847" lon="10.8098981480609"><ele>11.0</ele><time>2026-04-03T16:03:47.999Z</time></trkpt><trkpt lat="42.940927451342425" lon="10.809677394215901"><ele>11.0</ele><time>2026-04-03T16:03:48.999Z</time></trkpt><trkpt lat="42.940895702343255" lon="10.809456984206198"><ele>11.0</ele><time>2026-04-03T16:03:49.999Z</time></trkpt><trkpt lat="42.940866931722084" lon="10.809237373060357"><ele>10.666666666666666</ele><time>2026-04-03T16:03:50.999Z</time></trkpt><trkpt lat="42.94082890622803" lon="10.809017067256567"><ele>10.333333333333334</ele><time>2026-04-03T16:03:51.999Z</time></trkpt><trkpt lat="42.940797767323524" lon="10.808797950046419"><ele>10.0</ele><time>2026-04-03T16:03:52.999Z</time></trkpt><trkpt lat="42.94075256163388" lon="10.808582207841411"><ele>10.333333333333334</ele><time>2026-04-03T16:03:53.999Z</time></trkpt><trkpt lat="42.94072824430595" lon="10.808365695567591"><ele>10.666666666666666</ele><time>2026-04-03T16:03:54.999Z</time></trkpt><trkpt lat="42.94069216428446" lon="10.808146996372397"><ele>11.0</ele><time>2026-04-03T16:03:55.999Z</time></trkpt><trkpt lat="42.94066129804006" lon="10.807936842312712"><ele>11.0</ele><time>2026-04-03T16:03:56.999Z</time></trkpt><trkpt lat="42.94063181116962" lon="10.807724042771733"><ele>11.0</ele><time>2026-04-03T16:03:57.999Z</time></trkpt><trkpt lat="42.94059173070692" lon="10.80750739609767"><ele>11.0</ele><time>2026-04-03T16:03:58.999Z</time></trkpt><trkpt lat="42.94056340767748" lon="10.807295877677062"><ele>11.0</ele><time>2026-04-03T16:03:59.999Z</time></trkpt><trkpt lat="42.94053396955956" lon="10.807083988562274"><ele>11.0</ele><time>2026-04-03T16:04:00.999Z</time></trkpt><trkpt lat="42.940504718406935" lon="10.806874177903786"><ele>11.0</ele><time>2026-04-03T16:04:01.999Z</time></trkpt><trkpt lat="42.94046731424385" lon="10.806662653550218"><ele>10.666666666666666</ele><time>2026-04-03T16:04:02.999Z</time></trkpt><trkpt lat="42.940432682416734" lon="10.806450386324666"><ele>10.333333333333334</ele><time>2026-04-03T16:04:03.999Z</time></trkpt><trkpt lat="42.94040021447666" lon="10.80624190620059"><ele>10.0</ele><time>2026-04-03T16:04:04.999Z</time></trkpt><trkpt lat="42.94036723269672" lon="10.80603018951687"><ele>10.333333333333334</ele><time>2026-04-03T16:04:05.999Z</time></trkpt><trkpt lat="42.940335794559964" lon="10.805815059500125"><ele>10.666666666666666</ele><time>2026-04-03T16:04:06.999Z</time></trkpt><trkpt lat="42.940304847247496" lon="10.805607446281927"><ele>11.0</ele><time>2026-04-03T16:04:07.999Z</time></trkpt><trkpt lat="42.94027490430251" lon="10.805412690756423"><ele>11.0</ele><time>2026-04-03T16:04:08.999Z</time></trkpt><trkpt lat="42.94023914805467" lon="10.805215473888266"><ele>11.0</ele><time>2026-04-03T16:04:09.999Z</time></trkpt><trkpt lat="42.94021059601564" lon="10.805032477517225"><ele>11.0</ele><time>2026-04-03T16:04:10.999Z</time></trkpt><trkpt lat="42.94018539070246" lon="10.804854112453407"><ele>11.0</ele><time>2026-04-03T16:04:11.999Z</time></trkpt><trkpt lat="42.94015788324657" lon="10.804677539118371"><ele>11.4</ele><time>2026-04-03T16:04:12.999Z</time></trkpt><trkpt lat="42.940132957735045" lon="10.804517163619295"><ele>11.8</ele><time>2026-04-03T16:04:13.999Z</time></trkpt><trkpt lat="42.940115677409715" lon="10.804375147661094"><ele>12.200000000000001</ele><time>2026-04-03T16:04:14.999Z</time></trkpt><trkpt lat="42.94008889552057" lon="10.804225222580476"><ele>12.600000000000001</ele><time>2026-04-03T16:04:15.999Z</time></trkpt><trkpt lat="42.940070718735754" lon="10.804097485626103"><ele>13.0</ele><time>2026-04-03T16:04:16.999Z</time></trkpt><trkpt lat="42.94005117275471" lon="10.803968740951241"><ele>12.999999999999998</ele><time>2026-04-03T16:04:17.999Z</time></trkpt><trkpt lat="42.9400431062028" lon="10.803854732369889"><ele>13.0</ele><time>2026-04-03T16:04:18.999Z</time></trkpt><trkpt lat="42.94004244275014" lon="10.803750717024984"><ele>13.0</ele><time>2026-04-03T16:04:19.999Z</time></trkpt><trkpt lat="42.940060893928354" lon="10.803647109862307"><ele>13.0</ele><time>2026-04-03T16:04:20.999Z</time></trkpt><trkpt lat="42.94009982697784" lon="10.80353732184537"><ele>12.999999999999998</ele><time>2026-04-03T16:04:21.999Z</time></trkpt><trkpt lat="42.940147089981885" lon="10.803427965188714"><ele>13.0</ele><time>2026-04-03T16:04:22.999Z</time></trkpt><trkpt lat="42.94020639548351" lon="10.803284057279587"><ele>12.333333333333332</ele><time>2026-04-03T16:04:23.999Z</time></trkpt><trkpt lat="42.94013464790202" lon="10.803215869563973"><ele>11.666666666666666</ele><time>2026-04-03T16:04:24.999Z</time></trkpt><trkpt lat="42.940087569554336" lon="10.803113194813198"><ele>11.0</ele><time>2026-04-03T16:04:25.999Z</time></trkpt><trkpt lat="42.940022087585234" lon="10.803027711253055"><ele>10.333333333333332</ele><time>2026-04-03T16:04:26.999Z</time></trkpt><trkpt lat="42.93995156634447" lon="10.802946998862646"><ele>9.666666666666666</ele><time>2026-04-03T16:04:27.999Z</time></trkpt><trkpt lat="42.93988988222636" lon="10.802858332285087"><ele>9.0</ele><time>2026-04-03T16:04:28.999Z</time></trkpt><trkpt lat="42.93986187827295" lon="10.802745803860082"><ele>9.0</ele><time>2026-04-03T16:04:29.999Z</time></trkpt><trkpt lat="42.939842514906964" lon="10.802625656227166"><ele>9.0</ele><time>2026-04-03T16:04:30.999Z</time></trkpt><trkpt lat="42.939811104316824" lon="10.80249886039164"><ele>9.0</ele><time>2026-04-03T16:04:31.999Z</time></trkpt><trkpt lat="42.93979569377907" lon="10.802359076067953"><ele>9.0</ele><time>2026-04-03T16:04:32.999Z</time></trkpt><trkpt lat="42.93977486185795" lon="10.80221895949633"><ele>9.0</ele><time>2026-04-03T16:04:33.999Z</time></trkpt><trkpt lat="42.939754293032564" lon="10.802078860192493"><ele>9.0</ele><time>2026-04-03T16:04:35Z</time></trkpt><trkpt lat="42.93973175173557" lon="10.801931042360431"><ele>9.0</ele><time>2026-04-03T16:04:36Z</time></trkpt><trkpt lat="42.939708465394645" lon="10.801788095202648"><ele>9.0</ele><time>2026-04-03T16:04:37Z</time></trkpt><trkpt lat="42.93968647254661" lon="10.801639077315624"><ele>9.0</ele><time>2026-04-03T16:04:38Z</time></trkpt><trkpt lat="42.9396633523821" lon="10.801484959783886"><ele>9.0</ele><time>2026-04-03T16:04:39Z</time></trkpt><trkpt lat="42.93964123903954" lon="10.801328697995059"><ele>8.75</ele><time>2026-04-03T16:04:40Z</time></trkpt><trkpt lat="42.93961887083533" lon="10.801174337824248"><ele>8.5</ele><time>2026-04-03T16:04:41Z</time></trkpt><trkpt lat="42.93959673465963" lon="10.80102997838779"><ele>8.25</ele><time>2026-04-03T16:04:42Z</time></trkpt><trkpt lat="42.93957564519707" lon="10.800875404247135"><ele>8.0</ele><time>2026-04-03T16:04:43Z</time></trkpt><trkpt lat="42.93954883409234" lon="10.800715910914448"><ele>8.5</ele><time>2026-04-03T16:04:44Z</time></trkpt><trkpt lat="42.93952374842363" lon="10.800550688541776"><ele>9.0</ele><time>2026-04-03T16:04:45Z</time></trkpt><trkpt lat="42.93949614391714" lon="10.80038313850856"><ele>9.5</ele><time>2026-04-03T16:04:46Z</time></trkpt><trkpt lat="42.939470430949505" lon="10.800210392498967"><ele>10.0</ele><time>2026-04-03T16:04:47Z</time></trkpt><trkpt lat="42.939443684125976" lon="10.80002892034739"><ele>10.0</ele><time>2026-04-03T16:04:48Z</time></trkpt><trkpt lat="42.93941649042685" lon="10.799848031509597"><ele>10.0</ele><time>2026-04-03T16:04:49Z</time></trkpt><trkpt lat="42.939390210368146" lon="10.79965882296139"><ele>10.0</ele><time>2026-04-03T16:04:50Z</time></trkpt><trkpt lat="42.93936241496563" lon="10.79947241951932"><ele>10.0</ele><time>2026-04-03T16:04:51Z</time></trkpt><trkpt lat="42.93933253494789" lon="10.79928150740362"><ele>10.25</ele><time>2026-04-03T16:04:52Z</time></trkpt><trkpt lat="42.93930351429862" lon="10.79909440086711"><ele>10.5</ele><time>2026-04-03T16:04:53Z</time></trkpt><trkpt lat="42.9392747882898" lon="10.798907639513311"><ele>10.75</ele><time>2026-04-03T16:04:54Z</time></trkpt><trkpt lat="42.93924709020826" lon="10.79871999983122"><ele>11.0</ele><time>2026-04-03T16:04:55Z</time></trkpt><trkpt lat="42.939217403660614" lon="10.79853243431872"><ele>10.5</ele><time>2026-04-03T16:04:56Z</time></trkpt><trkpt lat="42.93918703447385" lon="10.798349487027624"><ele>10.0</ele><time>2026-04-03T16:04:57Z</time></trkpt><trkpt lat="42.939157723476846" lon="10.798156780787732"><ele>9.5</ele><time>2026-04-03T16:04:58Z</time></trkpt><trkpt lat="42.93913075784991" lon="10.797973545595777"><ele>9.0</ele><time>2026-04-03T16:04:59Z</time></trkpt><trkpt lat="42.939101610566574" lon="10.797788557724095"><ele>9.25</ele><time>2026-04-03T16:05:00Z</time></trkpt><trkpt lat="42.939072699341445" lon="10.797599506710753"><ele>9.5</ele><time>2026-04-03T16:05:01Z</time></trkpt><trkpt lat="42.93904295067284" lon="10.79741234713511"><ele>9.75</ele><time>2026-04-03T16:05:02Z</time></trkpt><trkpt lat="42.939013832428685" lon="10.797225935275264"><ele>10.0</ele><time>2026-04-03T16:05:03Z</time></trkpt><trkpt lat="42.938986289641996" lon="10.797034306680443"><ele>10.0</ele><time>2026-04-03T16:05:04Z</time></trkpt><trkpt lat="42.938956257593794" lon="10.796846726047365"><ele>10.0</ele><time>2026-04-03T16:05:05Z</time></trkpt><trkpt lat="42.93892745418676" lon="10.796658918053984"><ele>10.0</ele><time>2026-04-03T16:05:06Z</time></trkpt><trkpt lat="42.93889844013322" lon="10.796470429520024"><ele>10.0</ele><time>2026-04-03T16:05:07Z</time></trkpt><trkpt lat="42.938870259674786" lon="10.79627777846436"><ele>10.0</ele><time>2026-04-03T16:05:08Z</time></trkpt><trkpt lat="42.938839289177146" lon="10.796088002766423"><ele>10.0</ele><time>2026-04-03T16:05:09Z</time></trkpt><trkpt lat="42.938808172215076" lon="10.795896180866674"><ele>10.0</ele><time>2026-04-03T16:05:10Z</time></trkpt><trkpt lat="42.938778672511326" lon="10.795704891477437"><ele>10.0</ele><time>2026-04-03T16:05:11Z</time></trkpt><trkpt lat="42.938751575967565" lon="10.79551102814754"><ele>10.0</ele><time>2026-04-03T16:05:12Z</time></trkpt><trkpt lat="42.93872343466989" lon="10.795315058211813"><ele>10.0</ele><time>2026-04-03T16:05:13Z</time></trkpt><trkpt lat="42.938691139736484" lon="10.795122905300618"><ele>10.0</ele><time>2026-04-03T16:05:14Z</time></trkpt><trkpt lat="42.93866251852668" lon="10.794920416157993"><ele>10.0</ele><time>2026-04-03T16:05:15Z</time></trkpt><trkpt lat="42.938631835820416" lon="10.794723776178284"><ele>10.0</ele><time>2026-04-03T16:05:16Z</time></trkpt><trkpt lat="42.93859816811954" lon="10.794529026876846"><ele>10.0</ele><time>2026-04-03T16:05:17Z</time></trkpt><trkpt lat="42.93856513952542" lon="10.7943330700986"><ele>10.0</ele><time>2026-04-03T16:05:18Z</time></trkpt><trkpt lat="42.938537507794315" lon="10.794133563153293"><ele>10.0</ele><time>2026-04-03T16:05:19Z</time></trkpt><trkpt lat="42.93850758688304" lon="10.793940660497748"><ele>10.25</ele><time>2026-04-03T16:05:20Z</time></trkpt><trkpt lat="42.93847827966174" lon="10.793740100047339"><ele>10.5</ele><time>2026-04-03T16:05:21Z</time></trkpt><trkpt lat="42.93844758058669" lon="10.793543249604507"><ele>10.75</ele><time>2026-04-03T16:05:22Z</time></trkpt><trkpt lat="42.938416281617364" lon="10.7933453445187"><ele>11.0</ele><time>2026-04-03T16:05:23Z</time></trkpt><trkpt lat="42.93838693700115" lon="10.793143251162974"><ele>11.25</ele><time>2026-04-03T16:05:24Z</time></trkpt><trkpt lat="42.938355430273724" lon="10.792944310678175"><ele>11.5</ele><time>2026-04-03T16:05:25Z</time></trkpt><trkpt lat="42.93832198864665" lon="10.7927512116251"><ele>11.75</ele><time>2026-04-03T16:05:26Z</time></trkpt><trkpt lat="42.9382930843498" lon="10.792547926088817"><ele>12.0</ele><time>2026-04-03T16:05:27Z</time></trkpt><trkpt lat="42.93826380437446" lon="10.792348424829347"><ele>12.25</ele><time>2026-04-03T16:05:28Z</time></trkpt><trkpt lat="42.93823416239637" lon="10.792143786230941"><ele>12.5</ele><time>2026-04-03T16:05:29Z</time></trkpt><trkpt lat="42.938201730797395" lon="10.79195240673878"><ele>12.75</ele><time>2026-04-03T16:05:30Z</time></trkpt><trkpt lat="42.93817025194236" lon="10.791753933937239"><ele>13.0</ele><time>2026-04-03T16:05:31Z</time></trkpt><trkpt lat="42.938140962313426" lon="10.791552175087919"><ele>13.25</ele><time>2026-04-03T16:05:32Z</time></trkpt><trkpt lat="42.93811064236732" lon="10.791359069714684"><ele>13.5</ele><time>2026-04-03T16:05:33Z</time></trkpt><trkpt lat="42.93808052098678" lon="10.791160176544935"><ele>13.75</ele><time>2026-04-03T16:05:34Z</time></trkpt><trkpt lat="42.93804808000646" lon="10.79096370499596"><ele>14.0</ele><time>2026-04-03T16:05:35Z</time></trkpt><trkpt lat="42.93801657537344" lon="10.79076304843626"><ele>14.25</ele><time>2026-04-03T16:05:36Z</time></trkpt><trkpt lat="42.9379880916153" lon="10.790564341211534"><ele>14.5</ele><time>2026-04-03T16:05:37Z</time></trkpt><trkpt lat="42.937959860010416" lon="10.790362335210846"><ele>14.75</ele><time>2026-04-03T16:05:38Z</time></trkpt><trkpt lat="42.93793113156105" lon="10.79016291126046"><ele>15.0</ele><time>2026-04-03T16:05:39Z</time></trkpt><trkpt lat="42.937900530836686" lon="10.789962906606757"><ele>15.5</ele><time>2026-04-03T16:05:40Z</time></trkpt><trkpt lat="42.93786821062478" lon="10.789763992446531"><ele>16.0</ele><time>2026-04-03T16:05:41Z</time></trkpt><trkpt lat="42.93783739866841" lon="10.78956899039936"><ele>16.5</ele><time>2026-04-03T16:05:42Z</time></trkpt><trkpt lat="42.93780889717477" lon="10.7893716913725"><ele>17.0</ele><time>2026-04-03T16:05:43Z</time></trkpt><trkpt lat="42.93778109670544" lon="10.789176368986183"><ele>17.0</ele><time>2026-04-03T16:05:44Z</time></trkpt><trkpt lat="42.93774982610262" lon="10.788981114023125"><ele>17.0</ele><time>2026-04-03T16:05:45Z</time></trkpt><trkpt lat="42.93771988031912" lon="10.788786281917663"><ele>17.0</ele><time>2026-04-03T16:05:46Z</time></trkpt><trkpt lat="42.93768852044606" lon="10.788595679237758"><ele>17.0</ele><time>2026-04-03T16:05:47Z</time></trkpt><trkpt lat="42.937657970758785" lon="10.788409106764256"><ele>17.0</ele><time>2026-04-03T16:05:48Z</time></trkpt><trkpt lat="42.93762668339023" lon="10.788216335107773"><ele>17.0</ele><time>2026-04-03T16:05:49Z</time></trkpt><trkpt lat="42.93759506910085" lon="10.788029477179922"><ele>17.0</ele><time>2026-04-03T16:05:50Z</time></trkpt><trkpt lat="42.937564244426476" lon="10.787842917193242"><ele>17.0</ele><time>2026-04-03T16:05:51Z</time></trkpt><trkpt lat="42.937535491688905" lon="10.787655414885295"><ele>17.25</ele><time>2026-04-03T16:05:52Z</time></trkpt><trkpt lat="42.93750562431766" lon="10.787465495715741"><ele>17.5</ele><time>2026-04-03T16:05:53Z</time></trkpt><trkpt lat="42.93747563837339" lon="10.787282574446305"><ele>17.75</ele><time>2026-04-03T16:05:54Z</time></trkpt><trkpt lat="42.93744505305758" lon="10.787091843589526"><ele>18.0</ele><time>2026-04-03T16:05:55Z</time></trkpt><trkpt lat="42.93741529230763" lon="10.786900528389346"><ele>18.25</ele><time>2026-04-03T16:05:56Z</time></trkpt><trkpt lat="42.937386542634286" lon="10.78671431774658"><ele>18.5</ele><time>2026-04-03T16:05:57Z</time></trkpt><trkpt lat="42.93735915935768" lon="10.786523537838441"><ele>18.75</ele><time>2026-04-03T16:05:58Z</time></trkpt><trkpt lat="42.93732966055709" lon="10.78633404535872"><ele>19.0</ele><time>2026-04-03T16:05:59Z</time></trkpt><trkpt lat="42.93729924957894" lon="10.786146305203115"><ele>19.5</ele><time>2026-04-03T16:06:00Z</time></trkpt><trkpt lat="42.93727031360397" lon="10.785962082173695"><ele>20.0</ele><time>2026-04-03T16:06:01Z</time></trkpt><trkpt lat="42.93724148399487" lon="10.785781867653773"><ele>20.5</ele><time>2026-04-03T16:06:02Z</time></trkpt><trkpt lat="42.937210904828085" lon="10.78559792667091"><ele>21.0</ele><time>2026-04-03T16:06:03Z</time></trkpt><trkpt lat="42.93718070270045" lon="10.785418088007415"><ele>21.0</ele><time>2026-04-03T16:06:04Z</time></trkpt><trkpt lat="42.93715185152766" lon="10.785229842379842"><ele>21.0</ele><time>2026-04-03T16:06:05Z</time></trkpt><trkpt lat="42.93712340836556" lon="10.785042430849526"><ele>21.0</ele><time>2026-04-03T16:06:06Z</time></trkpt><trkpt lat="42.9370975243666" lon="10.784858616461621"><ele>21.0</ele><time>2026-04-03T16:06:07Z</time></trkpt><trkpt lat="42.93707004593387" lon="10.784674021922296"><ele>21.0</ele><time>2026-04-03T16:06:08Z</time></trkpt><trkpt lat="42.93704203387271" lon="10.784493913326894"><ele>21.0</ele><time>2026-04-03T16:06:09Z</time></trkpt><trkpt lat="42.937015825380556" lon="10.784318036871372"><ele>21.0</ele><time>2026-04-03T16:06:10Z</time></trkpt><trkpt lat="42.93699166742049" lon="10.78413472575348"><ele>21.0</ele><time>2026-04-03T16:06:11Z</time></trkpt><trkpt lat="42.93696928101829" lon="10.783952417731271"><ele>21.0</ele><time>2026-04-03T16:06:12Z</time></trkpt><trkpt lat="42.93694611178737" lon="10.78376445013467"><ele>21.0</ele><time>2026-04-03T16:06:13Z</time></trkpt><trkpt lat="42.93692173125978" lon="10.783578385952808"><ele>21.0</ele><time>2026-04-03T16:06:14Z</time></trkpt><trkpt lat="42.936901113327764" lon="10.783396787788009"><ele>21.0</ele><time>2026-04-03T16:06:15Z</time></trkpt><trkpt lat="42.936883555677575" lon="10.783214846103286"><ele>21.5</ele><time>2026-04-03T16:06:16Z</time></trkpt><trkpt lat="42.93686294704379" lon="10.783036374833324"><ele>22.0</ele><time>2026-04-03T16:06:17Z</time></trkpt><trkpt lat="42.93683725470702" lon="10.78285911821608"><ele>22.5</ele><time>2026-04-03T16:06:18Z</time></trkpt><trkpt lat="42.936806309530425" lon="10.782679830431805"><ele>23.0</ele><time>2026-04-03T16:06:19Z</time></trkpt><trkpt lat="42.93677697948006" lon="10.782504050697982"><ele>23.0</ele><time>2026-04-03T16:06:20Z</time></trkpt><trkpt lat="42.93674963269967" lon="10.782325119722989"><ele>23.0</ele><time>2026-04-03T16:06:21Z</time></trkpt><trkpt lat="42.93672091582447" lon="10.782142587616402"><ele>23.0</ele><time>2026-04-03T16:06:22Z</time></trkpt><trkpt lat="42.93669097311844" lon="10.781959466175334"><ele>23.0</ele><time>2026-04-03T16:06:23Z</time></trkpt><trkpt lat="42.93666105908521" lon="10.781777419288872"><ele>23.0</ele><time>2026-04-03T16:06:24Z</time></trkpt><trkpt lat="42.936630891461895" lon="10.781611556420406"><ele>23.0</ele><time>2026-04-03T16:06:25Z</time></trkpt><trkpt lat="42.93659881715023" lon="10.78143179737564"><ele>23.0</ele><time>2026-04-03T16:06:26Z</time></trkpt><trkpt lat="42.936563467068474" lon="10.78125525160086"><ele>23.0</ele><time>2026-04-03T16:06:27Z</time></trkpt><trkpt lat="42.93652653208184" lon="10.7810770716278"><ele>23.25</ele><time>2026-04-03T16:06:28Z</time></trkpt><trkpt lat="42.93649057759877" lon="10.780905211436178"><ele>23.5</ele><time>2026-04-03T16:06:29Z</time></trkpt><trkpt lat="42.93645739774706" lon="10.780725540939793"><ele>23.75</ele><time>2026-04-03T16:06:29.999Z</time></trkpt><trkpt lat="42.93643085163092" lon="10.780551616847374"><ele>24.0</ele><time>2026-04-03T16:06:30.999Z</time></trkpt><trkpt lat="42.9364051586297" lon="10.780381830870946"><ele>24.0</ele><time>2026-04-03T16:06:31.999Z</time></trkpt><trkpt lat="42.936379833239606" lon="10.780212178277196"><ele>24.0</ele><time>2026-04-03T16:06:32.999Z</time></trkpt><trkpt lat="42.93635458740481" lon="10.780042780546253"><ele>24.0</ele><time>2026-04-03T16:06:33.999Z</time></trkpt><trkpt lat="42.93632892318738" lon="10.779870908376852"><ele>24.0</ele><time>2026-04-03T16:06:34.999Z</time></trkpt><trkpt lat="42.93630328205827" lon="10.779698082687219"><ele>24.0</ele><time>2026-04-03T16:06:35.999Z</time></trkpt><trkpt lat="42.93627763178552" lon="10.779530825349017"><ele>24.0</ele><time>2026-04-03T16:06:36.999Z</time></trkpt><trkpt lat="42.93625332700834" lon="10.779376939040297"><ele>24.0</ele><time>2026-04-03T16:06:37.999Z</time></trkpt><trkpt lat="42.93622927636507" lon="10.77921579082025"><ele>24.0</ele><time>2026-04-03T16:06:38.999Z</time></trkpt><trkpt lat="42.9362054412955" lon="10.779060374885557"><ele>24.5</ele><time>2026-04-03T16:06:40Z</time></trkpt><trkpt lat="42.93617932438707" lon="10.778900742538664"><ele>25.0</ele><time>2026-04-03T16:06:41Z</time></trkpt><trkpt lat="42.936153784933786" lon="10.77874175507106"><ele>25.5</ele><time>2026-04-03T16:06:42Z</time></trkpt><trkpt lat="42.93612835714432" lon="10.778586356313655"><ele>26.0</ele><time>2026-04-03T16:06:43Z</time></trkpt><trkpt lat="42.93610459521838" lon="10.778430931106067"><ele>26.200000000000003</ele><time>2026-04-03T16:06:44Z</time></trkpt><trkpt lat="42.93608291360515" lon="10.778282354100384"><ele>26.400000000000002</ele><time>2026-04-03T16:06:45Z</time></trkpt><trkpt lat="42.93606174829895" lon="10.778135496210488"><ele>26.6</ele><time>2026-04-03T16:06:46Z</time></trkpt><trkpt lat="42.93604661837695" lon="10.778012655065005"><ele>26.8</ele><time>2026-04-03T16:06:47Z</time></trkpt><trkpt lat="42.93603296969604" lon="10.777888721946772"><ele>27.0</ele><time>2026-04-03T16:06:48Z</time></trkpt><trkpt lat="42.936027527056076" lon="10.77778265372678"><ele>26.857142857142858</ele><time>2026-04-03T16:06:49Z</time></trkpt><trkpt lat="42.93602868494934" lon="10.777685030427154"><ele>26.714285714285715</ele><time>2026-04-03T16:06:50Z</time></trkpt><trkpt lat="42.936033281556746" lon="10.77759314521623"><ele>26.57142857142857</ele><time>2026-04-03T16:06:51Z</time></trkpt><trkpt lat="42.936042152209346" lon="10.7774512428113"><ele>26.42857142857143</ele><time>2026-04-03T16:06:53Z</time></trkpt><trkpt lat="42.93605126312708" lon="10.77736090966005"><ele>26.28571428571429</ele><time>2026-04-03T16:06:56Z</time></trkpt><trkpt lat="42.93606002335048" lon="10.777269964713343"><ele>26.142857142857142</ele><time>2026-04-03T16:06:59Z</time></trkpt><trkpt lat="42.93607717067555" lon="10.777175613643108"><ele>26.0</ele><time>2026-04-03T16:07:01Z</time></trkpt><trkpt lat="42.93610810878993" lon="10.777098566526721"><ele>26.0</ele><time>2026-04-03T16:07:07Z</time></trkpt><trkpt lat="42.9361552211035" lon="10.776996435290458"><ele>26.0</ele><time>2026-04-03T16:07:09Z</time></trkpt><trkpt lat="42.93621873235817" lon="10.776876383504387"><ele>26.0</ele><time>2026-04-03T16:07:11Z</time></trkpt><trkpt lat="42.9362344467881" lon="10.776721845800534"><ele>26.0</ele><time>2026-04-03T16:07:13Z</time></trkpt><trkpt lat="42.936222116032546" lon="10.77662721245543"><ele>26.0</ele><time>2026-04-03T16:07:14Z</time></trkpt><trkpt lat="42.93619414341337" lon="10.776542306509151"><ele>25.999999999999996</ele><time>2026-04-03T16:07:15Z</time></trkpt><trkpt lat="42.936153274244795" lon="10.776462088798326"><ele>26.0</ele><time>2026-04-03T16:07:16Z</time></trkpt><trkpt lat="42.93609644166782" lon="10.776395267784794"><ele>26.0</ele><time>2026-04-03T16:07:17Z</time></trkpt><trkpt lat="42.93602769235629" lon="10.77635181812825"><ele>26.0</ele><time>2026-04-03T16:07:18Z</time></trkpt><trkpt lat="42.93594764739296" lon="10.776340200101773"><ele>25.999999999999996</ele><time>2026-04-03T16:07:19Z</time></trkpt><trkpt lat="42.93588423388288" lon="10.776370630626712"><ele>26.0</ele><time>2026-04-03T16:07:20Z</time></trkpt><trkpt lat="42.935812825556404" lon="10.776422513627283"><ele>25.999999999999996</ele><time>2026-04-03T16:07:21Z</time></trkpt><trkpt lat="42.935736140066325" lon="10.77646492451234"><ele>26.0</ele><time>2026-04-03T16:07:22Z</time></trkpt><trkpt lat="42.93564851974758" lon="10.776472941118403"><ele>26.0</ele><time>2026-04-03T16:07:23Z</time></trkpt><trkpt lat="42.93556645158047" lon="10.776442970187617"><ele>26.0</ele><time>2026-04-03T16:07:24Z</time></trkpt><trkpt lat="42.93548441141362" lon="10.776388443168493"><ele>25.999999999999996</ele><time>2026-04-03T16:07:25Z</time></trkpt><trkpt lat="42.93539865434797" lon="10.77632094023522"><ele>26.0</ele><time>2026-04-03T16:07:26Z</time></trkpt><trkpt lat="42.935321949890046" lon="10.776244885385902"><ele>26.0</ele><time>2026-04-03T16:07:27Z</time></trkpt><trkpt lat="42.93524144938042" lon="10.776161848140477"><ele>26.0</ele><time>2026-04-03T16:07:28Z</time></trkpt><trkpt lat="42.93516425205786" lon="10.776053803722885"><ele>26.0</ele><time>2026-04-03T16:07:29Z</time></trkpt><trkpt lat="42.93507342632838" lon="10.775955460698206"><ele>26.0</ele><time>2026-04-03T16:07:30Z</time></trkpt><trkpt lat="42.93497158910282" lon="10.775874440311794"><ele>26.0</ele><time>2026-04-03T16:07:31Z</time></trkpt><trkpt lat="42.934876713311944" lon="10.77577371515355"><ele>26.0</ele><time>2026-04-03T16:07:32Z</time></trkpt><trkpt lat="42.93478141677691" lon="10.775671065491537"><ele>26.0</ele><time>2026-04-03T16:07:33Z</time></trkpt><trkpt lat="42.93468619806325" lon="10.775568325165747"><ele>26.0</ele><time>2026-04-03T16:07:34Z</time></trkpt><trkpt lat="42.93459221985753" lon="10.775469128633084"><ele>26.0</ele><time>2026-04-03T16:07:35Z</time></trkpt><trkpt lat="42.93449511089445" lon="10.775367008053971"><ele>25.999999999999996</ele><time>2026-04-03T16:07:36Z</time></trkpt><trkpt lat="42.93440902305389" lon="10.77527395165152"><ele>26.0</ele><time>2026-04-03T16:07:37Z</time></trkpt><trkpt lat="42.934333012891365" lon="10.775189915696043"><ele>26.0</ele><time>2026-04-03T16:07:38Z</time></trkpt><trkpt lat="42.934266751896494" lon="10.775119085337053"><ele>26.0</ele><time>2026-04-03T16:07:39Z</time></trkpt><trkpt lat="42.934203043973575" lon="10.775050758597207"><ele>25.999999999999996</ele><time>2026-04-03T16:07:40Z</time></trkpt><trkpt lat="42.93415123731173" lon="10.774990278965978"><ele>26.0</ele><time>2026-04-03T16:07:41Z</time></trkpt><trkpt lat="42.93410619759669" lon="10.774922350132032"><ele>25.4</ele><time>2026-04-03T16:07:43Z</time></trkpt><trkpt lat="42.934043194654265" lon="10.77479628893338"><ele>24.8</ele><time>2026-04-03T16:07:47Z</time></trkpt><trkpt lat="42.93394479275797" lon="10.774731286501884"><ele>24.2</ele><time>2026-04-03T16:07:49Z</time></trkpt><trkpt lat="42.933836003185476" lon="10.774653402211523"><ele>23.599999999999998</ele><time>2026-04-03T16:07:51Z</time></trkpt><trkpt lat="42.933777308020794" lon="10.774592199079732"><ele>23.0</ele><time>2026-04-03T16:07:52Z</time></trkpt><trkpt lat="42.93371556339733" lon="10.774526221516746"><ele>23.0</ele><time>2026-04-03T16:07:53Z</time></trkpt><trkpt lat="42.93364806010256" lon="10.774453030618526"><ele>23.0</ele><time>2026-04-03T16:07:54Z</time></trkpt><trkpt lat="42.93358407436007" lon="10.77438629460012"><ele>23.0</ele><time>2026-04-03T16:07:55Z</time></trkpt><trkpt lat="42.93351607592744" lon="10.774318230651236"><ele>23.0</ele><time>2026-04-03T16:07:56Z</time></trkpt><trkpt lat="42.93344661107092" lon="10.774245027755736"><ele>23.0</ele><time>2026-04-03T16:07:57Z</time></trkpt><trkpt lat="42.93338254620112" lon="10.77417270722036"><ele>23.0</ele><time>2026-04-03T16:07:58Z</time></trkpt><trkpt lat="42.93330765243647" lon="10.774090865912832"><ele>22.599999999999998</ele><time>2026-04-03T16:07:59Z</time></trkpt><trkpt lat="42.93323515763419" lon="10.774011609503624"><ele>22.2</ele><time>2026-04-03T16:08:00Z</time></trkpt><trkpt lat="42.93316182897672" lon="10.773931523770191"><ele>21.8</ele><time>2026-04-03T16:08:01Z</time></trkpt><trkpt lat="42.93308253396579" lon="10.77384801334121"><ele>21.4</ele><time>2026-04-03T16:08:02Z</time></trkpt><trkpt lat="42.93300572684687" lon="10.773763678437781"><ele>21.0</ele><time>2026-04-03T16:08:03Z</time></trkpt><trkpt lat="42.93292373439337" lon="10.773676124087489"><ele>21.0</ele><time>2026-04-03T16:08:04Z</time></trkpt><trkpt lat="42.93284554692943" lon="10.773590290381721"><ele>21.0</ele><time>2026-04-03T16:08:05Z</time></trkpt><trkpt lat="42.932763846084924" lon="10.7735063544611"><ele>21.0</ele><time>2026-04-03T16:08:06Z</time></trkpt><trkpt lat="42.93268006611161" lon="10.773418476020396"><ele>21.0</ele><time>2026-04-03T16:08:07Z</time></trkpt><trkpt lat="42.93259412098107" lon="10.773325773981833"><ele>21.0</ele><time>2026-04-03T16:08:08Z</time></trkpt><trkpt lat="42.93251107874001" lon="10.773232750512268"><ele>20.6</ele><time>2026-04-03T16:08:09Z</time></trkpt><trkpt lat="42.932426888359295" lon="10.773139967136487"><ele>20.200000000000003</ele><time>2026-04-03T16:08:10Z</time></trkpt><trkpt lat="42.93234270718925" lon="10.77305137538181"><ele>19.799999999999997</ele><time>2026-04-03T16:08:11Z</time></trkpt><trkpt lat="42.93225807678386" lon="10.772964002556245"><ele>19.4</ele><time>2026-04-03T16:08:12Z</time></trkpt><trkpt lat="42.932172445430396" lon="10.772876674032881"><ele>19.0</ele><time>2026-04-03T16:08:13Z</time></trkpt><trkpt lat="42.93208680012367" lon="10.772783028814239"><ele>19.0</ele><time>2026-04-03T16:08:14Z</time></trkpt><trkpt lat="42.932006381550075" lon="10.772692011972334"><ele>19.0</ele><time>2026-04-03T16:08:15Z</time></trkpt><trkpt lat="42.93192472720769" lon="10.772602211243163"><ele>19.0</ele><time>2026-04-03T16:08:16Z</time></trkpt><trkpt lat="42.93184560541595" lon="10.77251830094685"><ele>19.0</ele><time>2026-04-03T16:08:17Z</time></trkpt><trkpt lat="42.93176499563997" lon="10.772433490585206"><ele>19.0</ele><time>2026-04-03T16:08:18Z</time></trkpt><trkpt lat="42.9316858244659" lon="10.772349792698659"><ele>19.2</ele><time>2026-04-03T16:08:19Z</time></trkpt><trkpt lat="42.931607599778246" lon="10.772264003350902"><ele>19.4</ele><time>2026-04-03T16:08:20Z</time></trkpt><trkpt lat="42.931529032054605" lon="10.77218021001075"><ele>19.6</ele><time>2026-04-03T16:08:21Z</time></trkpt><trkpt lat="42.93145312659202" lon="10.772100566722555"><ele>19.8</ele><time>2026-04-03T16:08:22Z</time></trkpt><trkpt lat="42.93137650322856" lon="10.772019964708537"><ele>20.0</ele><time>2026-04-03T16:08:23Z</time></trkpt><trkpt lat="42.931300045644335" lon="10.771939252169245"><ele>20.0</ele><time>2026-04-03T16:08:24Z</time></trkpt><trkpt lat="42.93122628696665" lon="10.771861384518632"><ele>20.0</ele><time>2026-04-03T16:08:25Z</time></trkpt><trkpt lat="42.93115523566996" lon="10.771787456701773"><ele>20.0</ele><time>2026-04-03T16:08:26Z</time></trkpt><trkpt lat="42.9310840577804" lon="10.771709246494593"><ele>20.0</ele><time>2026-04-03T16:08:27Z</time></trkpt><trkpt lat="42.931025955090156" lon="10.77164710835816"><ele>20.0</ele><time>2026-04-03T16:08:28Z</time></trkpt><trkpt lat="42.93097240092197" lon="10.771585185962495"><ele>20.0</ele><time>2026-04-03T16:08:29Z</time></trkpt><trkpt lat="42.93092272227831" lon="10.771525288837772"><ele>19.833333333333336</ele><time>2026-04-03T16:08:30Z</time></trkpt><trkpt lat="42.930884500737214" lon="10.77144723442004"><ele>19.666666666666668</ele><time>2026-04-03T16:08:31Z</time></trkpt><trkpt lat="42.93085372370837" lon="10.771350810880564"><ele>19.5</ele><time>2026-04-03T16:08:32Z</time></trkpt><trkpt lat="42.930822238535065" lon="10.771252307343833"><ele>19.333333333333332</ele><time>2026-04-03T16:08:33Z</time></trkpt><trkpt lat="42.93076923422204" lon="10.771176147523816"><ele>19.166666666666664</ele><time>2026-04-03T16:08:34Z</time></trkpt><trkpt lat="42.930699256603496" lon="10.77113322957501"><ele>19.0</ele><time>2026-04-03T16:08:35Z</time></trkpt><trkpt lat="42.930618456874605" lon="10.771115347616785"><ele>19.0</ele><time>2026-04-03T16:08:36Z</time></trkpt><trkpt lat="42.93053397638085" lon="10.771132282673372"><ele>19.0</ele><time>2026-04-03T16:08:37Z</time></trkpt><trkpt lat="42.93046838278848" lon="10.771031704659649"><ele>19.0</ele><time>2026-04-03T16:08:38Z</time></trkpt><trkpt lat="42.93040541100013" lon="10.770964814769288"><ele>19.0</ele><time>2026-04-03T16:08:39Z</time></trkpt><trkpt lat="42.93032601905441" lon="10.770902236251557"><ele>19.0</ele><time>2026-04-03T16:08:40Z</time></trkpt><trkpt lat="42.930253183633994" lon="10.770818706684496"><ele>19.0</ele><time>2026-04-03T16:08:41Z</time></trkpt><trkpt lat="42.930176808148" lon="10.770735971492392"><ele>19.0</ele><time>2026-04-03T16:08:42Z</time></trkpt><trkpt lat="42.93010228971574" lon="10.770657556080362"><ele>19.0</ele><time>2026-04-03T16:08:43Z</time></trkpt><trkpt lat="42.930028456795206" lon="10.770578980021353"><ele>19.0</ele><time>2026-04-03T16:08:44Z</time></trkpt><trkpt lat="42.92995025620447" lon="10.770494968586899"><ele>19.0</ele><time>2026-04-03T16:08:45Z</time></trkpt><trkpt lat="42.92988007731731" lon="10.770419058348812"><ele>18.833333333333332</ele><time>2026-04-03T16:08:46Z</time></trkpt><trkpt lat="42.929818999510644" lon="10.770353797108669"><ele>18.666666666666664</ele><time>2026-04-03T16:08:47Z</time></trkpt><trkpt lat="42.929759134011405" lon="10.770285183820636"><ele>18.5</ele><time>2026-04-03T16:08:48Z</time></trkpt><trkpt lat="42.92969013768137" lon="10.770218433561704"><ele>18.333333333333332</ele><time>2026-04-03T16:08:49Z</time></trkpt><trkpt lat="42.92962569787208" lon="10.770148185815609"><ele>18.166666666666668</ele><time>2026-04-03T16:08:50Z</time></trkpt><trkpt lat="42.92956082885594" lon="10.770079268338534"><ele>18.0</ele><time>2026-04-03T16:08:51Z</time></trkpt><trkpt lat="42.92949663354471" lon="10.77001152582921"><ele>17.833333333333332</ele><time>2026-04-03T16:08:52Z</time></trkpt><trkpt lat="42.929438215632395" lon="10.769948044496736"><ele>17.666666666666668</ele><time>2026-04-03T16:08:53Z</time></trkpt><trkpt lat="42.929377791957414" lon="10.769883375939862"><ele>17.5</ele><time>2026-04-03T16:08:54Z</time></trkpt><trkpt lat="42.929313689966605" lon="10.769818798025758"><ele>17.333333333333336</ele><time>2026-04-03T16:08:55Z</time></trkpt><trkpt lat="42.929255125293516" lon="10.769752440259953"><ele>17.166666666666668</ele><time>2026-04-03T16:08:56Z</time></trkpt><trkpt lat="42.92919666316129" lon="10.769690162693498"><ele>17.0</ele><time>2026-04-03T16:08:57Z</time></trkpt><trkpt lat="42.929133894088885" lon="10.769623203908267"><ele>16.666666666666668</ele><time>2026-04-03T16:08:58Z</time></trkpt><trkpt lat="42.92907300059183" lon="10.769558048393243"><ele>16.333333333333336</ele><time>2026-04-03T16:08:59Z</time></trkpt><trkpt lat="42.929009816770495" lon="10.769488438694735"><ele>16.0</ele><time>2026-04-03T16:09:00Z</time></trkpt><trkpt lat="42.9289422035483" lon="10.769417294306301"><ele>15.666666666666668</ele><time>2026-04-03T16:09:01Z</time></trkpt><trkpt lat="42.928871045491015" lon="10.769338473143714"><ele>15.333333333333334</ele><time>2026-04-03T16:09:02Z</time></trkpt><trkpt lat="42.92880498865981" lon="10.769272131647533"><ele>15.0</ele><time>2026-04-03T16:09:03Z</time></trkpt><trkpt lat="42.92874144576021" lon="10.769200723166879"><ele>15.0</ele><time>2026-04-03T16:09:04Z</time></trkpt><trkpt lat="42.92868169815183" lon="10.769136725019107"><ele>15.0</ele><time>2026-04-03T16:09:05Z</time></trkpt><trkpt lat="42.9286251843477" lon="10.769070923430112"><ele>15.0</ele><time>2026-04-03T16:09:06Z</time></trkpt><trkpt lat="42.92852178108414" lon="10.768971159945048"><ele>15.0</ele><time>2026-04-03T16:09:08Z</time></trkpt><trkpt lat="42.928423904201736" lon="10.768866349733786"><ele>15.0</ele><time>2026-04-03T16:09:10Z</time></trkpt><trkpt lat="42.92837242884588" lon="10.768808096314023"><ele>15.0</ele><time>2026-04-03T16:09:11Z</time></trkpt><trkpt lat="42.92831739529541" lon="10.768748158407638"><ele>15.0</ele><time>2026-04-03T16:09:12Z</time></trkpt><trkpt lat="42.92825638077289" lon="10.768682565914157"><ele>15.0</ele><time>2026-04-03T16:09:13Z</time></trkpt><trkpt lat="42.928196137765646" lon="10.76862119980533"><ele>15.0</ele><time>2026-04-03T16:09:14Z</time></trkpt><trkpt lat="42.928130483095494" lon="10.768553224247846"><ele>15.0</ele><time>2026-04-03T16:09:15Z</time></trkpt><trkpt lat="42.92806963186736" lon="10.76848024933217"><ele>15.0</ele><time>2026-04-03T16:09:16Z</time></trkpt><trkpt lat="42.92801457947119" lon="10.768396648489396"><ele>14.666666666666666</ele><time>2026-04-03T16:09:17Z</time></trkpt><trkpt lat="42.92797398796232" lon="10.76830384479779"><ele>14.333333333333332</ele><time>2026-04-03T16:09:18Z</time></trkpt><trkpt lat="42.92794934309021" lon="10.768203097708321"><ele>14.0</ele><time>2026-04-03T16:09:19Z</time></trkpt><trkpt lat="42.92792606524642" lon="10.768100572962588"><ele>13.666666666666666</ele><time>2026-04-03T16:09:19.999Z</time></trkpt><trkpt lat="42.92790236027152" lon="10.76801167710399"><ele>13.333333333333332</ele><time>2026-04-03T16:09:20.999Z</time></trkpt><trkpt lat="42.927866409622524" lon="10.767912090512878"><ele>13.0</ele><time>2026-04-03T16:09:21.999Z</time></trkpt><trkpt lat="42.92781679275548" lon="10.767818298908608"><ele>12.999999999999998</ele><time>2026-04-03T16:09:22.999Z</time></trkpt><trkpt lat="42.927752884617234" lon="10.767745469440102"><ele>13.0</ele><time>2026-04-03T16:09:23.999Z</time></trkpt><trkpt lat="42.927678387121546" lon="10.767683637031586"><ele>13.0</ele><time>2026-04-03T16:09:24.999Z</time></trkpt><trkpt lat="42.927593023207514" lon="10.767645785429657"><ele>13.0</ele><time>2026-04-03T16:09:25.999Z</time></trkpt><trkpt lat="42.927503148188045" lon="10.76761827637402"><ele>12.999999999999998</ele><time>2026-04-03T16:09:26.999Z</time></trkpt><trkpt lat="42.92742066812814" lon="10.767600027969612"><ele>13.0</ele><time>2026-04-03T16:09:27.999Z</time></trkpt><trkpt lat="42.927342293647165" lon="10.767567597465593"><ele>12.666666666666666</ele><time>2026-04-03T16:09:28.999Z</time></trkpt><trkpt lat="42.9272384048495" lon="10.767530166032598"><ele>12.333333333333332</ele><time>2026-04-03T16:09:29.999Z</time></trkpt><trkpt lat="42.927174532373066" lon="10.767471780232107"><ele>12.0</ele><time>2026-04-03T16:09:30.999Z</time></trkpt><trkpt lat="42.92710542494047" lon="10.767397939993899"><ele>11.666666666666666</ele><time>2026-04-03T16:09:31.999Z</time></trkpt><trkpt lat="42.92704576199484" lon="10.767326419103215"><ele>11.333333333333332</ele><time>2026-04-03T16:09:32.999Z</time></trkpt><trkpt lat="42.92698666744135" lon="10.76726966323886"><ele>11.0</ele><time>2026-04-03T16:09:33.999Z</time></trkpt><trkpt lat="42.92692853662011" lon="10.767218637312958"><ele>11.0</ele><time>2026-04-03T16:09:34.999Z</time></trkpt><trkpt lat="42.9268492068483" lon="10.767151692766332"><ele>11.0</ele><time>2026-04-03T16:09:36.999Z</time></trkpt><trkpt lat="42.92678926356757" lon="10.767094260151264"><ele>11.0</ele><time>2026-04-03T16:09:38.999Z</time></trkpt><trkpt lat="42.926725494051304" lon="10.767002125895349"><ele>11.0</ele><time>2026-04-03T16:09:40.999Z</time></trkpt><trkpt lat="42.9266749841903" lon="10.76693124097637"><ele>11.0</ele><time>2026-04-03T16:09:42.999Z</time></trkpt><trkpt lat="42.92659252316283" lon="10.76691099049596"><ele>11.0</ele><time>2026-04-03T16:09:44.999Z</time></trkpt><trkpt lat="42.92648225647093" lon="10.76687513267158"><ele>11.166666666666666</ele><time>2026-04-03T16:09:46.999Z</time></trkpt><trkpt lat="42.92637925878922" lon="10.766783612388826"><ele>11.333333333333332</ele><time>2026-04-03T16:09:48.999Z</time></trkpt><trkpt lat="42.9263291303885" lon="10.766730530238723"><ele>11.5</ele><time>2026-04-03T16:09:49.999Z</time></trkpt><trkpt lat="42.92627267934121" lon="10.766674967691626"><ele>11.666666666666666</ele><time>2026-04-03T16:09:50.999Z</time></trkpt><trkpt lat="42.92622246189988" lon="10.766617996930917"><ele>11.833333333333334</ele><time>2026-04-03T16:09:51.999Z</time></trkpt><trkpt lat="42.92617291589149" lon="10.766559777853193"><ele>12.0</ele><time>2026-04-03T16:09:52.999Z</time></trkpt><trkpt lat="42.92611990747637" lon="10.766498811536904"><ele>12.0</ele><time>2026-04-03T16:09:53.999Z</time></trkpt><trkpt lat="42.926068557229335" lon="10.76643671121162"><ele>12.0</ele><time>2026-04-03T16:09:54.999Z</time></trkpt><trkpt lat="42.92601465035423" lon="10.766367337741178"><ele>12.0</ele><time>2026-04-03T16:09:55.999Z</time></trkpt><trkpt lat="42.925966436335585" lon="10.766302363975782"><ele>12.0</ele><time>2026-04-03T16:09:56.999Z</time></trkpt><trkpt lat="42.92591534015811" lon="10.766225372640038"><ele>12.0</ele><time>2026-04-03T16:09:57.999Z</time></trkpt><trkpt lat="42.92586401536944" lon="10.766141553109575"><ele>12.0</ele><time>2026-04-03T16:09:58.999Z</time></trkpt><trkpt lat="42.925808649276924" lon="10.76604868852736"><ele>11.833333333333334</ele><time>2026-04-03T16:09:59.999Z</time></trkpt><trkpt lat="42.92575720006785" lon="10.76595038693956"><ele>11.666666666666666</ele><time>2026-04-03T16:10:00.999Z</time></trkpt><trkpt lat="42.92571065444495" lon="10.765860741219845"><ele>11.5</ele><time>2026-04-03T16:10:01.999Z</time></trkpt><trkpt lat="42.92567474323538" lon="10.765785519490347"><ele>11.333333333333332</ele><time>2026-04-03T16:10:02.999Z</time></trkpt><trkpt lat="42.925638394670905" lon="10.765705519793794"><ele>11.166666666666666</ele><time>2026-04-03T16:10:03.999Z</time></trkpt><trkpt lat="42.9255913097069" lon="10.765614526132477"><ele>11.0</ele><time>2026-04-03T16:10:04.999Z</time></trkpt><trkpt lat="42.92553994052174" lon="10.765516601487185"><ele>11.0</ele><time>2026-04-03T16:10:05.999Z</time></trkpt><trkpt lat="42.92549395572277" lon="10.765426457244628"><ele>11.0</ele><time>2026-04-03T16:10:06.999Z</time></trkpt><trkpt lat="42.92544420378423" lon="10.765324781116226"><ele>11.0</ele><time>2026-04-03T16:10:07.999Z</time></trkpt><trkpt lat="42.92539454726571" lon="10.765224123827787"><ele>11.0</ele><time>2026-04-03T16:10:08.999Z</time></trkpt><trkpt lat="42.92534637215758" lon="10.765123978073596"><ele>11.0</ele><time>2026-04-03T16:10:09.999Z</time></trkpt><trkpt lat="42.92530180335349" lon="10.765029983057486"><ele>11.0</ele><time>2026-04-03T16:10:10.999Z</time></trkpt><trkpt lat="42.92526430898243" lon="10.764952053682773"><ele>10.8</ele><time>2026-04-03T16:10:11.999Z</time></trkpt><trkpt lat="42.92520550067138" lon="10.764816082901735"><ele>10.600000000000001</ele><time>2026-04-03T16:10:13.999Z</time></trkpt><trkpt lat="42.92517593591034" lon="10.764725562052146"><ele>10.4</ele><time>2026-04-03T16:10:15.999Z</time></trkpt><trkpt lat="42.925162081321496" lon="10.764631417424074"><ele>10.2</ele><time>2026-04-03T16:10:29.999Z</time></trkpt><trkpt lat="42.92514065167291" lon="10.764501540524371"><ele>10.0</ele><time>2026-04-03T16:10:31.999Z</time></trkpt><trkpt lat="42.925046301706" lon="10.76441232958517"><ele>9.0</ele><time>2026-04-03T16:10:33.999Z</time></trkpt></trkseg></trk></gpx>